# Wetter Temperatur Luftdruck Luftfeuchtigkeit Sichtweite Windgeschwindigkeit Windrichtung Zeit
1 Clear 38 1010 12 10000 5.66 320 12:22 22.04.2021
2 Clear 37 1011 15 10000 4.63 320 11:45 22.04.2021
3 Clear 37 1011 15 10000 4.63 320 11:23 22.04.2021
4 Clear 38 1011 18 10000 5.14 310 10:46 22.04.2021
5 Clear 38 1011 18 10000 5.14 310 10:24 22.04.2021
6 Clear 38 1011 12 10000 2.57 350 09:47 22.04.2021
7 Clear 38 1011 12 10000 2.57 350 09:24 22.04.2021
8 Clear 34 1012 14 10000 0.51 0 08:39 22.04.2021
9 Clear 34 1012 14 10000 0.51 0 08:21 22.04.2021
10 Clear 32 1012 19 10000 1.54 160 07:45 22.04.2021
11 Clear 32 1012 19 10000 1.54 160 07:24 22.04.2021
12 Clear 28 1011 26 10000 1.54 160 06:27 22.04.2021
13 Clear 26 1011 36 10000 1.54 80 05:26 22.04.2021
14 Clouds 26 1010 39 9000 2.06 130 04:30 22.04.2021
15 Clear 27 1010 54 10000 1.54 0 00:57 22.04.2021
16 Clear 27 1011 61 10000 3.09 100 23:48 21.04.2021
17 Clear 27 1011 61 10000 3.09 100 23:28 21.04.2021
18 Clear 28 1011 54 10000 1.54 170 22:44 21.04.2021
19 Clear 28 1011 54 10000 1.54 170 22:24 21.04.2021
20 Clear 28 1011 58 10000 1.54 70 21:49 21.04.2021
21 Clear 29 1011 58 10000 1.54 70 21:24 21.04.2021
22 Clear 29 1011 54 10000 1.54 90 20:58 21.04.2021
23 Clear 29 1011 54 10000 1.54 90 20:21 21.04.2021
24 Clear 29 1010 48 10000 3.09 320 19:43 21.04.2021
25 Clear 29 1010 48 10000 3.09 320 19:24 21.04.2021
26 Clear 29 1010 58 10000 3.09 340 18:46 21.04.2021
27 Clear 29 1010 58 10000 3.09 340 18:27 21.04.2021
28 Clear 30 1009 58 10000 4.63 340 17:48 21.04.2021
29 Clear 30 1009 58 10000 4.63 340 17:25 21.04.2021
30 Clear 30 1009 58 10000 4.63 340 17:25 21.04.2021
31 Clear 30 1009 58 10000 4.63 340 17:25 21.04.2021
32 Clear 31 1009 51 10000 6.17 320 16:55 21.04.2021
33 Clear 33 1009 31 10000 6.69 330 15:59 21.04.2021
34 Clear 33 1009 31 10000 6.69 330 15:41 21.04.2021
35 Clear 35 1009 23 10000 6.17 320 14:58 21.04.2021
36 Clear 35 1009 23 10000 6.17 320 14:40 21.04.2021
37 Clear 35 1009 23 10000 6.17 320 14:18 21.04.2021
38 Clear 36 1009 15 10000 6.17 320 13:40 21.04.2021
39 Clear 36 1009 15 10000 6.17 320 13:21 21.04.2021
40 Clear 37 1009 15 10000 5.66 320 12:31 21.04.2021
41 Clear 37 1010 13 10000 4.63 320 11:50 21.04.2021
42 Clear 37 1010 13 10000 4.63 320 11:29 21.04.2021
43 Clear 37 1011 13 10000 3.09 310 10:51 21.04.2021
44 Clear 37 1011 13 10000 3.09 310 10:33 21.04.2021
45 Clear 35 1011 18 10000 1.54 0 09:51 21.04.2021
46 Clear 34 1011 18 10000 1.54 0 09:19 21.04.2021
47 Clear 32 1012 22 10000 1.03 0 08:40 21.04.2021
48 Clear 30 1012 22 10000 1.03 0 08:20 21.04.2021
49 Clear 29 1012 42 10000 2.06 170 07:31 21.04.2021
50 Clear 26 1011 61 7000 3.09 170 06:56 21.04.2021
51 Clear 25 1010 69 6000 1.03 230 05:20 21.04.2021
52 Clear 26 1009 61 10000 0.51 0 00:58 21.04.2021
53 Clear 26 1009 65 10000 1.54 340 23:51 20.04.2021
54 Clear 26 1009 65 10000 1.54 340 23:25 20.04.2021
55 Clear 26 1009 65 10000 2.06 350 22:41 20.04.2021
56 Clear 26 1009 65 10000 2.06 350 22:21 20.04.2021
57 Clear 27 1009 61 10000 2.06 240 21:47 20.04.2021
58 Clear 27 1009 61 10000 2.06 240 21:25 20.04.2021
59 Clear 28 1009 57 10000 2.06 230 20:43 20.04.2021
60 Clear 28 1009 57 10000 2.06 230 20:24 20.04.2021
61 Clear 28 1009 57 10000 2.57 350 19:55 20.04.2021
62 Clear 28 1009 57 10000 2.57 350 19:37 20.04.2021
63 Clear 28 1009 57 10000 2.57 350 19:18 20.04.2021
64 Clear 28 1008 54 10000 4.63 320 18:35 20.04.2021
65 Clear 28 1008 54 10000 4.63 320 18:35 20.04.2021
66 Clear 29 1008 54 10000 5.66 320 17:46 20.04.2021
67 Clear 29 1008 54 10000 5.66 320 17:27 20.04.2021
68 Clear 29 1008 54 10000 5.14 310 16:48 20.04.2021
69 Clear 30 1008 48 10000 4.12 290 15:53 20.04.2021
70 Clear 30 1008 48 10000 4.12 290 15:29 20.04.2021
71 Clear 31 1008 45 10000 5.14 330 14:57 20.04.2021
72 Clear 31 1008 45 10000 5.14 330 14:33 20.04.2021
73 Clear 31 1008 48 10000 6.69 320 13:44 20.04.2021
74 Clear 31 1008 48 10000 6.69 320 13:18 20.04.2021
75 Clear 31 1009 40 10000 6.17 310 12:41 20.04.2021
76 Clear 31 1009 40 10000 6.17 310 12:20 20.04.2021
77 Clear 31 1009 40 10000 6.17 310 12:20 20.04.2021
78 Clear 31 1009 37 10000 4.12 310 11:42 20.04.2021
79 Clear 31 1009 37 10000 4.12 310 11:21 20.04.2021
80 Clear 31 1010 42 10000 4.12 280 10:43 20.04.2021
81 Clear 31 1010 42 10000 4.12 280 10:23 20.04.2021
82 Clear 31 1011 37 10000 2.57 280 09:28 20.04.2021
83 Clear 30 1011 42 10000 1.54 250 08:55 20.04.2021
84 Clear 29 1011 42 10000 1.54 250 08:20 20.04.2021
85 Clear 27 1011 54 10000 1.54 230 07:40 20.04.2021
86 Clear 27 1011 54 10000 1.54 230 07:40 20.04.2021
87 Clear 27 1011 54 10000 1.54 230 07:40 20.04.2021
88 Clear 25 1010 53 10000 2.57 240 06:37 20.04.2021
89 Clear 23 1010 53 10000 1.54 220 05:38 20.04.2021
90 Clear 22 1009 56 10000 1.54 220 04:41 20.04.2021
91 Clear 25 1009 57 10000 2.57 160 01:26 20.04.2021
92 Clear 25 1009 57 10000 1.54 190 00:34 20.04.2021
93 Clear 25 1009 57 10000 2.57 200 23:36 19.04.2021
94 Clear 26 1010 54 10000 1.54 220 22:56 19.04.2021
95 Clear 26 1010 54 10000 1.54 220 22:32 19.04.2021
96 Clear 26 1010 50 10000 1.54 230 21:48 19.04.2021
97 Clear 27 1010 50 10000 1.54 230 21:27 19.04.2021
98 Clear 28 1010 47 10000 1.54 0 20:46 19.04.2021
99 Clear 28 1010 47 10000 1.54 0 20:24 19.04.2021
100 Clear 28 1010 51 10000 3.6 280 19:58 19.04.2021
101 Clear 28 1010 51 10000 3.6 280 19:39 19.04.2021
102 Clear 28 1010 51 10000 3.6 280 19:18 19.04.2021
103 Clear 28 1010 44 10000 3.6 270 18:44 19.04.2021
104 Clear 28 1010 44 10000 3.6 270 18:21 19.04.2021
105 Clear 28 1010 44 10000 3.6 270 18:21 19.04.2021
106 Clear 29 1009 32 10000 3.6 290 17:47 19.04.2021
107 Clear 30 1009 32 10000 3.6 290 17:26 19.04.2021
108 Clear 31 1009 19 10000 4.12 290 16:49 19.04.2021
109 Clear 31 1009 19 10000 4.12 290 16:30 19.04.2021
110 Clear 31 1008 19 10000 4.63 320 15:44 19.04.2021
111 Clear 31 1008 19 10000 4.63 320 15:24 19.04.2021
112 Clear 32 1009 14 10000 6.17 330 14:52 19.04.2021
113 Clear 32 1009 14 10000 6.17 330 14:32 19.04.2021
114 Clear 32 1009 18 10000 5.14 320 13:53 19.04.2021
115 Clear 31 1009 18 10000 5.14 320 13:28 19.04.2021
116 Clear 31 1010 18 10000 5.66 320 12:49 19.04.2021
117 Clear 31 1010 18 10000 5.66 320 12:28 19.04.2021
118 Clear 31 1010 20 10000 4.12 310 11:59 19.04.2021
119 Clear 31 1010 20 10000 4.12 310 11:59 19.04.2021
120 Clear 31 1010 20 10000 4.12 310 11:39 19.04.2021
121 Clear 31 1010 20 10000 4.12 310 11:19 19.04.2021
122 Clear 31 1011 20 10000 5.66 310 10:43 19.04.2021
123 Clear 30 1011 20 10000 5.66 310 10:18 19.04.2021
124 Clear 30 1011 26 8000 2.57 280 09:42 19.04.2021
125 Clear 29 1011 26 8000 2.57 280 09:23 19.04.2021
126 Clear 28 1012 32 8000 2.57 210 08:33 19.04.2021
127 Clear 26 1012 47 8000 2.57 220 07:50 19.04.2021
128 Clear 26 1012 47 8000 2.57 220 07:21 19.04.2021
129 Clear 24 1012 33 10000 2.57 220 06:47 19.04.2021
130 Clear 23 1011 38 10000 2.57 200 04:21 19.04.2021
131 Clear 24 1010 41 10000 3.6 210 01:49 19.04.2021
132 Clear 25 1010 38 10000 2.57 220 00:34 19.04.2021
133 Clear 26 1011 39 10000 1.54 190 23:21 18.04.2021
134 Clear 26 1011 41 10000 1.03 220 22:57 18.04.2021
135 Clear 26 1011 41 10000 1.03 220 22:31 18.04.2021
136 Clear 27 1012 30 10000 2.06 270 21:51 18.04.2021
137 Clear 26 1012 30 10000 2.06 270 21:28 18.04.2021
138 Clear 27 1012 24 10000 1.03 0 20:43 18.04.2021
139 Clear 27 1012 24 10000 1.03 0 20:24 18.04.2021
140 Clear 28 1012 28 10000 2.06 210 19:56 18.04.2021
141 Clear 28 1012 28 10000 2.06 210 19:37 18.04.2021
142 Clear 28 1012 28 10000 2.06 210 19:18 18.04.2021
143 Clear 29 1012 28 10000 1.54 210 18:39 18.04.2021
144 Clear 29 1012 28 10000 1.54 210 18:21 18.04.2021
145 Clouds 30 1012 28 8000 2.06 230 17:45 18.04.2021
146 Clouds 30 1012 28 8000 2.06 230 17:26 18.04.2021
147 Clouds 31 1012 22 7000 2.57 280 16:45 18.04.2021
148 Clouds 31 1012 22 7000 2.57 280 16:23 18.04.2021
149 Clouds 31 1011 19 7000 3.09 290 15:43 18.04.2021
150 Clouds 31 1011 19 7000 3.09 290 15:24 18.04.2021
151 Clouds 31 1012 22 7000 4.63 300 14:45 18.04.2021
152 Clouds 31 1012 22 7000 4.63 300 14:20 18.04.2021
153 Clear 31 1012 22 10000 5.14 290 13:54 18.04.2021
154 Clear 31 1012 22 10000 5.14 290 13:32 18.04.2021
155 Clear 31 1013 27 10000 5.14 280 12:49 18.04.2021
156 Clear 31 1013 27 10000 5.14 280 12:24 18.04.2021
157 Clear 31 1013 25 10000 4.63 270 11:41 18.04.2021
158 Clear 31 1013 25 10000 4.63 270 11:20 18.04.2021
159 Clear 31 1014 22 10000 6.17 300 10:46 18.04.2021
160 Clear 31 1014 22 10000 6.17 300 10:21 18.04.2021
161 Clear 30 1014 28 10000 3.6 250 09:45 18.04.2021
162 Clear 29 1014 28 10000 3.6 250 09:26 18.04.2021
163 Clear 29 1014 28 10000 3.6 250 09:26 18.04.2021
164 Clear 29 1014 32 10000 3.6 210 08:54 18.04.2021
165 Clear 27 1014 32 10000 3.6 210 08:29 18.04.2021
166 Clear 26 1014 47 10000 4.63 210 07:53 18.04.2021
167 Clear 25 1014 47 10000 4.63 210 07:35 18.04.2021
168 Clear 23 1013 64 10000 3.09 190 05:39 18.04.2021
169 Clear 23 1013 64 10000 3.09 190 05:21 18.04.2021
170 Clear 23 1011 64 10000 2.57 170 02:24 18.04.2021
171 Clear 23 1011 64 10000 3.6 180 01:31 18.04.2021
172 Clear 24 1012 60 10000 2.57 180 00:28 18.04.2021
173 Clear 25 1012 65 10000 2.57 200 23:27 17.04.2021
174 Clear 25 1013 65 10000 1.54 240 22:49 17.04.2021
175 Clear 25 1013 65 10000 1.54 240 22:49 17.04.2021
176 Clear 25 1013 65 10000 1.54 240 22:29 17.04.2021
177 Clear 26 1013 61 10000 3.09 260 21:45 17.04.2021
178 Clear 26 1013 61 10000 3.09 260 21:24 17.04.2021
179 Clear 26 1013 57 10000 3.6 260 20:41 17.04.2021
180 Clear 26 1013 57 10000 3.6 260 20:23 17.04.2021
181 Clear 26 1012 57 10000 3.6 270 19:42 17.04.2021
182 Clear 26 1012 57 10000 3.6 270 19:20 17.04.2021
183 Clear 27 1012 50 10000 3.6 260 18:49 17.04.2021
184 Clear 27 1012 50 10000 3.6 260 18:23 17.04.2021
185 Clear 27 1011 47 10000 3.09 270 17:42 17.04.2021
186 Clear 28 1011 39 10000 3.6 270 16:58 17.04.2021
187 Clear 28 1011 39 10000 3.6 270 16:39 17.04.2021
188 Clear 28 1011 39 10000 3.6 270 16:19 17.04.2021
189 Clear 29 1010 32 10000 5.14 300 15:22 17.04.2021
190 Clear 30 1010 28 10000 5.66 280 14:43 17.04.2021
191 Clear 30 1010 28 10000 5.66 280 14:19 17.04.2021
192 Clear 30 1010 35 10000 6.17 300 13:42 17.04.2021
193 Clear 30 1011 25 10000 5.66 290 12:48 17.04.2021
194 Clear 30 1011 25 10000 5.66 290 12:23 17.04.2021
195 Clear 31 1012 27 10000 4.63 290 11:51 17.04.2021
196 Clear 30 1012 27 10000 4.63 290 11:32 17.04.2021
197 Clear 30 1012 32 10000 3.6 290 10:48 17.04.2021
198 Clear 29 1012 32 10000 3.6 290 10:29 17.04.2021
199 Clear 29 1013 34 10000 4.12 270 09:46 17.04.2021
200 Clear 28 1013 44 10000 2.57 250 08:54 17.04.2021
201 Clear 27 1013 44 10000 2.57 250 08:28 17.04.2021
202 Clear 26 1013 57 10000 2.57 230 07:45 17.04.2021
203 Clear 22 1011 73 10000 3.6 200 04:51 17.04.2021
204 Clear 23 1010 68 10000 3.6 200 03:40 17.04.2021
205 Clear 26 1010 61 10000 3.6 260 00:55 17.04.2021
206 Clear 26 1010 61 10000 3.6 260 00:30 17.04.2021
207 Clear 26 1010 61 10000 3.6 260 00:30 17.04.2021
208 Clear 26 1010 61 10000 3.09 250 23:55 16.04.2021
209 Clear 26 1010 61 10000 3.09 250 23:33 16.04.2021
210 Clear 26 1010 61 10000 2.06 270 22:51 16.04.2021
211 Clear 26 1010 61 10000 2.06 270 22:22 16.04.2021
212 Clear 27 1011 57 10000 3.09 270 21:56 16.04.2021
213 Clear 27 1011 57 10000 3.09 270 21:38 16.04.2021
214 Clear 27 1011 57 10000 4.12 250 20:55 16.04.2021
215 Clear 27 1011 57 10000 4.12 250 20:35 16.04.2021
216 Clear 27 1010 57 10000 4.12 290 19:56 16.04.2021
217 Clear 27 1010 57 10000 4.12 290 19:37 16.04.2021
218 Clear 27 1010 57 10000 4.12 260 18:47 16.04.2021
219 Clear 28 1010 57 10000 4.12 260 18:21 16.04.2021
220 Clear 28 1010 54 10000 5.66 280 17:47 16.04.2021
221 Clear 28 1010 54 10000 5.66 280 17:47 16.04.2021
222 Clear 28 1010 54 10000 5.66 280 17:19 16.04.2021
223 Clear 28 1009 54 10000 5.14 280 16:44 16.04.2021
224 Clear 28 1009 54 10000 5.14 280 16:26 16.04.2021
225 Clear 29 1009 54 10000 5.66 270 15:52 16.04.2021
226 Clear 29 1009 54 10000 5.66 270 15:28 16.04.2021
227 Clear 30 1009 48 10000 6.17 290 14:43 16.04.2021
228 Clear 30 1009 48 10000 6.17 290 14:20 16.04.2021
229 Clear 30 1009 51 10000 6.69 280 13:54 16.04.2021
230 Clear 30 1009 51 10000 6.69 280 13:21 16.04.2021
231 Clear 30 1010 51 10000 6.17 280 12:51 16.04.2021
232 Clear 30 1010 51 10000 6.17 280 12:29 16.04.2021
233 Clear 31 1010 45 10000 6.17 290 11:58 16.04.2021
234 Clear 31 1010 45 10000 6.17 290 11:27 16.04.2021
235 Clear 31 1011 45 10000 5.66 280 10:59 16.04.2021
236 Clear 31 1011 45 10000 5.66 280 10:39 16.04.2021
237 Clear 31 1011 45 10000 5.66 280 10:19 16.04.2021
238 Clear 30 1011 42 10000 5.66 290 09:43 16.04.2021
239 Clear 30 1011 42 10000 5.66 290 09:20 16.04.2021
240 Clear 30 1011 37 10000 4.12 270 08:41 16.04.2021
241 Clear 28 1011 37 10000 4.12 270 08:18 16.04.2021
242 Clear 28 1011 54 10000 4.12 220 07:37 16.04.2021
243 Clear 26 1010 65 10000 4.12 210 06:59 16.04.2021
244 Clear 25 1010 65 10000 4.12 210 06:24 16.04.2021
245 Clear 25 1009 73 10000 3.09 200 04:23 16.04.2021
246 Clear 26 1008 65 10000 2.57 230 01:37 16.04.2021
247 Clear 27 1008 61 10000 2.06 240 00:41 16.04.2021
248 Clear 27 1008 61 10000 2.06 240 00:20 16.04.2021
249 Clear 27 1009 61 10000 2.06 240 23:42 15.04.2021
250 Clear 27 1009 61 10000 2.06 240 23:42 15.04.2021
251 Clear 27 1009 61 10000 2.06 240 23:23 15.04.2021
252 Clear 28 1009 61 10000 3.6 260 22:46 15.04.2021
253 Clear 28 1009 61 10000 3.6 260 22:23 15.04.2021
254 Clear 28 1009 57 10000 3.6 270 21:43 15.04.2021
255 Clear 28 1009 57 10000 3.6 270 21:24 15.04.2021
256 Clear 29 1009 54 10000 4.12 0 20:45 15.04.2021
257 Clear 29 1009 54 10000 4.12 0 20:25 15.04.2021
258 Clear 29 1009 51 10000 5.14 300 19:47 15.04.2021
259 Clear 29 1009 51 10000 5.14 300 19:27 15.04.2021
260 Clear 30 1009 48 10000 4.63 290 18:44 15.04.2021
261 Clear 30 1009 48 10000 4.63 290 18:21 15.04.2021
262 Clear 31 1008 45 10000 3.6 280 17:55 15.04.2021
263 Clear 31 1008 45 10000 3.6 280 17:37 15.04.2021
264 Clear 31 1008 45 10000 3.6 280 17:18 15.04.2021
265 Clear 32 1007 37 10000 5.66 290 16:42 15.04.2021
266 Clear 32 1007 37 10000 5.66 290 16:22 15.04.2021
267 Clear 34 1007 27 10000 5.66 310 15:45 15.04.2021
268 Clear 34 1007 27 10000 5.66 310 15:26 15.04.2021
269 Clear 35 1008 23 10000 6.17 310 14:41 15.04.2021
270 Clear 35 1008 23 10000 6.17 310 14:23 15.04.2021
271 Clear 35 1008 23 10000 6.17 310 14:23 15.04.2021
272 Clear 34 1008 27 10000 7.2 320 13:42 15.04.2021
273 Clear 34 1008 27 10000 7.2 320 13:19 15.04.2021
274 Clear 34 1009 33 10000 6.17 310 12:42 15.04.2021
275 Clear 34 1009 33 10000 6.17 310 12:21 15.04.2021
276 Clear 35 1009 28 10000 4.63 280 11:46 15.04.2021
277 Clear 35 1009 28 10000 4.63 280 11:24 15.04.2021
278 Clear 34 1010 29 10000 4.12 290 10:55 15.04.2021
279 Clear 34 1010 29 10000 4.12 290 10:28 15.04.2021
280 Clear 34 1010 26 10000 3.09 260 09:50 15.04.2021
281 Clear 33 1010 26 10000 3.09 260 09:28 15.04.2021
282 Clear 32 1010 27 10000 2.06 260 08:49 15.04.2021
283 Clear 31 1010 27 10000 2.06 260 08:23 15.04.2021
284 Clear 29 1010 28 10000 2.06 220 07:25 15.04.2021
285 Clear 29 1010 30 10000 2.57 230 06:49 15.04.2021
286 Clear 28 1010 30 10000 2.57 230 06:30 15.04.2021
287 Clear 29 1009 32 10000 1.54 210 04:52 15.04.2021
288 Clear 29 1008 28 10000 1.54 120 02:51 15.04.2021
289 Clear 29 1008 27 10000 2.06 60 23:44 14.04.2021
290 Clear 29 1008 27 10000 2.06 60 23:25 14.04.2021
291 Clear 30 1008 23 10000 3.09 60 22:47 14.04.2021
292 Clear 30 1008 23 10000 3.09 60 22:27 14.04.2021
293 Clear 31 1009 22 10000 1.54 50 21:51 14.04.2021
294 Clear 31 1009 22 10000 1.54 50 21:32 14.04.2021
295 Clear 32 1009 22 10000 2.06 70 20:58 14.04.2021
296 Clear 32 1009 22 10000 2.06 70 20:34 14.04.2021
297 Clear 32 1008 20 10000 2.57 60 19:55 14.04.2021
298 Clear 32 1008 20 10000 2.57 60 19:36 14.04.2021
299 Clear 32 1008 20 10000 2.57 60 19:18 14.04.2021
300 Clear 33 1008 22 10000 2.06 50 18:46 14.04.2021
301 Clear 33 1008 22 10000 2.06 50 18:18 14.04.2021
302 Clear 35 1007 18 10000 3.6 30 17:29 14.04.2021
303 Clear 36 1007 17 10000 4.12 10 16:58 14.04.2021
304 Clear 36 1007 17 10000 4.12 10 16:29 14.04.2021
305 Clear 36 1007 17 10000 4.63 350 15:49 14.04.2021
306 Clear 36 1007 17 10000 4.63 350 15:28 14.04.2021
307 Clear 36 1008 20 10000 4.63 360 14:57 14.04.2021
308 Clear 36 1008 20 10000 4.63 360 14:38 14.04.2021
309 Clear 36 1008 20 10000 4.63 360 14:19 14.04.2021
310 Clear 37 1008 20 10000 5.14 350 13:45 14.04.2021
311 Clear 38 1008 18 10000 4.12 350 12:43 14.04.2021
312 Clear 38 1008 18 10000 4.12 350 12:18 14.04.2021
313 Clear 39 1009 16 10000 4.12 310 11:40 14.04.2021
314 Clear 39 1009 16 10000 4.12 310 11:21 14.04.2021
315 Clear 38 1010 15 10000 2.57 0 10:34 14.04.2021
316 Clear 37 1010 15 10000 3.6 160 09:43 14.04.2021
317 Clear 37 1010 15 10000 3.6 160 09:23 14.04.2021
318 Clear 35 1011 21 10000 6.17 90 08:52 14.04.2021
319 Clear 34 1011 21 10000 6.17 90 08:29 14.04.2021
320 Clear 32 1011 27 10000 4.63 80 07:36 14.04.2021
321 Clear 29 1010 33 10000 2.57 60 06:34 14.04.2021
322 Clear 28 1010 28 10000 1.03 0 05:31 14.04.2021
323 Clear 27 1008 28 10000 2.06 70 02:27 14.04.2021
324 Clear 29 1009 25 10000 1.03 0 00:50 14.04.2021
325 Clear 29 1009 25 10000 1.03 0 00:50 14.04.2021
326 Clear 29 1009 25 10000 1.03 0 00:50 14.04.2021
327 Clear 29 1009 25 10000 1.03 0 00:27 14.04.2021
328 Clear 29 1009 25 10000 1.54 140 23:32 13.04.2021
329 Clear 30 1009 27 10000 0.51 0 22:44 13.04.2021
330 Clear 30 1009 27 10000 0.51 0 22:21 13.04.2021
331 Clear 31 1010 29 10000 3.09 110 21:49 13.04.2021
332 Clear 31 1010 29 10000 3.09 110 21:30 13.04.2021
333 Clear 31 1010 29 10000 3.09 110 21:30 13.04.2021
334 Clear 31 1010 33 10000 3.09 100 20:50 13.04.2021
335 Clear 31 1010 33 10000 3.09 100 20:25 13.04.2021
336 Clear 31 1010 31 10000 1.54 70 19:58 13.04.2021
337 Clear 31 1010 31 10000 1.54 70 19:26 13.04.2021
338 Clear 32 1010 33 10000 2.06 70 18:51 13.04.2021
339 Clear 32 1010 33 10000 2.06 70 18:30 13.04.2021
340 Clear 32 1009 35 10000 3.09 50 17:40 13.04.2021
341 Clear 32 1009 35 10000 3.09 50 17:21 13.04.2021
342 Clear 32 1009 35 10000 3.09 50 17:21 13.04.2021
343 Clear 32 1009 33 10000 4.12 350 16:45 13.04.2021
344 Clear 32 1009 33 10000 4.12 350 16:27 13.04.2021
345 Clear 32 1009 43 10000 5.66 340 15:56 13.04.2021
346 Clear 32 1009 43 10000 5.66 340 15:37 13.04.2021
347 Clear 34 1009 33 10000 9.77 320 14:58 13.04.2021
348 Clear 34 1009 33 10000 9.77 320 14:25 13.04.2021
349 Clear 36 1009 23 10000 9.77 310 13:55 13.04.2021
350 Clear 36 1009 23 10000 9.77 310 13:36 13.04.2021
351 Clear 36 1009 23 10000 9.77 310 13:18 13.04.2021
352 Clear 36 1010 23 10000 8.75 300 12:44 13.04.2021
353 Clear 36 1010 23 10000 8.75 300 12:22 13.04.2021
354 Clear 37 1010 30 10000 6.69 330 11:36 13.04.2021
355 Clear 39 1011 12 10000 2.57 200 10:57 13.04.2021
356 Clear 39 1011 12 10000 2.57 200 10:39 13.04.2021
357 Clear 39 1011 12 10000 2.57 200 10:18 13.04.2021
358 Clear 38 1011 15 10000 2.57 200 09:46 13.04.2021
359 Clear 38 1011 15 10000 2.57 200 09:18 13.04.2021
360 Clear 35 1012 17 10000 2.57 180 08:43 13.04.2021
361 Clear 34 1012 17 10000 2.57 180 08:21 13.04.2021
362 Clear 32 1012 21 10000 2.57 150 07:38 13.04.2021
363 Clear 31 1012 21 10000 2.57 150 07:19 13.04.2021
364 Clear 29 1011 25 10000 1.54 0 06:18 13.04.2021
365 Clear 28 1009 26 10000 1.54 70 03:41 13.04.2021
366 Clear 29 1009 24 10000 2.06 90 01:28 13.04.2021
367 Clear 28 1010 26 10000 1.54 70 23:50 12.04.2021
368 Clear 28 1010 26 10000 1.54 70 23:29 12.04.2021
369 Clear 29 1011 27 10000 2.57 100 22:46 12.04.2021
370 Clear 29 1011 27 10000 2.57 100 22:28 12.04.2021
371 Clear 30 1011 30 10000 2.57 100 21:48 12.04.2021
372 Clear 30 1011 30 10000 2.57 100 21:24 12.04.2021
373 Clear 30 1011 29 10000 3.09 100 20:46 12.04.2021
374 Clear 30 1011 29 10000 3.09 100 20:26 12.04.2021
375 Clear 31 1011 24 10000 2.57 50 19:58 12.04.2021
376 Clear 31 1011 24 10000 2.57 50 19:39 12.04.2021
377 Clear 31 1011 24 10000 2.57 50 19:20 12.04.2021
378 Clear 33 1010 18 10000 2.06 360 18:47 12.04.2021
379 Clear 33 1010 18 10000 2.06 360 18:29 12.04.2021
380 Clear 33 1010 21 10000 4.12 330 17:46 12.04.2021
381 Clear 33 1010 21 10000 4.12 330 17:24 12.04.2021
382 Clear 34 1009 22 10000 5.14 350 16:49 12.04.2021
383 Clear 34 1009 22 10000 5.14 350 16:28 12.04.2021
384 Clear 34 1009 22 10000 5.14 350 16:28 12.04.2021
385 Clear 35 1009 23 10000 6.17 330 15:54 12.04.2021
386 Clear 35 1009 23 10000 6.17 330 15:33 12.04.2021
387 Clear 36 1009 23 10000 6.69 330 14:55 12.04.2021
388 Clear 36 1009 23 10000 6.69 330 14:37 12.04.2021
389 Clear 37 1010 24 10000 6.17 340 13:56 12.04.2021
390 Clear 37 1010 24 10000 6.17 340 13:33 12.04.2021
391 Clear 37 1010 26 10000 6.17 340 12:59 12.04.2021
392 Clear 37 1010 26 10000 6.17 340 12:38 12.04.2021
393 Clear 37 1010 26 10000 6.17 340 12:19 12.04.2021
394 Clear 37 1011 16 10000 5.14 330 11:26 12.04.2021
395 Clear 37 1012 18 10000 4.12 240 10:51 12.04.2021
396 Clear 37 1012 18 10000 4.12 240 10:27 12.04.2021
397 Clear 37 1012 16 10000 5.14 230 09:51 12.04.2021
398 Clear 37 1012 16 10000 5.14 230 09:51 12.04.2021
399 Clear 37 1012 16 10000 5.14 230 09:23 12.04.2021
400 Clear 35 1012 17 10000 5.14 210 08:40 12.04.2021
401 Clear 32 1012 24 10000 4.12 200 07:42 12.04.2021
402 Clear 30 1012 24 10000 4.12 200 07:22 12.04.2021
403 Clear 28 1012 45 10000 2.57 150 06:27 12.04.2021
404 Clear 27 1011 51 10000 1.54 100 05:42 12.04.2021
405 Clear 28 1010 32 10000 1.54 100 01:42 12.04.2021
406 Clear 29 1010 29 10000 2.06 90 00:26 12.04.2021
407 Clear 29 1010 33 10000 3.09 90 23:49 11.04.2021
408 Clear 29 1010 33 10000 3.09 90 23:31 11.04.2021
409 Clear 29 1011 30 10000 2.57 80 22:48 11.04.2021
410 Clear 29 1011 30 10000 2.57 80 22:26 11.04.2021
411 Clear 30 1011 23 10000 2.57 50 21:52 11.04.2021
412 Clear 30 1011 23 10000 2.57 50 21:31 11.04.2021
413 Clear 31 1011 22 10000 2.57 70 20:59 11.04.2021
414 Clear 31 1011 22 10000 2.57 70 20:37 11.04.2021
415 Clear 31 1011 22 10000 2.57 70 20:18 11.04.2021
416 Clear 32 1010 22 10000 3.6 70 19:39 11.04.2021
417 Clear 32 1010 22 10000 3.6 70 19:19 11.04.2021
418 Clear 32 1010 24 10000 4.12 70 18:46 11.04.2021
419 Clear 32 1010 24 10000 4.12 70 18:26 11.04.2021
420 Clear 34 1009 22 10000 4.12 30 17:50 11.04.2021
421 Clear 34 1009 22 10000 4.12 30 17:29 11.04.2021
422 Clear 35 1009 18 10000 4.12 360 16:54 11.04.2021
423 Clear 35 1009 18 10000 4.12 360 16:28 11.04.2021
424 Clear 35 1009 18 10000 4.12 360 16:28 11.04.2021
425 Clear 35 1009 21 10000 5.14 350 15:59 11.04.2021
426 Clear 35 1009 21 10000 5.14 350 15:40 11.04.2021
427 Clear 35 1009 21 10000 5.14 350 15:22 11.04.2021
428 Clear 36 1009 23 10000 5.14 340 14:47 11.04.2021
429 Clear 36 1009 23 10000 5.14 340 14:19 11.04.2021
430 Clear 35 1009 26 9000 6.17 340 13:39 11.04.2021
431 Clear 35 1009 26 9000 6.17 340 13:21 11.04.2021
432 Clouds 35 1010 29 9000 6.17 340 12:25 11.04.2021
433 Clear 36 1010 30 9000 6.69 330 11:53 11.04.2021
434 Clear 36 1010 30 9000 6.69 330 11:33 11.04.2021
435 Clear 37 1010 30 10000 6.69 340 10:56 11.04.2021
436 Clear 37 1011 15 10000 3.6 240 10:38 11.04.2021
437 Clear 37 1011 15 10000 3.6 240 10:20 11.04.2021
438 Clear 36 1011 18 7000 4.12 190 09:38 11.04.2021
439 Clear 36 1011 18 7000 4.12 190 09:20 11.04.2021
440 Clear 34 1012 20 7000 6.17 160 08:38 11.04.2021
441 Clear 30 1012 37 10000 4.63 120 07:37 11.04.2021
442 Clear 29 1012 37 10000 4.63 120 07:18 11.04.2021
443 Clear 26 1010 34 10000 1.54 90 05:46 11.04.2021
444 Clear 26 1010 34 10000 1.54 90 05:22 11.04.2021
445 Clear 26 1010 36 10000 2.57 130 04:35 11.04.2021
446 Clear 26 1009 34 10000 2.06 80 03:20 11.04.2021
447 Clear 28 1009 18 10000 3.09 80 00:49 11.04.2021
448 Clear 28 1009 18 10000 3.09 80 00:25 11.04.2021
449 Clear 28 1009 17 10000 3.6 90 23:30 10.04.2021
450 Clear 29 1010 19 10000 3.6 80 22:54 10.04.2021
451 Clear 29 1010 19 10000 3.6 80 22:25 10.04.2021
452 Clear 30 1010 22 10000 2.57 80 21:52 10.04.2021
453 Clear 30 1010 22 10000 2.57 80 21:23 10.04.2021
454 Clear 30 1010 23 10000 3.09 70 20:53 10.04.2021
455 Clear 30 1010 23 10000 3.09 70 20:32 10.04.2021
456 Clear 30 1010 23 10000 3.09 70 20:32 10.04.2021
457 Clear 31 1009 23 10000 3.09 60 19:48 10.04.2021
458 Clear 31 1009 23 10000 3.09 60 19:28 10.04.2021
459 Clear 31 1009 22 10000 3.6 20 18:54 10.04.2021
460 Clear 31 1009 22 10000 3.6 20 18:35 10.04.2021
461 Clear 33 1008 29 10000 4.12 30 17:54 10.04.2021
462 Clear 33 1008 29 10000 4.12 30 17:34 10.04.2021
463 Clear 34 1008 22 10000 4.12 20 16:31 10.04.2021
464 Clear 35 1007 26 10000 5.14 360 15:56 10.04.2021
465 Clear 35 1007 26 10000 5.14 360 15:36 10.04.2021
466 Clear 35 1007 24 10000 7.2 330 14:51 10.04.2021
467 Clear 35 1007 24 10000 7.2 330 14:28 10.04.2021
468 Clear 36 1008 20 10000 5.66 340 13:49 10.04.2021
469 Clear 36 1008 20 10000 5.66 340 13:28 10.04.2021
470 Clear 36 1008 19 10000 6.69 340 12:38 10.04.2021
471 Clear 37 1009 20 10000 6.17 340 11:59 10.04.2021
472 Clear 37 1009 20 10000 6.17 340 11:41 10.04.2021
473 Clear 37 1009 20 10000 6.17 340 11:18 10.04.2021
474 Clear 37 1010 12 10000 2.57 160 10:42 10.04.2021
475 Clear 36 1010 12 10000 2.57 160 10:23 10.04.2021
476 Clear 35 1010 13 10000 3.6 190 09:30 10.04.2021
477 Clear 33 1010 22 10000 3.6 160 08:59 10.04.2021
478 Clear 31 1010 22 10000 3.6 160 08:31 10.04.2021
479 Clear 30 1010 37 10000 4.12 140 07:54 10.04.2021
480 Clear 28 1010 37 10000 4.12 140 07:25 10.04.2021
481 Clear 26 1009 32 10000 3.6 120 06:27 10.04.2021
482 Clear 23 1008 78 6000 2.06 120 04:49 10.04.2021
483 Clear 24 1007 69 8000 2.06 70 02:58 10.04.2021
484 Clear 24 1007 69 8000 2.06 70 02:37 10.04.2021
485 Clear 25 1007 65 10000 2.06 30 00:55 10.04.2021
486 Clear 25 1007 65 10000 2.06 30 00:30 10.04.2021
487 Clear 26 1008 61 10000 2.57 30 23:45 09.04.2021
488 Clear 26 1008 61 10000 2.57 30 23:20 09.04.2021
489 Clear 26 1008 65 10000 2.06 30 22:44 09.04.2021
490 Clear 26 1008 65 10000 2.06 30 22:25 09.04.2021
491 Clear 27 1008 65 10000 2.06 30 21:39 09.04.2021
492 Clear 27 1008 65 10000 2.06 30 21:19 09.04.2021
493 Clear 27 1008 57 10000 2.57 40 20:45 09.04.2021
494 Clear 28 1008 57 10000 2.57 40 20:23 09.04.2021
495 Clear 28 1008 57 10000 2.57 360 19:57 09.04.2021
496 Clear 28 1008 57 10000 2.57 360 19:39 09.04.2021
497 Clear 27 1008 57 10000 2.57 360 19:20 09.04.2021
498 Clear 28 1007 51 10000 2.57 30 18:41 09.04.2021
499 Clear 28 1007 51 10000 2.57 30 18:21 09.04.2021
500 Clear 28 1007 65 10000 2.57 350 17:43 09.04.2021
501 Clear 28 1007 65 10000 2.57 350 17:21 09.04.2021
502 Clear 29 1006 61 10000 4.63 330 16:39 09.04.2021
503 Clear 29 1006 54 10000 6.69 340 15:59 09.04.2021
504 Clear 29 1006 54 10000 6.69 340 15:40 09.04.2021
505 Clear 30 1006 54 10000 6.69 340 15:19 09.04.2021
506 Clear 31 1006 42 10000 5.66 330 14:42 09.04.2021
507 Clear 30 1006 48 8000 7.2 340 13:57 09.04.2021
508 Clear 30 1006 48 8000 7.2 340 13:57 09.04.2021
509 Clear 30 1006 48 8000 7.2 340 13:38 09.04.2021
510 Clear 31 1007 40 10000 6.69 350 13:19 09.04.2021
511 Clear 31 1007 40 10000 6.69 350 12:39 09.04.2021
512 Clear 32 1008 35 10000 6.17 330 11:48 09.04.2021
513 Clear 32 1008 35 10000 6.17 330 11:23 09.04.2021
514 Clear 34 1009 21 10000 2.06 300 10:50 09.04.2021
515 Clear 33 1009 21 10000 2.06 300 10:30 09.04.2021
516 Clear 32 1009 23 10000 2.57 210 09:51 09.04.2021
517 Clear 31 1009 23 10000 2.57 210 09:26 09.04.2021
518 Clear 30 1009 32 10000 2.57 190 08:54 09.04.2021
519 Clear 29 1009 32 10000 2.57 190 08:22 09.04.2021
520 Clear 28 1009 54 10000 2.06 70 07:21 09.04.2021
521 Haze 23 1009 78 5000 1.54 190 06:21 09.04.2021
522 Clear 21 1007 83 6000 1.03 0 03:54 09.04.2021
523 Clear 21 1007 83 6000 1.03 0 03:54 09.04.2021
524 Clear 21 1007 83 6000 1.54 70 02:27 09.04.2021
525 Clear 23 1008 83 6000 2.57 110 00:38 09.04.2021
526 Clear 23 1008 83 6000 2.57 110 00:19 09.04.2021
527 Clear 24 1008 78 8000 3.6 110 23:30 08.04.2021
528 Clear 24 1009 73 10000 2.06 100 22:46 08.04.2021
529 Clear 24 1009 73 10000 2.06 100 22:26 08.04.2021
530 Clear 25 1009 73 10000 2.06 350 21:57 08.04.2021
531 Clear 25 1009 73 10000 2.06 350 21:38 08.04.2021
532 Clear 25 1009 73 10000 2.06 350 21:19 08.04.2021
533 Clear 25 1009 78 10000 2.57 340 20:53 08.04.2021
534 Clear 25 1009 78 10000 2.57 340 20:32 08.04.2021
535 Clear 25 1009 78 10000 4.12 320 19:55 08.04.2021
536 Clear 25 1009 78 10000 4.12 320 19:24 08.04.2021
537 Clear 25 1009 78 10000 3.09 330 18:52 08.04.2021
538 Clear 25 1009 78 10000 3.09 330 18:23 08.04.2021
539 Clear 26 1008 73 10000 4.63 340 17:50 08.04.2021
540 Clear 27 1008 73 10000 4.63 340 17:26 08.04.2021
541 Clear 28 1008 54 10000 5.66 320 16:55 08.04.2021
542 Clear 28 1008 54 10000 5.66 320 16:35 08.04.2021
543 Clear 28 1008 51 10000 7.2 310 15:49 08.04.2021
544 Clear 28 1008 51 10000 7.2 310 15:31 08.04.2021
545 Clear 30 1008 42 10000 7.72 330 14:58 08.04.2021
546 Clear 30 1008 42 10000 7.72 330 14:37 08.04.2021
547 Clear 30 1008 42 10000 7.72 330 14:19 08.04.2021
548 Clear 32 1008 27 10000 6.69 330 13:43 08.04.2021
549 Clear 32 1008 27 10000 6.69 330 13:23 08.04.2021
550 Clear 33 1009 31 10000 4.63 320 12:45 08.04.2021
551 Clear 33 1009 31 10000 4.63 320 12:26 08.04.2021
552 Clear 33 1010 25 10000 2.06 230 11:47 08.04.2021
553 Clear 31 1010 25 10000 2.06 230 11:20 08.04.2021
554 Clear 30 1011 30 10000 2.06 320 10:43 08.04.2021
555 Clear 29 1011 30 10000 2.06 320 10:24 08.04.2021
556 Clear 28 1012 47 10000 1.54 220 09:43 08.04.2021
557 Clear 23 1013 78 8000 3.09 200 08:51 08.04.2021
558 Clear 23 1013 78 8000 3.09 200 08:30 08.04.2021
559 Haze 21 1013 88 5000 3.6 190 07:59 08.04.2021
560 Haze 21 1013 88 5000 3.6 190 07:39 08.04.2021
561 Fog 18 1011 100 300 2.57 190 04:44 08.04.2021
562 Clear 23 1010 83 7000 1.54 180 01:21 08.04.2021
563 Clear 23 1010 83 7000 1.54 180 01:21 08.04.2021
564 Clear 23 1011 83 10000 2.06 210 00:29 08.04.2021
565 Clear 24 1011 73 10000 1.54 190 23:45 07.04.2021
566 Clear 24 1011 73 10000 1.54 190 23:22 07.04.2021
567 Clear 25 1012 69 10000 1.37 306 22:54 07.04.2021
568 Clear 25 1012 69 10000 1.36 306 22:35 07.04.2021
569 Clear 25 1012 65 10000 1.54 0 21:48 07.04.2021
570 Clear 25 1012 65 10000 1.54 0 21:26 07.04.2021
571 Clear 25 1012 61 10000 2.06 330 20:47 07.04.2021
572 Clear 25 1012 61 10000 2.06 330 20:27 07.04.2021
573 Clear 25 1012 69 10000 2.06 350 19:46 07.04.2021
574 Clear 25 1012 69 10000 2.06 350 19:28 07.04.2021
575 Clear 26 1012 65 10000 3.09 330 18:53 07.04.2021
576 Clear 26 1012 65 10000 3.09 330 18:21 07.04.2021
577 Clear 26 1011 61 10000 4.12 340 17:57 07.04.2021
578 Clear 26 1011 61 10000 4.12 340 17:39 07.04.2021
579 Clear 27 1011 54 10000 5.66 340 16:58 07.04.2021
580 Clear 27 1011 54 10000 5.66 340 16:39 07.04.2021
581 Clear 28 1011 54 10000 5.66 340 16:20 07.04.2021
582 Clear 28 1011 51 10000 6.17 310 15:40 07.04.2021
583 Clear 29 1011 48 10000 5.66 320 14:58 07.04.2021
584 Clear 29 1011 48 10000 5.66 320 14:32 07.04.2021
585 Clear 29 1012 45 10000 6.69 310 13:53 07.04.2021
586 Clear 29 1012 45 10000 6.69 310 13:53 07.04.2021
587 Clear 29 1012 45 10000 6.69 310 13:27 07.04.2021
588 Clear 29 1013 45 10000 5.14 310 12:57 07.04.2021
589 Clear 29 1013 45 10000 5.14 310 12:25 07.04.2021
590 Clear 29 1013 45 10000 5.14 310 12:25 07.04.2021
591 Clear 30 1013 48 10000 5.14 330 11:57 07.04.2021
592 Clear 29 1013 48 10000 5.14 330 11:29 07.04.2021
593 Clear 29 1013 48 10000 5.14 330 11:29 07.04.2021
594 Clear 29 1014 51 10000 2.06 0 10:59 07.04.2021
595 Clear 29 1014 51 10000 2.06 0 10:30 07.04.2021
596 Clear 27 1015 57 7000 2.06 260 09:46 07.04.2021
597 Clear 27 1015 57 7000 2.06 260 09:27 07.04.2021
598 Clear 24 1015 73 6000 2.06 240 08:47 07.04.2021
599 Clear 24 1015 73 6000 2.06 240 08:22 07.04.2021
600 Haze 21 1015 88 3000 2.57 250 07:44 07.04.2021
601 Haze 21 1015 88 3000 2.57 250 07:25 07.04.2021
602 Fog 20 1014 88 200 2.57 220 06:33 07.04.2021
603 Clear 21 1012 83 7000 1.54 170 04:23 07.04.2021
604 Clear 22 1012 78 10000 1.54 210 00:31 07.04.2021
605 Clear 23 1012 73 10000 2.06 230 23:47 06.04.2021
606 Clear 23 1012 73 10000 2.06 230 23:22 06.04.2021
607 Clear 23 1012 73 10000 2.06 230 23:22 06.04.2021
608 Clear 23 1013 73 10000 2.06 240 22:48 06.04.2021
609 Clear 24 1013 73 10000 2.06 240 22:20 06.04.2021
610 Clear 24 1013 69 10000 1.03 0 21:43 06.04.2021
611 Clear 24 1013 69 10000 1.03 0 21:23 06.04.2021
612 Clear 25 1012 69 10000 2.06 340 20:54 06.04.2021
613 Clear 25 1012 69 10000 2.06 340 20:25 06.04.2021
614 Clear 25 1012 65 10000 3.09 340 19:58 06.04.2021
615 Clear 25 1012 65 10000 3.09 340 19:35 06.04.2021
616 Clear 26 1012 61 10000 3.6 340 18:58 06.04.2021
617 Clear 26 1012 61 10000 3.6 340 18:40 06.04.2021
618 Clear 26 1012 61 10000 3.6 340 18:19 06.04.2021
619 Clear 26 1011 57 10000 4.12 330 17:43 06.04.2021
620 Clear 27 1011 57 10000 4.12 330 17:19 06.04.2021
621 Clear 28 1011 47 10000 5.14 320 16:46 06.04.2021
622 Clear 28 1011 47 10000 5.14 320 16:26 06.04.2021
623 Clear 28 1011 47 10000 5.66 310 15:26 06.04.2021
624 Clear 29 1011 48 10000 5.66 300 14:45 06.04.2021
625 Clear 29 1011 48 10000 5.66 300 14:45 06.04.2021
626 Clear 29 1011 48 10000 5.66 300 14:24 06.04.2021
627 Clear 30 1011 42 10000 5.14 310 13:47 06.04.2021
628 Clear 30 1011 42 10000 5.14 310 13:26 06.04.2021
629 Clear 30 1011 42 10000 4.63 290 12:47 06.04.2021
630 Clear 30 1011 42 10000 4.63 290 12:27 06.04.2021
631 Clear 30 1012 39 10000 3.6 270 11:59 06.04.2021
632 Clear 30 1012 39 10000 3.6 270 11:40 06.04.2021
633 Clear 29 1012 39 10000 3.6 270 11:19 06.04.2021
634 Clear 29 1013 34 10000 1.54 0 10:42 06.04.2021
635 Clear 28 1013 34 10000 1.54 0 10:21 06.04.2021
636 Clear 27 1013 47 10000 2.57 0 09:44 06.04.2021
637 Clear 26 1013 47 10000 2.57 0 09:20 06.04.2021
638 Clear 24 1013 53 10000 2.57 200 08:26 06.04.2021
639 Clear 23 1013 60 10000 4.12 160 07:22 06.04.2021
640 Clear 21 1013 64 10000 4.63 130 06:51 06.04.2021
641 Clear 21 1011 64 10000 3.6 180 03:54 06.04.2021
642 Clear 23 1012 60 10000 4.12 260 00:49 06.04.2021
643 Clear 23 1012 60 10000 4.12 260 00:22 06.04.2021
644 Clear 24 1012 57 10000 4.12 270 23:52 05.04.2021
645 Clear 24 1012 57 10000 4.12 270 23:30 05.04.2021
646 Clear 24 1012 57 10000 4.12 270 22:58 05.04.2021
647 Clear 24 1012 57 10000 4.12 270 22:38 05.04.2021
648 Clear 24 1013 57 10000 5.66 260 21:50 05.04.2021
649 Clear 24 1013 57 10000 5.66 260 21:27 05.04.2021
650 Clear 24 1013 57 10000 5.14 280 20:49 05.04.2021
651 Clear 24 1013 57 10000 5.14 280 20:31 05.04.2021
652 Clear 25 1012 53 10000 5.14 260 19:55 05.04.2021
653 Clear 25 1012 53 10000 5.14 260 19:36 05.04.2021
654 Clear 25 1012 53 10000 5.14 260 19:18 05.04.2021
655 Clear 25 1012 53 10000 4.63 280 18:40 05.04.2021
656 Clear 25 1012 53 10000 4.63 280 18:40 05.04.2021
657 Clear 25 1012 53 10000 4.63 280 18:19 05.04.2021
658 Clear 25 1012 53 10000 4.63 280 18:19 05.04.2021
659 Clear 26 1011 50 10000 5.66 260 17:47 05.04.2021
660 Clear 26 1011 50 10000 5.66 260 17:23 05.04.2021
661 Clear 27 1011 47 10000 5.66 270 16:45 05.04.2021
662 Clear 27 1011 47 10000 5.66 270 16:45 05.04.2021
663 Clear 27 1011 47 10000 5.66 270 16:45 05.04.2021
664 Clear 27 1011 47 10000 5.66 270 16:22 05.04.2021
665 Clear 27 1011 47 10000 6.69 270 15:56 05.04.2021
666 Clear 27 1011 47 10000 6.69 270 15:32 05.04.2021
667 Clear 28 1011 42 10000 5.66 270 14:59 05.04.2021
668 Clear 28 1011 42 10000 5.66 270 14:36 05.04.2021
669 Clear 29 1011 42 10000 6.69 270 13:46 05.04.2021
670 Clear 29 1011 42 10000 6.69 270 13:26 05.04.2021
671 Clear 29 1011 45 10000 7.2 280 12:46 05.04.2021
672 Clear 28 1011 45 10000 7.2 280 12:24 05.04.2021
673 Clear 28 1012 47 10000 6.69 280 11:46 05.04.2021
674 Clear 28 1012 47 10000 6.69 280 11:28 05.04.2021
675 Clear 28 1013 42 10000 5.14 280 10:48 05.04.2021
676 Clear 28 1013 42 10000 5.14 280 10:29 05.04.2021
677 Clear 28 1013 47 10000 4.12 270 09:48 05.04.2021
678 Clear 27 1013 47 10000 4.12 270 09:25 05.04.2021
679 Clear 27 1013 54 10000 4.63 290 08:45 05.04.2021
680 Clear 25 1013 54 10000 4.63 290 08:26 05.04.2021
681 Clear 24 1013 64 10000 3.09 200 07:38 05.04.2021
682 Clear 22 1013 73 10000 3.6 200 06:51 05.04.2021
683 Clear 23 1011 69 10000 2.57 240 02:36 05.04.2021
684 Clear 24 1011 69 10000 3.09 270 00:53 05.04.2021
685 Clear 24 1011 69 10000 3.6 270 23:52 04.04.2021
686 Clear 24 1011 69 10000 3.6 270 23:30 04.04.2021
687 Clear 25 1012 61 10000 3.09 260 22:54 04.04.2021
688 Clear 25 1012 61 10000 3.6 260 22:31 04.04.2021
689 Clear 25 1012 61 10000 3.6 260 21:48 04.04.2021
690 Clear 25 1012 61 10000 3.6 260 21:21 04.04.2021
691 Clear 25 1012 61 10000 3.6 260 20:37 04.04.2021
692 Clear 26 1012 53 10000 4.12 270 20:19 04.04.2021
693 Clear 26 1012 53 10000 4.12 270 19:38 04.04.2021
694 Clear 26 1012 53 10000 4.12 270 19:38 04.04.2021
695 Clear 26 1012 53 10000 4.12 270 19:19 04.04.2021
696 Clear 26 1011 53 10000 4.63 280 18:47 04.04.2021
697 Clear 26 1011 53 10000 4.63 280 18:24 04.04.2021
698 Clear 26 1011 53 10000 4.63 280 18:24 04.04.2021
699 Clear 26 1011 53 10000 4.63 270 17:55 04.04.2021
700 Clear 26 1011 53 10000 4.63 270 17:24 04.04.2021
701 Clear 27 1010 50 10000 5.14 290 16:54 04.04.2021
702 Clear 27 1010 50 10000 5.14 290 16:31 04.04.2021
703 Clear 28 1010 47 10000 5.14 280 15:37 04.04.2021
704 Clear 29 1010 47 10000 5.14 280 15:18 04.04.2021
705 Clear 29 1010 48 10000 5.66 290 14:37 04.04.2021
706 Clear 29 1010 48 10000 5.66 290 14:18 04.04.2021
707 Clear 29 1010 51 10000 6.17 280 13:26 04.04.2021
708 Clear 29 1010 45 10000 5.66 290 12:50 04.04.2021
709 Clear 30 1010 45 10000 5.66 290 12:27 04.04.2021
710 Clear 30 1011 42 10000 5.14 270 11:43 04.04.2021
711 Clear 29 1011 42 10000 5.14 270 11:25 04.04.2021
712 Clear 29 1011 48 10000 5.66 280 10:46 04.04.2021
713 Clear 29 1011 48 10000 5.66 280 10:19 04.04.2021
714 Clear 28 1012 45 10000 4.63 290 09:27 04.04.2021
715 Clear 28 1012 54 10000 3.6 260 08:59 04.04.2021
716 Clear 28 1012 54 10000 3.6 260 08:41 04.04.2021
717 Clear 27 1012 54 10000 3.6 260 08:23 04.04.2021
718 Clear 24 1011 73 7000 3.09 200 06:39 04.04.2021
719 Clear 24 1011 73 7000 3.09 200 06:39 04.04.2021
720 Clear 22 1010 78 7000 3.6 200 05:43 04.04.2021
721 Clear 25 1008 83 8000 3.09 260 01:49 04.04.2021
722 Clear 25 1008 78 8000 3.09 270 00:44 04.04.2021
723 Clear 26 1008 69 10000 2.57 240 23:59 03.04.2021
724 Clear 26 1008 69 10000 2.57 240 23:39 03.04.2021
725 Clear 27 1009 61 10000 2.06 240 22:54 03.04.2021
726 Clear 27 1009 61 10000 2.06 240 22:24 03.04.2021
727 Clear 28 1009 44 10000 4.12 280 21:59 03.04.2021
728 Clear 28 1009 44 10000 4.12 280 21:39 03.04.2021
729 Clear 28 1009 44 10000 4.12 280 21:19 03.04.2021
730 Clear 30 1009 28 10000 2.57 240 20:38 03.04.2021
731 Clear 30 1009 28 10000 2.57 240 20:18 03.04.2021
732 Clear 29 1008 22 10000 1.54 170 19:43 03.04.2021
733 Clear 29 1008 22 10000 1.54 170 19:18 03.04.2021
734 Clear 31 1008 27 10000 1.03 0 18:44 03.04.2021
735 Clear 31 1008 29 10000 3.09 320 17:58 03.04.2021
736 Clear 31 1008 29 10000 3.09 320 17:28 03.04.2021
737 Clear 31 1007 30 10000 5.66 320 16:59 03.04.2021
738 Clear 31 1007 30 10000 5.66 320 16:33 03.04.2021
739 Clear 31 1007 37 10000 7.72 320 15:57 03.04.2021
740 Clear 31 1007 37 10000 7.72 320 15:39 03.04.2021
741 Clear 31 1007 37 10000 7.72 320 15:18 03.04.2021
742 Clear 32 1007 35 8000 10.29 310 14:37 03.04.2021
743 Clear 32 1007 35 8000 10.29 310 14:19 03.04.2021
744 Clear 36 1006 16 6000 7.72 320 13:42 03.04.2021
745 Clear 36 1006 16 6000 7.72 320 13:20 03.04.2021
746 Clear 37 1007 13 10000 5.14 330 12:41 03.04.2021
747 Clear 37 1007 13 10000 5.14 330 12:19 03.04.2021
748 Clear 38 1007 13 10000 4.12 320 11:32 03.04.2021
749 Clear 37 1008 13 10000 2.06 290 10:49 03.04.2021
750 Clear 37 1008 13 10000 2.06 290 10:30 03.04.2021
751 Clear 35 1009 12 10000 2.06 250 09:50 03.04.2021
752 Clear 35 1009 12 10000 2.06 250 09:27 03.04.2021
753 Clear 31 1009 16 10000 3.09 200 08:40 03.04.2021
754 Clear 31 1009 16 10000 3.09 200 08:21 03.04.2021
755 Clear 30 1008 26 10000 2.06 230 07:27 03.04.2021
756 Clear 23 1007 46 9000 1.03 0 05:33 03.04.2021
757 Clear 24 1006 46 10000 2.06 200 03:18 03.04.2021
758 Clear 25 1006 44 10000 1.54 180 02:35 03.04.2021
759 Clear 24 1007 41 10000 2.06 160 01:45 03.04.2021
760 Clear 25 1007 47 10000 1.54 190 00:19 03.04.2021
761 Clear 26 1008 44 10000 1.03 210 23:46 02.04.2021
762 Clear 26 1008 44 10000 1.03 210 23:21 02.04.2021
763 Clear 26 1008 41 10000 1.54 220 22:50 02.04.2021
764 Clear 26 1008 41 10000 1.54 220 22:30 02.04.2021
765 Clear 26 1009 36 10000 1.54 180 21:42 02.04.2021
766 Clear 26 1009 36 10000 1.54 180 21:20 02.04.2021
767 Clear 26 1009 34 10000 1.03 0 20:48 02.04.2021
768 Clear 26 1009 34 10000 1.03 0 20:26 02.04.2021
769 Clear 28 1009 39 10000 1.54 220 19:43 02.04.2021
770 Clear 28 1009 39 10000 1.54 220 19:24 02.04.2021
771 Clear 28 1008 39 10000 3.09 330 18:56 02.04.2021
772 Clear 28 1008 39 10000 3.09 330 18:38 02.04.2021
773 Clear 28 1008 39 10000 3.09 330 18:19 02.04.2021
774 Clear 29 1008 39 10000 5.14 320 17:37 02.04.2021
775 Clear 30 1008 35 10000 6.17 320 16:48 02.04.2021
776 Clear 31 1008 33 10000 7.2 320 15:54 02.04.2021
777 Clear 31 1008 33 10000 7.2 320 15:32 02.04.2021
778 Clear 33 1008 27 10000 6.69 310 14:45 02.04.2021
779 Clear 33 1008 27 10000 6.69 310 14:21 02.04.2021
780 Clear 34 1008 21 10000 6.17 330 13:41 02.04.2021
781 Clear 34 1008 21 10000 6.17 330 13:19 02.04.2021
782 Clear 34 1009 20 10000 4.63 300 12:40 02.04.2021
783 Clear 34 1009 20 10000 4.63 300 12:19 02.04.2021
784 Clear 34 1010 29 10000 6.17 320 11:49 02.04.2021
785 Clear 34 1010 29 10000 6.17 320 11:19 02.04.2021
786 Clear 32 1010 38 10000 5.14 320 10:44 02.04.2021
787 Clear 32 1010 38 10000 5.14 320 10:25 02.04.2021
788 Clear 33 1010 43 10000 7.72 330 09:52 02.04.2021
789 Clear 32 1011 26 10000 1.54 0 09:26 02.04.2021
790 Clear 30 1011 32 10000 1.54 180 08:46 02.04.2021
791 Clear 28 1011 32 10000 1.54 180 08:27 02.04.2021
792 Clear 25 1011 50 10000 1.54 200 07:23 02.04.2021
793 Clear 24 1011 64 10000 2.06 170 06:40 02.04.2021
794 Haze 23 1010 83 5000 2.06 180 03:54 02.04.2021
795 Clear 23 1010 83 6000 2.06 190 02:19 02.04.2021
796 Clear 24 1010 73 10000 1.54 200 00:47 02.04.2021
797 Clear 25 1011 73 10000 1.54 210 23:58 01.04.2021
798 Clear 25 1011 73 10000 1.54 210 23:27 01.04.2021
799 Clear 25 1011 73 10000 1.54 190 22:51 01.04.2021
800 Clear 25 1011 73 10000 1.54 190 22:18 01.04.2021
801 Clear 25 1011 69 10000 1.54 230 21:45 01.04.2021
802 Clear 25 1011 69 10000 1.54 230 21:24 01.04.2021
803 Clear 26 1011 73 10000 1.03 0 20:43 01.04.2021
804 Clear 26 1011 73 10000 1.03 0 20:24 01.04.2021
805 Clear 26 1011 73 10000 2.57 340 19:46 01.04.2021
806 Clear 26 1011 73 10000 2.57 340 19:27 01.04.2021
807 Clear 26 1010 73 10000 4.12 330 18:45 01.04.2021
808 Clear 26 1010 73 10000 4.12 330 18:18 01.04.2021
809 Clear 27 1009 69 10000 4.63 340 17:51 01.04.2021
810 Clear 27 1009 69 10000 4.63 340 17:29 01.04.2021
811 Clear 29 1009 48 10000 4.63 320 16:51 01.04.2021
812 Clear 29 1009 48 10000 4.63 320 16:27 01.04.2021
813 Clear 31 1009 40 10000 4.12 310 15:46 01.04.2021
814 Clear 31 1009 40 10000 4.12 310 15:19 01.04.2021
815 Clear 31 1009 40 10000 4.12 310 15:19 01.04.2021
816 Clear 30 1009 37 10000 5.66 330 14:43 01.04.2021
817 Clear 30 1009 37 10000 5.66 330 14:24 01.04.2021
818 Clear 32 1009 35 10000 6.69 330 13:55 01.04.2021
819 Clear 32 1009 35 10000 6.69 330 13:30 01.04.2021
820 Clear 32 1010 31 10000 5.66 320 12:51 01.04.2021
821 Clear 32 1010 31 10000 5.66 320 12:31 01.04.2021
822 Clear 32 1011 33 10000 5.14 320 11:49 01.04.2021
823 Clear 32 1011 33 10000 5.14 320 11:24 01.04.2021
824 Clear 31 1011 40 10000 4.12 320 10:53 01.04.2021
825 Clear 31 1011 40 10000 4.12 320 10:35 01.04.2021
826 Clear 32 1012 18 10000 1.54 320 09:54 01.04.2021
827 Clear 31 1012 18 10000 1.54 320 09:27 01.04.2021
828 Clear 27 1012 26 10000 1.54 0 08:33 01.04.2021
829 Clear 26 1012 50 10000 1.54 230 07:59 01.04.2021
830 Clear 24 1012 50 10000 1.54 230 07:20 01.04.2021
831 Clear 23 1012 68 10000 2.06 180 06:47 01.04.2021
832 Clear 22 1010 88 7000 2.06 200 03:30 01.04.2021
833 Clear 22 1011 83 9000 1.54 210 00:59 01.04.2021
834 Clear 24 1011 83 10000 2.06 200 23:44 31.03.2021
835 Clear 24 1011 83 10000 2.06 200 23:44 31.03.2021
836 Clear 24 1011 83 10000 2.06 200 23:19 31.03.2021
837 Clear 25 1011 78 10000 2.06 240 22:41 31.03.2021
838 Clear 25 1011 78 10000 2.06 240 22:20 31.03.2021
839 Clear 25 1011 69 10000 1.54 230 21:46 31.03.2021
840 Clear 25 1011 69 10000 1.54 230 21:23 31.03.2021
841 Clear 25 1011 69 10000 2.57 260 20:56 31.03.2021
842 Clear 25 1011 69 10000 2.57 260 20:38 31.03.2021
843 Clear 25 1011 69 10000 2.57 260 20:18 31.03.2021
844 Clear 26 1011 69 10000 1.54 260 19:38 31.03.2021
845 Clear 26 1011 69 10000 1.54 260 19:18 31.03.2021
846 Clear 26 1010 78 10000 2.57 260 18:49 31.03.2021
847 Clear 27 1010 65 10000 3.6 310 17:58 31.03.2021
848 Clear 27 1010 65 10000 3.6 310 17:36 31.03.2021
849 Clear 26 1010 65 10000 3.6 310 17:18 31.03.2021
850 Clear 29 1010 54 10000 3.6 290 16:42 31.03.2021
851 Clear 29 1010 54 10000 3.6 290 16:22 31.03.2021
852 Clear 30 1010 48 10000 4.63 310 15:50 31.03.2021
853 Clear 30 1010 48 10000 4.63 310 15:19 31.03.2021
854 Clear 31 1010 42 10000 5.14 310 14:44 31.03.2021
855 Clear 31 1010 42 10000 5.14 310 14:22 31.03.2021
856 Clear 31 1010 37 10000 5.66 320 13:42 31.03.2021
857 Clear 31 1011 48 10000 4.63 300 12:42 31.03.2021
858 Clear 31 1011 48 10000 4.63 300 12:21 31.03.2021
859 Clear 32 1011 40 10000 4.63 290 11:59 31.03.2021
860 Clear 32 1011 40 10000 4.63 290 11:21 31.03.2021
861 Clear 31 1012 42 10000 1.54 270 10:47 31.03.2021
862 Clear 29 1012 42 10000 1.54 270 10:26 31.03.2021
863 Clear 28 1013 47 10000 2.06 250 09:43 31.03.2021
864 Clear 27 1013 47 10000 2.06 250 09:18 31.03.2021
865 Clear 25 1013 65 10000 2.06 200 08:39 31.03.2021
866 Clear 23 1013 78 10000 3.09 190 07:54 31.03.2021
867 Clear 21 1012 83 7000 3.09 200 06:49 31.03.2021
868 Clear 21 1009 88 8000 2.57 190 03:52 31.03.2021
869 Clear 21 1009 88 9000 3.09 180 02:30 31.03.2021
870 Clear 22 1009 83 9000 2.57 190 00:53 31.03.2021
871 Clear 22 1009 83 9000 2.57 190 00:21 31.03.2021
872 Clear 23 1010 78 9000 3.09 200 23:47 30.03.2021
873 Clear 23 1010 78 9000 3.09 200 23:19 30.03.2021
874 Clear 24 1010 78 10000 2.57 220 22:42 30.03.2021
875 Clear 24 1010 78 10000 2.57 220 22:24 30.03.2021
876 Clear 25 1010 78 10000 2.57 220 21:53 30.03.2021
877 Clear 25 1010 78 10000 2.57 220 21:24 30.03.2021
878 Clear 25 1010 78 10000 2.57 240 20:57 30.03.2021
879 Clear 25 1010 78 10000 2.57 240 20:29 30.03.2021
880 Clear 25 1010 73 10000 2.57 230 19:52 30.03.2021
881 Clear 25 1010 73 10000 2.57 230 19:29 30.03.2021
882 Clear 26 1010 69 10000 2.57 270 18:47 30.03.2021
883 Clear 26 1010 69 10000 2.57 270 18:24 30.03.2021
884 Clear 26 1009 69 10000 3.6 280 17:42 30.03.2021
885 Clear 26 1009 69 10000 3.6 280 17:24 30.03.2021
886 Clear 27 1009 61 10000 4.12 280 16:46 30.03.2021
887 Clear 27 1009 61 10000 4.12 280 16:25 30.03.2021
888 Clear 28 1009 61 10000 4.63 300 15:22 30.03.2021
889 Clear 29 1009 51 10000 4.12 320 14:59 30.03.2021
890 Clear 29 1009 51 10000 4.12 320 14:40 30.03.2021
891 Clear 29 1009 51 10000 4.12 320 14:18 30.03.2021
892 Clear 30 1010 48 10000 4.63 300 13:42 30.03.2021
893 Clear 30 1010 48 10000 4.63 280 12:58 30.03.2021
894 Clear 30 1010 48 10000 4.63 280 12:39 30.03.2021
895 Clear 30 1010 48 10000 4.63 280 12:19 30.03.2021
896 Clear 29 1011 48 10000 3.6 290 11:24 30.03.2021
897 Clear 29 1012 51 10000 3.09 300 10:59 30.03.2021
898 Clear 29 1012 51 10000 3.09 300 10:37 30.03.2021
899 Clear 28 1012 51 10000 3.09 300 10:18 30.03.2021
900 Clear 28 1012 54 10000 3.09 280 09:38 30.03.2021
901 Clear 27 1012 54 10000 3.09 280 09:20 30.03.2021
902 Clear 26 1012 65 10000 2.06 270 08:39 30.03.2021
903 Clear 24 1012 73 10000 3.09 200 07:53 30.03.2021
904 Clear 24 1012 73 10000 3.09 200 07:23 30.03.2021
905 Clear 22 1011 78 10000 3.09 210 06:19 30.03.2021
906 Clear 21 1011 83 10000 3.09 190 05:24 30.03.2021
907 Clear 22 1010 78 10000 3.6 190 01:29 30.03.2021
908 Clear 23 1010 73 10000 3.09 200 23:51 29.03.2021
909 Clear 24 1011 69 10000 3.09 200 22:55 29.03.2021
910 Clear 24 1011 69 10000 3.09 200 22:33 29.03.2021
911 Clear 25 1011 65 10000 2.57 220 21:52 29.03.2021
912 Clear 25 1011 65 10000 2.57 220 21:31 29.03.2021
913 Clear 25 1011 65 10000 3.09 240 20:50 29.03.2021
914 Clear 25 1011 65 10000 3.09 240 20:28 29.03.2021
915 Clear 25 1011 65 10000 3.6 240 19:50 29.03.2021
916 Clear 25 1011 65 10000 3.6 240 19:27 29.03.2021
917 Clear 26 1011 61 10000 2.57 250 18:51 29.03.2021
918 Clear 26 1011 61 10000 2.57 250 18:27 29.03.2021
919 Clear 26 1010 57 10000 3.09 260 17:52 29.03.2021
920 Clear 26 1010 57 10000 3.09 260 17:33 29.03.2021
921 Clear 27 1010 57 10000 3.6 280 16:50 29.03.2021
922 Clear 27 1010 57 10000 3.6 280 16:24 29.03.2021
923 Clear 27 1010 54 10000 5.14 270 15:40 29.03.2021
924 Clear 27 1010 54 10000 5.14 270 15:22 29.03.2021
925 Clear 28 1010 54 10000 5.14 270 14:46 29.03.2021
926 Clear 28 1010 54 10000 5.66 280 13:56 29.03.2021
927 Clear 28 1010 54 10000 5.66 280 13:36 29.03.2021
928 Clear 28 1011 51 10000 5.66 290 12:59 29.03.2021
929 Clear 28 1011 51 10000 5.66 290 12:40 29.03.2021
930 Clear 28 1012 51 10000 5.14 280 11:45 29.03.2021
931 Clear 28 1012 51 10000 5.14 280 11:27 29.03.2021
932 Clear 28 1012 51 10000 5.14 280 11:27 29.03.2021
933 Clear 28 1013 54 10000 4.63 280 10:45 29.03.2021
934 Clear 28 1013 54 10000 4.63 280 10:19 29.03.2021
935 Clear 26 1013 57 10000 4.12 290 09:32 29.03.2021
936 Clear 26 1013 61 10000 3.09 240 08:35 29.03.2021
937 Clear 24 1013 69 10000 3.6 210 07:54 29.03.2021
938 Clear 24 1013 69 10000 3.6 210 07:19 29.03.2021
939 Clear 22 1012 73 10000 4.12 200 06:23 29.03.2021
940 Clear 22 1010 78 10000 3.6 200 02:34 29.03.2021
941 Clear 24 1011 73 10000 2.57 230 00:30 29.03.2021
942 Clear 24 1012 73 10000 2.57 240 23:59 28.03.2021
943 Clear 24 1012 73 10000 2.57 240 23:25 28.03.2021
944 Clear 24 1012 73 10000 3.09 260 22:48 28.03.2021
945 Clear 24 1012 73 10000 3.09 260 22:29 28.03.2021
946 Clear 24 1012 78 10000 3.09 250 21:47 28.03.2021
947 Clear 25 1012 78 10000 3.09 250 21:25 28.03.2021
948 Clear 25 1012 73 10000 3.6 260 20:56 28.03.2021
949 Clear 25 1012 73 10000 3.6 260 20:38 28.03.2021
950 Clear 25 1012 73 10000 3.6 260 20:18 28.03.2021
951 Clear 25 1011 73 10000 4.12 280 19:41 28.03.2021
952 Clear 25 1011 73 10000 4.12 280 19:21 28.03.2021
953 Clear 25 1010 73 10000 4.12 260 18:49 28.03.2021
954 Clear 25 1010 73 10000 4.12 260 18:22 28.03.2021
955 Clear 26 1010 73 10000 5.66 280 17:41 28.03.2021
956 Clear 26 1010 73 10000 5.66 280 17:20 28.03.2021
957 Clear 28 1010 54 10000 3.09 260 16:41 28.03.2021
958 Clear 28 1010 54 10000 3.09 260 16:21 28.03.2021
959 Clear 28 1010 61 10000 5.14 280 15:25 28.03.2021
960 Clear 29 1010 58 10000 5.66 280 14:50 28.03.2021
961 Clear 29 1010 58 10000 5.66 280 14:26 28.03.2021
962 Clear 30 1010 54 10000 5.66 270 13:38 28.03.2021
963 Clear 30 1011 48 10000 5.14 280 12:59 28.03.2021
964 Clear 30 1011 48 10000 5.14 280 12:35 28.03.2021
965 Clear 32 1011 37 10000 4.63 300 11:59 28.03.2021
966 Clear 32 1011 37 10000 4.63 300 11:38 28.03.2021
967 Clear 32 1012 25 10000 3.6 260 10:55 28.03.2021
968 Clear 32 1012 25 10000 3.6 260 10:32 28.03.2021
969 Clear 32 1012 23 10000 3.09 270 09:56 28.03.2021
970 Clear 31 1012 23 10000 3.09 270 09:28 28.03.2021
971 Clear 30 1013 35 10000 4.63 270 08:56 28.03.2021
972 Clear 29 1013 35 10000 4.63 270 08:35 28.03.2021
973 Clear 29 1012 45 10000 4.12 310 07:43 28.03.2021
974 Clear 26 1011 28 10000 1.54 240 06:22 28.03.2021
975 Clear 25 1009 31 10000 2.06 180 03:50 28.03.2021
976 Clear 25 1009 31 10000 2.06 180 03:50 28.03.2021
977 Clear 24 1009 36 10000 2.06 160 00:45 28.03.2021
978 Clear 26 1010 41 10000 1.03 170 23:59 27.03.2021
979 Clear 26 1010 41 10000 1.03 170 23:36 27.03.2021
980 Clear 26 1010 41 10000 1.54 170 22:49 27.03.2021
981 Clear 26 1010 41 10000 1.54 170 22:30 27.03.2021
982 Clear 27 1011 42 10000 3.09 110 21:45 27.03.2021
983 Clear 26 1011 42 10000 3.09 110 21:21 27.03.2021
984 Clear 27 1011 37 10000 2.06 80 20:59 27.03.2021
985 Clear 27 1011 37 10000 2.06 80 20:37 27.03.2021
986 Clear 28 1012 32 10000 2.06 80 19:57 27.03.2021
987 Clear 28 1012 32 10000 2.06 80 19:38 27.03.2021
988 Clear 29 1011 32 10000 2.57 340 19:20 27.03.2021
989 Clear 29 1011 32 10000 2.57 340 18:46 27.03.2021
990 Clear 29 1011 32 10000 2.57 340 18:22 27.03.2021
991 Clear 29 1011 37 10000 3.6 340 17:36 27.03.2021
992 Clear 29 1011 37 10000 3.6 340 17:18 27.03.2021
993 Clear 30 1011 42 10000 5.14 340 16:46 27.03.2021
994 Clear 30 1011 42 10000 5.14 340 16:25 27.03.2021
995 Clear 31 1010 40 10000 5.14 340 15:45 27.03.2021
996 Clear 31 1010 40 10000 5.14 340 15:18 27.03.2021
997 Clear 34 1010 26 10000 7.2 330 14:39 27.03.2021
998 Clear 37 1010 15 10000 7.2 320 13:39 27.03.2021
999 Clear 37 1010 15 10000 7.2 320 13:19 27.03.2021
1000 Clear 37 1010 13 10000 7.2 330 12:43 27.03.2021
1001 Clear 38 1011 12 10000 5.66 310 11:51 27.03.2021
1002 Clear 38 1011 12 10000 5.66 310 11:32 27.03.2021
1003 Clear 38 1012 13 10000 3.6 280 10:57 27.03.2021
1004 Clear 38 1012 13 10000 3.6 280 10:38 27.03.2021
1005 Clear 37 1013 12 10000 2.57 260 09:50 27.03.2021
1006 Clear 37 1013 12 10000 2.57 260 09:21 27.03.2021
1007 Clear 35 1013 17 10000 2.06 210 08:40 27.03.2021
1008 Clear 32 1013 22 10000 2.57 220 07:52 27.03.2021
1009 Clear 31 1013 22 10000 2.57 220 07:18 27.03.2021
1010 Clear 30 1013 25 10000 2.57 210 06:42 27.03.2021
1011 Clear 26 1011 24 10000 1.03 170 04:42 27.03.2021
1012 Clear 26 1010 28 10000 1.54 180 02:45 27.03.2021
1013 Clear 27 1010 26 10000 1.03 200 00:44 27.03.2021
1014 Clear 27 1010 26 10000 1.03 200 00:25 27.03.2021
1015 Clear 26 1011 23 10000 1.03 160 23:37 26.03.2021
1016 Clear 28 1011 24 10000 0.51 150 22:40 26.03.2021
1017 Clear 28 1011 24 10000 0.51 150 22:40 26.03.2021
1018 Clear 28 1011 23 10000 1.03 0 21:53 26.03.2021
1019 Clear 27 1011 23 10000 1.03 0 21:24 26.03.2021
1020 Clear 28 1012 23 10000 1.54 110 20:57 26.03.2021
1021 Clear 28 1012 23 10000 1.54 110 20:31 26.03.2021
1022 Clear 29 1012 25 10000 1.54 110 19:52 26.03.2021
1023 Clear 29 1012 25 10000 1.54 110 19:33 26.03.2021
1024 Clear 29 1011 25 10000 2.06 90 18:51 26.03.2021
1025 Clear 29 1011 25 10000 2.06 90 18:31 26.03.2021
1026 Clear 30 1011 23 10000 3.09 50 17:58 26.03.2021
1027 Clear 30 1011 23 10000 3.09 50 17:35 26.03.2021
1028 Clear 32 1011 20 10000 3.6 30 16:49 26.03.2021
1029 Clear 32 1011 20 10000 3.6 30 16:22 26.03.2021
1030 Clear 33 1011 21 10000 4.12 10 15:42 26.03.2021
1031 Clear 34 1011 18 10000 5.14 340 14:50 26.03.2021
1032 Clear 34 1011 22 10000 6.17 330 13:52 26.03.2021
1033 Clear 34 1011 22 10000 6.17 330 13:52 26.03.2021
1034 Clear 34 1011 22 10000 6.17 330 13:33 26.03.2021
1035 Clear 35 1011 23 10000 5.66 330 12:46 26.03.2021
1036 Clear 35 1012 23 10000 6.17 330 11:50 26.03.2021
1037 Clear 35 1012 23 10000 6.17 330 11:31 26.03.2021
1038 Clear 34 1013 21 10000 5.14 330 10:44 26.03.2021
1039 Clear 34 1013 21 10000 5.14 330 10:23 26.03.2021
1040 Clear 34 1013 27 10000 4.63 330 09:41 26.03.2021
1041 Clear 35 1014 15 8000 2.06 180 08:49 26.03.2021
1042 Clear 34 1014 15 8000 2.06 180 08:31 26.03.2021
1043 Clear 33 1014 17 10000 2.06 220 07:57 26.03.2021
1044 Clear 31 1014 17 10000 2.06 220 07:22 26.03.2021
1045 Clear 31 1014 19 10000 4.63 190 06:56 26.03.2021
1046 Clear 29 1014 23 10000 3.09 180 05:32 26.03.2021
1047 Clear 27 1013 28 10000 4.12 190 04:23 26.03.2021
1048 Clear 26 1011 61 10000 2.06 140 01:18 26.03.2021
1049 Clear 27 1011 61 10000 2.57 130 00:18 26.03.2021
1050 Clear 27 1011 61 10000 3.6 130 23:42 25.03.2021
1051 Clear 28 1012 57 10000 3.09 110 22:41 25.03.2021
1052 Clear 27 1012 57 10000 3.09 110 22:20 25.03.2021
1053 Clear 28 1012 54 10000 2.57 110 21:47 25.03.2021
1054 Clear 28 1012 54 10000 2.57 110 21:29 25.03.2021
1055 Clear 28 1012 45 10000 2.57 80 20:41 25.03.2021
1056 Clear 28 1012 45 10000 2.57 80 20:23 25.03.2021
1057 Clear 29 1012 35 10000 3.6 80 19:40 25.03.2021
1058 Clear 29 1012 35 10000 3.6 80 19:22 25.03.2021
1059 Clear 30 1012 29 10000 4.63 50 18:46 25.03.2021
1060 Clear 30 1012 29 10000 4.63 50 18:26 25.03.2021
1061 Clear 31 1011 30 10000 5.14 30 17:41 25.03.2021
1062 Clear 31 1011 30 10000 5.14 30 17:23 25.03.2021
1063 Clear 32 1010 27 9000 4.63 40 16:38 25.03.2021
1064 Clear 32 1010 27 9000 4.63 40 16:19 25.03.2021
1065 Clear 33 1009 25 8000 4.63 10 15:42 25.03.2021
1066 Clear 33 1009 25 8000 4.63 10 15:19 25.03.2021
1067 Clear 33 1009 27 8000 5.14 30 14:42 25.03.2021
1068 Clear 34 1009 24 8000 4.12 360 13:40 25.03.2021
1069 Clouds 34 1009 24 8000 4.12 360 13:20 25.03.2021
1070 Clouds 34 1009 26 7000 4.63 340 12:38 25.03.2021
1071 Clouds 35 1010 28 7000 5.14 320 12:19 25.03.2021
1072 Clouds 35 1010 28 7000 5.14 320 11:45 25.03.2021
1073 Clouds 35 1010 28 7000 5.14 320 11:26 25.03.2021
1074 Clouds 37 1010 28 7000 5.14 310 10:50 25.03.2021
1075 Clouds 37 1011 14 8000 4.63 210 10:24 25.03.2021
1076 Clouds 36 1012 16 6000 6.17 200 09:54 25.03.2021
1077 Clouds 36 1012 16 6000 6.17 200 09:36 25.03.2021
1078 Dust 34 1013 16 5000 5.66 190 08:42 25.03.2021
1079 Clear 32 1013 27 9000 5.14 160 07:58 25.03.2021
1080 Clear 28 1013 51 10000 5.66 120 06:59 25.03.2021
1081 Clear 27 1013 51 10000 5.66 120 06:25 25.03.2021
1082 Clear 26 1013 57 10000 5.14 100 05:47 25.03.2021
1083 Clear 25 1011 41 10000 3.09 90 02:43 25.03.2021
1084 Clear 25 1010 41 10000 3.09 70 00:21 25.03.2021
1085 Clear 25 1011 47 10000 4.12 90 23:50 24.03.2021
1086 Clear 25 1011 47 10000 4.12 90 23:25 24.03.2021
1087 Clear 26 1011 41 10000 3.6 80 22:43 24.03.2021
1088 Clear 26 1011 41 10000 3.6 80 22:20 24.03.2021
1089 Clear 27 1011 34 10000 3.6 70 21:42 24.03.2021
1090 Clear 26 1011 34 10000 3.6 70 21:21 24.03.2021
1091 Clear 27 1011 30 10000 1.54 80 20:41 24.03.2021
1092 Clear 27 1011 30 10000 1.54 80 20:19 24.03.2021
1093 Clear 28 1011 34 10000 2.57 90 19:35 24.03.2021
1094 Clear 28 1011 37 10000 4.12 60 18:58 24.03.2021
1095 Clear 28 1011 37 10000 4.12 60 18:39 24.03.2021
1096 Clear 28 1011 37 10000 4.12 60 18:20 24.03.2021
1097 Clear 28 1010 47 10000 3.6 40 17:41 24.03.2021
1098 Clear 28 1010 47 10000 3.6 40 17:22 24.03.2021
1099 Clear 28 1010 51 10000 3.09 340 16:42 24.03.2021
1100 Clear 28 1010 51 10000 3.09 340 16:23 24.03.2021
1101 Clear 29 1009 45 10000 5.14 330 15:43 24.03.2021
1102 Clear 29 1009 45 10000 5.14 330 15:23 24.03.2021
1103 Clear 32 1009 37 10000 4.12 20 14:42 24.03.2021
1104 Clear 32 1009 37 10000 4.12 20 14:23 24.03.2021
1105 Clear 32 1009 37 10000 3.6 10 13:50 24.03.2021
1106 Clear 32 1009 37 10000 3.6 10 13:25 24.03.2021
1107 Clear 31 1009 42 10000 4.63 10 12:41 24.03.2021
1108 Clear 30 1009 42 10000 4.63 10 12:21 24.03.2021
1109 Clear 30 1010 45 10000 5.14 350 11:42 24.03.2021
1110 Clear 30 1011 45 10000 7.2 320 10:54 24.03.2021
1111 Clear 30 1011 45 10000 7.2 320 10:35 24.03.2021
1112 Clear 31 1012 40 10000 5.14 330 09:58 24.03.2021
1113 Clear 31 1012 40 10000 5.14 330 09:58 24.03.2021
1114 Clear 32 1012 40 10000 5.14 330 09:38 24.03.2021
1115 Clear 32 1012 40 10000 5.14 330 09:18 24.03.2021
1116 Clear 31 1013 23 10000 3.6 80 08:47 24.03.2021
1117 Clear 30 1013 23 10000 3.6 80 08:24 24.03.2021
1118 Clear 27 1013 30 10000 1.54 110 07:31 24.03.2021
1119 Clear 25 1013 50 10000 1.54 80 06:51 24.03.2021
1120 Clear 20 1011 83 10000 2.06 160 03:21 24.03.2021
1121 Clear 22 1010 73 10000 1.54 130 00:45 24.03.2021
1122 Clear 22 1011 78 10000 2.57 190 23:53 23.03.2021
1123 Clear 22 1011 78 10000 2.57 190 23:20 23.03.2021
1124 Clear 23 1011 78 10000 2.57 210 22:51 23.03.2021
1125 Clear 23 1011 78 10000 2.57 210 22:27 23.03.2021
1126 Clear 24 1011 69 10000 2.06 190 21:47 23.03.2021
1127 Clear 24 1011 69 10000 2.06 190 21:29 23.03.2021
1128 Clear 24 1012 69 10000 2.06 170 20:47 23.03.2021
1129 Clear 24 1012 69 10000 2.06 170 20:25 23.03.2021
1130 Clear 25 1011 69 10000 1.54 130 19:50 23.03.2021
1131 Clear 25 1011 69 10000 1.54 130 19:26 23.03.2021
1132 Clear 25 1011 69 10000 2.06 340 18:47 23.03.2021
1133 Clear 25 1011 69 10000 2.06 340 18:24 23.03.2021
1134 Clear 25 1011 65 10000 3.09 300 17:50 23.03.2021
1135 Clear 25 1011 65 10000 3.09 300 17:23 23.03.2021
1136 Clear 25 1010 69 10000 4.12 290 16:58 23.03.2021
1137 Clear 26 1010 69 10000 4.12 290 16:25 23.03.2021
1138 Clear 27 1010 50 10000 5.66 300 15:47 23.03.2021
1139 Clear 27 1010 50 10000 5.66 300 15:21 23.03.2021
1140 Clear 27 1010 54 10000 5.66 290 14:40 23.03.2021
1141 Clear 27 1010 54 10000 5.66 290 14:18 23.03.2021
1142 Clear 28 1010 47 10000 6.17 300 13:43 23.03.2021
1143 Clear 28 1010 47 10000 6.17 300 13:21 23.03.2021
1144 Clear 29 1009 45 10000 6.17 290 12:43 23.03.2021
1145 Clear 29 1009 45 10000 6.17 290 12:23 23.03.2021
1146 Clear 29 1010 42 10000 5.66 300 11:47 23.03.2021
1147 Clear 30 1011 37 10000 5.66 290 10:56 23.03.2021
1148 Clear 30 1011 37 10000 5.66 290 10:38 23.03.2021
1149 Clear 30 1011 37 10000 5.66 290 10:20 23.03.2021
1150 Clear 30 1012 30 10000 2.57 250 09:42 23.03.2021
1151 Clear 29 1012 30 10000 2.57 250 09:21 23.03.2021
1152 Clear 27 1012 34 10000 3.09 290 08:40 23.03.2021
1153 Clear 27 1012 34 10000 3.09 290 08:22 23.03.2021
1154 Clear 27 1012 34 10000 3.6 240 07:48 23.03.2021
1155 Clear 26 1012 34 10000 3.6 240 07:20 23.03.2021
1156 Clear 25 1012 36 10000 4.12 210 06:33 23.03.2021
1157 Clear 21 1010 40 10000 2.57 190 03:23 23.03.2021
1158 Clear 21 1010 40 10000 2.57 200 02:20 23.03.2021
1159 Clear 22 1010 46 10000 2.06 210 23:44 22.03.2021
1160 Clear 23 1011 53 10000 1.03 0 22:56 22.03.2021
1161 Clear 23 1011 53 10000 1.03 0 22:38 22.03.2021
1162 Clear 23 1011 53 10000 1.03 0 22:20 22.03.2021
1163 Clear 24 1011 50 10000 2.06 200 21:41 22.03.2021
1164 Clear 24 1011 50 10000 2.06 200 21:22 22.03.2021
1165 Clear 25 1012 44 10000 2.06 180 20:41 22.03.2021
1166 Clear 25 1012 44 10000 2.06 180 20:22 22.03.2021
1167 Clear 26 1012 44 10000 2.06 190 19:54 22.03.2021
1168 Clear 25 1012 44 10000 2.06 190 19:31 22.03.2021
1169 Clear 27 1011 39 10000 3.09 270 18:47 22.03.2021
1170 Clear 27 1011 39 10000 3.09 270 18:29 22.03.2021
1171 Clear 27 1011 39 10000 4.12 270 17:59 22.03.2021
1172 Clear 27 1011 39 10000 4.12 270 17:41 22.03.2021
1173 Clear 27 1011 39 10000 4.12 270 17:19 22.03.2021
1174 Clear 27 1010 41 10000 4.63 270 16:44 22.03.2021
1175 Clear 27 1010 41 10000 4.63 270 16:18 22.03.2021
1176 Clear 28 1010 39 10000 4.63 280 15:38 22.03.2021
1177 Clear 28 1010 39 10000 4.63 280 15:18 22.03.2021
1178 Clear 30 1009 30 10000 5.66 290 14:51 22.03.2021
1179 Clear 30 1009 30 10000 5.66 290 14:51 22.03.2021
1180 Clear 30 1009 30 10000 5.66 290 14:32 22.03.2021
1181 Clear 29 1010 28 10000 7.6 270 13:47 22.03.2021
1182 Clear 29 1010 34 10000 7.2 300 13:26 22.03.2021
1183 Clear 29 1010 34 10000 7.2 300 12:54 22.03.2021
1184 Clear 29 1010 34 10000 7.2 300 12:24 22.03.2021
1185 Clear 30 1010 30 10000 7.2 320 11:49 22.03.2021
1186 Clear 30 1010 30 10000 7.2 320 11:26 22.03.2021
1187 Clear 29 1011 35 10000 7.2 300 10:44 22.03.2021
1188 Clear 29 1011 35 10000 7.2 300 10:24 22.03.2021
1189 Clear 29 1012 32 10000 6.69 320 09:46 22.03.2021
1190 Clear 28 1012 32 10000 6.69 320 09:26 22.03.2021
1191 Clear 28 1012 39 10000 4.63 330 08:45 22.03.2021
1192 Clear 27 1012 39 10000 4.63 330 08:26 22.03.2021
1193 Clear 27 1013 47 10000 2.57 0 07:47 22.03.2021
1194 Clear 24 1012 57 10000 3.09 230 06:59 22.03.2021
1195 Clear 24 1012 57 10000 3.09 230 06:36 22.03.2021
1196 Clear 22 1008 56 10000 2.06 220 02:47 22.03.2021
1197 Clear 24 1008 57 10000 2.06 260 00:43 22.03.2021
1198 Clear 24 1008 60 10000 4.12 270 23:55 21.03.2021
1199 Clear 24 1008 60 10000 4.12 270 23:20 21.03.2021
1200 Clear 24 1008 60 10000 3.09 280 22:58 21.03.2021
1201 Clear 24 1008 60 10000 3.09 280 22:30 21.03.2021
1202 Clear 24 1008 57 10000 3.6 260 21:42 21.03.2021
1203 Clear 24 1008 57 10000 3.6 260 21:24 21.03.2021
1204 Clear 24 1009 53 10000 4.63 260 20:48 21.03.2021
1205 Clear 24 1009 53 10000 4.63 260 20:29 21.03.2021
1206 Clear 24 1009 53 10000 4.63 240 19:59 21.03.2021
1207 Clear 24 1009 53 10000 4.63 240 19:28 21.03.2021
1208 Clear 24 1009 53 10000 3.09 250 18:56 21.03.2021
1209 Clear 24 1009 53 10000 3.09 250 18:32 21.03.2021
1210 Clear 25 1009 50 10000 5.66 270 17:59 21.03.2021
1211 Clear 25 1009 50 10000 5.66 270 17:40 21.03.2021
1212 Clear 25 1009 50 10000 5.66 270 17:18 21.03.2021
1213 Clear 25 1008 50 10000 5.66 260 16:48 21.03.2021
1214 Clear 25 1008 50 10000 5.66 260 16:22 21.03.2021
1215 Clear 25 1007 47 10000 7.72 270 15:42 21.03.2021
1216 Clear 25 1007 47 10000 7.72 270 15:20 21.03.2021
1217 Clear 26 1007 47 10000 8.23 270 14:46 21.03.2021
1218 Clear 26 1007 47 10000 8.23 270 14:27 21.03.2021
1219 Clear 27 1007 39 10000 9.26 280 13:57 21.03.2021
1220 Clear 27 1007 39 10000 9.26 280 13:38 21.03.2021
1221 Clear 27 1008 34 10000 9.77 280 12:43 21.03.2021
1222 Clear 28 1008 28 10000 10.29 280 12:24 21.03.2021
1223 Clear 28 1008 28 10000 10.29 280 11:41 21.03.2021
1224 Clear 28 1008 28 10000 10.29 280 11:20 21.03.2021
1225 Clear 30 1009 19 8000 10.29 290 10:44 21.03.2021
1226 Clear 30 1009 19 8000 10.29 290 10:26 21.03.2021
1227 Clear 29 1009 23 9000 8.75 280 09:47 21.03.2021
1228 Clear 29 1010 23 9000 11.32 290 09:29 21.03.2021
1229 Clear 28 1010 32 10000 7.72 280 08:54 21.03.2021
1230 Clear 28 1010 32 10000 7.72 280 08:28 21.03.2021
1231 Clear 27 1011 41 10000 5.14 280 07:41 21.03.2021
1232 Clear 27 1011 41 10000 5.14 280 07:21 21.03.2021
1233 Clear 22 1010 68 10000 3.09 180 05:59 21.03.2021
1234 Clear 24 1008 60 10000 2.57 240 02:46 21.03.2021
1235 Clear 24 1008 60 10000 2.57 260 00:55 21.03.2021
1236 Clear 24 1008 60 10000 2.57 260 00:36 21.03.2021
1237 Clear 25 1008 60 10000 2.57 260 00:18 21.03.2021
1238 Clear 25 1009 53 10000 3.6 260 23:37 20.03.2021
1239 Clear 25 1009 57 10000 2.06 250 22:57 20.03.2021
1240 Clear 25 1009 57 10000 2.06 250 22:24 20.03.2021
1241 Clear 24 1009 64 10000 3.09 230 21:48 20.03.2021
1242 Clear 24 1009 64 10000 3.09 230 21:25 20.03.2021
1243 Clear 25 1010 69 10000 3.6 220 20:48 20.03.2021
1244 Clear 25 1010 69 10000 3.6 220 20:24 20.03.2021
1245 Clear 25 1010 61 10000 3.09 220 19:51 20.03.2021
1246 Clear 25 1010 61 10000 3.09 220 19:29 20.03.2021
1247 Clear 26 1010 57 10000 2.57 230 18:51 20.03.2021
1248 Clear 26 1010 57 10000 2.57 230 18:28 20.03.2021
1249 Clear 26 1009 61 10000 3.09 240 17:58 20.03.2021
1250 Clear 26 1009 61 10000 3.09 240 17:40 20.03.2021
1251 Clear 26 1009 61 10000 3.09 240 17:19 20.03.2021
1252 Clear 26 1009 61 10000 3.6 260 16:38 20.03.2021
1253 Clear 26 1009 61 10000 3.6 260 16:18 20.03.2021
1254 Clear 26 1009 61 10000 3.6 260 16:18 20.03.2021
1255 Clear 28 1009 54 10000 4.63 280 15:40 20.03.2021
1256 Clear 28 1009 54 10000 4.63 280 15:22 20.03.2021
1257 Clear 28 1008 54 10000 5.66 290 14:32 20.03.2021
1258 Clear 30 1008 51 10000 7.2 300 13:59 20.03.2021
1259 Clear 30 1008 51 10000 7.2 300 13:30 20.03.2021
1260 Clear 30 1008 51 10000 7.2 300 13:30 20.03.2021
1261 Clear 32 1008 35 10000 4.63 290 12:37 20.03.2021
1262 Clear 32 1008 35 10000 4.63 290 12:18 20.03.2021
1263 Clear 33 1009 22 10000 4.12 290 11:41 20.03.2021
1264 Clear 33 1009 22 10000 4.12 290 11:21 20.03.2021
1265 Clear 33 1009 33 10000 4.63 290 10:39 20.03.2021
1266 Clear 33 1009 33 10000 4.63 290 10:39 20.03.2021
1267 Clear 33 1009 33 10000 4.63 290 10:21 20.03.2021
1268 Clear 32 1010 23 10000 2.57 280 09:44 20.03.2021
1269 Clear 30 1010 23 10000 2.57 280 09:21 20.03.2021
1270 Clouds 29 1011 48 7000 3.09 220 08:51 20.03.2021
1271 Clear 28 1011 48 7000 3.09 220 08:18 20.03.2021
1272 Haze 27 1011 61 5000 3.09 250 07:41 20.03.2021
1273 Haze 27 1011 61 5000 3.09 250 07:20 20.03.2021
1274 Haze 25 1011 73 5000 3.09 210 06:38 20.03.2021
1275 Clear 23 1011 78 6000 3.09 250 05:27 20.03.2021
1276 Clear 23 1009 64 9000 2.06 200 03:43 20.03.2021
1277 Clear 25 1008 44 10000 2.57 200 00:48 20.03.2021
1278 Clear 25 1009 44 10000 2.06 220 23:46 19.03.2021
1279 Clear 25 1009 44 10000 2.06 220 23:19 19.03.2021
1280 Clear 26 1009 41 10000 2.57 220 22:42 19.03.2021
1281 Clear 26 1009 41 10000 2.57 220 22:22 19.03.2021
1282 Clear 27 1009 39 10000 3.09 200 21:39 19.03.2021
1283 Clear 27 1009 39 10000 3.09 200 21:20 19.03.2021
1284 Clear 27 1010 44 10000 1.54 220 20:45 19.03.2021
1285 Clear 27 1010 44 10000 1.54 220 20:26 19.03.2021
1286 Clear 28 1010 44 10000 3.09 210 19:48 19.03.2021
1287 Clear 28 1010 44 10000 3.09 210 19:22 19.03.2021
1288 Clear 28 1009 42 10000 3.09 210 18:49 19.03.2021
1289 Clear 28 1009 42 10000 3.09 210 18:21 19.03.2021
1290 Clear 29 1009 39 10000 3.09 180 17:58 19.03.2021
1291 Clear 29 1009 39 10000 3.09 180 17:38 19.03.2021
1292 Clear 29 1009 39 10000 3.09 180 17:18 19.03.2021
1293 Clear 30 1009 35 10000 2.57 280 16:43 19.03.2021
1294 Clear 30 1009 35 10000 2.57 280 16:23 19.03.2021
1295 Clear 30 1008 37 10000 5.66 290 15:33 19.03.2021
1296 Clear 35 1008 13 10000 5.66 260 14:51 19.03.2021
1297 Clear 35 1008 13 10000 5.66 260 14:33 19.03.2021
1298 Clear 37 1007 9 10000 6.69 280 13:50 19.03.2021
1299 Clear 37 1007 9 10000 6.69 280 13:19 19.03.2021
1300 Clear 38 1008 8 10000 5.14 260 12:42 19.03.2021
1301 Clear 38 1008 8 10000 5.14 260 12:18 19.03.2021
1302 Clear 38 1009 9 10000 4.63 270 11:26 19.03.2021
1303 Clear 36 1009 13 10000 4.12 210 10:43 19.03.2021
1304 Clear 36 1009 13 10000 4.12 210 10:21 19.03.2021
1305 Clear 35 1011 13 10000 5.14 290 09:44 19.03.2021
1306 Clear 35 1011 13 10000 5.14 290 09:24 19.03.2021
1307 Clear 35 1011 16 10000 2.57 270 08:51 19.03.2021
1308 Clear 35 1011 16 10000 2.57 270 08:26 19.03.2021
1309 Clear 31 1011 18 10000 1.54 220 07:44 19.03.2021
1310 Clear 31 1011 18 10000 1.54 220 07:24 19.03.2021
1311 Clear 27 1010 21 10000 1.03 0 05:27 19.03.2021
1312 Clear 25 1008 19 10000 1.54 150 00:59 19.03.2021
1313 Clear 26 1008 19 10000 1.03 0 23:55 18.03.2021
1314 Clear 26 1008 19 10000 1.03 0 23:29 18.03.2021
1315 Clear 26 1009 21 10000 1.03 130 22:46 18.03.2021
1316 Clear 26 1009 21 10000 1.03 130 22:25 18.03.2021
1317 Clear 27 1009 23 10000 2.06 160 21:48 18.03.2021
1318 Clear 26 1009 23 10000 2.06 160 21:30 18.03.2021
1319 Clear 27 1010 21 10000 1.54 160 20:42 18.03.2021
1320 Clear 27 1010 21 10000 1.54 160 20:22 18.03.2021
1321 Clear 28 1010 21 10000 1.03 0 19:42 18.03.2021
1322 Clear 28 1010 21 10000 1.03 0 19:23 18.03.2021
1323 Clear 28 1010 25 10000 3.45 128 18:41 18.03.2021
1324 Clear 30 1009 25 10000 0.51 0 17:56 18.03.2021
1325 Clear 30 1009 25 10000 0.51 0 17:27 18.03.2021
1326 Clear 31 1009 23 10000 2.57 340 16:59 18.03.2021
1327 Clear 31 1009 23 10000 2.57 340 16:36 18.03.2021
1328 Clear 33 1009 18 10000 3.6 330 15:59 18.03.2021
1329 Clear 33 1009 18 10000 3.6 330 15:41 18.03.2021
1330 Clear 33 1009 18 10000 3.6 330 15:19 18.03.2021
1331 Clear 33 1009 18 10000 3.6 330 15:19 18.03.2021
1332 Clear 34 1008 15 10000 4.63 320 14:45 18.03.2021
1333 Clear 34 1008 15 10000 4.63 320 14:23 18.03.2021
1334 Clear 35 1008 13 10000 4.63 330 13:40 18.03.2021
1335 Clear 35 1008 13 10000 4.63 330 13:21 18.03.2021
1336 Clear 35 1009 15 10000 5.14 320 12:38 18.03.2021
1337 Clear 35 1009 15 10000 5.14 320 12:19 18.03.2021
1338 Clear 35 1009 15 10000 4.63 290 11:44 18.03.2021
1339 Clear 35 1009 15 10000 4.63 290 11:22 18.03.2021
1340 Clear 36 1010 14 10000 4.63 320 10:41 18.03.2021
1341 Clear 36 1010 14 10000 4.63 320 10:23 18.03.2021
1342 Clear 35 1011 11 10000 2.57 290 09:52 18.03.2021
1343 Clear 35 1011 11 10000 2.57 290 09:27 18.03.2021
1344 Clear 34 1011 15 10000 1.03 0 08:45 18.03.2021
1345 Clear 34 1011 15 10000 1.03 0 08:25 18.03.2021
1346 Clear 31 1011 18 10000 0.51 0 07:47 18.03.2021
1347 Clear 28 1011 23 9000 1.03 140 06:49 18.03.2021
1348 Clear 28 1011 23 9000 1.03 140 06:25 18.03.2021
1349 Clear 24 1011 27 7000 1.54 0 05:26 18.03.2021
1350 Clouds 25 1009 24 6000 1.03 0 00:49 18.03.2021
1351 Clear 25 1010 24 6000 1.03 0 23:39 17.03.2021
1352 Dust 25 1010 24 5000 1.03 100 22:43 17.03.2021
1353 Dust 25 1010 24 5000 1.03 100 22:24 17.03.2021
1354 Clear 25 1011 22 6000 2.06 80 21:52 17.03.2021
1355 Clear 25 1011 22 6000 2.06 80 21:32 17.03.2021
1356 Clear 25 1011 24 6000 2.57 110 20:55 17.03.2021
1357 Clear 25 1011 24 6000 2.57 110 20:37 17.03.2021
1358 Clouds 25 1011 24 6000 2.57 110 20:19 17.03.2021
1359 Clouds 26 1010 30 7000 1.54 170 19:41 17.03.2021
1360 Clear 26 1010 30 7000 1.54 170 19:20 17.03.2021
1361 Clear 26 1010 30 7000 1.54 170 19:20 17.03.2021
1362 Clear 27 1010 36 6000 2.06 100 18:52 17.03.2021
1363 Clear 27 1010 36 6000 2.06 100 18:32 17.03.2021
1364 Clear 29 1010 20 7000 2.57 10 17:42 17.03.2021
1365 Clear 29 1010 20 7000 2.57 10 17:23 17.03.2021
1366 Clear 29 1009 28 7000 2.57 340 16:43 17.03.2021
1367 Clear 29 1009 28 7000 2.57 340 16:21 17.03.2021
1368 Clear 31 1009 27 6000 3.09 340 15:49 17.03.2021
1369 Clear 31 1009 27 6000 3.09 340 15:29 17.03.2021
1370 Clear 33 1009 22 7000 3.09 300 14:40 17.03.2021
1371 Clear 33 1009 22 7000 3.09 300 14:20 17.03.2021
1372 Clear 31 1009 37 8000 4.63 330 13:55 17.03.2021
1373 Clear 31 1009 37 8000 4.63 330 13:26 17.03.2021
1374 Clear 31 1010 40 8000 4.63 330 12:49 17.03.2021
1375 Clear 31 1010 40 8000 4.63 330 12:28 17.03.2021
1376 Clear 31 1011 23 7000 6.17 320 11:43 17.03.2021
1377 Clear 32 1011 23 7000 6.17 320 11:23 17.03.2021
1378 Dust 33 1011 24 5000 5.14 340 10:53 17.03.2021
1379 Dust 33 1011 24 5000 5.14 340 10:24 17.03.2021
1380 Dust 34 1012 10 3500 2.06 260 09:47 17.03.2021
1381 Dust 34 1012 10 3500 2.06 260 09:21 17.03.2021
1382 Dust 32 1013 12 4000 0.51 0 08:55 17.03.2021
1383 Dust 32 1013 12 4000 0.51 0 08:35 17.03.2021
1384 Clear 28 1013 18 8000 2.06 190 07:48 17.03.2021
1385 Clouds 28 1013 18 8000 2.06 190 07:19 17.03.2021
1386 Clear 24 1013 31 10000 1.54 150 06:36 17.03.2021
1387 Clear 22 1012 46 10000 1.03 0 04:20 17.03.2021
1388 Clear 22 1010 56 10000 1.54 80 02:49 17.03.2021
1389 Clear 22 1011 60 10000 2.06 80 00:40 17.03.2021
1390 Clear 23 1011 56 10000 2.06 60 23:28 16.03.2021
1391 Clear 23 1011 57 10000 2.06 100 22:48 16.03.2021
1392 Clear 24 1011 57 10000 2.06 100 22:29 16.03.2021
1393 Clear 24 1012 60 10000 2.06 100 21:47 16.03.2021
1394 Clear 24 1012 60 10000 2.06 100 21:29 16.03.2021
1395 Clear 25 1013 61 10000 1.54 100 20:58 16.03.2021
1396 Clear 25 1013 61 10000 1.54 100 20:20 16.03.2021
1397 Clear 25 1013 53 10000 1.54 340 19:57 16.03.2021
1398 Clear 25 1013 53 10000 1.54 340 19:39 16.03.2021
1399 Clear 25 1013 53 10000 1.54 340 19:19 16.03.2021
1400 Clear 25 1013 57 10000 2.57 330 18:40 16.03.2021
1401 Clear 25 1013 57 10000 2.57 330 18:21 16.03.2021
1402 Clear 25 1012 50 10000 3.09 330 17:46 16.03.2021
1403 Clear 25 1012 50 10000 3.09 330 17:26 16.03.2021
1404 Clear 25 1012 57 10000 3.6 350 16:51 16.03.2021
1405 Clear 26 1012 57 10000 3.6 350 16:28 16.03.2021
1406 Clear 27 1011 39 10000 4.12 340 15:47 16.03.2021
1407 Clear 27 1011 39 10000 4.12 340 15:21 16.03.2021
1408 Clear 27 1011 36 10000 4.12 330 14:58 16.03.2021
1409 Clear 27 1011 36 10000 4.12 330 14:40 16.03.2021
1410 Clear 27 1011 36 10000 4.12 330 14:20 16.03.2021
1411 Clear 29 1011 34 10000 5.66 330 13:47 16.03.2021
1412 Clear 29 1011 34 10000 5.66 330 13:25 16.03.2021
1413 Clear 30 1011 25 10000 4.12 320 12:51 16.03.2021
1414 Clear 30 1011 25 10000 4.12 320 12:33 16.03.2021
1415 Clear 32 1012 12 10000 1.03 0 11:43 16.03.2021
1416 Clear 32 1012 12 10000 1.03 0 11:22 16.03.2021
1417 Clear 31 1013 12 10000 1.54 0 10:28 16.03.2021
1418 Clear 29 1014 16 10000 1.03 0 09:59 16.03.2021
1419 Clear 29 1014 16 10000 1.03 0 09:38 16.03.2021
1420 Clear 27 1014 16 10000 1.03 0 09:18 16.03.2021
1421 Clear 27 1015 19 10000 1.54 140 08:45 16.03.2021
1422 Clear 25 1015 19 10000 1.54 140 08:26 16.03.2021
1423 Clear 22 1015 56 9000 1.54 80 07:36 16.03.2021
1424 Clouds 20 1015 73 6000 2.06 100 06:40 16.03.2021
1425 Haze 19 1015 77 5000 2.06 90 05:59 16.03.2021
1426 Haze 19 1014 82 4000 2.06 90 05:34 16.03.2021
1427 Clouds 18 1012 88 6000 2.57 140 02:45 16.03.2021
1428 Clouds 17 1012 88 6000 2.57 140 02:24 16.03.2021
1429 Clear 20 1013 73 10000 0.51 0 23:59 15.03.2021
1430 Clear 20 1013 73 10000 0.51 0 23:29 15.03.2021
1431 Clear 20 1014 78 10000 1.03 0 22:53 15.03.2021
1432 Clear 20 1014 78 10000 1.03 0 22:34 15.03.2021
1433 Clear 20 1014 78 10000 2.06 20 21:55 15.03.2021
1434 Clear 21 1014 78 10000 2.06 20 21:36 15.03.2021
1435 Clear 21 1014 78 10000 2.06 20 21:18 15.03.2021
1436 Clear 22 1014 73 10000 2.57 340 20:43 15.03.2021
1437 Clear 22 1014 73 10000 2.57 340 20:24 15.03.2021
1438 Clear 22 1014 73 10000 3.6 340 19:51 15.03.2021
1439 Clear 22 1014 73 10000 3.6 340 19:33 15.03.2021
1440 Clear 22 1014 68 10000 3.6 330 18:57 15.03.2021
1441 Clear 22 1014 68 10000 3.6 330 18:32 15.03.2021
1442 Clear 23 1013 64 10000 4.63 320 17:56 15.03.2021
1443 Clear 23 1013 64 10000 4.63 320 17:33 15.03.2021
1444 Clear 23 1012 64 10000 4.63 320 16:56 15.03.2021
1445 Clear 23 1012 64 10000 4.63 320 16:35 15.03.2021
1446 Clear 24 1012 60 10000 4.63 340 15:47 15.03.2021
1447 Clear 24 1012 60 10000 4.63 340 15:27 15.03.2021
1448 Clear 25 1012 50 10000 4.63 310 14:45 15.03.2021
1449 Clear 25 1012 50 10000 4.63 310 14:45 15.03.2021
1450 Clear 25 1012 50 10000 4.63 310 14:27 15.03.2021
1451 Clear 25 1011 50 10000 5.14 320 13:55 15.03.2021
1452 Clear 25 1011 50 10000 5.14 320 13:34 15.03.2021
1453 Clear 25 1012 50 10000 6.17 310 12:51 15.03.2021
1454 Clear 26 1012 50 10000 6.17 310 12:20 15.03.2021
1455 Clear 26 1012 53 10000 5.66 310 11:57 15.03.2021
1456 Clear 26 1012 53 10000 5.66 310 11:38 15.03.2021
1457 Clear 26 1012 53 10000 5.66 310 11:18 15.03.2021
1458 Clear 27 1013 47 10000 3.09 300 10:34 15.03.2021
1459 Clear 26 1014 50 10000 1.54 0 09:59 15.03.2021
1460 Clear 26 1014 50 10000 1.54 0 09:40 15.03.2021
1461 Clear 25 1015 57 10000 2.06 0 08:59 15.03.2021
1462 Clear 25 1015 57 10000 2.06 0 08:41 15.03.2021
1463 Clear 24 1015 57 10000 2.06 0 08:19 15.03.2021
1464 Clear 23 1015 60 10000 1.54 0 07:33 15.03.2021
1465 Clear 22 1014 68 10000 1.54 0 06:45 15.03.2021
1466 Clear 20 1014 77 10000 2.57 170 05:35 15.03.2021
1467 Clear 20 1013 73 10000 1.54 260 03:18 15.03.2021
1468 Clouds 21 1012 78 10000 2.57 260 00:21 15.03.2021
1469 Clear 21 1013 78 10000 2.57 270 23:22 14.03.2021
1470 Clear 22 1013 68 10000 2.06 260 22:49 14.03.2021
1471 Clear 22 1013 68 10000 2.06 260 22:27 14.03.2021
1472 Clear 22 1013 68 10000 2.57 270 21:51 14.03.2021
1473 Clear 22 1013 68 10000 2.57 270 21:22 14.03.2021
1474 Clear 22 1014 73 10000 2.57 250 20:50 14.03.2021
1475 Clear 22 1014 73 10000 2.57 250 20:27 14.03.2021
1476 Clear 22 1014 73 10000 2.57 330 19:56 14.03.2021
1477 Clear 22 1014 73 10000 2.57 330 19:37 14.03.2021
1478 Clear 22 1014 73 10000 2.57 330 19:18 14.03.2021
1479 Clear 22 1013 68 10000 2.57 330 18:31 14.03.2021
1480 Clear 22 1013 68 10000 3.09 340 17:42 14.03.2021
1481 Clear 23 1013 68 10000 3.09 340 17:23 14.03.2021
1482 Clear 23 1013 68 10000 3.09 340 16:52 14.03.2021
1483 Clear 23 1013 68 10000 3.09 340 16:33 14.03.2021
1484 Clear 23 1012 68 10000 5.14 330 15:57 14.03.2021
1485 Clear 23 1012 68 10000 5.14 330 15:39 14.03.2021
1486 Clear 24 1012 60 8000 5.14 310 14:45 14.03.2021
1487 Clear 24 1012 60 8000 5.14 310 14:26 14.03.2021
1488 Clear 24 1012 64 7000 5.66 320 13:50 14.03.2021
1489 Clear 24 1012 64 7000 5.66 320 13:31 14.03.2021
1490 Clear 25 1012 61 7000 5.66 320 12:48 14.03.2021
1491 Clear 25 1012 61 7000 5.66 320 12:29 14.03.2021
1492 Clear 25 1013 61 6000 5.66 330 11:58 14.03.2021
1493 Clear 25 1013 61 6000 5.66 330 11:36 14.03.2021
1494 Clear 26 1013 57 6000 3.6 290 10:59 14.03.2021
1495 Clear 26 1013 57 6000 3.6 290 10:38 14.03.2021
1496 Clear 26 1013 57 6000 3.6 290 10:19 14.03.2021
1497 Clear 26 1014 57 7000 3.6 290 09:44 14.03.2021
1498 Clear 25 1014 57 7000 3.6 290 09:23 14.03.2021
1499 Clear 25 1015 61 9000 3.09 300 08:49 14.03.2021
1500 Clear 25 1015 61 9000 3.09 300 08:31 14.03.2021
1501 Clear 24 1015 64 8000 1.54 0 07:48 14.03.2021
1502 Clear 24 1015 64 8000 1.54 0 07:48 14.03.2021
1503 Clear 23 1015 64 8000 1.54 0 07:19 14.03.2021
1504 Clear 20 1014 73 7000 2.57 230 05:33 14.03.2021
1505 Clouds 22 1012 73 10000 2.57 230 00:53 14.03.2021
1506 Clouds 22 1012 73 10000 2.57 230 00:20 14.03.2021
1507 Clouds 22 1012 73 10000 2.57 230 00:20 14.03.2021
1508 Clouds 22 1012 68 10000 2.06 240 23:57 13.03.2021
1509 Clouds 22 1012 68 10000 2.06 240 23:35 13.03.2021
1510 Clear 22 1013 73 10000 2.06 240 22:55 13.03.2021
1511 Clear 22 1013 73 10000 2.06 240 22:36 13.03.2021
1512 Clear 23 1013 64 10000 2.06 240 21:49 13.03.2021
1513 Clear 23 1013 64 10000 2.06 240 21:27 13.03.2021
1514 Clear 23 1013 68 10000 2.57 290 20:54 13.03.2021
1515 Clear 23 1013 68 10000 2.57 290 20:32 13.03.2021
1516 Clear 23 1013 68 10000 2.57 280 19:56 13.03.2021
1517 Clear 23 1013 68 10000 2.57 280 19:32 13.03.2021
1518 Clear 23 1013 68 10000 5.14 330 18:58 13.03.2021
1519 Clear 23 1013 68 10000 5.14 330 18:40 13.03.2021
1520 Clear 24 1013 68 10000 5.14 330 18:18 13.03.2021
1521 Clear 24 1012 60 10000 4.12 290 17:44 13.03.2021
1522 Clear 24 1012 60 10000 4.12 290 17:25 13.03.2021
1523 Clear 24 1011 60 8000 7.2 310 16:45 13.03.2021
1524 Clear 24 1011 60 8000 7.2 310 16:27 13.03.2021
1525 Dust 25 1011 61 5000 7.2 300 15:41 13.03.2021
1526 Dust 26 1010 57 4000 7.2 300 14:51 13.03.2021
1527 Dust 26 1010 57 4000 7.2 300 14:32 13.03.2021
1528 Dust 27 1010 57 3000 7.72 290 13:54 13.03.2021
1529 Dust 27 1010 57 3000 7.72 290 13:25 13.03.2021
1530 Dust 28 1010 51 3000 6.69 280 12:47 13.03.2021
1531 Dust 28 1010 51 3000 6.69 280 12:28 13.03.2021
1532 Dust 30 1010 48 4000 5.66 290 11:51 13.03.2021
1533 Dust 30 1010 48 4000 5.66 290 11:30 13.03.2021
1534 Dust 30 1010 48 4000 5.66 290 11:30 13.03.2021
1535 Dust 31 1011 42 5000 5.14 260 10:51 13.03.2021
1536 Dust 31 1011 42 5000 5.14 260 10:51 13.03.2021
1537 Dust 31 1011 42 5000 5.14 260 10:30 13.03.2021
1538 Dust 29 1012 51 4000 5.14 280 09:48 13.03.2021
1539 Dust 30 1012 51 4000 5.14 280 09:24 13.03.2021
1540 Dust 31 1013 39 4000 4.12 280 08:44 13.03.2021
1541 Dust 30 1013 39 4000 4.12 280 08:20 13.03.2021
1542 Dust 30 1013 15 4000 6.69 200 07:54 13.03.2021
1543 Clouds 29 1012 17 7000 4.63 200 06:53 13.03.2021
1544 Clouds 29 1008 18 7000 2.57 220 02:56 13.03.2021
1545 Clouds 29 1008 18 7000 2.57 220 02:56 13.03.2021
1546 Clear 31 1006 14 7000 4.12 200 01:20 13.03.2021
1547 Clear 28 1007 20 10000 1.54 240 23:59 12.03.2021
1548 Clear 28 1007 20 10000 1.54 240 23:32 12.03.2021
1549 Clear 29 1008 21 10000 2.57 170 22:46 12.03.2021
1550 Clear 29 1008 21 10000 2.57 170 22:28 12.03.2021
1551 Clear 29 1008 23 10000 3.09 170 21:46 12.03.2021
1552 Clear 29 1008 23 10000 3.09 170 21:27 12.03.2021
1553 Clear 30 1008 20 10000 3.6 140 20:59 12.03.2021
1554 Clear 30 1008 20 10000 3.6 140 20:40 12.03.2021
1555 Clear 29 1008 20 10000 3.6 140 20:18 12.03.2021
1556 Clear 30 1008 15 10000 5.14 120 19:42 12.03.2021
1557 Clear 30 1008 15 10000 5.14 120 19:24 12.03.2021
1558 Clear 31 1008 14 10000 4.12 100 18:36 12.03.2021
1559 Clear 31 1008 14 10000 4.12 100 18:36 12.03.2021
1560 Clear 31 1008 14 10000 4.12 100 18:18 12.03.2021
1561 Clear 30 1007 15 10000 2.06 80 17:39 12.03.2021
1562 Clear 30 1007 15 10000 2.06 80 17:20 12.03.2021
1563 Clear 32 1007 16 10000 3.09 70 16:42 12.03.2021
1564 Clear 34 1006 12 10000 2.06 350 15:55 12.03.2021
1565 Clear 34 1006 12 10000 2.06 350 15:35 12.03.2021
1566 Clear 35 1006 14 10000 4.12 340 14:49 12.03.2021
1567 Clear 35 1006 14 10000 4.12 340 14:21 12.03.2021
1568 Clear 36 1007 12 10000 4.12 320 13:44 12.03.2021
1569 Clear 36 1007 12 10000 4.12 320 13:24 12.03.2021
1570 Clear 37 1007 11 10000 5.14 340 12:59 12.03.2021
1571 Clear 37 1007 11 10000 5.14 340 12:41 12.03.2021
1572 Clear 37 1007 11 10000 5.14 340 12:20 12.03.2021
1573 Clear 37 1008 9 10000 3.09 260 11:50 12.03.2021
1574 Clear 37 1008 9 10000 3.09 260 11:22 12.03.2021
1575 Clear 36 1009 9 10000 1.54 0 10:53 12.03.2021
1576 Clear 35 1009 9 10000 1.54 0 10:25 12.03.2021
1577 Clear 34 1010 10 10000 2.57 200 09:54 12.03.2021
1578 Clear 34 1010 10 10000 2.57 200 09:54 12.03.2021
1579 Clear 33 1010 10 10000 2.57 200 09:24 12.03.2021
1580 Clear 31 1011 11 10000 3.09 160 08:44 12.03.2021
1581 Clear 29 1012 16 10000 1.54 170 07:57 12.03.2021
1582 Clear 28 1012 16 10000 1.54 170 07:32 12.03.2021
1583 Clear 25 1012 22 10000 1.03 0 06:49 12.03.2021
1584 Clear 24 1012 22 10000 1.03 0 06:26 12.03.2021
1585 Clear 20 1010 31 10000 2.06 170 02:21 12.03.2021
1586 Clear 22 1010 46 10000 2.06 220 00:19 12.03.2021
1587 Clear 23 1011 49 10000 2.57 220 23:25 11.03.2021
1588 Clear 23 1011 49 10000 2.06 190 22:43 11.03.2021
1589 Clear 23 1011 49 10000 2.06 190 22:24 11.03.2021
1590 Clear 24 1012 46 10000 2.06 180 21:46 11.03.2021
1591 Clear 24 1012 46 10000 2.06 180 21:27 11.03.2021
1592 Clear 25 1012 44 10000 2.06 160 20:53 11.03.2021
1593 Clear 25 1012 44 10000 2.06 160 20:34 11.03.2021
1594 Clear 26 1012 44 10000 2.57 190 19:58 11.03.2021
1595 Clear 25 1012 44 10000 2.57 190 19:39 11.03.2021
1596 Clear 25 1011 44 10000 1.54 260 18:56 11.03.2021
1597 Clear 25 1011 44 10000 1.54 260 18:37 11.03.2021
1598 Clear 25 1011 44 10000 1.54 260 18:18 11.03.2021
1599 Clear 27 1010 44 10000 2.06 210 17:41 11.03.2021
1600 Clear 28 1010 34 10000 2.06 290 16:43 11.03.2021
1601 Clear 28 1010 34 10000 2.06 290 16:25 11.03.2021
1602 Clear 28 1010 34 10000 3.09 280 15:44 11.03.2021
1603 Clear 28 1010 34 10000 3.09 280 15:21 11.03.2021
1604 Clear 29 1010 28 10000 5.14 310 14:45 11.03.2021
1605 Clear 29 1010 28 10000 5.14 310 14:45 11.03.2021
1606 Clear 29 1010 28 10000 5.14 310 14:19 11.03.2021
1607 Clear 30 1010 28 10000 5.14 300 13:46 11.03.2021
1608 Clear 30 1010 28 10000 5.14 300 13:24 11.03.2021
1609 Clear 30 1011 26 10000 6.69 320 12:57 11.03.2021
1610 Clear 30 1011 26 10000 6.69 320 12:36 11.03.2021
1611 Clear 30 1011 26 10000 6.69 320 12:18 11.03.2021
1612 Clear 30 1011 25 10000 7.2 320 11:42 11.03.2021
1613 Clear 30 1011 25 10000 7.2 320 11:20 11.03.2021
1614 Clear 30 1012 35 10000 4.12 280 10:28 11.03.2021
1615 Clear 28 1013 44 10000 4.63 280 09:54 11.03.2021
1616 Clear 28 1013 44 10000 4.63 280 09:34 11.03.2021
1617 Clear 28 1014 42 10000 4.63 280 08:59 11.03.2021
1618 Clear 27 1014 42 10000 4.63 280 08:41 11.03.2021
1619 Clear 27 1014 42 10000 4.63 280 08:18 11.03.2021
1620 Clear 25 1014 65 10000 3.6 270 07:22 11.03.2021
1621 Clear 22 1013 73 7000 2.06 180 06:49 11.03.2021
1622 Clear 22 1013 73 7000 2.06 180 06:23 11.03.2021
1623 Clear 19 1011 82 8000 2.57 200 02:48 11.03.2021
1624 -273 0 0 0 0 0 00:48 11.03.2021
1625 Clear 21 1011 73 10000 2.57 210 00:48 11.03.2021
1626 Clear 22 1011 68 10000 1.54 210 23:27 10.03.2021
1627 Clear 22 1012 64 10000 3.09 230 22:47 10.03.2021
1628 -273 0 0 0 0 0 22:28 10.03.2021
1629 Clear 23 1012 64 10000 3.09 230 22:26 10.03.2021
1630 Clear 23 1012 56 10000 2.57 220 21:45 10.03.2021
1631 Clear 23 1012 56 10000 2.57 220 21:23 10.03.2021
1632 Clear 23 1013 56 10000 2.57 240 20:46 10.03.2021
1633 Clear 24 1013 56 10000 2.57 240 20:27 10.03.2021
1634 Clear 24 1014 50 10000 2.57 200 19:49 10.03.2021
1635 Clear 24 1014 50 10000 2.57 200 19:28 10.03.2021
1636 Clear 25 1014 47 10000 2.06 260 18:46 10.03.2021
1637 Clear 25 1014 47 10000 2.06 260 18:24 10.03.2021
1638 Clear 25 1014 47 10000 2.06 260 18:24 10.03.2021
1639 Clear 25 1013 44 10000 2.06 240 17:55 10.03.2021
1640 Clear 25 1013 44 10000 2.06 240 17:37 10.03.2021
1641 Clear 25 1013 44 10000 2.06 240 17:19 10.03.2021
1642 Clear 26 1013 44 10000 3.6 280 16:42 10.03.2021
1643 Clear 26 1013 44 10000 3.6 280 16:22 10.03.2021
1644 Clear 27 1012 32 10000 5.66 300 15:45 10.03.2021
1645 Clear 27 1012 32 10000 5.66 300 15:23 10.03.2021
1646 Clear 28 1012 21 10000 5.14 270 14:56 10.03.2021
1647 Clear 28 1012 21 10000 5.14 270 14:20 10.03.2021
1648 Clear 30 1012 20 10000 5.14 300 13:52 10.03.2021
1649 Clear 30 1012 20 10000 5.14 300 13:30 10.03.2021
1650 Clear 30 1013 17 10000 5.66 320 12:46 10.03.2021
1651 Clear 30 1013 17 10000 5.66 320 12:21 10.03.2021
1652 Clear 30 1013 20 10000 5.66 320 11:44 10.03.2021
1653 Clear 30 1013 20 10000 5.66 320 11:21 10.03.2021
1654 Clear 30 1014 17 10000 5.14 330 10:49 10.03.2021
1655 Clear 30 1014 17 10000 5.14 330 10:30 10.03.2021
1656 Clear 30 1015 20 10000 4.12 330 09:46 10.03.2021
1657 Clear 30 1015 20 10000 4.12 330 09:27 10.03.2021
1658 Clear 30 1015 20 10000 3.09 270 08:58 10.03.2021
1659 Clear 30 1015 20 10000 3.09 270 08:40 10.03.2021
1660 Clear 29 1015 20 10000 3.09 270 08:21 10.03.2021
1661 Clear 27 1015 24 10000 0.51 0 07:40 10.03.2021
1662 Clear 26 1015 33 10000 1.54 140 07:18 10.03.2021
1663 Clear 25 1015 33 10000 1.54 140 06:44 10.03.2021
1664 Clear 20 1012 26 10000 1.03 0 02:42 10.03.2021
1665 Clear 22 1013 40 10000 1.54 170 23:52 09.03.2021
1666 Clear 22 1013 40 10000 1.54 170 23:25 09.03.2021
1667 Clear 22 1013 46 10000 1.03 0 22:44 09.03.2021
1668 Clear 22 1013 46 10000 1.03 0 22:26 09.03.2021
1669 Clear 22 1014 41 10000 2.06 200 21:55 09.03.2021
1670 Clear 22 1014 41 10000 2.06 200 21:36 09.03.2021
1671 Clear 22 1014 41 10000 2.06 200 21:18 09.03.2021
1672 Clear 23 1014 41 10000 1.03 190 20:41 09.03.2021
1673 Clear 23 1014 41 10000 1.03 190 20:21 09.03.2021
1674 Clear 23 1014 41 10000 1.54 230 19:53 09.03.2021
1675 Clear 23 1014 41 10000 1.54 230 19:27 09.03.2021
1676 Clear 24 1014 36 10000 1.54 250 18:51 09.03.2021
1677 Clear 24 1014 36 10000 1.54 250 18:28 09.03.2021
1678 Clear 26 1014 34 10000 2.06 260 17:53 09.03.2021
1679 Clear 26 1014 34 10000 2.06 260 17:33 09.03.2021
1680 Clear 27 1013 23 10000 2.57 350 16:55 09.03.2021
1681 Clear 27 1013 23 10000 2.57 350 16:37 09.03.2021
1682 Clear 27 1013 23 10000 2.57 350 16:18 09.03.2021
1683 Clear 29 1013 20 10000 3.6 340 15:43 09.03.2021
1684 Clear 29 1013 20 10000 3.6 340 15:21 09.03.2021
1685 Clear 29 1012 18 10000 4.63 320 14:31 09.03.2021
1686 Clear 30 1012 17 10000 3.6 320 13:59 09.03.2021
1687 Clear 30 1012 17 10000 3.6 320 13:38 09.03.2021
1688 Clear 30 1012 17 10000 3.6 320 13:19 09.03.2021
1689 Clear 30 1013 13 10000 4.12 320 12:39 09.03.2021
1690 Clear 30 1013 13 10000 4.12 320 12:19 09.03.2021
1691 Clear 30 1013 8 10000 3.09 310 11:42 09.03.2021
1692 Clear 30 1013 8 10000 3.09 310 11:21 09.03.2021
1693 Clear 29 1014 11 10000 3.09 270 10:55 09.03.2021
1694 Clear 29 1014 11 10000 3.09 270 10:55 09.03.2021
1695 Clear 29 1014 11 10000 3.09 270 10:36 09.03.2021
1696 Clear 29 1014 11 10000 3.09 270 10:18 09.03.2021
1697 Clear 27 1015 36 10000 2.57 250 09:41 09.03.2021
1698 Clear 27 1015 36 10000 2.57 250 09:22 09.03.2021
1699 Clear 25 1016 47 10000 2.57 230 08:46 09.03.2021
1700 Clear 24 1016 47 10000 2.57 230 08:21 09.03.2021
1701 Clear 21 1016 73 10000 2.57 190 07:38 09.03.2021
1702 Clear 21 1016 73 10000 2.57 190 07:20 09.03.2021
1703 Haze 19 1015 77 4500 2.06 180 05:55 09.03.2021
1704 Haze 19 1015 77 4500 2.06 180 05:35 09.03.2021
1705 Clouds 19 1012 77 8000 2.06 170 00:29 09.03.2021
1706 Clear 20 1013 77 10000 3.09 170 23:42 08.03.2021
1707 Clear 20 1013 77 10000 3.09 170 23:23 08.03.2021
1708 Clouds 20 1013 78 10000 1.54 250 22:44 08.03.2021
1709 Clouds 20 1013 78 10000 1.54 250 22:26 08.03.2021
1710 Clouds 21 1013 78 10000 2.06 260 21:54 08.03.2021
1711 Clouds 21 1013 78 10000 2.06 260 21:35 08.03.2021
1712 Clear 21 1013 73 10000 2.06 240 20:45 08.03.2021
1713 Clear 21 1013 73 10000 2.06 240 20:25 08.03.2021
1714 Clear 21 1013 73 10000 3.09 280 19:59 08.03.2021
1715 Clear 21 1013 73 10000 3.09 280 19:28 08.03.2021
1716 Clear 21 1013 73 10000 3.6 290 18:42 08.03.2021
1717 Clear 21 1013 73 10000 3.6 290 18:21 08.03.2021
1718 Clear 22 1013 68 10000 3.09 250 17:51 08.03.2021
1719 Clear 22 1013 68 10000 3.09 250 17:26 08.03.2021
1720 Clear 22 1012 68 10000 4.63 280 16:48 08.03.2021
1721 Clear 22 1012 68 10000 4.63 280 16:28 08.03.2021
1722 Clear 23 1012 60 10000 5.14 280 15:49 08.03.2021
1723 Clear 23 1012 60 10000 5.14 280 15:28 08.03.2021
1724 Clear 24 1012 57 10000 5.14 280 14:43 08.03.2021
1725 Clear 24 1012 57 10000 5.14 280 14:20 08.03.2021
1726 Clear 24 1012 53 10000 4.63 280 13:38 08.03.2021
1727 Clear 24 1012 53 10000 4.63 280 13:19 08.03.2021
1728 Clear 24 1012 53 10000 4.63 300 12:42 08.03.2021
1729 Clear 24 1012 53 10000 4.63 300 12:42 08.03.2021
1730 Clear 24 1012 53 10000 4.63 300 12:23 08.03.2021
1731 Clear 24 1013 53 10000 4.63 300 11:40 08.03.2021
1732 Clear 24 1013 53 10000 4.63 300 11:18 08.03.2021
1733 Clear 24 1014 53 10000 4.63 300 10:43 08.03.2021
1734 Clear 24 1014 53 10000 4.63 300 10:22 08.03.2021
1735 Clear 23 1015 53 10000 3.6 290 09:41 08.03.2021
1736 Clear 23 1015 53 10000 3.6 290 09:22 08.03.2021
1737 Clear 23 1015 56 10000 3.6 280 08:28 08.03.2021
1738 Clouds 21 1016 60 10000 2.57 220 07:23 08.03.2021
1739 Clouds 20 1016 68 10000 2.06 230 06:43 08.03.2021
1740 Clouds 19 1013 72 10000 2.57 200 03:39 08.03.2021
1741 Clouds 20 1013 68 10000 3.09 250 00:44 08.03.2021
1742 Clouds 20 1013 68 10000 2.57 250 23:57 07.03.2021
1743 Clouds 20 1013 68 10000 2.57 250 23:37 07.03.2021
1744 Clouds 20 1013 68 10000 2.57 250 23:18 07.03.2021
1745 Clouds 20 1014 64 10000 2.57 250 22:42 07.03.2021
1746 Clouds 20 1014 64 10000 2.57 250 22:23 07.03.2021
1747 Clouds 21 1014 64 10000 3.6 270 21:44 07.03.2021
1748 Clouds 21 1014 64 10000 3.6 270 21:25 07.03.2021
1749 Clouds 21 1014 68 10000 3.09 290 20:48 07.03.2021
1750 Clouds 21 1014 68 10000 3.09 290 20:30 07.03.2021
1751 Clouds 21 1014 68 10000 4.12 250 19:57 07.03.2021
1752 Clouds 21 1014 68 10000 4.12 250 19:38 07.03.2021
1753 Clouds 21 1014 68 10000 4.12 250 19:20 07.03.2021
1754 Clouds 21 1014 68 10000 4.12 260 18:42 07.03.2021
1755 Clouds 21 1014 68 10000 4.12 260 18:19 07.03.2021
1756 Clouds 22 1013 60 10000 5.66 280 17:40 07.03.2021
1757 Clouds 22 1013 60 10000 5.66 280 17:20 07.03.2021
1758 Clouds 22 1013 60 10000 4.63 260 16:58 07.03.2021
1759 Clouds 22 1013 60 10000 4.63 260 16:38 07.03.2021
1760 Clouds 22 1013 60 10000 4.63 260 16:19 07.03.2021
1761 Clear 23 1013 60 10000 5.66 280 15:42 07.03.2021
1762 Clear 23 1013 60 10000 5.66 280 15:22 07.03.2021
1763 Clear 23 1012 60 10000 6.17 280 14:30 07.03.2021
1764 Clear 24 1012 57 10000 5.66 290 13:59 07.03.2021
1765 Clear 24 1012 57 10000 5.66 290 13:40 07.03.2021
1766 Clear 24 1012 57 10000 5.66 290 13:20 07.03.2021
1767 Clear 24 1012 57 10000 7.2 290 12:44 07.03.2021
1768 Clear 24 1012 57 10000 7.2 290 12:24 07.03.2021
1769 Clear 24 1013 53 10000 7.2 300 11:25 07.03.2021
1770 Clouds 24 1014 57 10000 6.17 290 10:59 07.03.2021
1771 Clouds 24 1014 57 10000 6.17 290 10:38 07.03.2021
1772 Clouds 24 1014 57 10000 6.17 290 10:19 07.03.2021
1773 Clouds 24 1015 53 10000 6.17 290 09:40 07.03.2021
1774 Clouds 24 1015 53 10000 6.17 290 09:21 07.03.2021
1775 Clouds 23 1015 56 10000 5.14 290 08:45 07.03.2021
1776 Clouds 23 1015 56 10000 5.14 290 08:23 07.03.2021
1777 Clouds 23 1016 60 10000 6.17 290 07:23 07.03.2021
1778 Clouds 21 1013 68 10000 3.09 270 02:40 07.03.2021
1779 Clouds 21 1013 68 10000 3.6 270 00:36 07.03.2021
1780 Clouds 21 1013 64 10000 4.63 270 23:41 06.03.2021
1781 Clouds 21 1013 64 10000 4.63 270 23:22 06.03.2021
1782 Clouds 22 1014 68 10000 4.63 270 22:47 06.03.2021
1783 Clouds 22 1014 68 10000 4.63 270 22:25 06.03.2021
1784 Clear 22 1014 64 10000 5.14 270 21:52 06.03.2021
1785 Clear 22 1014 64 10000 5.14 270 21:21 06.03.2021
1786 Clear 22 1014 68 10000 5.14 270 20:45 06.03.2021
1787 Clear 22 1014 68 10000 5.14 270 20:21 06.03.2021
1788 Clear 22 1015 68 10000 5.14 270 19:41 06.03.2021
1789 Clear 22 1015 68 10000 5.14 270 19:18 06.03.2021
1790 Clear 22 1015 68 10000 5.14 270 18:43 06.03.2021
1791 Clear 22 1015 68 10000 5.14 270 18:23 06.03.2021
1792 Clear 23 1014 64 10000 4.63 260 17:55 06.03.2021
1793 Clear 23 1014 64 10000 4.63 260 17:33 06.03.2021
1794 Clear 23 1014 64 10000 5.14 270 17:00 06.03.2021
1795 Clear 23 1014 64 10000 5.14 270 16:37 06.03.2021
1796 Clear 23 1014 64 10000 5.14 270 16:18 06.03.2021
1797 Clear 24 1014 57 10000 7.2 280 15:41 06.03.2021
1798 Clear 24 1014 57 10000 7.2 280 15:23 06.03.2021
1799 Clear 25 1013 57 10000 7.2 270 14:33 06.03.2021
1800 Clear 25 1013 53 10000 7.72 280 13:56 06.03.2021
1801 Clear 25 1013 53 10000 7.72 280 13:37 06.03.2021
1802 Clear 25 1013 53 10000 7.72 280 13:19 06.03.2021
1803 Clear 25 1014 57 10000 7.2 290 12:43 06.03.2021
1804 Clear 25 1014 57 10000 7.2 290 12:19 06.03.2021
1805 Clear 26 1015 53 10000 6.17 280 11:47 06.03.2021
1806 Clear 25 1015 53 10000 6.17 280 11:21 06.03.2021
1807 Clear 25 1015 57 10000 6.69 280 10:45 06.03.2021
1808 Clear 25 1015 57 10000 6.69 280 10:18 06.03.2021
1809 Clear 25 1016 57 10000 5.14 270 09:28 06.03.2021
1810 Clear 25 1017 61 10000 4.63 270 08:58 06.03.2021
1811 Clear 25 1017 61 10000 4.63 270 08:32 06.03.2021
1812 Clouds 25 1017 65 10000 4.12 270 07:56 06.03.2021
1813 Clouds 24 1017 65 10000 4.12 270 07:22 06.03.2021
1814 Clouds 24 1016 69 10000 4.63 270 06:42 06.03.2021
1815 Clouds 23 1014 78 10000 2.57 240 03:49 06.03.2021
1816 Clouds 23 1014 78 10000 2.57 240 03:49 06.03.2021
1817 Clouds 23 1014 78 9000 3.09 270 01:43 06.03.2021
1818 Clouds 23 1014 83 9000 4.63 270 00:47 06.03.2021
1819 Clear 24 1014 78 10000 4.63 280 23:51 05.03.2021
1820 Clear 24 1014 78 10000 4.63 280 23:51 05.03.2021
1821 Clear 25 1014 78 10000 4.63 280 23:22 05.03.2021
1822 Clear 25 1014 50 10000 4.12 270 22:45 05.03.2021
1823 Clear 25 1014 50 10000 4.12 270 22:22 05.03.2021
1824 Clear 25 1014 44 10000 2.57 230 21:52 05.03.2021
1825 Clear 26 1014 44 10000 2.57 230 21:32 05.03.2021
1826 Clear 26 1014 34 10000 1.03 210 20:53 05.03.2021
1827 Clear 26 1014 34 10000 1.03 210 20:26 05.03.2021
1828 Clear 26 1014 36 10000 2.06 70 19:55 05.03.2021
1829 Clear 26 1014 36 10000 2.06 70 19:26 05.03.2021
1830 Clear 27 1013 42 10000 1.54 350 18:56 05.03.2021
1831 Clear 27 1013 42 10000 1.54 350 18:38 05.03.2021
1832 Clear 27 1013 42 10000 1.54 350 18:18 05.03.2021
1833 Clear 27 1013 42 10000 2.57 20 17:34 05.03.2021
1834 Clear 27 1012 39 10000 4.12 340 16:46 05.03.2021
1835 Clear 27 1012 39 10000 4.12 340 16:24 05.03.2021
1836 Clear 30 1012 37 10000 7.72 330 15:56 05.03.2021
1837 Clear 30 1012 37 10000 7.72 330 15:56 05.03.2021
1838 Clear 30 1012 37 10000 7.72 330 15:37 05.03.2021
1839 Clear 30 1012 37 10000 7.72 330 15:18 05.03.2021
1840 Clear 32 1012 42 10000 7.72 340 14:38 05.03.2021
1841 Clear 34 1011 27 10000 5.66 320 13:55 05.03.2021
1842 Clear 34 1012 27 10000 9.77 320 13:55 05.03.2021
1843 Clear 34 1011 27 10000 5.66 320 13:22 05.03.2021
1844 Clear 38 1011 12 10000 5.14 280 12:55 05.03.2021
1845 Clear 38 1012 12 10000 3.6 270 11:56 05.03.2021
1846 Clear 38 1012 12 10000 3.6 270 11:36 05.03.2021
1847 Clear 38 1012 12 10000 3.6 270 11:18 05.03.2021
1848 Clear 37 1013 11 10000 2.57 300 10:40 05.03.2021
1849 Clear 37 1013 11 10000 2.57 300 10:22 05.03.2021
1850 Clear 36 1014 12 10000 2.57 180 09:47 05.03.2021
1851 Clear 36 1014 12 10000 2.57 180 09:26 05.03.2021
1852 Clear 35 1015 13 10000 1.54 0 08:41 05.03.2021
1853 Clear 33 1015 13 10000 1.54 0 08:22 05.03.2021
1854 Clear 31 1015 18 10000 1.54 0 07:43 05.03.2021
1855 Clear 28 1014 28 10000 1.03 0 06:56 05.03.2021
1856 Clear 28 1014 28 10000 1.03 0 06:31 05.03.2021
1857 Clear 22 1012 53 10000 2.06 110 01:52 05.03.2021
1858 Clear 23 1013 50 10000 1.54 60 00:34 05.03.2021
1859 Clear 23 1013 50 10000 1.54 90 23:36 04.03.2021
1860 Clear 24 1014 44 10000 2.06 90 22:38 04.03.2021
1861 Clear 24 1014 44 10000 2.06 90 22:19 04.03.2021
1862 Clear 25 1014 44 10000 1.03 0 21:42 04.03.2021
1863 Clear 25 1014 44 10000 1.03 0 21:23 04.03.2021
1864 Clear 25 1014 41 10000 1.54 90 20:41 04.03.2021
1865 Clear 24 1014 41 10000 1.54 90 20:21 04.03.2021
1866 Clear 25 1014 41 10000 2.06 100 19:54 04.03.2021
1867 Clear 25 1014 41 10000 2.06 100 19:31 04.03.2021
1868 Clear 26 1014 44 10000 1.54 70 18:59 04.03.2021
1869 Clear 26 1014 44 10000 1.54 70 18:59 04.03.2021
1870 Clear 26 1014 44 10000 1.54 70 18:59 04.03.2021
1871 Clear 26 1014 44 10000 1.54 70 18:38 04.03.2021
1872 Clear 26 1014 44 10000 1.54 70 18:19 04.03.2021
1873 Clear 27 1014 44 10000 1.54 10 17:42 04.03.2021
1874 Clear 27 1014 44 10000 1.54 10 17:20 04.03.2021
1875 Clear 28 1013 42 10000 4.63 340 16:44 04.03.2021
1876 Clear 28 1013 42 10000 4.63 340 16:44 04.03.2021
1877 Clear 28 1013 42 10000 4.63 340 16:24 04.03.2021
1878 Clear 31 1013 29 10000 4.63 330 15:48 04.03.2021
1879 Clear 31 1013 29 10000 4.63 330 15:30 04.03.2021
1880 Clear 32 1012 27 10000 2.06 300 14:45 04.03.2021
1881 Clear 32 1012 27 10000 2.06 300 14:22 04.03.2021
1882 Clear 32 1012 27 10000 4.63 330 13:45 04.03.2021
1883 Clear 32 1012 27 10000 4.63 330 13:23 04.03.2021
1884 Clear 33 1012 24 10000 4.63 320 12:44 04.03.2021
1885 Clear 33 1012 24 10000 4.63 320 12:20 04.03.2021
1886 Clear 32 1013 27 10000 4.63 320 11:42 04.03.2021
1887 Clear 32 1013 27 10000 4.63 320 11:20 04.03.2021
1888 Clear 33 1013 29 10000 4.63 320 10:37 04.03.2021
1889 Clear 33 1013 29 10000 4.63 320 10:18 04.03.2021
1890 Clear 32 1014 29 8000 0.51 0 09:32 04.03.2021
1891 Clear 30 1015 30 8000 1.03 0 08:56 04.03.2021
1892 Clear 29 1015 30 8000 1.03 0 08:32 04.03.2021
1893 Clear 28 1015 39 10000 1.03 0 07:46 04.03.2021
1894 Clear 26 1015 47 10000 1.03 0 06:52 04.03.2021
1895 Clear 25 1015 47 10000 1.03 0 06:23 04.03.2021
1896 Clear 22 1012 53 10000 2.06 190 02:39 04.03.2021
1897 Clear 23 1012 53 10000 1.03 0 00:41 04.03.2021
1898 Clear 24 1013 47 10000 2.06 320 22:41 03.03.2021
1899 Clear 24 1013 47 10000 2.06 320 22:23 03.03.2021
1900 Clear 25 1013 41 10000 1.54 320 21:43 03.03.2021
1901 Clear 25 1013 41 10000 1.54 320 21:24 03.03.2021
1902 Clear 26 1014 44 10000 2.57 350 20:56 03.03.2021
1903 Clear 26 1014 44 10000 2.57 350 20:37 03.03.2021
1904 Clear 27 1014 42 10000 2.06 230 19:57 03.03.2021
1905 Clear 27 1014 42 10000 2.06 230 19:38 03.03.2021
1906 Clear 27 1014 42 10000 2.06 230 19:18 03.03.2021
1907 Clear 29 1014 39 10000 1.54 190 18:41 03.03.2021
1908 Clear 28 1013 48 10000 1.54 180 17:59 03.03.2021
1909 Clear 28 1013 48 10000 1.54 180 17:36 03.03.2021
1910 Clear 28 1013 48 10000 1.54 180 17:18 03.03.2021
1911 Clear 29 1013 48 10000 1.03 0 16:39 03.03.2021
1912 Clear 29 1013 48 10000 1.03 0 16:21 03.03.2021
1913 Clear 30 1013 42 10000 2.57 310 15:33 03.03.2021
1914 Clear 30 1013 42 10000 2.57 330 14:52 03.03.2021
1915 Clear 30 1013 42 10000 2.57 330 14:28 03.03.2021
1916 Clear 29 1014 39 10000 6.17 330 13:52 03.03.2021
1917 Clear 29 1014 39 10000 6.17 330 13:30 03.03.2021
1918 Clear 32 1014 29 10000 6.17 290 12:44 03.03.2021
1919 Clear 32 1014 29 10000 6.17 290 12:24 03.03.2021
1920 Clear 33 1014 27 10000 6.17 280 11:46 03.03.2021
1921 Clear 33 1014 27 10000 6.17 280 11:27 03.03.2021
1922 Clear 33 1015 29 10000 5.14 290 10:47 03.03.2021
1923 Clear 33 1015 29 10000 5.14 290 10:25 03.03.2021
1924 Clear 32 1015 29 10000 3.6 270 09:46 03.03.2021
1925 Clear 31 1016 30 10000 3.09 260 08:59 03.03.2021
1926 Clear 30 1016 30 10000 3.09 260 08:39 03.03.2021
1927 Clear 30 1016 30 10000 3.09 260 08:20 03.03.2021
1928 Clear 28 1016 32 10000 3.09 180 07:39 03.03.2021
1929 Clear 27 1016 36 10000 1.54 0 06:47 03.03.2021
1930 Clear 23 1015 47 10000 2.57 90 05:45 03.03.2021
1931 Clouds 22 1014 50 10000 1.54 100 04:50 03.03.2021
1932 Clouds 22 1014 50 10000 1.54 100 04:25 03.03.2021
1933 Clear 25 1013 44 10000 2.06 60 01:46 03.03.2021
1934 Clear 25 1014 41 10000 1.54 80 23:55 02.03.2021
1935 Clear 25 1014 41 10000 1.54 80 23:21 02.03.2021
1936 Clear 25 1014 41 10000 2.06 100 22:41 02.03.2021
1937 Clear 26 1014 41 10000 2.06 100 22:18 02.03.2021
1938 Clear 26 1014 36 10000 3.09 110 21:39 02.03.2021
1939 Clear 26 1014 36 10000 3.09 110 21:19 02.03.2021
1940 Clear 26 1015 39 10000 2.06 100 20:45 02.03.2021
1941 Clear 26 1015 39 10000 2.06 100 20:22 02.03.2021
1942 Clear 26 1016 39 10000 1.54 60 19:51 02.03.2021
1943 Clear 26 1016 39 10000 1.54 60 19:32 02.03.2021
1944 Clear 26 1015 39 10000 1.54 70 18:58 02.03.2021
1945 Clear 26 1015 39 10000 1.54 70 18:39 02.03.2021
1946 Clear 26 1015 39 10000 1.54 70 18:20 02.03.2021
1947 Clear 26 1015 44 10000 3.6 80 17:49 02.03.2021
1948 Clear 26 1015 44 10000 3.6 80 17:29 02.03.2021
1949 Clear 27 1014 41 10000 4.12 30 16:49 02.03.2021
1950 Clear 27 1014 41 10000 4.12 30 16:20 02.03.2021
1951 Clear 28 1014 44 10000 4.63 20 15:47 02.03.2021
1952 Clear 28 1014 44 10000 4.63 20 15:21 02.03.2021
1953 Clear 29 1014 34 10000 4.63 350 14:21 02.03.2021
1954 Clear 28 1014 47 10000 6.69 340 13:48 02.03.2021
1955 Clear 28 1014 47 10000 6.69 340 13:28 02.03.2021
1956 Clear 31 1014 37 10000 6.69 320 12:51 02.03.2021
1957 Clear 31 1014 37 10000 6.69 320 12:26 02.03.2021
1958 Clear 32 1015 33 10000 6.17 320 11:53 02.03.2021
1959 Clear 32 1015 33 10000 6.17 320 11:29 02.03.2021
1960 Clear 32 1015 31 10000 4.63 310 10:55 02.03.2021
1961 Clear 32 1015 31 10000 4.63 310 10:31 02.03.2021
1962 Clear 32 1016 27 10000 4.12 250 09:44 02.03.2021
1963 Clear 31 1016 27 10000 4.12 250 09:24 02.03.2021
1964 Clear 30 1017 30 10000 3.6 190 08:54 02.03.2021
1965 Clear 29 1017 30 10000 3.6 190 08:33 02.03.2021
1966 Clear 26 1017 39 10000 3.09 170 07:46 02.03.2021
1967 Clear 23 1017 47 10000 2.57 130 06:37 02.03.2021
1968 Clear 21 1017 56 10000 3.09 110 05:52 02.03.2021
1969 Clear 22 1017 56 10000 3.09 110 05:32 02.03.2021
1970 Clear 20 1016 60 10000 2.06 110 04:37 02.03.2021
1971 Clear 19 1014 60 10000 2.57 60 01:42 02.03.2021
1972 Clear 19 1014 60 10000 2.57 60 01:21 02.03.2021
1973 Clear 21 1015 60 10000 1.54 0 23:29 01.03.2021
1974 Clear 21 1015 60 10000 2.06 40 22:56 01.03.2021
1975 Clear 21 1015 60 10000 2.06 40 22:38 01.03.2021
1976 Clear 22 1015 60 10000 2.06 40 22:19 01.03.2021
1977 Clear 22 1015 56 10000 1.03 0 21:41 01.03.2021
1978 Clear 22 1015 56 10000 1.03 0 21:23 01.03.2021
1979 Clear 22 1015 56 10000 1.03 0 21:23 01.03.2021
1980 Clear 22 1015 56 10000 2.06 80 20:42 01.03.2021
1981 Clear 22 1015 56 10000 2.06 80 20:20 01.03.2021
1982 Clear 22 1015 56 10000 2.57 90 19:43 01.03.2021
1983 Clear 22 1015 56 10000 2.57 90 19:24 01.03.2021
1984 Clear 23 1015 56 10000 2.57 70 18:43 01.03.2021
1985 Clear 23 1015 56 10000 2.57 70 18:23 01.03.2021
1986 Clear 24 1015 57 10000 4.12 70 17:47 01.03.2021
1987 Clear 23 1015 57 10000 4.12 70 17:22 01.03.2021
1988 Clear 24 1014 50 10000 4.63 50 16:47 01.03.2021
1989 Clear 25 1014 50 10000 4.63 50 16:27 01.03.2021
1990 Clear 25 1013 53 10000 4.12 60 15:49 01.03.2021
1991 Clear 25 1013 53 10000 4.12 60 15:22 01.03.2021
1992 Clear 25 1014 47 10000 4.63 30 14:58 01.03.2021
1993 Clear 26 1014 47 10000 4.63 30 14:39 01.03.2021
1994 Clear 26 1013 47 10000 4.12 340 13:50 01.03.2021
1995 Clear 26 1013 47 10000 4.12 340 13:29 01.03.2021
1996 Clear 26 1014 47 10000 4.63 340 12:59 01.03.2021
1997 Clear 26 1014 47 10000 4.63 340 12:41 01.03.2021
1998 Clear 26 1014 47 10000 4.63 340 12:21 01.03.2021
1999 Clear 26 1014 47 10000 5.14 340 11:47 01.03.2021
2000 Clear 26 1015 38 10000 2.06 320 11:00 01.03.2021
2001 Clear 26 1015 38 10000 2.06 320 10:37 01.03.2021
2002 Clear 26 1015 38 10000 2.06 320 10:18 01.03.2021
2003 Clear 25 1016 41 10000 3.09 340 09:46 01.03.2021
2004 Clear 25 1016 41 10000 3.09 340 09:25 01.03.2021
2005 Clear 25 1016 38 10000 1.54 220 08:55 01.03.2021
2006 Clear 24 1016 38 10000 1.54 220 08:22 01.03.2021
2007 Clear 21 1016 52 10000 2.06 100 06:55 01.03.2021
2008 Clear 19 1016 52 10000 2.06 100 06:24 01.03.2021
2009 Clear 17 1014 63 10000 1.54 170 02:38 01.03.2021
2010 Clear 19 1014 56 10000 2.06 160 23:41 28.02.2021
2011 Clear 20 1015 52 10000 1.03 0 22:56 28.02.2021
2012 Clear 20 1015 52 10000 1.03 0 22:26 28.02.2021
2013 Clear 20 1015 52 10000 1.03 0 22:26 28.02.2021
2014 Clear 21 1015 52 10000 2.06 340 21:55 28.02.2021
2015 Clear 21 1015 52 10000 2.06 340 21:33 28.02.2021
2016 Clear 21 1015 52 10000 1.03 0 20:58 28.02.2021
2017 Clear 21 1015 52 10000 1.03 0 20:38 28.02.2021
2018 Clear 21 1015 52 10000 1.03 0 20:18 28.02.2021
2019 Clear 21 1015 52 10000 1.54 0 19:45 28.02.2021
2020 Clear 21 1015 52 10000 1.54 0 19:24 28.02.2021
2021 Clear 22 1015 49 10000 2.57 340 18:43 28.02.2021
2022 Clear 22 1015 49 10000 2.57 340 18:25 28.02.2021
2023 Clear 22 1014 49 10000 4.12 330 17:50 28.02.2021
2024 Clear 22 1014 49 10000 4.12 330 17:28 28.02.2021
2025 Clear 22 1014 49 10000 5.14 310 16:56 28.02.2021
2026 Clear 22 1014 49 10000 5.14 310 16:38 28.02.2021
2027 Clear 22 1014 49 10000 5.14 310 16:18 28.02.2021
2028 Clear 22 1013 49 10000 5.66 320 15:40 28.02.2021
2029 Clear 23 1013 49 10000 5.66 320 15:22 28.02.2021
2030 Clear 23 1013 46 10000 6.17 310 14:52 28.02.2021
2031 Clear 23 1013 46 10000 6.17 310 14:28 28.02.2021
2032 Clear 24 1013 46 10000 7.72 320 13:52 28.02.2021
2033 Clear 24 1013 46 10000 7.72 320 13:21 28.02.2021
2034 Clear 25 1013 44 10000 5.66 310 12:56 28.02.2021
2035 Clear 25 1013 44 10000 5.66 310 12:38 28.02.2021
2036 Clear 25 1013 44 10000 5.66 310 12:19 28.02.2021
2037 Clear 25 1013 44 10000 4.63 320 11:44 28.02.2021
2038 Clear 25 1013 44 10000 4.63 320 11:25 28.02.2021
2039 Clear 26 1014 38 10000 2.06 0 10:55 28.02.2021
2040 Clear 25 1014 38 10000 2.06 0 10:29 28.02.2021
2041 Clear 24 1015 41 10000 1.03 0 09:52 28.02.2021
2042 Clear 24 1015 41 10000 1.03 0 09:33 28.02.2021
2043 Clear 24 1016 46 10000 2.06 0 08:50 28.02.2021
2044 Clear 24 1016 46 10000 2.06 0 08:31 28.02.2021
2045 Clear 22 1016 53 10000 1.54 130 07:57 28.02.2021
2046 Clear 22 1016 53 10000 1.54 130 07:37 28.02.2021
2047 Clear 20 1016 60 10000 2.06 180 06:55 28.02.2021
2048 Clear 17 1015 68 10000 2.57 160 05:25 28.02.2021
2049 Clouds 17 1014 72 10000 2.57 170 03:45 28.02.2021
2050 Clouds 20 1013 56 10000 4.12 320 01:59 28.02.2021
2051 Clouds 19 1014 52 10000 3.6 300 00:53 28.02.2021
2052 Clouds 20 1014 52 10000 3.6 300 00:34 28.02.2021
2053 Clouds 20 1014 56 10000 2.57 260 23:47 27.02.2021
2054 Clouds 21 1014 56 10000 2.57 260 23:20 27.02.2021
2055 Clouds 20 1015 56 10000 5.14 300 22:49 27.02.2021
2056 Clouds 21 1015 56 10000 5.14 300 22:21 27.02.2021
2057 Clouds 21 1015 56 10000 3.6 260 21:48 27.02.2021
2058 Clouds 21 1015 56 10000 3.6 260 21:29 27.02.2021
2059 Clear 21 1015 56 10000 4.12 270 20:49 27.02.2021
2060 Clear 21 1015 56 10000 4.12 270 20:31 27.02.2021
2061 Clear 21 1015 60 10000 3.09 250 19:47 27.02.2021
2062 Clear 21 1015 60 10000 3.09 250 19:28 27.02.2021
2063 Clear 21 1015 60 10000 4.12 270 18:55 27.02.2021
2064 Clear 21 1015 60 10000 4.12 270 18:36 27.02.2021
2065 Clear 21 1015 60 10000 4.12 270 18:18 27.02.2021
2066 Clear 21 1014 60 10000 3.6 270 17:41 27.02.2021
2067 Clear 21 1014 60 10000 3.6 270 17:19 27.02.2021
2068 Clear 22 1014 53 10000 4.63 280 16:49 27.02.2021
2069 Clear 22 1014 53 10000 4.63 280 16:28 27.02.2021
2070 Clear 22 1014 53 10000 4.63 310 15:46 27.02.2021
2071 Clear 23 1014 53 10000 4.63 310 15:19 27.02.2021
2072 Clear 23 1014 49 10000 5.14 280 14:41 27.02.2021
2073 Clear 23 1014 49 10000 5.14 280 14:21 27.02.2021
2074 Clear 23 1013 49 10000 4.12 290 13:43 27.02.2021
2075 Clear 23 1013 49 10000 4.12 290 13:21 27.02.2021
2076 Clear 23 1014 49 10000 5.14 300 12:45 27.02.2021
2077 Clear 23 1014 49 10000 5.14 300 12:24 27.02.2021
2078 Clouds 23 1014 46 10000 4.63 290 11:51 27.02.2021
2079 Clouds 23 1014 46 10000 4.63 290 11:31 27.02.2021
2080 Clouds 23 1015 49 10000 4.12 320 10:51 27.02.2021
2081 Clouds 23 1015 49 10000 4.12 320 10:32 27.02.2021
2082 Clouds 23 1016 49 10000 4.12 280 09:54 27.02.2021
2083 Clouds 22 1016 49 10000 4.12 280 09:32 27.02.2021
2084 Clouds 22 1016 53 10000 4.63 310 08:44 27.02.2021
2085 Clouds 22 1016 53 10000 4.63 310 08:24 27.02.2021
2086 Clouds 22 1017 53 10000 2.57 260 07:58 27.02.2021
2087 Clouds 20 1016 60 10000 2.57 230 06:55 27.02.2021
2088 Clouds 20 1013 60 10000 3.09 270 01:24 27.02.2021
2089 Clouds 20 1013 64 10000 3.09 280 00:30 27.02.2021
2090 Clouds 20 1014 64 10000 2.57 270 23:40 26.02.2021
2091 Clouds 20 1014 64 10000 2.57 270 23:21 26.02.2021
2092 Clouds 20 1014 64 10000 3.6 280 22:34 26.02.2021
2093 Clouds 21 1014 60 10000 4.12 280 21:54 26.02.2021
2094 Clouds 21 1014 60 10000 4.12 280 21:35 26.02.2021
2095 Clouds 21 1014 60 10000 4.12 300 20:55 26.02.2021
2096 Clouds 21 1014 60 10000 4.12 300 20:37 26.02.2021
2097 Clouds 21 1014 60 10000 4.12 300 20:18 26.02.2021
2098 Clouds 21 1014 64 10000 4.12 280 19:26 26.02.2021
2099 Clouds 21 1014 64 10000 5.14 280 18:55 26.02.2021
2100 Clouds 21 1014 64 10000 5.14 280 18:25 26.02.2021
2101 Clear 21 1014 64 10000 4.63 280 17:58 26.02.2021
2102 Clear 21 1014 64 10000 4.63 280 17:36 26.02.2021
2103 Clear 22 1013 60 10000 5.14 280 16:59 26.02.2021
2104 Clear 22 1013 60 10000 5.14 280 16:41 26.02.2021
2105 Clear 22 1013 60 10000 5.14 280 16:22 26.02.2021
2106 Clouds 22 1013 60 10000 6.17 290 15:43 26.02.2021
2107 Clouds 22 1013 60 10000 6.17 290 15:23 26.02.2021
2108 Clouds 23 1013 56 10000 5.66 290 14:53 26.02.2021
2109 Clouds 23 1013 56 10000 5.66 290 14:34 26.02.2021
2110 Clouds 24 1013 53 10000 7.72 290 13:52 26.02.2021
2111 Clouds 24 1013 53 10000 7.72 290 13:33 26.02.2021
2112 Clear 24 1013 53 10000 7.72 300 12:50 26.02.2021
2113 Clear 24 1013 53 10000 7.72 300 12:26 26.02.2021
2114 Clouds 24 1013 57 10000 6.17 290 11:42 26.02.2021
2115 Clouds 24 1014 53 10000 5.66 290 10:58 26.02.2021
2116 Clouds 24 1014 53 10000 5.66 290 10:25 26.02.2021
2117 Clouds 24 1015 57 10000 5.66 290 09:47 26.02.2021
2118 Clouds 23 1015 57 10000 5.66 290 09:27 26.02.2021
2119 Clouds 23 1015 60 10000 5.66 310 08:35 26.02.2021
2120 Clouds 23 1015 60 10000 3.6 280 07:56 26.02.2021
2121 Clouds 22 1015 60 10000 3.6 280 07:22 26.02.2021
2122 Clouds 22 1014 68 10000 4.12 300 06:31 26.02.2021
2123 Clouds 22 1013 73 10000 5.14 320 04:59 26.02.2021
2124 Clouds 22 1012 83 10000 5.66 320 02:38 26.02.2021
2125 Clouds 23 1011 78 10000 6.17 320 00:27 26.02.2021
2126 Clear 23 1011 78 10000 5.66 320 23:39 25.02.2021
2127 Clear 23 1012 83 10000 5.14 320 22:57 25.02.2021
2128 Clear 23 1012 83 10000 5.14 320 22:37 25.02.2021
2129 Clear 24 1012 73 10000 4.12 320 21:51 25.02.2021
2130 Clear 24 1012 73 10000 4.12 320 21:32 25.02.2021
2131 Clear 24 1012 73 10000 4.12 310 20:54 25.02.2021
2132 Clear 24 1012 73 10000 4.12 310 20:36 25.02.2021
2133 Clear 24 1012 73 10000 4.12 310 20:18 25.02.2021
2134 Clear 24 1012 73 10000 4.12 310 20:18 25.02.2021
2135 Clear 24 1012 64 10000 2.06 40 19:46 25.02.2021
2136 Clear 24 1012 64 10000 2.06 40 19:19 25.02.2021
2137 Clear 24 1011 73 10000 2.57 20 18:39 25.02.2021
2138 Clear 24 1011 73 10000 2.57 20 18:18 25.02.2021
2139 Clouds 24 1011 83 10000 4.12 340 17:33 25.02.2021
2140 Clear 25 1011 69 10000 3.6 360 16:56 25.02.2021
2141 Clear 25 1011 69 10000 3.6 360 16:33 25.02.2021
2142 Clear 26 1010 65 10000 4.12 360 15:48 25.02.2021
2143 Clear 26 1010 65 10000 4.12 360 15:28 25.02.2021
2144 Clear 27 1010 47 10000 7.2 340 14:32 25.02.2021
2145 Clear 28 1010 47 10000 8.23 320 13:59 25.02.2021
2146 Clear 28 1010 47 10000 8.23 320 13:40 25.02.2021
2147 Clear 28 1010 47 10000 8.23 320 13:20 25.02.2021
2148 Clear 31 1010 30 10000 5.66 320 12:24 25.02.2021
2149 Clear 31 1011 25 10000 1.54 0 11:57 25.02.2021
2150 Clear 30 1011 25 10000 1.54 0 11:39 25.02.2021
2151 Clouds 29 1011 30 10000 2.06 110 10:51 25.02.2021
2152 Clouds 29 1011 30 10000 2.06 110 10:33 25.02.2021
2153 Clouds 28 1012 34 10000 2.57 110 09:45 25.02.2021
2154 Clouds 27 1012 34 10000 2.57 110 09:23 25.02.2021
2155 Clear 26 1013 34 10000 3.6 110 08:32 25.02.2021
2156 Clear 26 1014 41 10000 2.06 130 07:59 25.02.2021
2157 Clear 25 1014 41 10000 2.06 130 07:38 25.02.2021
2158 Clear 24 1013 50 10000 2.57 110 06:57 25.02.2021
2159 Clear 22 1013 56 10000 2.57 130 05:24 25.02.2021
2160 Clear 23 1011 60 10000 1.54 220 01:45 25.02.2021
2161 Clear 23 1011 60 10000 2.06 270 00:48 25.02.2021
2162 Clear 23 1011 60 10000 2.06 270 00:19 25.02.2021
2163 Clear 24 1011 60 10000 2.57 180 23:35 24.02.2021
2164 Clear 24 1012 60 10000 2.06 190 22:47 24.02.2021
2165 Clear 24 1012 60 10000 2.06 190 22:29 24.02.2021
2166 Clear 24 1012 60 10000 2.06 240 21:49 24.02.2021
2167 Clear 24 1012 60 10000 2.06 240 21:25 24.02.2021
2168 Clear 25 1011 53 10000 2.06 130 20:48 24.02.2021
2169 Clear 25 1011 53 10000 2.06 130 20:26 24.02.2021
2170 Clear 25 1012 50 10000 2.57 0 19:42 24.02.2021
2171 Clear 25 1012 50 10000 2.57 0 19:20 24.02.2021
2172 Clear 25 1012 50 10000 1.03 0 18:50 24.02.2021
2173 Clear 25 1012 50 10000 1.03 0 18:30 24.02.2021
2174 Clear 25 1012 57 10000 1.03 0 17:39 24.02.2021
2175 Clear 25 1012 57 10000 1.03 0 17:21 24.02.2021
2176 Clear 26 1011 50 10000 2.57 300 16:46 24.02.2021
2177 Clear 26 1011 50 10000 2.57 300 16:21 24.02.2021
2178 Clear 26 1011 50 10000 3.6 310 15:50 24.02.2021
2179 Clear 26 1011 50 10000 3.6 310 15:28 24.02.2021
2180 Clear 27 1011 47 10000 4.12 310 14:44 24.02.2021
2181 Clear 27 1011 47 10000 4.12 310 14:26 24.02.2021
2182 Clear 27 1011 50 10000 6.17 330 13:41 24.02.2021
2183 Clear 27 1011 50 10000 6.17 330 13:23 24.02.2021
2184 Clear 27 1011 44 10000 5.66 330 12:55 24.02.2021
2185 Clear 27 1011 44 10000 5.66 330 12:33 24.02.2021
2186 Clear 28 1012 44 10000 5.66 320 11:52 24.02.2021
2187 Clear 27 1012 44 10000 5.66 320 11:29 24.02.2021
2188 Clear 27 1013 50 10000 5.14 310 10:38 24.02.2021
2189 Clear 27 1013 50 10000 5.14 310 10:20 24.02.2021
2190 Clear 26 1014 42 10000 2.57 0 09:24 24.02.2021
2191 Clear 25 1015 65 10000 2.57 270 08:45 24.02.2021
2192 Clear 24 1015 65 10000 2.57 270 08:24 24.02.2021
2193 Clear 22 1015 69 10000 1.54 230 07:21 24.02.2021
2194 Clear 21 1015 78 10000 4.12 200 06:56 24.02.2021
2195 Clear 20 1013 77 10000 2.06 180 04:40 24.02.2021
2196 Clear 22 1013 73 10000 2.06 250 00:44 24.02.2021
2197 Clear 23 1014 64 10000 2.06 260 23:32 23.02.2021
2198 Clear 23 1014 64 10000 1.54 220 22:43 23.02.2021
2199 Clear 23 1014 64 10000 1.54 220 22:21 23.02.2021
2200 Clear 23 1015 64 10000 2.57 250 21:47 23.02.2021
2201 Clear 23 1015 64 10000 2.57 250 21:24 23.02.2021
2202 Clear 23 1015 64 10000 2.57 240 20:49 23.02.2021
2203 Clear 23 1015 64 10000 2.57 240 20:30 23.02.2021
2204 Clear 24 1015 57 10000 2.06 230 19:49 23.02.2021
2205 Clear 24 1015 57 10000 2.06 230 19:29 23.02.2021
2206 Clear 24 1015 57 10000 2.06 240 18:59 23.02.2021
2207 Clear 24 1015 57 10000 2.06 240 18:41 23.02.2021
2208 Clear 25 1015 57 10000 2.06 240 18:20 23.02.2021
2209 Clear 25 1015 53 10000 2.06 270 17:46 23.02.2021
2210 Clear 25 1015 53 10000 2.06 270 17:18 23.02.2021
2211 Clear 25 1014 47 10000 3.6 280 16:43 23.02.2021
2212 Clear 25 1014 47 10000 3.6 280 16:20 23.02.2021
2213 Clear 26 1014 44 10000 4.12 300 15:42 23.02.2021
2214 Clear 26 1014 44 10000 4.12 300 15:23 23.02.2021
2215 Clear 27 1014 41 10000 5.66 320 14:46 23.02.2021
2216 Clear 27 1014 41 10000 5.66 320 14:26 23.02.2021
2217 Clear 27 1014 47 10000 5.66 310 13:55 23.02.2021
2218 Clear 27 1014 47 10000 5.66 310 13:31 23.02.2021
2219 Clear 27 1015 44 10000 6.69 320 12:54 23.02.2021
2220 Clear 27 1015 44 10000 6.69 320 12:22 23.02.2021
2221 Clear 27 1015 47 10000 5.14 320 11:51 23.02.2021
2222 Clear 27 1015 47 10000 5.14 320 11:23 23.02.2021
2223 Clear 27 1016 47 10000 6.69 320 10:53 23.02.2021
2224 Clear 27 1016 47 10000 6.69 320 10:35 23.02.2021
2225 Clear 27 1017 54 10000 5.14 300 09:45 23.02.2021
2226 Clear 26 1017 54 10000 5.14 300 09:25 23.02.2021
2227 Clear 26 1018 57 10000 3.09 280 08:57 23.02.2021
2228 Clear 26 1018 57 10000 3.09 280 08:38 23.02.2021
2229 Clear 25 1018 57 10000 3.09 280 08:19 23.02.2021
2230 Clear 20 1017 73 8000 1.54 190 05:44 23.02.2021
2231 Clear 20 1017 73 8000 1.54 190 05:19 23.02.2021
2232 Clear 20 1015 64 10000 1.54 160 02:34 23.02.2021
2233 Clear 22 1016 64 10000 2.06 200 00:20 23.02.2021
2234 Clear 22 1016 73 10000 1.03 0 23:57 22.02.2021
2235 Clear 22 1016 73 10000 1.03 0 23:21 22.02.2021
2236 Clear 23 1017 68 10000 2.57 340 22:41 22.02.2021
2237 Clear 23 1017 68 10000 2.57 340 22:20 22.02.2021
2238 Clear 23 1017 68 10000 3.6 320 21:45 22.02.2021
2239 Clear 23 1017 68 10000 3.6 320 21:23 22.02.2021
2240 Clear 24 1017 69 10000 3.09 340 20:52 22.02.2021
2241 Clear 24 1017 69 10000 3.09 340 20:29 22.02.2021
2242 Clear 24 1017 69 10000 4.12 320 19:53 22.02.2021
2243 Clear 24 1017 69 10000 4.12 320 19:35 22.02.2021
2244 Clear 25 1017 50 10000 4.12 330 18:56 22.02.2021
2245 Clear 24 1017 50 10000 4.12 330 18:37 22.02.2021
2246 Clear 24 1017 50 10000 4.12 330 18:19 22.02.2021
2247 Clear 25 1017 53 10000 3.6 310 17:26 22.02.2021
2248 Clear 25 1016 50 10000 4.63 330 16:54 22.02.2021
2249 Clear 25 1016 50 10000 4.63 330 16:32 22.02.2021
2250 Clear 26 1016 47 10000 5.66 330 15:47 22.02.2021
2251 Clear 26 1016 47 10000 5.66 330 15:28 22.02.2021
2252 Clear 26 1016 44 10000 5.66 340 14:47 22.02.2021
2253 Clear 27 1016 44 10000 5.66 340 14:28 22.02.2021
2254 Clear 27 1016 50 10000 6.17 320 13:46 22.02.2021
2255 Clear 29 1016 30 10000 6.69 330 12:58 22.02.2021
2256 Clear 29 1016 30 10000 6.69 330 12:36 22.02.2021
2257 Clear 29 1016 34 10000 4.12 320 12:18 22.02.2021
2258 Clear 29 1016 34 10000 4.12 320 11:41 22.02.2021
2259 Clear 28 1016 34 10000 4.12 320 11:22 22.02.2021
2260 Clear 28 1017 34 10000 3.6 340 10:46 22.02.2021
2261 Clear 28 1017 34 10000 3.6 340 10:22 22.02.2021
2262 Clear 28 1018 42 10000 3.09 350 09:42 22.02.2021
2263 Clear 27 1018 42 10000 3.09 350 09:24 22.02.2021
2264 Clear 26 1019 57 10000 3.6 300 08:49 22.02.2021
2265 Clear 25 1019 57 10000 3.6 300 08:24 22.02.2021
2266 Clear 25 1019 65 10000 1.54 150 07:53 22.02.2021
2267 Clear 24 1019 65 10000 1.54 150 07:25 22.02.2021
2268 Clear 24 1019 73 10000 1.03 0 06:32 22.02.2021
2269 Clouds 20 1018 83 7000 0.51 90 05:38 22.02.2021
2270 Clear 21 1017 78 10000 1.54 70 03:25 22.02.2021
2271 Clear 21 1016 73 10000 1.54 50 02:48 22.02.2021
2272 Clear 22 1016 68 10000 1.54 30 00:45 22.02.2021
2273 Clear 22 1016 68 10000 1.54 30 00:20 22.02.2021
2274 Clear 22 1017 68 10000 2.06 20 23:29 21.02.2021
2275 Clear 22 1017 73 10000 0.51 0 22:43 21.02.2021
2276 Clear 22 1017 73 10000 0.51 0 22:22 21.02.2021
2277 Clear 23 1017 73 10000 1.54 350 21:37 21.02.2021
2278 Clear 23 1017 73 10000 1.54 350 21:19 21.02.2021
2279 Clear 24 1017 69 10000 2.57 30 20:40 21.02.2021
2280 Clear 24 1017 69 10000 2.57 30 20:19 21.02.2021
2281 Clear 24 1018 69 10000 2.06 350 19:51 21.02.2021
2282 Clear 24 1018 69 10000 2.06 350 19:32 21.02.2021
2283 Clear 24 1017 64 10000 3.09 20 18:48 21.02.2021
2284 Clear 24 1017 64 10000 3.09 20 18:25 21.02.2021
2285 Clear 25 1017 53 10000 3.6 10 17:29 21.02.2021
2286 Clear 25 1016 50 10000 4.63 50 16:58 21.02.2021
2287 Clear 25 1016 50 10000 4.63 50 16:34 21.02.2021
2288 Clear 26 1016 50 10000 4.12 20 15:54 21.02.2021
2289 Clear 26 1016 50 10000 4.12 20 15:54 21.02.2021
2290 Clear 26 1016 50 10000 4.12 20 15:22 21.02.2021
2291 Clear 26 1016 47 10000 5.14 20 14:50 21.02.2021
2292 Clear 26 1016 47 10000 5.14 20 14:28 21.02.2021
2293 Clear 26 1015 50 10000 5.66 10 13:47 21.02.2021
2294 Clear 26 1015 50 10000 5.66 10 13:23 21.02.2021
2295 Clear 25 1015 61 10000 5.66 360 12:32 21.02.2021
2296 Clear 25 1016 61 10000 6.17 340 11:56 21.02.2021
2297 Clear 25 1016 61 10000 6.17 340 11:36 21.02.2021
2298 Clear 26 1017 53 10000 5.66 340 10:36 21.02.2021
2299 Clear 27 1017 53 10000 5.66 340 10:18 21.02.2021
2300 Clear 27 1017 50 10000 5.14 330 09:41 21.02.2021
2301 Clear 28 1018 34 10000 2.06 90 09:23 21.02.2021
2302 Clear 27 1018 44 10000 2.57 80 08:32 21.02.2021
2303 Clear 25 1018 47 10000 2.57 90 07:43 21.02.2021
2304 Clear 25 1018 47 10000 2.57 90 07:21 21.02.2021
2305 Clear 22 1017 68 10000 2.57 40 04:57 21.02.2021
2306 Clear 20 1016 73 10000 2.06 50 02:32 21.02.2021
2307 Clear 22 1017 73 10000 2.57 50 00:52 21.02.2021
2308 Clear 22 1017 73 10000 2.57 50 00:20 21.02.2021
2309 Clear 23 1017 68 10000 2.57 70 23:29 20.02.2021
2310 Clear 23 1017 78 10000 2.06 350 22:49 20.02.2021
2311 Clear 23 1017 78 10000 2.06 350 22:29 20.02.2021
2312 Clear 23 1017 68 10000 3.09 350 21:47 20.02.2021
2313 Clear 23 1017 68 10000 3.09 350 21:27 20.02.2021
2314 Clear 24 1017 69 10000 3.09 330 20:51 20.02.2021
2315 Clear 24 1017 69 10000 3.09 330 20:30 20.02.2021
2316 Clear 24 1018 69 10000 2.06 350 19:53 20.02.2021
2317 Clear 24 1018 69 10000 2.06 350 19:33 20.02.2021
2318 Clear 24 1018 73 10000 4.12 340 18:46 20.02.2021
2319 Clear 24 1018 73 10000 4.12 340 18:27 20.02.2021
2320 Clouds 24 1017 78 10000 5.66 330 17:43 20.02.2021
2321 Clouds 24 1017 78 10000 5.66 330 17:25 20.02.2021
2322 Clouds 24 1017 78 10000 7.2 330 16:43 20.02.2021
2323 Clouds 25 1017 78 10000 7.2 330 16:22 20.02.2021
2324 Clear 26 1016 61 10000 2.57 340 15:37 20.02.2021
2325 Clear 27 1016 41 10000 2.57 20 14:49 20.02.2021
2326 Clear 26 1016 41 10000 2.57 20 14:24 20.02.2021
2327 Clear 26 1016 50 10000 4.63 340 13:51 20.02.2021
2328 Clear 26 1016 50 10000 4.63 340 13:27 20.02.2021
2329 Clear 26 1016 47 10000 6.17 360 12:52 20.02.2021
2330 Clear 26 1016 47 10000 6.17 360 12:32 20.02.2021
2331 Clear 27 1017 47 10000 5.66 320 11:48 20.02.2021
2332 Clear 27 1017 47 10000 5.66 320 11:30 20.02.2021
2333 Clear 28 1017 47 10000 2.57 290 10:50 20.02.2021
2334 Clouds 27 1018 50 10000 2.06 320 09:59 20.02.2021
2335 Clouds 27 1018 50 10000 2.06 320 09:40 20.02.2021
2336 Clouds 25 1018 65 10000 2.57 290 08:49 20.02.2021
2337 Clouds 24 1018 65 10000 2.57 290 08:19 20.02.2021
2338 Clouds 21 1016 83 8000 2.57 320 03:40 20.02.2021
2339 Clouds 19 1016 83 7000 1.54 300 02:30 20.02.2021
2340 Clouds 19 1016 88 7000 2.57 270 01:50 20.02.2021
2341 Clouds 20 1016 88 8000 1.54 230 00:48 20.02.2021
2342 Clouds 20 1016 88 8000 1.54 230 00:23 20.02.2021
2343 Clear 21 1016 83 10000 1.03 0 23:19 19.02.2021
2344 Clear 22 1017 83 10000 2.57 200 22:37 19.02.2021
2345 Clear 22 1017 83 10000 2.57 200 22:18 19.02.2021
2346 Clear 23 1017 78 10000 2.06 240 21:36 19.02.2021
2347 Clear 23 1017 78 10000 1.03 0 20:58 19.02.2021
2348 Clear 23 1017 78 10000 1.03 0 20:40 19.02.2021
2349 Clear 23 1017 78 10000 1.03 0 20:22 19.02.2021
2350 Clear 23 1018 73 10000 1.03 0 19:41 19.02.2021
2351 Clear 23 1018 73 10000 1.03 0 19:19 19.02.2021
2352 Clear 23 1018 73 10000 2.57 340 18:42 19.02.2021
2353 Clear 23 1018 73 10000 2.57 340 18:23 19.02.2021
2354 Clear 23 1017 78 10000 2.57 360 17:24 19.02.2021
2355 Clear 24 1017 73 10000 2.57 310 16:39 19.02.2021
2356 Clear 24 1017 73 10000 2.57 310 16:20 19.02.2021
2357 Clear 24 1017 73 10000 3.6 360 15:47 19.02.2021
2358 Clear 24 1017 73 10000 3.6 360 15:27 19.02.2021
2359 Clear 24 1017 73 10000 4.63 330 14:44 19.02.2021
2360 Clear 24 1017 73 10000 4.63 330 14:26 19.02.2021
2361 Clear 25 1017 65 10000 5.66 330 13:53 19.02.2021
2362 Clear 25 1017 65 10000 5.66 330 13:25 19.02.2021
2363 Clouds 26 1017 65 10000 6.69 310 12:52 19.02.2021
2364 Clouds 26 1017 65 10000 6.69 310 12:24 19.02.2021
2365 Clear 27 1017 47 10000 7.2 320 11:53 19.02.2021
2366 Clear 27 1017 47 10000 7.2 320 11:26 19.02.2021
2367 Clear 27 1018 54 10000 4.63 320 10:54 19.02.2021
2368 Clear 27 1018 54 10000 4.63 320 10:31 19.02.2021
2369 Clear 28 1018 39 10000 1.54 0 09:51 19.02.2021
2370 Clear 27 1018 39 10000 1.54 0 09:26 19.02.2021
2371 Clear 27 1019 50 10000 1.54 270 08:54 19.02.2021
2372 Clear 27 1019 50 10000 1.54 270 08:25 19.02.2021
2373 Clear 25 1018 65 10000 1.03 0 07:49 19.02.2021
2374 Clear 25 1018 65 10000 1.03 0 07:30 19.02.2021
2375 Clear 24 1018 69 10000 4.12 320 06:54 19.02.2021
2376 Clear 22 1017 78 10000 5.66 310 05:40 19.02.2021
2377 Clear 21 1016 46 10000 5.14 320 04:41 19.02.2021
2378 Clear 22 1014 46 10000 1.54 190 01:48 19.02.2021
2379 Clear 22 1014 46 10000 2.57 150 00:37 19.02.2021
2380 Clear 22 1015 46 10000 2.57 140 23:56 18.02.2021
2381 Clear 23 1015 46 10000 2.57 140 23:35 18.02.2021
2382 Clear 24 1015 46 10000 3.09 130 22:50 18.02.2021
2383 Clear 24 1015 46 10000 3.09 130 22:30 18.02.2021
2384 Clear 24 1015 47 10000 3.09 120 21:52 18.02.2021
2385 Clear 24 1015 47 10000 3.09 120 21:26 18.02.2021
2386 Clear 24 1016 53 10000 2.06 110 20:44 18.02.2021
2387 Clear 24 1016 53 10000 2.06 110 20:24 18.02.2021
2388 Clear 25 1016 50 10000 2.06 80 19:48 18.02.2021
2389 Clear 25 1016 50 10000 2.06 80 19:28 18.02.2021
2390 Clear 24 1016 50 10000 3.09 60 18:55 18.02.2021
2391 Clear 24 1016 50 10000 3.09 60 18:32 18.02.2021
2392 Clear 25 1015 44 10000 2.06 350 17:59 18.02.2021
2393 Clear 25 1015 44 10000 2.06 350 17:41 18.02.2021
2394 Clear 25 1015 44 10000 2.06 350 17:19 18.02.2021
2395 Clear 26 1015 47 10000 4.63 340 16:41 18.02.2021
2396 Clear 26 1015 47 10000 4.63 340 16:21 18.02.2021
2397 Clear 27 1014 44 10000 6.17 330 15:39 18.02.2021
2398 Clear 27 1014 44 10000 6.17 330 15:21 18.02.2021
2399 Clear 28 1014 36 10000 7.72 320 14:49 18.02.2021
2400 Clear 27 1014 36 10000 7.72 320 14:29 18.02.2021
2401 Clear 29 1013 32 10000 7.72 320 13:46 18.02.2021
2402 Clear 29 1013 32 10000 7.72 320 13:19 18.02.2021
2403 Clear 29 1013 32 10000 6.17 310 12:45 18.02.2021
2404 Clear 29 1013 32 10000 6.17 310 12:22 18.02.2021
2405 Clear 30 1013 30 10000 5.66 300 11:46 18.02.2021
2406 Clear 30 1013 30 10000 5.66 300 11:26 18.02.2021
2407 Clear 32 1014 19 10000 4.63 230 10:47 18.02.2021
2408 Clear 32 1014 19 10000 4.63 230 10:29 18.02.2021
2409 Clear 31 1014 20 10000 5.66 200 09:49 18.02.2021
2410 Clear 30 1014 20 10000 5.66 200 09:24 18.02.2021
2411 Clouds 29 1015 24 8000 4.63 200 08:47 18.02.2021
2412 Clouds 29 1015 24 8000 4.63 200 08:25 18.02.2021
2413 Clear 27 1016 26 10000 4.63 200 07:34 18.02.2021
2414 Clear 25 1015 29 10000 4.63 210 06:53 18.02.2021
2415 Clear 20 1012 49 10000 1.54 190 02:54 18.02.2021
2416 Clear 22 1012 46 10000 2.06 140 23:55 17.02.2021
2417 Clear 22 1012 46 10000 2.06 140 23:30 17.02.2021
2418 Clear 23 1012 43 10000 2.57 110 22:53 17.02.2021
2419 Clear 23 1012 43 10000 2.57 110 22:27 17.02.2021
2420 Clear 23 1012 33 10000 2.06 100 21:56 17.02.2021
2421 Clear 23 1012 33 10000 2.06 100 21:22 17.02.2021
2422 Clear 24 1013 33 10000 1.54 90 20:49 17.02.2021
2423 Clear 25 1013 33 10000 1.54 90 20:31 17.02.2021
2424 Clear 25 1013 34 10000 3.6 50 19:51 17.02.2021
2425 Clear 25 1013 34 10000 3.6 50 19:32 17.02.2021
2426 Clear 25 1013 36 10000 2.06 30 18:46 17.02.2021
2427 Clear 25 1013 36 10000 2.06 30 18:26 17.02.2021
2428 Clear 25 1012 44 10000 3.6 50 17:42 17.02.2021
2429 Clear 25 1012 44 10000 3.6 50 17:20 17.02.2021
2430 Clear 26 1012 39 10000 3.09 40 16:47 17.02.2021
2431 Clear 26 1012 39 10000 3.09 40 16:28 17.02.2021
2432 Clear 28 1011 36 10000 4.12 30 15:45 17.02.2021
2433 Clear 28 1011 36 10000 4.12 30 15:27 17.02.2021
2434 Clear 30 1011 25 10000 3.6 330 14:50 17.02.2021
2435 Clear 30 1011 25 10000 3.6 330 14:29 17.02.2021
2436 Clear 30 1011 26 10000 4.12 340 13:50 17.02.2021
2437 Clear 30 1011 26 10000 4.12 340 13:32 17.02.2021
2438 Clear 30 1011 32 10000 4.63 330 12:50 17.02.2021
2439 Clear 31 1011 32 10000 4.63 330 12:25 17.02.2021
2440 Clear 33 1012 13 10000 3.09 240 11:46 17.02.2021
2441 Clear 33 1012 13 10000 3.09 240 11:28 17.02.2021
2442 Clear 32 1013 13 10000 3.6 200 10:50 17.02.2021
2443 Clear 32 1013 13 10000 3.6 200 10:31 17.02.2021
2444 Clear 30 1014 19 10000 2.57 170 09:56 17.02.2021
2445 Clear 30 1014 19 10000 2.57 170 09:36 17.02.2021
2446 Clear 28 1015 28 10000 2.57 170 08:49 17.02.2021
2447 Clear 27 1015 28 10000 2.57 170 08:23 17.02.2021
2448 Clear 24 1015 46 10000 2.06 170 07:55 17.02.2021
2449 Clear 22 1015 56 6000 2.06 0 06:37 17.02.2021
2450 Haze 17 1012 88 2500 1.54 0 03:52 17.02.2021
2451 Haze 17 1012 88 3500 2.06 120 02:31 17.02.2021
2452 Haze 18 1012 88 3500 2.06 110 01:35 17.02.2021
2453 Haze 19 1012 88 4000 2.06 100 00:28 17.02.2021
2454 Haze 20 1012 88 4500 2.06 90 23:39 16.02.2021
2455 Clear 20 1012 78 6000 1.03 110 22:47 16.02.2021
2456 Clear 20 1012 78 6000 1.03 110 22:26 16.02.2021
2457 Clear 20 1012 78 6000 1.03 110 22:26 16.02.2021
2458 Clear 21 1013 78 7000 1.54 70 21:59 16.02.2021
2459 Clear 21 1013 78 7000 1.54 70 21:39 16.02.2021
2460 Clear 21 1013 78 7000 1.54 70 21:39 16.02.2021
2461 Clear 21 1013 78 7000 1.54 70 21:39 16.02.2021
2462 Clear 21 1013 78 7000 1.54 70 21:39 16.02.2021
2463 Clear 21 1013 78 7000 1.54 70 21:21 16.02.2021
2464 Clear 21 1013 73 8000 1.54 40 20:50 16.02.2021
2465 Clear 21 1013 73 8000 1.54 40 20:24 16.02.2021
2466 Clear 22 1013 73 10000 1.54 60 19:49 16.02.2021
2467 Clear 22 1013 73 10000 1.54 60 19:28 16.02.2021
2468 Clear 22 1013 68 10000 2.06 20 18:50 16.02.2021
2469 Clear 22 1013 68 10000 2.06 20 18:26 16.02.2021
2470 Clear 23 1012 68 10000 3.6 330 17:53 16.02.2021
2471 Clear 23 1012 68 10000 3.6 330 17:27 16.02.2021
2472 Clear 23 1011 68 10000 4.12 340 16:57 16.02.2021
2473 Clear 23 1011 68 10000 4.12 340 16:38 16.02.2021
2474 Clear 23 1011 68 10000 4.12 340 16:19 16.02.2021
2475 Clear 24 1011 69 8000 5.14 340 15:36 16.02.2021
2476 Clear 24 1011 69 8000 5.14 340 15:18 16.02.2021
2477 Clear 25 1010 73 7000 6.17 320 14:40 16.02.2021
2478 Clear 25 1010 73 7000 6.17 320 14:21 16.02.2021
2479 Clear 26 1010 65 7000 6.17 320 13:46 16.02.2021
2480 Clear 27 1010 61 7000 5.66 320 12:59 16.02.2021
2481 Clear 27 1010 61 7000 5.66 320 12:41 16.02.2021
2482 Clear 27 1010 61 7000 5.66 320 12:19 16.02.2021
2483 Haze 28 1011 50 5000 4.12 330 11:40 16.02.2021
2484 Haze 28 1011 50 5000 4.12 330 11:20 16.02.2021
2485 Haze 27 1011 54 4000 3.6 340 10:46 16.02.2021
2486 Clear 27 1012 36 8000 1.03 0 10:27 16.02.2021
2487 Clear 25 1013 47 6000 1.54 0 09:53 16.02.2021
2488 Clear 25 1013 47 6000 1.54 0 09:28 16.02.2021
2489 Clear 25 1013 47 6000 1.54 0 09:28 16.02.2021
2490 Haze 23 1014 64 5000 1.54 150 08:52 16.02.2021
2491 Haze 23 1014 64 5000 1.54 150 08:29 16.02.2021
2492 Haze 21 1015 78 3200 1.54 0 07:54 16.02.2021
2493 Mist 19 1015 82 1500 2.06 170 06:58 16.02.2021
2494 Haze 17 1012 82 5000 1.54 190 02:47 16.02.2021
2495 Clear 18 1012 77 6000 1.54 140 00:23 16.02.2021
2496 Clear 18 1012 83 6000 1.03 220 23:30 15.02.2021
2497 Clear 18 1012 83 6000 1.03 220 23:30 15.02.2021
2498 Clear 18 1013 83 7000 1.03 0 22:51 15.02.2021
2499 Clear 18 1013 83 7000 1.03 0 22:29 15.02.2021
2500 Clear 19 1013 78 7000 1.54 240 21:49 15.02.2021
2501 Clear 19 1013 78 7000 1.54 240 21:25 15.02.2021
2502 Clear 20 1013 73 8000 1.03 220 20:57 15.02.2021
2503 Clear 20 1013 73 8000 1.03 220 20:39 15.02.2021
2504 Clear 21 1013 73 10000 0.51 0 19:51 15.02.2021
2505 Clear 21 1013 73 10000 0.51 0 19:30 15.02.2021
2506 Clear 21 1013 73 10000 1.03 0 18:58 15.02.2021
2507 Clear 21 1013 73 10000 1.03 0 18:29 15.02.2021
2508 Clear 22 1013 73 10000 2.57 350 17:58 15.02.2021
2509 Clear 22 1013 73 10000 2.57 350 17:40 15.02.2021
2510 Clear 22 1013 68 10000 4.12 330 17:21 15.02.2021
2511 Clear 22 1013 68 10000 4.12 330 16:45 15.02.2021
2512 Clear 22 1013 68 10000 4.12 330 16:22 15.02.2021
2513 Clear 23 1012 64 10000 5.66 340 15:44 15.02.2021
2514 Clear 23 1012 64 10000 5.66 340 15:19 15.02.2021
2515 Clear 24 1012 60 10000 6.69 330 14:48 15.02.2021
2516 Clear 24 1012 60 10000 6.69 330 14:21 15.02.2021
2517 Clear 25 1012 53 10000 6.69 320 13:49 15.02.2021
2518 Clear 25 1012 53 10000 6.69 320 13:22 15.02.2021
2519 Clear 25 1012 53 10000 6.17 320 12:47 15.02.2021
2520 Clear 25 1012 53 10000 6.17 320 12:27 15.02.2021
2521 Clear 25 1012 53 8000 5.66 320 11:51 15.02.2021
2522 Clear 25 1012 53 8000 5.66 320 11:26 15.02.2021
2523 Clear 26 1013 50 7000 4.12 330 10:50 15.02.2021
2524 Clear 26 1013 50 7000 4.12 330 10:30 15.02.2021
2525 Clear 25 1015 47 6000 1.54 0 09:59 15.02.2021
2526 Clear 25 1015 47 6000 1.54 0 09:41 15.02.2021
2527 Clear 24 1015 47 6000 1.54 0 09:22 15.02.2021
2528 Clear 22 1016 64 6000 1.03 0 08:22 15.02.2021
2529 Haze 20 1016 77 4000 1.54 140 07:18 15.02.2021
2530 Haze 17 1016 82 3000 1.03 0 06:41 15.02.2021
2531 Fog 15 1014 88 1200 2.06 180 03:33 15.02.2021
2532 Haze 16 1014 88 4500 1.03 0 02:20 15.02.2021
2533 Clear 18 1015 83 6000 1.54 200 23:59 14.02.2021
2534 Clear 18 1015 83 6000 1.54 200 23:25 14.02.2021
2535 Clear 18 1015 83 8000 1.03 0 22:46 14.02.2021
2536 Clear 18 1015 83 8000 1.03 0 22:23 14.02.2021
2537 Clear 19 1015 78 10000 1.54 100 21:51 14.02.2021
2538 Clear 19 1015 78 10000 1.54 100 21:29 14.02.2021
2539 Clear 19 1015 78 10000 1.54 100 21:29 14.02.2021
2540 Clear 20 1015 73 10000 1.03 0 20:52 14.02.2021
2541 Clear 20 1015 73 10000 1.03 0 20:29 14.02.2021
2542 Clear 20 1015 73 10000 2.06 350 19:49 14.02.2021
2543 Clear 21 1015 73 10000 3.6 340 18:58 14.02.2021
2544 Clear 21 1015 73 10000 3.6 340 18:37 14.02.2021
2545 Clear 22 1014 73 10000 4.63 320 17:57 14.02.2021
2546 Clear 22 1014 73 10000 4.63 320 17:39 14.02.2021
2547 Clear 22 1014 73 10000 4.63 320 16:55 14.02.2021
2548 Clear 22 1014 73 10000 4.63 320 16:33 14.02.2021
2549 Clear 23 1014 68 10000 5.66 310 15:53 14.02.2021
2550 Clear 23 1014 68 10000 5.66 310 15:35 14.02.2021
2551 Clear 25 1014 57 10000 4.63 310 14:49 14.02.2021
2552 Clear 25 1014 57 10000 4.63 310 14:27 14.02.2021
2553 Clear 25 1014 57 10000 4.63 320 13:53 14.02.2021
2554 Clear 25 1014 57 10000 4.63 320 13:30 14.02.2021
2555 Clear 25 1014 50 10000 5.66 320 12:40 14.02.2021
2556 Clear 25 1014 50 10000 5.66 320 12:19 14.02.2021
2557 Clear 26 1014 50 10000 5.14 320 11:50 14.02.2021
2558 Clear 26 1014 50 10000 5.14 320 11:50 14.02.2021
2559 Clear 26 1014 50 10000 5.14 320 11:21 14.02.2021
2560 Clear 25 1015 57 10000 3.09 260 10:37 14.02.2021
2561 Clear 24 1016 64 10000 1.03 0 09:55 14.02.2021
2562 Clear 24 1016 64 10000 1.03 0 09:37 14.02.2021
2563 Clear 24 1016 64 10000 1.03 0 09:19 14.02.2021
2564 Clear 22 1017 73 7000 2.06 240 08:35 14.02.2021
2565 Haze 20 1017 83 3500 3.09 200 07:54 14.02.2021
2566 Mist 17 1016 94 1500 2.06 170 06:37 14.02.2021
2567 Fog 16 1016 94 200 2.06 180 04:52 14.02.2021
2568 Haze 17 1015 88 3500 1.54 180 03:23 14.02.2021
2569 Haze 18 1014 88 4000 1.03 180 01:33 14.02.2021
2570 Haze 19 1015 83 5000 0.51 0 00:45 14.02.2021
2571 Clouds 19 1015 83 6000 1.54 170 23:58 13.02.2021
2572 Clouds 19 1015 83 6000 1.54 170 23:37 13.02.2021
2573 Clouds 19 1015 83 6000 1.54 170 23:19 13.02.2021
2574 Clouds 19 1015 83 7000 1.54 230 22:32 13.02.2021
2575 Clear 20 1015 83 10000 1.03 280 21:53 13.02.2021
2576 Clear 20 1015 83 10000 1.03 280 21:34 13.02.2021
2577 Clear 21 1016 78 10000 2.06 330 20:46 13.02.2021
2578 Clear 21 1016 78 10000 2.06 330 20:27 13.02.2021
2579 Clouds 21 1016 78 10000 3.09 330 19:48 13.02.2021
2580 Clouds 21 1016 78 10000 3.09 330 19:48 13.02.2021
2581 Clouds 21 1016 78 10000 3.09 330 19:24 13.02.2021
2582 Clouds 22 1016 78 10000 2.57 300 18:50 13.02.2021
2583 Clouds 22 1016 78 10000 2.57 300 18:27 13.02.2021
2584 Clouds 22 1015 78 10000 3.09 350 17:44 13.02.2021
2585 Clouds 22 1015 78 10000 3.09 350 17:25 13.02.2021
2586 Clouds 22 1014 78 10000 4.63 320 16:53 13.02.2021
2587 Clouds 22 1014 78 10000 4.63 320 16:35 13.02.2021
2588 Clouds 23 1014 68 10000 5.14 330 15:45 13.02.2021
2589 Clouds 23 1014 68 10000 5.14 330 15:26 13.02.2021
2590 Clouds 23 1014 68 10000 5.14 330 15:26 13.02.2021
2591 Clear 23 1014 64 10000 6.17 330 14:41 13.02.2021
2592 Clear 24 1013 57 10000 5.66 330 13:50 13.02.2021
2593 Clear 24 1013 57 10000 5.66 330 13:28 13.02.2021
2594 Clear 24 1014 64 10000 5.66 320 12:53 13.02.2021
2595 Clear 24 1014 64 10000 5.66 320 12:21 13.02.2021
2596 Clear 24 1014 60 10000 4.63 320 11:55 13.02.2021
2597 Clear 24 1014 60 10000 4.63 320 11:23 13.02.2021
2598 Clear 24 1014 60 10000 4.63 320 11:23 13.02.2021
2599 Clear 23 1015 68 8000 4.12 320 10:59 13.02.2021
2600 Clear 23 1015 68 8000 4.12 320 10:41 13.02.2021
2601 Clear 23 1015 68 8000 4.12 320 10:22 13.02.2021
2602 Clear 22 1015 73 6000 5.66 320 09:46 13.02.2021
2603 Clear 22 1015 73 6000 5.66 320 09:25 13.02.2021
2604 Dust 23 1016 64 5000 1.03 0 08:47 13.02.2021
2605 Dust 23 1016 64 5000 1.03 0 08:18 13.02.2021
2606 Haze 19 1015 77 3500 1.54 240 06:50 13.02.2021
2607 Haze 18 1015 82 2500 1.03 0 06:22 13.02.2021
2608 Fog 15 1014 94 800 1.54 210 04:31 13.02.2021
2609 Mist 17 1013 88 3000 2.06 170 02:36 13.02.2021
2610 Haze 18 1013 82 4500 1.03 0 00:54 13.02.2021
2611 Haze 19 1013 82 4500 1.54 140 23:57 12.02.2021
2612 Haze 19 1013 82 4500 1.54 140 23:39 12.02.2021
2613 Haze 19 1013 88 5000 1.54 170 23:18 12.02.2021
2614 Clouds 20 1014 77 6000 2.06 160 22:31 12.02.2021
2615 Clouds 20 1014 83 7000 2.57 110 21:56 12.02.2021
2616 Clouds 20 1014 83 7000 2.57 110 21:37 12.02.2021
2617 Clouds 20 1014 83 7000 2.57 110 21:18 12.02.2021
2618 Clear 20 1014 83 10000 1.03 0 20:39 12.02.2021
2619 Clear 20 1014 83 10000 1.03 0 20:20 12.02.2021
2620 Clear 20 1014 83 10000 1.54 260 19:49 12.02.2021
2621 Clear 21 1014 83 10000 1.54 260 19:26 12.02.2021
2622 Clear 22 1014 78 10000 2.57 280 18:31 12.02.2021
2623 Clear 22 1013 73 10000 3.09 280 17:53 12.02.2021
2624 Clear 22 1013 73 10000 3.09 280 17:35 12.02.2021
2625 Clear 23 1013 78 10000 3.09 280 16:43 12.02.2021
2626 Clear 24 1012 64 10000 3.6 300 15:48 12.02.2021
2627 Clear 24 1012 64 10000 3.6 300 15:24 12.02.2021
2628 Clear 24 1012 57 10000 4.12 310 14:59 12.02.2021
2629 Clear 24 1012 57 10000 4.12 310 14:32 12.02.2021
2630 Clear 25 1012 41 10000 5.14 320 13:43 12.02.2021
2631 Clear 25 1012 41 10000 5.14 320 13:24 12.02.2021
2632 Clear 26 1012 34 10000 4.12 320 12:51 12.02.2021
2633 Clear 26 1012 34 10000 4.12 320 12:33 12.02.2021
2634 Clear 25 1013 50 10000 3.09 290 11:46 12.02.2021
2635 Clear 24 1013 50 10000 3.09 290 11:20 12.02.2021
2636 Clear 24 1014 64 8000 2.06 0 10:47 12.02.2021
2637 Clouds 21 1014 78 6000 2.57 240 09:56 12.02.2021
2638 Clouds 21 1014 78 6000 2.57 240 09:38 12.02.2021
2639 Clouds 21 1014 78 6000 2.57 240 09:19 12.02.2021
2640 Haze 20 1015 88 4000 2.57 200 08:40 12.02.2021
2641 Haze 20 1015 88 4000 2.57 200 08:18 12.02.2021
2642 Haze 19 1015 94 3000 2.57 210 07:51 12.02.2021
2643 Mist 18 1015 94 2000 2.06 190 06:57 12.02.2021
2644 Fog 17 1014 94 1500 2.06 170 05:49 12.02.2021
2645 Fog 17 1014 94 400 1.54 180 05:26 12.02.2021
2646 Fog 17 1013 94 600 2.57 180 01:56 12.02.2021
2647 Clear 19 1013 88 7000 2.06 190 23:46 11.02.2021
2648 Clear 19 1013 88 7000 2.06 190 23:22 11.02.2021
2649 Clear 20 1013 83 8000 2.06 220 22:58 11.02.2021
2650 Clear 20 1013 83 8000 2.06 220 22:39 11.02.2021
2651 Clear 20 1013 83 8000 2.06 220 22:21 11.02.2021
2652 Clear 21 1013 83 10000 2.06 220 21:39 11.02.2021
2653 Clear 21 1013 83 10000 2.06 220 21:20 11.02.2021
2654 Clear 21 1014 83 10000 2.06 230 20:46 11.02.2021
2655 Clear 21 1014 83 10000 2.06 230 20:22 11.02.2021
2656 Clear 22 1014 78 10000 1.54 230 19:50 11.02.2021
2657 Clear 22 1014 78 10000 1.54 230 19:32 11.02.2021
2658 Clear 22 1014 78 10000 2.06 260 18:59 11.02.2021
2659 Clear 22 1014 78 10000 2.06 260 18:31 11.02.2021
2660 Clear 23 1013 73 10000 4.12 320 17:58 11.02.2021
2661 Clear 23 1013 73 10000 4.12 320 17:36 11.02.2021
2662 Clear 23 1013 73 10000 4.12 320 17:18 11.02.2021
2663 Clear 23 1013 73 10000 4.63 320 16:41 11.02.2021
2664 Clear 23 1013 73 10000 4.63 320 16:22 11.02.2021
2665 Clear 24 1012 69 10000 6.17 320 15:44 11.02.2021
2666 Clear 24 1012 69 10000 6.17 320 15:26 11.02.2021
2667 Clear 24 1012 64 10000 6.69 310 14:47 11.02.2021
2668 Clear 24 1012 64 10000 6.69 310 14:29 11.02.2021
2669 Clear 25 1012 61 10000 6.17 310 13:41 11.02.2021
2670 Clear 25 1012 61 10000 6.17 310 13:19 11.02.2021
2671 Clear 25 1012 61 10000 6.17 310 12:51 11.02.2021
2672 Clear 25 1012 61 10000 6.17 310 12:28 11.02.2021
2673 Clear 25 1013 57 10000 5.66 310 11:46 11.02.2021
2674 Clear 25 1013 57 10000 5.66 310 11:22 11.02.2021
2675 Clear 26 1013 47 10000 5.14 320 10:45 11.02.2021
2676 Clear 26 1013 47 10000 5.14 320 10:45 11.02.2021
2677 Clear 25 1013 47 10000 5.14 320 10:26 11.02.2021
2678 Clear 24 1014 69 6000 2.57 280 09:53 11.02.2021
2679 Clear 25 1014 69 6000 2.57 280 09:22 11.02.2021
2680 Haze 21 1015 83 5000 2.06 220 08:53 11.02.2021
2681 Haze 21 1015 83 5000 2.06 220 08:24 11.02.2021
2682 Mist 17 1016 100 1500 3.09 200 07:30 11.02.2021
2683 Fog 17 1015 94 300 2.57 200 06:40 11.02.2021
2684 Fog 16 1014 100 150 3.09 190 04:58 11.02.2021
2685 Haze 19 1013 88 5000 2.06 130 02:29 11.02.2021
2686 Clouds 19 1014 88 8000 1.03 0 00:50 11.02.2021
2687 Clouds 21 1014 88 8000 1.03 0 00:20 11.02.2021
2688 Clouds 21 1014 88 9000 2.06 310 23:40 10.02.2021
2689 Clouds 21 1015 83 9000 1.54 340 22:52 10.02.2021
2690 Clouds 21 1015 83 9000 1.54 340 22:29 10.02.2021
2691 Clouds 21 1015 83 9000 1.54 340 22:29 10.02.2021
2692 Clouds 21 1015 83 9000 1.54 340 22:29 10.02.2021
2693 Clear 22 1015 83 10000 2.06 350 21:59 10.02.2021
2694 Clear 22 1015 83 10000 2.06 350 21:38 10.02.2021
2695 Clear 22 1015 83 10000 2.06 350 21:19 10.02.2021
2696 Clear 23 1015 73 10000 3.6 330 20:40 10.02.2021
2697 Clear 23 1015 73 10000 3.6 330 20:22 10.02.2021
2698 Clear 23 1015 68 10000 2.06 320 19:45 10.02.2021
2699 Clear 23 1015 68 10000 2.06 320 19:24 10.02.2021
2700 Clear 23 1015 73 10000 2.06 320 18:42 10.02.2021
2701 Clear 23 1015 73 10000 2.06 320 18:22 10.02.2021
2702 Clear 23 1015 78 10000 3.6 340 17:55 10.02.2021
2703 Clear 23 1015 78 10000 3.6 340 17:24 10.02.2021
2704 Clear 23 1015 78 10000 3.6 340 16:53 10.02.2021
2705 Clear 23 1015 78 10000 3.6 340 16:31 10.02.2021
2706 Clear 23 1014 78 10000 5.66 330 15:55 10.02.2021
2707 Clear 23 1014 78 10000 5.66 330 15:23 10.02.2021
2708 Clear 24 1014 64 10000 4.63 350 14:47 10.02.2021
2709 Clear 24 1014 64 10000 4.63 350 14:29 10.02.2021
2710 Clear 25 1014 57 10000 5.66 350 13:52 10.02.2021
2711 Clear 25 1014 57 10000 5.66 350 13:28 10.02.2021
2712 Clear 26 1014 50 10000 5.66 340 12:50 10.02.2021
2713 Clear 26 1014 50 10000 5.66 340 12:30 10.02.2021
2714 Clear 26 1014 41 10000 5.66 340 11:54 10.02.2021
2715 Clear 26 1014 41 10000 5.66 340 11:36 10.02.2021
2716 Clear 27 1014 41 10000 5.66 340 11:18 10.02.2021
2717 Clear 27 1015 39 10000 5.14 330 10:22 10.02.2021
2718 Clear 27 1017 34 10000 3.09 40 09:45 10.02.2021
2719 Clear 26 1017 34 10000 3.09 40 09:26 10.02.2021
2720 Clear 25 1018 47 10000 2.06 50 08:51 10.02.2021
2721 Clear 25 1018 47 10000 2.06 50 08:30 10.02.2021
2722 Clouds 21 1018 68 6000 1.54 90 07:25 10.02.2021
2723 Fog 17 1018 100 300 2.06 130 05:40 10.02.2021
2724 Clouds 19 1017 88 6000 3.09 110 01:21 10.02.2021
2725 Clouds 20 1017 88 8000 2.57 340 23:42 09.02.2021
2726 Clouds 20 1017 88 8000 2.57 340 23:24 09.02.2021
2727 Clouds 20 1018 88 10000 2.06 320 22:41 09.02.2021
2728 Clouds 20 1018 88 10000 2.06 320 22:23 09.02.2021
2729 Clouds 21 1018 88 9000 2.57 350 21:42 09.02.2021
2730 Clouds 21 1018 88 9000 2.57 350 21:19 09.02.2021
2731 Clear 22 1018 83 10000 2.06 320 20:42 09.02.2021
2732 Clear 22 1018 83 10000 2.06 320 20:24 09.02.2021
2733 Clear 22 1018 83 10000 2.57 310 19:42 09.02.2021
2734 Clear 22 1018 83 10000 2.57 310 19:22 09.02.2021
2735 Clear 22 1018 83 10000 3.09 320 18:43 09.02.2021
2736 Clear 22 1018 83 10000 3.09 320 18:25 09.02.2021
2737 Clear 23 1018 73 10000 4.63 320 17:47 09.02.2021
2738 Clear 23 1018 73 10000 4.63 320 17:26 09.02.2021
2739 Clear 23 1018 73 10000 4.63 310 16:52 09.02.2021
2740 Clear 23 1018 73 10000 4.63 310 16:19 09.02.2021
2741 Clear 23 1017 73 10000 5.66 330 15:51 09.02.2021
2742 Clear 23 1017 73 10000 5.66 330 15:29 09.02.2021
2743 Clear 24 1017 64 10000 5.66 320 14:59 09.02.2021
2744 Clear 24 1017 64 10000 5.66 320 14:30 09.02.2021
2745 Clear 25 1017 57 10000 4.12 340 13:59 09.02.2021
2746 Clear 25 1017 57 10000 4.12 340 13:40 09.02.2021
2747 Clear 25 1017 57 10000 4.12 340 13:19 09.02.2021
2748 Clear 25 1017 41 10000 4.63 350 12:41 09.02.2021
2749 Clear 25 1017 41 10000 4.63 350 12:23 09.02.2021
2750 Clear 25 1018 47 10000 5.14 330 11:44 09.02.2021
2751 Clear 24 1018 47 10000 5.14 330 11:21 09.02.2021
2752 Clear 24 1019 60 10000 3.6 320 10:56 09.02.2021
2753 Clear 24 1019 60 10000 3.6 320 10:20 09.02.2021
2754 Clouds 24 1020 57 10000 2.57 10 09:46 09.02.2021
2755 Clouds 23 1020 57 10000 2.57 10 09:26 09.02.2021
2756 Clouds 23 1021 64 10000 4.12 340 08:53 09.02.2021
2757 Clouds 22 1021 64 10000 4.12 340 08:28 09.02.2021
2758 Clouds 21 1021 78 8000 1.54 230 07:39 09.02.2021
2759 Clouds 20 1020 78 10000 2.06 300 04:59 09.02.2021
2760 Clouds 20 1020 78 10000 2.57 340 03:45 09.02.2021
2761 Clouds 20 1019 78 10000 4.12 320 01:38 09.02.2021
2762 Clouds 21 1020 78 10000 4.12 320 23:58 08.02.2021
2763 Clouds 21 1020 78 10000 4.12 320 23:22 08.02.2021
2764 Clouds 21 1020 78 10000 4.63 320 22:56 08.02.2021
2765 Clouds 21 1020 78 10000 4.63 320 22:38 08.02.2021
2766 Clouds 21 1020 78 10000 4.63 320 22:20 08.02.2021
2767 Clouds 22 1020 73 10000 5.66 330 21:39 08.02.2021
2768 Clouds 22 1020 73 10000 5.66 330 21:20 08.02.2021
2769 Clouds 22 1020 78 10000 5.14 300 20:44 08.02.2021
2770 Clouds 22 1020 78 10000 5.14 300 20:23 08.02.2021
2771 Clouds 22 1020 78 10000 4.63 310 19:49 08.02.2021
2772 Clouds 22 1020 78 10000 4.63 310 19:30 08.02.2021
2773 Clouds 22 1020 78 10000 6.17 310 18:50 08.02.2021
2774 Clouds 22 1020 78 10000 6.17 310 18:50 08.02.2021
2775 Clouds 22 1020 78 10000 6.17 310 18:25 08.02.2021
2776 Clear 23 1020 68 10000 5.66 320 17:59 08.02.2021
2777 Clear 23 1020 68 10000 5.66 320 17:41 08.02.2021
2778 Clear 23 1020 68 10000 5.66 320 17:21 08.02.2021
2779 Clear 23 1019 64 10000 3.6 310 16:40 08.02.2021
2780 Clear 23 1019 64 10000 3.6 310 16:20 08.02.2021
2781 Clear 23 1018 60 10000 5.66 330 15:38 08.02.2021
2782 Clear 23 1018 60 10000 5.66 330 15:18 08.02.2021
2783 Clear 24 1018 60 10000 6.69 320 14:50 08.02.2021
2784 Clear 24 1018 60 10000 6.69 320 14:28 08.02.2021
2785 Clear 25 1018 53 10000 6.17 320 13:49 08.02.2021
2786 Clear 25 1018 53 10000 6.17 320 13:28 08.02.2021
2787 Clear 25 1018 53 10000 6.69 310 12:39 08.02.2021
2788 Clear 25 1019 57 10000 7.2 320 12:20 08.02.2021
2789 Clear 25 1019 57 10000 7.2 320 11:39 08.02.2021
2790 Clear 25 1020 61 10000 5.66 320 10:47 08.02.2021
2791 Clear 25 1020 61 10000 5.66 320 10:26 08.02.2021
2792 Clear 25 1020 47 10000 5.14 340 09:59 08.02.2021
2793 Clear 25 1020 47 10000 5.14 340 09:36 08.02.2021
2794 Clear 25 1020 47 10000 2.06 360 08:57 08.02.2021
2795 Clear 24 1020 47 10000 2.06 360 08:27 08.02.2021
2796 Clear 23 1020 53 10000 1.54 100 07:47 08.02.2021
2797 Clear 20 1020 64 10000 1.54 100 06:39 08.02.2021
2798 Clear 18 1019 77 10000 2.06 90 05:18 08.02.2021
2799 Clear 19 1017 77 10000 2.06 90 02:27 08.02.2021
2800 Clear 20 1017 73 10000 1.54 70 00:26 08.02.2021
2801 Clear 20 1018 68 10000 2.57 40 23:55 07.02.2021
2802 Clear 20 1018 68 10000 2.57 40 23:30 07.02.2021
2803 Clear 20 1018 73 10000 3.09 40 22:59 07.02.2021
2804 Clear 20 1018 73 10000 3.09 40 22:41 07.02.2021
2805 Clear 20 1018 73 10000 3.09 40 22:22 07.02.2021
2806 Clear 20 1018 73 10000 2.57 50 21:50 07.02.2021
2807 Clear 20 1018 73 10000 2.57 50 21:25 07.02.2021
2808 Clear 20 1018 73 10000 3.09 60 20:51 07.02.2021
2809 Clear 21 1018 73 10000 3.09 60 20:32 07.02.2021
2810 Clear 22 1018 68 10000 2.57 60 19:54 07.02.2021
2811 Clear 22 1018 68 10000 2.57 60 19:29 07.02.2021
2812 Clear 22 1017 64 10000 4.12 60 18:51 07.02.2021
2813 Clear 22 1017 64 10000 4.12 60 18:31 07.02.2021
2814 Clear 23 1017 56 10000 4.12 40 17:58 07.02.2021
2815 Clear 23 1017 56 10000 4.12 40 17:40 07.02.2021
2816 Clear 23 1017 56 10000 4.12 40 17:18 07.02.2021
2817 Clear 23 1016 60 10000 4.12 20 16:43 07.02.2021
2818 Clear 23 1016 60 10000 4.12 20 16:22 07.02.2021
2819 Clear 23 1015 56 10000 5.14 20 15:46 07.02.2021
2820 Clear 23 1015 56 10000 5.14 20 15:27 07.02.2021
2821 Clear 24 1015 57 10000 7.2 360 14:47 07.02.2021
2822 Clear 24 1015 57 10000 7.2 360 14:29 07.02.2021
2823 Clear 26 1014 36 10000 3.6 300 13:52 07.02.2021
2824 Clear 26 1014 36 10000 3.6 300 13:33 07.02.2021
2825 Clear 27 1015 34 10000 2.06 0 12:44 07.02.2021
2826 Clear 27 1015 34 10000 2.06 0 12:22 07.02.2021
2827 Clear 27 1015 32 10000 2.06 0 11:49 07.02.2021
2828 Clear 27 1015 32 10000 2.06 0 11:27 07.02.2021
2829 Clear 26 1017 34 10000 2.57 0 10:48 07.02.2021
2830 Clear 25 1017 34 10000 2.57 0 10:24 07.02.2021
2831 Clear 24 1018 43 10000 4.12 170 09:46 07.02.2021
2832 Clear 23 1018 43 10000 4.12 170 09:21 07.02.2021
2833 Clear 22 1018 46 10000 4.63 200 08:23 07.02.2021
2834 Clear 21 1018 49 10000 5.14 180 06:34 07.02.2021
2835 Clear 19 1017 52 10000 4.12 180 05:57 07.02.2021
2836 Clear 20 1016 45 10000 3.09 170 03:50 07.02.2021
2837 Clear 20 1015 60 10000 3.6 160 01:27 07.02.2021
2838 Clear 20 1015 64 10000 2.57 140 00:35 07.02.2021
2839 Clear 20 1015 64 10000 1.54 90 23:46 06.02.2021
2840 Clear 20 1015 64 10000 2.57 100 22:41 06.02.2021
2841 Clear 21 1015 56 10000 2.06 90 21:42 06.02.2021
2842 Clear 21 1015 56 10000 2.06 90 21:22 06.02.2021
2843 Clear 22 1015 49 10000 3.09 70 20:52 06.02.2021
2844 Clear 22 1015 49 10000 3.09 70 20:25 06.02.2021
2845 Clear 22 1015 49 10000 2.06 80 19:57 06.02.2021
2846 Clear 22 1015 49 10000 2.06 80 19:32 06.02.2021
2847 Clear 22 1015 53 10000 3.6 70 18:52 06.02.2021
2848 Clear 22 1015 53 10000 3.6 70 18:32 06.02.2021
2849 Clear 23 1015 53 10000 3.09 60 17:49 06.02.2021
2850 Clear 23 1015 53 10000 3.09 60 17:22 06.02.2021
2851 Clear 24 1015 46 10000 3.6 30 16:59 06.02.2021
2852 Clear 24 1015 46 10000 3.6 30 16:41 06.02.2021
2853 Clear 24 1015 46 10000 3.6 30 16:22 06.02.2021
2854 Clear 24 1014 50 10000 4.63 20 15:48 06.02.2021
2855 Clear 24 1014 50 10000 4.63 20 15:22 06.02.2021
2856 Clear 24 1014 50 10000 6.17 20 14:45 06.02.2021
2857 Clear 24 1014 50 10000 6.17 20 14:26 06.02.2021
2858 Clear 26 1014 41 10000 4.63 10 13:49 06.02.2021
2859 Clear 26 1014 41 10000 4.63 10 13:29 06.02.2021
2860 Clear 27 1014 39 10000 6.69 350 12:22 06.02.2021
2861 Clear 27 1015 39 10000 5.14 340 11:48 06.02.2021
2862 Clear 27 1015 39 10000 5.14 340 11:25 06.02.2021
2863 Clear 27 1016 29 10000 2.57 70 10:57 06.02.2021
2864 Clear 27 1016 29 10000 2.57 70 10:39 06.02.2021
2865 Clear 26 1016 29 10000 2.57 70 10:20 06.02.2021
2866 Clear 25 1017 34 10000 2.06 190 09:37 06.02.2021
2867 Clear 25 1017 34 10000 2.06 190 09:18 06.02.2021
2868 Clear 25 1017 34 10000 2.06 190 09:18 06.02.2021
2869 Clear 24 1018 41 10000 4.12 170 08:39 06.02.2021
2870 Clear 23 1018 41 10000 4.12 170 08:20 06.02.2021
2871 Clear 19 1017 42 10000 3.09 140 05:44 06.02.2021
2872 Clear 18 1016 48 10000 2.06 150 04:37 06.02.2021
2873 Clear 19 1015 55 10000 3.09 140 02:34 06.02.2021
2874 Clear 20 1015 42 10000 2.06 0 00:48 06.02.2021
2875 Clear 20 1015 42 10000 2.06 0 00:20 06.02.2021
2876 Clear 20 1015 40 10000 2.06 80 23:46 05.02.2021
2877 Clear 20 1015 40 10000 2.06 80 23:26 05.02.2021
2878 Clear 20 1016 40 10000 2.06 100 22:47 05.02.2021
2879 Clear 20 1016 40 10000 2.06 100 22:23 05.02.2021
2880 Clear 20 1016 43 10000 3.09 90 21:49 05.02.2021
2881 Clear 21 1016 43 10000 3.09 90 21:28 05.02.2021
2882 Clear 21 1016 46 10000 3.09 80 20:47 05.02.2021
2883 Clear 23 1016 35 10000 3.09 80 19:53 05.02.2021
2884 Clear 23 1016 35 10000 3.09 80 19:21 05.02.2021
2885 Clear 24 1016 38 10000 3.09 70 18:54 05.02.2021
2886 Clear 24 1016 38 10000 3.09 70 18:28 05.02.2021
2887 Clear 24 1016 38 10000 3.09 50 17:47 05.02.2021
2888 Clear 24 1016 38 10000 3.09 50 17:27 05.02.2021
2889 Clear 24 1016 43 10000 4.12 40 16:57 05.02.2021
2890 Clear 24 1016 43 10000 4.12 40 16:37 05.02.2021
2891 Clear 24 1016 43 10000 4.12 40 16:19 05.02.2021
2892 Clear 25 1015 57 10000 5.14 30 15:29 05.02.2021
2893 Clear 26 1015 41 10000 5.66 20 14:57 05.02.2021
2894 Clear 26 1015 41 10000 5.66 20 14:37 05.02.2021
2895 Clear 26 1015 41 10000 5.66 20 14:18 05.02.2021
2896 Clear 26 1015 41 10000 6.17 340 13:39 05.02.2021
2897 Clear 26 1015 41 10000 6.17 340 13:19 05.02.2021
2898 Clear 28 1015 34 10000 5.66 330 12:41 05.02.2021
2899 Clear 29 1016 24 10000 2.57 260 11:58 05.02.2021
2900 Clear 29 1016 24 10000 2.57 260 11:37 05.02.2021
2901 Clear 28 1016 24 10000 2.57 260 11:19 05.02.2021
2902 Clear 28 1017 30 10000 2.06 130 10:43 05.02.2021
2903 Clear 26 1017 30 10000 2.06 130 10:22 05.02.2021
2904 Clear 26 1018 38 10000 2.57 210 09:42 05.02.2021
2905 Clear 25 1018 38 10000 2.57 210 09:22 05.02.2021
2906 Clear 24 1019 43 10000 1.54 0 08:37 05.02.2021
2907 Clear 23 1019 40 10000 1.03 0 07:40 05.02.2021
2908 Clear 21 1019 40 10000 1.03 0 07:19 05.02.2021
2909 Clear 17 1018 34 10000 1.54 70 05:40 05.02.2021
2910 Clear 14 1018 41 10000 1.03 90 04:59 05.02.2021
2911 Clear 18 1017 36 10000 2.06 80 02:25 05.02.2021
2912 Clear 18 1017 32 10000 2.06 80 00:44 05.02.2021
2913 Clear 18 1017 32 10000 2.06 80 00:21 05.02.2021
2914 Clear 19 1017 37 10000 2.57 80 23:59 04.02.2021
2915 Clear 19 1017 37 10000 2.57 80 23:40 04.02.2021
2916 Clear 19 1017 37 10000 2.57 80 23:40 04.02.2021
2917 Clear 19 1017 37 10000 2.57 80 23:21 04.02.2021
2918 Clear 19 1017 42 10000 1.03 120 22:52 04.02.2021
2919 Clear 19 1017 42 10000 1.03 120 22:29 04.02.2021
2920 Clear 19 1017 49 10000 2.06 110 21:43 04.02.2021
2921 Clear 20 1017 49 10000 2.06 110 21:22 04.02.2021
2922 Clear 19 1017 56 10000 2.57 80 20:54 04.02.2021
2923 Clear 21 1017 56 10000 2.57 80 20:34 04.02.2021
2924 Clear 21 1017 68 10000 2.57 50 19:49 04.02.2021
2925 Clear 21 1017 68 10000 2.57 50 19:21 04.02.2021
2926 Clear 22 1017 68 10000 2.57 30 18:39 04.02.2021
2927 Clear 22 1017 68 10000 2.57 30 18:39 04.02.2021
2928 Clear 22 1017 68 10000 2.57 30 18:20 04.02.2021
2929 Clear 22 1017 64 10000 2.57 20 17:44 04.02.2021
2930 Clear 22 1017 64 10000 2.57 20 17:20 04.02.2021
2931 Clear 22 1016 64 10000 3.09 20 16:46 04.02.2021
2932 Clear 23 1016 64 10000 3.09 20 16:19 04.02.2021
2933 Clear 24 1016 53 10000 3.6 10 15:40 04.02.2021
2934 Clear 24 1016 53 10000 3.6 10 15:21 04.02.2021
2935 Clear 25 1015 50 10000 4.63 350 14:55 04.02.2021
2936 Clear 25 1015 50 10000 4.63 350 14:37 04.02.2021
2937 Clear 25 1015 50 10000 4.63 350 14:18 04.02.2021
2938 Clear 25 1015 47 10000 6.17 330 13:41 04.02.2021
2939 Clear 25 1015 47 10000 5.66 330 12:57 04.02.2021
2940 Clear 26 1015 41 10000 4.63 340 12:21 04.02.2021
2941 Clear 26 1015 41 10000 4.63 340 11:42 04.02.2021
2942 Clear 26 1015 41 10000 4.63 340 11:24 04.02.2021
2943 Clear 26 1016 44 10000 5.66 340 10:43 04.02.2021
2944 Clear 26 1017 34 10000 2.57 70 09:56 04.02.2021
2945 Clear 24 1017 34 10000 2.57 70 09:37 04.02.2021
2946 Clear 24 1017 34 10000 2.57 70 09:18 04.02.2021
2947 Clear 23 1018 60 10000 1.03 0 08:37 04.02.2021
2948 Clear 22 1018 60 10000 1.03 0 08:18 04.02.2021
2949 Clear 21 1019 68 7000 1.54 120 07:38 04.02.2021
2950 Haze 18 1018 72 5000 2.03 102 06:54 04.02.2021
2951 Haze 18 1018 72 5000 2.03 102 06:35 04.02.2021
2952 Clear 15 1017 88 7000 1.54 180 03:52 04.02.2021
2953 Clear 15 1016 82 7000 1.54 130 02:24 04.02.2021
2954 Clear 17 1016 77 8000 1.03 0 00:33 04.02.2021
2955 Clear 17 1017 77 10000 1.03 0 23:39 03.02.2021
2956 Clear 19 1016 77 10000 1.54 230 22:42 03.02.2021
2957 Clear 19 1016 77 10000 1.54 230 22:22 03.02.2021
2958 Clear 19 1017 73 10000 0.51 0 21:56 03.02.2021
2959 Clear 20 1017 73 10000 0.51 0 21:25 03.02.2021
2960 Clear 20 1017 68 10000 1.03 150 20:58 03.02.2021
2961 Clear 20 1017 68 10000 1.03 150 20:38 03.02.2021
2962 Clear 21 1017 68 10000 1.03 150 20:18 03.02.2021
2963 Clear 21 1017 64 10000 1.03 0 19:41 03.02.2021
2964 Clear 21 1017 64 10000 1.03 0 19:18 03.02.2021
2965 Clear 21 1017 64 10000 1.03 0 18:41 03.02.2021
2966 Clear 21 1017 64 10000 1.03 0 18:19 03.02.2021
2967 Clear 22 1017 64 10000 2.57 350 17:49 03.02.2021
2968 Clear 22 1017 64 10000 2.57 350 17:30 03.02.2021
2969 Clear 22 1016 68 10000 4.12 330 16:52 03.02.2021
2970 Clear 22 1016 68 10000 4.12 330 16:27 03.02.2021
2971 Clear 22 1016 64 10000 4.63 350 15:45 03.02.2021
2972 Clear 22 1016 64 10000 4.63 350 15:25 03.02.2021
2973 Clear 23 1016 60 10000 6.69 340 14:53 03.02.2021
2974 Clear 23 1016 60 10000 6.69 340 14:25 03.02.2021
2975 Clear 24 1015 50 10000 6.69 340 13:54 03.02.2021
2976 Clear 24 1015 50 10000 6.69 340 13:26 03.02.2021
2977 Clear 24 1016 57 10000 6.69 330 12:47 03.02.2021
2978 Clear 24 1016 57 10000 6.69 330 12:24 03.02.2021
2979 Clear 24 1016 38 10000 5.66 340 11:49 03.02.2021
2980 Clear 25 1016 38 10000 5.66 340 11:28 03.02.2021
2981 Clear 25 1017 44 10000 3.09 10 10:53 03.02.2021
2982 Clear 24 1017 44 10000 3.09 10 10:21 03.02.2021
2983 Clear 24 1018 43 10000 1.54 270 09:47 03.02.2021
2984 Clear 23 1018 43 10000 1.54 270 09:27 03.02.2021
2985 Clear 22 1019 56 10000 1.03 0 08:52 03.02.2021
2986 Clear 21 1019 56 10000 1.03 0 08:24 03.02.2021
2987 Clear 20 1019 64 8000 1.54 160 07:39 03.02.2021
2988 Clear 18 1019 77 6000 2.06 170 06:40 03.02.2021
2989 Clear 15 1018 82 6000 1.03 180 04:52 03.02.2021
2990 Clear 15 1018 82 6000 1.03 180 04:29 03.02.2021
2991 Clear 16 1017 82 10000 1.54 180 02:53 03.02.2021
2992 Clear 16 1017 82 10000 1.54 180 02:23 03.02.2021
2993 Clear 17 1017 77 10000 1.03 180 00:27 03.02.2021
2994 Clear 18 1017 72 10000 0.51 0 23:48 02.02.2021
2995 Clear 18 1017 72 10000 0.51 0 23:28 02.02.2021
2996 Clear 18 1018 72 10000 1.54 160 22:59 02.02.2021
2997 Clear 19 1018 72 10000 1.54 160 22:22 02.02.2021
2998 Clear 19 1018 68 10000 1.54 160 21:55 02.02.2021
2999 Clear 19 1018 68 10000 1.54 160 21:29 02.02.2021
3000 Clear 19 1019 68 10000 0.51 0 20:59 02.02.2021
3001 Clear 19 1019 68 10000 0.51 0 20:41 02.02.2021
3002 Clear 20 1019 68 10000 0.51 0 20:18 02.02.2021
3003 Clear 20 1019 68 10000 0.51 0 20:18 02.02.2021
3004 Clear 20 1019 60 10000 1.03 0 19:42 02.02.2021
3005 Clear 20 1019 60 10000 1.03 0 19:23 02.02.2021
3006 Clear 20 1019 64 10000 2.06 350 18:44 02.02.2021
3007 Clear 20 1019 64 10000 2.06 350 18:25 02.02.2021
3008 Clear 21 1018 64 10000 2.57 340 17:49 02.02.2021
3009 Clear 21 1018 64 10000 2.57 340 17:22 02.02.2021
3010 Clear 21 1018 64 10000 4.12 330 16:56 02.02.2021
3011 Clear 21 1018 64 10000 4.12 330 16:37 02.02.2021
3012 Clear 22 1018 60 10000 4.63 320 15:58 02.02.2021
3013 Clear 22 1018 60 10000 4.63 320 15:40 02.02.2021
3014 Clear 22 1018 60 10000 4.63 320 15:20 02.02.2021
3015 Clear 22 1017 56 10000 5.14 320 14:39 02.02.2021
3016 Clear 23 1017 56 10000 5.14 320 14:18 02.02.2021
3017 Clear 23 1017 53 10000 5.14 320 13:44 02.02.2021
3018 Clear 23 1017 53 10000 5.14 320 13:25 02.02.2021
3019 Clear 24 1017 50 10000 4.63 310 12:55 02.02.2021
3020 Clear 24 1018 50 10000 3.6 310 12:24 02.02.2021
3021 Clear 24 1018 50 10000 3.6 310 11:40 02.02.2021
3022 Clear 24 1018 50 10000 3.6 310 11:19 02.02.2021
3023 Clear 24 1019 43 10000 1.54 70 10:47 02.02.2021
3024 Clear 23 1019 43 10000 1.54 70 10:26 02.02.2021
3025 Clouds 22 1020 56 10000 2.57 0 09:46 02.02.2021
3026 Clouds 21 1020 56 10000 2.57 0 09:24 02.02.2021
3027 Clouds 21 1021 64 10000 2.06 210 08:43 02.02.2021
3028 Clouds 20 1021 64 10000 2.57 180 07:51 02.02.2021
3029 Clouds 20 1021 64 10000 2.57 180 07:26 02.02.2021
3030 Clouds 17 1021 77 10000 3.6 190 06:40 02.02.2021
3031 Clouds 16 1020 77 10000 1.54 180 05:51 02.02.2021
3032 Clouds 15 1020 82 10000 1.54 170 04:21 02.02.2021
3033 Clouds 14 1019 82 10000 2.06 130 02:25 02.02.2021
3034 Clear 16 1019 77 10000 2.57 200 00:49 02.02.2021
3035 Clear 16 1019 77 10000 2.57 200 00:18 02.02.2021
3036 Clear 17 1019 77 10000 2.57 200 23:18 01.02.2021
3037 Clear 18 1019 72 10000 2.57 200 22:39 01.02.2021
3038 Clear 18 1019 72 10000 2.57 200 22:20 01.02.2021
3039 Clear 19 1019 68 10000 2.57 180 21:46 01.02.2021
3040 Clear 19 1019 68 10000 2.57 180 21:22 01.02.2021
3041 Clear 20 1019 64 10000 2.57 180 20:44 01.02.2021
3042 Clear 20 1019 64 10000 2.57 180 20:25 01.02.2021
3043 Clear 20 1020 68 10000 2.57 250 19:49 01.02.2021
3044 Clear 20 1020 68 10000 2.57 250 19:21 01.02.2021
3045 Clear 21 1020 64 10000 2.06 250 18:58 01.02.2021
3046 Clear 21 1020 64 10000 2.06 250 18:39 01.02.2021
3047 Clear 21 1020 64 10000 2.06 250 18:21 01.02.2021
3048 Clear 21 1019 60 10000 3.09 260 17:42 01.02.2021
3049 Clear 21 1019 60 10000 3.09 260 17:19 01.02.2021
3050 Clear 21 1019 64 10000 3.6 260 16:40 01.02.2021
3051 Clear 21 1019 64 10000 3.6 260 16:21 01.02.2021
3052 Clouds 22 1018 60 10000 4.12 270 15:40 01.02.2021
3053 Clouds 22 1018 60 10000 4.12 270 15:19 01.02.2021
3054 Clouds 22 1018 60 10000 4.12 270 15:19 01.02.2021
3055 Clouds 22 1018 60 10000 5.14 280 14:48 01.02.2021
3056 Clouds 22 1018 60 10000 5.14 280 14:18 01.02.2021
3057 Clouds 23 1018 56 10000 5.14 280 13:42 01.02.2021
3058 Clouds 23 1018 56 10000 5.14 280 13:22 01.02.2021
3059 Clouds 23 1018 56 10000 5.66 290 12:44 01.02.2021
3060 Clouds 23 1018 53 10000 5.14 290 12:23 01.02.2021
3061 Clouds 23 1018 53 10000 5.14 290 11:43 01.02.2021
3062 Clouds 22 1018 53 10000 5.14 290 11:20 01.02.2021
3063 Clouds 22 1019 56 10000 5.14 280 10:46 01.02.2021
3064 Clouds 22 1019 56 10000 5.14 280 10:21 01.02.2021
3065 Clouds 22 1020 56 10000 4.12 250 09:47 01.02.2021
3066 Clouds 22 1020 56 10000 4.12 250 09:25 01.02.2021
3067 Clouds 22 1020 56 10000 5.66 290 08:56 01.02.2021
3068 Clouds 20 1020 56 10000 5.66 290 08:21 01.02.2021
3069 Clouds 18 1020 72 10000 2.57 190 06:43 01.02.2021
3070 Clouds 15 1019 82 10000 3.09 200 04:32 01.02.2021
3071 Clouds 16 1018 82 10000 3.09 190 02:37 01.02.2021
3072 Clouds 18 1018 72 10000 2.06 240 23:47 31.01.2021
3073 Clear 20 1018 68 10000 2.57 250 22:56 31.01.2021
3074 Clear 20 1018 68 10000 2.57 250 22:36 31.01.2021
3075 Clear 20 1018 68 10000 2.57 250 22:18 31.01.2021
3076 Clear 20 1018 68 10000 3.09 260 21:41 31.01.2021
3077 Clear 20 1018 68 10000 3.09 260 21:19 31.01.2021
3078 Clear 20 1018 68 10000 3.09 260 20:41 31.01.2021
3079 Clear 20 1018 68 10000 3.09 260 20:19 31.01.2021
3080 Clear 20 1018 68 10000 4.12 270 19:37 31.01.2021
3081 Clear 20 1018 68 10000 4.12 270 19:19 31.01.2021
3082 Clear 21 1018 60 10000 4.12 270 18:44 31.01.2021
3083 Clear 21 1018 60 10000 4.12 270 18:24 31.01.2021
3084 Clear 21 1018 64 10000 3.6 280 17:50 31.01.2021
3085 Clear 21 1018 64 10000 3.6 280 17:24 31.01.2021
3086 Clear 22 1017 60 10000 4.12 280 16:59 31.01.2021
3087 Clear 22 1017 60 10000 4.12 280 16:39 31.01.2021
3088 Clear 22 1017 60 10000 4.12 280 16:19 31.01.2021
3089 Clear 23 1017 56 10000 5.14 290 15:48 31.01.2021
3090 Clear 24 1016 53 10000 5.66 300 14:55 31.01.2021
3091 Clear 24 1016 53 10000 5.66 300 14:28 31.01.2021
3092 Clouds 25 1016 53 10000 5.66 310 13:59 31.01.2021
3093 Clouds 25 1016 53 10000 5.66 310 13:38 31.01.2021
3094 Clouds 24 1016 60 10000 6.17 310 12:57 31.01.2021
3095 Clouds 24 1016 60 10000 6.17 310 12:38 31.01.2021
3096 Clouds 25 1016 60 10000 6.17 310 12:20 31.01.2021
3097 Clouds 25 1016 57 10000 4.63 300 11:38 31.01.2021
3098 Clouds 25 1016 57 10000 4.63 300 11:19 31.01.2021
3099 Clouds 25 1017 57 10000 3.6 300 10:44 31.01.2021
3100 Clouds 24 1017 57 10000 3.6 300 10:25 31.01.2021
3101 Clouds 23 1018 60 10000 2.57 250 09:39 31.01.2021
3102 Clouds 23 1018 60 10000 2.06 300 08:34 31.01.2021
3103 Clouds 23 1018 60 10000 2.06 300 08:34 31.01.2021
3104 Clear 21 1018 56 10000 2.57 230 07:55 31.01.2021
3105 Clouds 20 1018 45 10000 2.06 210 06:36 31.01.2021
3106 Clear 17 1015 55 10000 1.54 190 02:19 31.01.2021
3107 Clear 18 1016 55 10000 1.54 220 00:28 31.01.2021
3108 Clear 18 1016 55 10000 1.54 220 00:28 31.01.2021
3109 Clear 19 1016 52 10000 1.03 170 23:43 30.01.2021
3110 Clear 20 1016 52 10000 1.03 170 23:22 30.01.2021
3111 Clear 20 1016 49 10000 1.03 160 22:38 30.01.2021
3112 Clear 20 1017 49 10000 3.09 150 21:45 30.01.2021
3113 Clear 21 1017 49 10000 3.09 150 21:25 30.01.2021
3114 Clear 21 1017 53 10000 2.57 110 20:58 30.01.2021
3115 Clear 22 1017 53 10000 2.57 110 20:38 30.01.2021
3116 Clear 22 1017 53 10000 1.03 0 19:59 30.01.2021
3117 Clear 22 1017 53 10000 1.03 0 19:40 30.01.2021
3118 Clear 22 1017 53 10000 1.03 0 19:19 30.01.2021
3119 Clear 22 1017 53 10000 1.03 0 19:19 30.01.2021
3120 Clear 22 1017 56 10000 1.54 360 18:40 30.01.2021
3121 Clear 23 1017 56 10000 1.54 360 18:20 30.01.2021
3122 Clear 23 1016 53 10000 3.6 330 17:45 30.01.2021
3123 Clear 23 1016 53 10000 3.6 330 17:18 30.01.2021
3124 Clear 24 1016 46 10000 5.14 330 16:41 30.01.2021
3125 Clear 24 1016 46 10000 5.14 330 16:22 30.01.2021
3126 Clear 25 1015 41 10000 6.17 320 15:49 30.01.2021
3127 Clear 25 1015 41 10000 6.17 320 15:24 30.01.2021
3128 Clear 26 1015 36 10000 6.17 310 14:52 30.01.2021
3129 Clear 26 1015 36 10000 6.17 310 14:28 30.01.2021
3130 Clear 27 1015 32 10000 7.2 320 13:53 30.01.2021
3131 Clear 27 1015 32 10000 7.2 320 13:20 30.01.2021
3132 Clear 27 1015 32 10000 6.69 320 12:43 30.01.2021
3133 Clear 27 1015 32 10000 6.69 320 12:23 30.01.2021
3134 Clear 28 1015 28 10000 2.06 300 11:43 30.01.2021
3135 Clear 28 1016 28 10000 4.12 270 10:56 30.01.2021
3136 Clear 27 1016 28 10000 4.12 270 10:26 30.01.2021
3137 Clear 27 1017 28 10000 3.6 210 09:41 30.01.2021
3138 Clear 26 1017 28 10000 3.6 210 09:22 30.01.2021
3139 Clear 25 1018 31 10000 4.12 210 08:43 30.01.2021
3140 Clear 23 1018 35 10000 4.63 190 07:40 30.01.2021
3141 Clear 20 1018 49 10000 2.57 190 06:21 30.01.2021
3142 Clear 18 1016 59 10000 2.06 150 03:43 30.01.2021
3143 Clear 17 1016 55 10000 1.54 130 02:40 30.01.2021
3144 Clear 17 1016 55 10000 1.54 130 02:21 30.01.2021
3145 Clear 19 1016 56 10000 2.06 110 00:49 30.01.2021
3146 Clear 19 1016 56 10000 2.06 110 00:21 30.01.2021
3147 Clear 19 1016 56 10000 2.06 110 00:21 30.01.2021
3148 Clear 19 1016 56 10000 1.54 110 23:49 29.01.2021
3149 Clear 19 1016 56 10000 1.54 110 23:27 29.01.2021
3150 Clear 19 1016 60 10000 2.57 120 22:45 29.01.2021
3151 Clear 19 1016 60 10000 2.57 120 22:23 29.01.2021
3152 Clear 20 1017 60 10000 3.09 110 21:44 29.01.2021
3153 Clear 20 1017 60 10000 3.09 110 21:26 29.01.2021
3154 Clear 20 1017 68 10000 2.57 120 20:42 29.01.2021
3155 Clear 21 1017 68 10000 2.57 120 20:21 29.01.2021
3156 Clear 21 1017 64 10000 1.54 80 19:39 29.01.2021
3157 Clear 21 1017 64 10000 1.54 80 19:20 29.01.2021
3158 Clear 22 1017 68 10000 2.06 60 18:45 29.01.2021
3159 Clear 23 1017 56 10000 1.54 20 17:46 29.01.2021
3160 Clear 23 1017 56 10000 1.54 20 17:22 29.01.2021
3161 Clear 23 1016 60 10000 2.57 10 16:47 29.01.2021
3162 Clear 23 1016 60 10000 2.57 10 16:24 29.01.2021
3163 Clear 23 1016 60 10000 3.09 340 15:54 29.01.2021
3164 Clear 23 1016 60 10000 3.09 340 15:36 29.01.2021
3165 Clear 24 1016 57 10000 4.12 330 14:58 29.01.2021
3166 Clear 25 1016 57 10000 4.12 330 14:21 29.01.2021
3167 Clear 26 1016 34 10000 5.66 330 13:45 29.01.2021
3168 Clear 27 1016 34 10000 5.66 330 13:26 29.01.2021
3169 Clear 27 1016 29 10000 5.66 350 12:30 29.01.2021
3170 Clear 28 1017 28 10000 2.06 0 11:58 29.01.2021
3171 Clear 28 1017 28 10000 2.06 0 11:40 29.01.2021
3172 Clear 27 1017 28 10000 2.06 0 11:18 29.01.2021
3173 Clear 27 1018 29 10000 2.57 250 10:41 29.01.2021
3174 Clouds 26 1019 31 9000 3.6 200 09:56 29.01.2021
3175 Clouds 24 1019 31 9000 3.6 200 09:36 29.01.2021
3176 Clear 23 1019 38 10000 3.6 180 08:48 29.01.2021
3177 Clear 22 1019 38 10000 3.6 180 08:26 29.01.2021
3178 Clear 21 1020 37 10000 3.6 180 07:44 29.01.2021
3179 Clear 21 1020 37 10000 3.6 180 07:23 29.01.2021
3180 Clear 18 1019 52 10000 3.09 80 06:35 29.01.2021
3181 Clear 15 1018 55 10000 0.51 0 03:53 29.01.2021
3182 Clear 17 1018 55 10000 1.03 0 00:51 29.01.2021
3183 Clear 17 1018 55 10000 1.03 0 00:23 29.01.2021
3184 Clear 18 1017 45 10000 1.03 0 23:47 28.01.2021
3185 Clear 18 1017 45 10000 1.03 0 23:28 28.01.2021
3186 Clear 18 1017 63 10000 1.54 140 22:59 28.01.2021
3187 Clear 18 1017 63 10000 1.54 140 22:39 28.01.2021
3188 Clear 19 1017 63 10000 1.54 140 22:21 28.01.2021
3189 Clear 19 1018 68 10000 2.57 100 21:42 28.01.2021
3190 Clear 20 1018 68 10000 2.57 100 21:22 28.01.2021
3191 Clear 20 1018 64 10000 2.57 70 20:45 28.01.2021
3192 Clear 20 1018 64 10000 2.57 70 20:19 28.01.2021
3193 Clear 20 1018 64 10000 3.6 50 19:52 28.01.2021
3194 Clear 21 1018 64 10000 3.6 50 19:28 28.01.2021
3195 Clear 21 1018 56 10000 2.57 60 18:49 28.01.2021
3196 Clear 22 1018 56 10000 2.57 60 18:30 28.01.2021
3197 Clear 23 1018 49 10000 3.09 40 17:54 28.01.2021
3198 Clear 23 1018 49 10000 3.09 40 17:34 28.01.2021
3199 Clear 23 1018 46 10000 3.6 30 16:58 28.01.2021
3200 Clear 23 1018 46 10000 3.6 30 16:39 28.01.2021
3201 Clear 23 1018 46 10000 3.6 30 16:20 28.01.2021
3202 Clear 24 1017 43 10000 3.09 20 15:25 28.01.2021
3203 Clear 24 1017 43 10000 4.63 350 14:48 28.01.2021
3204 Clear 24 1017 43 10000 4.63 350 14:26 28.01.2021
3205 Clear 24 1017 50 10000 5.66 340 13:58 28.01.2021
3206 Clear 25 1017 50 10000 5.66 340 13:23 28.01.2021
3207 Clear 25 1017 53 10000 5.66 330 12:50 28.01.2021
3208 Clear 26 1017 53 10000 5.66 330 12:28 28.01.2021
3209 Clear 27 1017 18 10000 1.03 0 11:55 28.01.2021
3210 Clear 26 1017 18 10000 1.03 0 11:36 28.01.2021
3211 Clear 26 1017 18 10000 1.03 0 11:18 28.01.2021
3212 Clear 26 1018 17 10000 2.57 130 10:40 28.01.2021
3213 Clear 25 1018 17 10000 2.57 130 10:22 28.01.2021
3214 Clear 25 1019 31 10000 1.03 0 09:38 28.01.2021
3215 Clear 24 1019 31 10000 1.03 0 09:19 28.01.2021
3216 Clear 23 1020 53 8000 2.57 140 08:44 28.01.2021
3217 Haze 21 1020 68 5000 2.57 80 07:50 28.01.2021
3218 Haze 20 1020 68 5000 2.57 80 07:18 28.01.2021
3219 Haze 18 1019 72 4500 2.06 100 06:46 28.01.2021
3220 Haze 15 1018 88 4000 1.03 0 04:30 28.01.2021
3221 Clear 16 1017 88 7000 1.03 0 02:33 28.01.2021
3222 Clear 17 1018 82 8000 1.54 90 00:29 28.01.2021
3223 Clear 19 1018 77 8000 1.54 110 23:25 27.01.2021
3224 Clear 18 1018 77 8000 1.54 60 22:44 27.01.2021
3225 Clear 19 1018 77 8000 1.54 60 22:26 27.01.2021
3226 Clear 19 1018 77 8000 1.54 60 22:26 27.01.2021
3227 Clear 19 1018 77 8000 1.54 90 21:57 27.01.2021
3228 Clear 19 1018 77 8000 1.54 90 21:39 27.01.2021
3229 Clear 19 1018 77 8000 1.54 90 21:21 27.01.2021
3230 Clear 20 1018 77 10000 1.54 100 20:40 27.01.2021
3231 Clear 20 1018 73 10000 2.06 110 19:58 27.01.2021
3232 Clear 21 1018 73 10000 2.06 110 19:39 27.01.2021
3233 Clear 21 1018 73 10000 2.06 110 19:20 27.01.2021
3234 Clear 21 1018 73 10000 2.06 110 19:20 27.01.2021
3235 Clear 21 1018 56 10000 2.06 70 18:42 27.01.2021
3236 Clear 21 1018 56 10000 2.06 70 18:23 27.01.2021
3237 Clear 21 1017 60 10000 3.09 350 17:46 27.01.2021
3238 Clear 22 1017 60 10000 3.09 350 17:21 27.01.2021
3239 Clear 22 1017 60 10000 5.14 340 16:48 27.01.2021
3240 Clear 22 1017 60 10000 5.14 340 16:28 27.01.2021
3241 Clear 23 1016 46 10000 4.63 340 15:50 27.01.2021
3242 Clear 23 1016 46 10000 4.63 340 15:31 27.01.2021
3243 Clear 24 1016 50 10000 5.14 310 14:43 27.01.2021
3244 Clear 24 1016 50 10000 5.14 310 14:22 27.01.2021
3245 Clear 25 1016 47 10000 5.14 310 13:45 27.01.2021
3246 Clear 25 1016 47 10000 4.63 310 12:58 27.01.2021
3247 Clear 25 1016 47 10000 4.63 310 12:38 27.01.2021
3248 Clear 25 1016 47 10000 4.63 310 12:18 27.01.2021
3249 Clouds 25 1017 50 10000 3.6 310 11:41 27.01.2021
3250 Clouds 24 1017 50 10000 3.6 310 11:21 27.01.2021
3251 Clouds 23 1018 50 10000 2.06 350 10:38 27.01.2021
3252 Clouds 23 1018 50 10000 2.06 350 10:19 27.01.2021
3253 Clear 23 1019 60 10000 2.06 250 09:40 27.01.2021
3254 Clear 20 1019 77 8000 4.12 200 08:57 27.01.2021
3255 Clouds 18 1019 88 6000 4.12 180 07:59 27.01.2021
3256 Clouds 18 1019 88 6000 4.12 180 07:40 27.01.2021
3257 Fog 17 1019 88 5000 2.57 170 06:58 27.01.2021
3258 Fog 16 1019 88 5000 2.57 170 06:19 27.01.2021
3259 Clouds 16 1018 88 7000 3.09 180 05:39 27.01.2021
3260 Clouds 17 1017 82 8000 2.06 180 03:29 27.01.2021
3261 Clear 17 1017 82 8000 2.06 170 02:23 27.01.2021
3262 Clear 17 1017 88 8000 2.06 150 01:48 27.01.2021
3263 Clear 18 1017 82 10000 3.09 190 00:33 27.01.2021
3264 Clouds 19 1017 77 10000 3.09 200 23:48 26.01.2021
3265 Clouds 19 1017 77 10000 3.09 200 23:28 26.01.2021
3266 Clouds 19 1017 77 10000 2.57 190 22:48 26.01.2021
3267 Clouds 20 1017 77 10000 2.57 190 22:23 26.01.2021
3268 Clouds 21 1017 64 10000 4.12 270 21:53 26.01.2021
3269 Clouds 21 1017 64 10000 4.12 270 21:53 26.01.2021
3270 Clouds 21 1017 64 10000 4.12 270 21:32 26.01.2021
3271 Clouds 22 1018 60 10000 4.12 280 20:58 26.01.2021
3272 Clouds 22 1018 60 10000 4.12 280 20:39 26.01.2021
3273 Clouds 22 1018 60 10000 4.12 280 20:20 26.01.2021
3274 Clouds 22 1018 60 10000 4.63 280 19:44 26.01.2021
3275 Clouds 22 1018 60 10000 4.63 280 19:20 26.01.2021
3276 Clouds 22 1018 64 10000 3.09 280 18:47 26.01.2021
3277 Clouds 22 1018 64 10000 3.09 280 18:27 26.01.2021
3278 Clear 22 1017 64 10000 2.57 270 17:51 26.01.2021
3279 Clear 22 1017 64 10000 2.57 270 17:30 26.01.2021
3280 Clear 22 1017 60 10000 4.12 270 16:55 26.01.2021
3281 Clear 22 1017 60 10000 4.12 270 16:37 26.01.2021
3282 Clear 22 1017 60 10000 4.12 270 16:18 26.01.2021
3283 Clear 23 1017 53 10000 5.14 280 15:40 26.01.2021
3284 Clear 23 1017 53 10000 5.14 280 15:20 26.01.2021
3285 Clear 23 1016 53 10000 5.66 280 14:37 26.01.2021
3286 Clear 23 1016 53 10000 5.66 280 14:18 26.01.2021
3287 Clear 24 1016 46 10000 6.17 270 13:33 26.01.2021
3288 Clear 24 1017 46 10000 6.17 280 12:57 26.01.2021
3289 Clear 24 1017 46 10000 6.17 280 12:38 26.01.2021
3290 Clear 24 1017 46 10000 6.17 280 12:19 26.01.2021
3291 Clear 24 1017 53 10000 6.69 290 11:50 26.01.2021
3292 Clear 24 1017 53 10000 6.69 290 11:19 26.01.2021
3293 Clear 24 1018 53 10000 5.66 270 10:42 26.01.2021
3294 Clear 24 1018 53 10000 5.66 270 10:21 26.01.2021
3295 Clouds 23 1019 60 10000 4.12 270 09:40 26.01.2021
3296 Clouds 23 1019 60 10000 4.12 270 09:40 26.01.2021
3297 Clouds 23 1019 60 10000 4.12 270 09:21 26.01.2021
3298 Clouds 22 1020 68 7000 3.09 200 08:48 26.01.2021
3299 Haze 21 1020 78 5000 3.6 220 07:57 26.01.2021
3300 Haze 20 1020 77 4000 3.6 200 07:19 26.01.2021
3301 Haze 16 1019 82 3000 1.54 180 05:52 26.01.2021
3302 Haze 16 1019 82 3000 1.54 180 05:33 26.01.2021
3303 Haze 16 1019 88 4700 1.54 190 03:32 26.01.2021
3304 Clouds 16 1019 82 6000 2.57 180 01:19 26.01.2021
3305 Clouds 18 1019 82 6000 2.06 150 00:30 26.01.2021
3306 Clouds 18 1019 77 7000 1.54 170 23:33 25.01.2021
3307 Clouds 19 1019 77 8000 1.54 360 22:51 25.01.2021
3308 Clouds 19 1019 77 8000 1.54 360 22:31 25.01.2021
3309 Clear 19 1019 77 9000 1.03 350 21:48 25.01.2021
3310 Clear 20 1019 77 9000 1.03 350 21:20 25.01.2021
3311 Clear 20 1019 73 10000 1.54 350 20:44 25.01.2021
3312 Clear 20 1019 73 10000 1.54 350 20:24 25.01.2021
3313 Clear 20 1019 73 10000 2.57 350 19:49 25.01.2021
3314 Clear 21 1019 73 10000 2.57 350 19:24 25.01.2021
3315 Clear 21 1019 73 10000 3.6 340 18:47 25.01.2021
3316 Clear 21 1019 73 10000 3.6 340 18:25 25.01.2021
3317 Clear 21 1019 73 10000 3.6 350 17:49 25.01.2021
3318 Clear 21 1019 73 10000 3.6 350 17:26 25.01.2021
3319 Clear 21 1019 73 10000 3.6 340 16:57 25.01.2021
3320 Clear 21 1019 73 10000 3.6 340 16:39 25.01.2021
3321 Clear 21 1019 73 10000 3.6 340 16:20 25.01.2021
3322 Clear 22 1018 68 10000 3.6 340 15:41 25.01.2021
3323 Clear 23 1018 68 10000 3.6 340 15:21 25.01.2021
3324 Clear 23 1017 60 10000 4.12 340 14:39 25.01.2021
3325 Clear 23 1017 60 10000 4.12 340 14:18 25.01.2021
3326 Clear 23 1017 56 10000 4.63 360 13:44 25.01.2021
3327 Clear 23 1017 56 10000 4.63 360 13:22 25.01.2021
3328 Clear 23 1018 56 10000 4.12 340 12:44 25.01.2021
3329 Clear 23 1018 56 10000 4.12 340 12:19 25.01.2021
3330 Clear 24 1018 53 10000 4.63 320 11:31 25.01.2021
3331 Clear 24 1019 53 10000 3.6 330 10:53 25.01.2021
3332 Clear 23 1019 53 10000 3.6 330 10:22 25.01.2021
3333 Clear 23 1020 53 10000 2.06 360 09:54 25.01.2021
3334 Clear 23 1020 53 10000 2.06 360 09:31 25.01.2021
3335 Clear 22 1021 60 10000 1.03 0 08:48 25.01.2021
3336 Clear 21 1021 60 10000 1.03 0 08:23 25.01.2021
3337 Clear 19 1022 60 8000 2.06 150 07:29 25.01.2021
3338 Clear 18 1021 55 8000 1.54 180 06:39 25.01.2021
3339 Clouds 15 1018 59 10000 1.03 180 02:56 25.01.2021
3340 Clouds 17 1018 73 10000 2.06 350 00:45 25.01.2021
3341 Clear 19 1019 68 10000 2.57 340 23:39 24.01.2021
3342 Clear 19 1019 68 10000 2.57 340 23:18 24.01.2021
3343 Clear 19 1019 64 10000 2.57 330 22:40 24.01.2021
3344 Clear 19 1019 64 10000 2.57 330 22:18 24.01.2021
3345 Clear 19 1019 56 10000 2.57 350 21:37 24.01.2021
3346 Clear 19 1019 56 10000 2.57 350 21:19 24.01.2021
3347 Clear 19 1020 49 10000 2.57 340 20:41 24.01.2021
3348 Clear 19 1020 49 10000 2.57 340 20:19 24.01.2021
3349 Clear 20 1020 37 10000 2.57 340 19:50 24.01.2021
3350 Clear 20 1020 37 10000 2.57 340 19:26 24.01.2021
3351 Clear 20 1020 32 10000 2.06 350 18:56 24.01.2021
3352 Clear 20 1020 32 10000 2.06 350 18:37 24.01.2021
3353 Clear 20 1020 32 10000 2.06 350 18:19 24.01.2021
3354 Clear 20 1019 35 10000 2.57 10 17:47 24.01.2021
3355 Clear 20 1019 35 10000 2.57 10 17:20 24.01.2021
3356 Clear 21 1019 40 10000 4.63 10 16:42 24.01.2021
3357 Clear 21 1019 40 10000 4.63 10 16:23 24.01.2021
3358 Clear 22 1018 35 10000 4.63 10 15:49 24.01.2021
3359 Clear 22 1018 35 10000 4.63 10 15:22 24.01.2021
3360 Clear 22 1018 40 9000 5.14 10 14:58 24.01.2021
3361 Clear 22 1018 40 9000 5.14 10 14:36 24.01.2021
3362 Clear 23 1018 46 8000 5.14 10 13:40 24.01.2021
3363 Clear 23 1018 46 8000 5.14 10 13:20 24.01.2021
3364 Clear 23 1018 43 6000 5.14 340 12:42 24.01.2021
3365 Clear 23 1018 43 6000 5.14 340 12:19 24.01.2021
3366 Clear 23 1018 43 8000 5.14 340 11:49 24.01.2021
3367 Clear 23 1018 43 8000 5.14 340 11:23 24.01.2021
3368 Clear 24 1019 41 8000 5.14 350 10:42 24.01.2021
3369 Clear 23 1020 35 7000 3.09 60 09:59 24.01.2021
3370 Clear 23 1020 35 7000 3.09 60 09:22 24.01.2021
3371 Clear 22 1021 43 6000 4.12 50 08:55 24.01.2021
3372 Clear 20 1021 46 10000 3.6 70 07:41 24.01.2021
3373 Clear 17 1018 55 10000 2.06 60 02:39 24.01.2021
3374 Clear 17 1019 55 10000 2.06 60 01:00 24.01.2021
3375 Clear 17 1019 55 10000 2.06 60 00:24 24.01.2021
3376 Clear 17 1019 52 10000 2.06 60 23:47 23.01.2021
3377 Clear 17 1019 52 10000 2.06 60 23:25 23.01.2021
3378 Clear 17 1019 52 10000 2.57 70 22:42 23.01.2021
3379 Clear 18 1019 52 10000 2.57 70 22:24 23.01.2021
3380 Clear 18 1020 48 10000 2.57 60 21:50 23.01.2021
3381 Clear 19 1020 48 10000 2.57 60 21:21 23.01.2021
3382 Clear 18 1020 48 10000 3.09 70 20:47 23.01.2021
3383 Clear 19 1020 48 10000 3.09 70 20:22 23.01.2021
3384 Clear 20 1020 45 10000 3.6 70 19:46 23.01.2021
3385 Clear 20 1020 45 10000 3.6 70 19:21 23.01.2021
3386 Clear 20 1020 45 10000 3.6 60 18:49 23.01.2021
3387 Clear 20 1020 45 10000 3.6 60 18:26 23.01.2021
3388 Clear 21 1020 46 6000 4.63 50 17:48 23.01.2021
3389 Clear 21 1020 46 6000 4.63 50 17:27 23.01.2021
3390 Dust 21 1019 46 5000 6.17 40 16:49 23.01.2021
3391 Dust 21 1019 46 5000 6.17 40 16:25 23.01.2021
3392 Dust 22 1018 43 4000 6.17 40 15:40 23.01.2021
3393 Dust 22 1018 43 4000 6.17 40 15:21 23.01.2021
3394 Dust 23 1018 43 3500 6.69 30 14:32 23.01.2021
3395 Dust 23 1018 46 3500 7.72 10 13:54 23.01.2021
3396 Dust 23 1018 46 3500 7.72 10 13:35 23.01.2021
3397 Dust 24 1018 46 3500 7.2 20 12:57 23.01.2021
3398 Dust 24 1018 46 3500 7.2 20 12:27 23.01.2021
3399 Dust 24 1018 46 4000 5.66 10 11:45 23.01.2021
3400 Dust 25 1018 46 4000 5.66 10 11:25 23.01.2021
3401 Dust 25 1019 33 4000 5.66 90 10:48 23.01.2021
3402 Dust 25 1019 33 4000 5.66 90 10:19 23.01.2021
3403 Dust 23 1020 40 3500 6.17 70 09:46 23.01.2021
3404 Dust 23 1021 40 3000 5.66 70 08:54 23.01.2021
3405 Dust 23 1021 40 3000 5.66 70 08:30 23.01.2021
3406 Dust 23 1021 40 3000 5.66 70 08:30 23.01.2021
3407 Dust 21 1022 49 4000 4.12 70 07:24 23.01.2021
3408 Clear 15 1019 67 10000 2.06 60 03:36 23.01.2021
3409 Clear 15 1019 72 10000 1.54 90 00:41 23.01.2021
3410 Clear 16 1019 63 10000 1.03 0 23:39 22.01.2021
3411 Clear 17 1019 67 10000 2.57 130 22:53 22.01.2021
3412 Clear 17 1019 67 10000 2.57 130 22:32 22.01.2021
3413 Clear 17 1019 67 10000 3.6 140 21:46 22.01.2021
3414 Clear 17 1019 67 10000 3.6 140 21:46 22.01.2021
3415 Clear 17 1019 67 10000 3.6 140 21:26 22.01.2021
3416 Clouds 18 1019 63 10000 3.6 140 20:56 22.01.2021
3417 Clouds 18 1019 63 10000 3.6 140 20:37 22.01.2021
3418 Clouds 19 1019 63 10000 2.57 170 19:54 22.01.2021
3419 Clouds 19 1019 63 10000 2.57 170 19:22 22.01.2021
3420 Clouds 20 1019 60 10000 2.57 180 18:55 22.01.2021
3421 Clouds 20 1019 60 10000 2.57 180 18:30 22.01.2021
3422 Clouds 20 1019 60 10000 2.06 250 17:58 22.01.2021
3423 Clouds 20 1019 60 10000 2.06 250 17:40 22.01.2021
3424 Clouds 21 1018 56 10000 3.09 250 16:59 22.01.2021
3425 Clouds 21 1018 56 10000 3.09 250 16:36 22.01.2021
3426 Clouds 21 1018 56 10000 4.63 270 15:59 22.01.2021
3427 Clouds 21 1018 56 10000 4.63 270 15:26 22.01.2021
3428 Clouds 21 1017 56 10000 5.66 280 14:50 22.01.2021
3429 Clouds 21 1017 56 10000 5.66 280 14:28 22.01.2021
3430 Clouds 22 1017 53 10000 5.14 270 13:46 22.01.2021
3431 Clouds 22 1017 53 10000 5.14 270 13:27 22.01.2021
3432 Clouds 22 1017 53 10000 5.66 290 12:42 22.01.2021
3433 Clouds 22 1017 53 10000 5.66 290 12:19 22.01.2021
3434 Clouds 22 1017 49 10000 5.66 280 11:42 22.01.2021
3435 Clouds 22 1018 53 10000 5.66 280 10:48 22.01.2021
3436 Clouds 22 1018 53 10000 5.66 280 10:29 22.01.2021
3437 Clouds 22 1019 49 10000 6.69 310 09:46 22.01.2021
3438 Clouds 21 1020 56 10000 6.17 280 08:59 22.01.2021
3439 Clouds 21 1020 56 10000 6.17 280 08:32 22.01.2021
3440 Clouds 21 1020 56 10000 6.17 280 07:59 22.01.2021
3441 Clouds 20 1019 56 10000 6.17 290 06:24 22.01.2021
3442 Clouds 20 1017 60 10000 4.12 270 02:29 22.01.2021
3443 Clouds 20 1017 60 10000 5.14 290 00:31 22.01.2021
3444 Clouds 20 1017 60 10000 5.14 280 23:50 21.01.2021
3445 Clouds 20 1017 60 10000 5.14 280 23:22 21.01.2021
3446 Clouds 20 1018 60 10000 6.69 280 22:48 21.01.2021
3447 Clouds 20 1018 60 10000 6.69 280 22:18 21.01.2021
3448 Clouds 20 1018 60 10000 8.23 290 21:41 21.01.2021
3449 Clouds 20 1018 60 10000 8.23 290 21:19 21.01.2021
3450 Clouds 21 1018 56 10000 7.2 280 20:47 21.01.2021
3451 Clouds 21 1018 56 10000 7.2 280 20:22 21.01.2021
3452 Clear 21 1018 56 10000 6.17 280 19:51 21.01.2021
3453 Clear 21 1018 56 10000 6.17 280 19:27 21.01.2021
3454 Clear 21 1018 64 10000 5.66 280 18:54 21.01.2021
3455 Clear 21 1018 64 10000 5.66 280 18:54 21.01.2021
3456 Clear 21 1018 64 10000 5.66 280 18:36 21.01.2021
3457 Clear 21 1018 64 10000 5.66 280 18:18 21.01.2021
3458 Clouds 22 1017 64 10000 7.2 280 17:41 21.01.2021
3459 Clouds 22 1017 64 10000 7.2 280 17:18 21.01.2021
3460 Clouds 22 1017 73 10000 6.69 280 16:41 21.01.2021
3461 Clouds 22 1017 73 10000 6.69 280 16:23 21.01.2021
3462 Clouds 23 1017 73 10000 6.17 290 15:55 21.01.2021
3463 Clouds 23 1017 73 10000 6.17 290 15:28 21.01.2021
3464 Clouds 23 1016 73 10000 7.2 280 14:50 21.01.2021
3465 Clouds 23 1016 73 10000 7.2 280 14:31 21.01.2021
3466 Clouds 23 1016 78 10000 6.69 280 13:47 21.01.2021
3467 Clouds 23 1016 78 10000 6.69 280 13:26 21.01.2021
3468 Clouds 23 1016 73 10000 5.14 260 12:46 21.01.2021
3469 Clouds 23 1016 73 10000 5.14 260 12:26 21.01.2021
3470 Clouds 23 1016 64 10000 4.12 270 11:56 21.01.2021
3471 Clouds 23 1016 64 10000 4.12 270 11:35 21.01.2021
3472 Clouds 23 1017 68 10000 5.14 290 10:57 21.01.2021
3473 Clouds 23 1017 68 10000 5.14 290 10:39 21.01.2021
3474 Clouds 22 1017 68 10000 5.14 290 10:20 21.01.2021
3475 Clear 22 1018 73 8000 1.54 270 09:39 21.01.2021
3476 Clear 22 1018 73 8000 1.54 270 09:18 21.01.2021
3477 Haze 19 1018 88 5000 2.57 250 08:34 21.01.2021
3478 Fog 17 1018 94 800 2.06 170 07:46 21.01.2021
3479 Fog 17 1018 94 800 2.06 170 07:26 21.01.2021
3480 Fog 16 1018 100 200 1.54 180 06:26 21.01.2021
3481 Fog 15 1017 100 300 2.57 180 04:54 21.01.2021
3482 Fog 15 1016 100 400 2.57 200 02:19 21.01.2021
3483 Clear 16 1016 94 6000 2.06 190 00:42 21.01.2021
3484 Clear 17 1017 88 7000 1.03 190 23:49 20.01.2021
3485 Clear 18 1017 88 7000 1.03 190 23:25 20.01.2021
3486 Clear 19 1017 88 9000 1.54 190 22:52 20.01.2021
3487 Clear 19 1017 88 9000 1.54 190 22:30 20.01.2021
3488 Clear 20 1017 78 10000 2.57 190 21:54 20.01.2021
3489 Clear 20 1017 78 10000 2.57 190 21:23 20.01.2021
3490 Clear 20 1017 78 10000 1.03 270 20:52 20.01.2021
3491 Clear 21 1017 78 10000 1.03 270 20:24 20.01.2021
3492 Clear 22 1017 78 10000 1.54 260 19:49 20.01.2021
3493 Clear 22 1017 78 10000 1.54 260 19:31 20.01.2021
3494 Clear 21 1017 78 10000 1.54 260 18:49 20.01.2021
3495 Clear 22 1017 78 10000 1.54 260 18:30 20.01.2021
3496 Clear 22 1017 73 10000 1.54 260 17:52 20.01.2021
3497 Clear 22 1017 73 10000 1.54 260 17:34 20.01.2021
3498 Clear 22 1017 73 10000 2.06 260 16:51 20.01.2021
3499 Clear 22 1017 73 10000 2.06 260 16:23 20.01.2021
3500 Clear 23 1016 68 10000 3.6 270 15:45 20.01.2021
3501 Clear 24 1016 68 10000 3.6 270 15:19 20.01.2021
3502 Clear 24 1016 57 10000 4.63 300 14:41 20.01.2021
3503 Clear 24 1016 57 10000 4.63 300 14:20 20.01.2021
3504 Clear 25 1015 53 10000 4.63 300 13:38 20.01.2021
3505 Clear 26 1015 41 10000 4.63 300 12:57 20.01.2021
3506 Clear 26 1015 41 10000 4.63 300 12:24 20.01.2021
3507 Clear 26 1015 47 10000 2.06 280 11:42 20.01.2021
3508 Clear 26 1015 47 10000 2.06 280 11:22 20.01.2021
3509 Clear 25 1016 47 10000 2.06 210 10:50 20.01.2021
3510 Clear 24 1016 47 10000 2.06 210 10:27 20.01.2021
3511 Clear 24 1017 60 10000 2.57 280 09:41 20.01.2021
3512 Clear 23 1017 60 10000 2.57 280 09:23 20.01.2021
3513 Clouds 22 1018 68 10000 2.06 180 08:45 20.01.2021
3514 Clouds 21 1018 68 10000 2.06 180 08:23 20.01.2021
3515 Clear 20 1019 77 8000 2.57 170 07:54 20.01.2021
3516 Clear 20 1019 77 8000 2.57 170 07:25 20.01.2021
3517 Clear 16 1017 88 6000 2.06 180 04:50 20.01.2021
3518 Clear 16 1016 82 8000 1.54 170 02:58 20.01.2021
3519 Clear 18 1016 82 10000 1.54 160 00:58 20.01.2021
3520 Clear 18 1016 82 10000 1.54 160 00:25 20.01.2021
3521 Clear 17 1016 77 10000 1.54 150 23:42 19.01.2021
3522 Clear 18 1016 77 10000 1.54 150 23:18 19.01.2021
3523 Clear 19 1017 72 10000 1.54 210 22:41 19.01.2021
3524 Clear 19 1017 72 10000 1.54 210 22:22 19.01.2021
3525 Clear 19 1017 68 10000 2.57 180 21:58 19.01.2021
3526 Clear 20 1017 68 10000 2.57 180 21:39 19.01.2021
3527 Clear 20 1017 64 10000 1.03 0 20:55 19.01.2021
3528 Clear 20 1017 64 10000 1.03 0 20:36 19.01.2021
3529 Clear 20 1017 64 10000 1.03 0 20:18 19.01.2021
3530 Clear 21 1017 64 10000 1.54 210 19:41 19.01.2021
3531 Clear 21 1017 64 10000 1.54 210 19:19 19.01.2021
3532 Clear 22 1017 60 10000 1.03 0 18:39 19.01.2021
3533 Clear 22 1017 60 10000 1.03 0 18:21 19.01.2021
3534 Clear 23 1017 56 10000 2.06 260 17:45 19.01.2021
3535 Clear 23 1017 56 10000 2.06 260 17:23 19.01.2021
3536 Clear 23 1016 56 10000 3.6 270 16:45 19.01.2021
3537 Clear 23 1016 56 10000 3.6 270 16:25 19.01.2021
3538 Clear 24 1015 57 10000 3.6 280 15:55 19.01.2021
3539 Clear 24 1015 57 10000 3.6 280 15:34 19.01.2021
3540 Clear 24 1015 64 10000 4.12 270 14:51 19.01.2021
3541 Clear 24 1015 64 10000 4.12 270 14:31 19.01.2021
3542 Clear 25 1015 57 10000 5.14 290 13:53 19.01.2021
3543 Clear 25 1015 57 10000 5.14 290 13:28 19.01.2021
3544 Clear 25 1015 53 10000 4.12 280 12:58 19.01.2021
3545 Clear 25 1015 53 10000 4.12 280 12:35 19.01.2021
3546 Clear 26 1015 50 10000 4.12 310 11:59 19.01.2021
3547 Clear 26 1015 50 10000 4.12 310 11:40 19.01.2021
3548 Clear 25 1015 50 10000 4.12 310 11:21 19.01.2021
3549 Clear 25 1016 57 10000 4.12 300 10:47 19.01.2021
3550 Clear 24 1016 57 10000 4.12 300 10:27 19.01.2021
3551 Haze 23 1017 73 5000 2.06 240 09:51 19.01.2021
3552 Haze 23 1017 73 5000 2.06 240 09:20 19.01.2021
3553 Haze 20 1018 88 3300 2.57 240 08:35 19.01.2021
3554 Mist 18 1018 100 1600 3.09 180 07:53 19.01.2021
3555 Mist 18 1018 94 1200 3.09 200 07:18 19.01.2021
3556 Fog 17 1017 100 200 2.06 210 04:48 19.01.2021
3557 Fog 17 1016 94 300 2.57 200 02:23 19.01.2021
3558 Haze 17 1015 88 4500 2.06 180 00:41 19.01.2021
3559 Clouds 18 1015 88 4000 2.06 180 23:55 18.01.2021
3560 Clouds 19 1015 88 4000 2.06 180 23:27 18.01.2021
3561 Haze 19 1015 88 4000 2.06 190 22:44 18.01.2021
3562 Haze 19 1015 88 4000 2.06 190 22:22 18.01.2021
3563 Haze 20 1016 88 5000 1.54 190 21:47 18.01.2021
3564 Haze 20 1016 88 5000 1.54 190 21:23 18.01.2021
3565 Clear 21 1016 83 6000 2.57 260 20:57 18.01.2021
3566 Clear 22 1016 83 6000 2.57 260 20:34 18.01.2021
3567 Clear 22 1016 83 7000 2.57 270 19:54 18.01.2021
3568 Clear 22 1016 83 7000 2.57 270 19:35 18.01.2021
3569 Clear 22 1016 78 7000 2.57 270 18:51 18.01.2021
3570 Clear 22 1016 78 7000 2.57 270 18:32 18.01.2021
3571 Clear 23 1016 73 7000 3.09 270 17:52 18.01.2021
3572 Clear 23 1016 73 7000 3.09 270 17:32 18.01.2021
3573 Clear 24 1015 60 10000 2.57 270 16:54 18.01.2021
3574 Clear 24 1015 60 10000 2.57 270 16:33 18.01.2021
3575 Clear 24 1014 57 10000 2.57 270 15:56 18.01.2021
3576 Clear 24 1014 57 10000 2.57 270 15:37 18.01.2021
3577 Clear 25 1014 57 10000 2.57 270 15:19 18.01.2021
3578 Clear 26 1014 47 10000 3.6 310 14:42 18.01.2021
3579 Clear 26 1014 47 10000 3.6 310 14:23 18.01.2021
3580 Clear 26 1014 47 10000 4.12 320 13:45 18.01.2021
3581 Clear 26 1014 47 10000 4.12 320 13:22 18.01.2021
3582 Clear 27 1014 34 10000 3.6 290 12:47 18.01.2021
3583 Clear 27 1014 32 10000 3.09 300 12:19 18.01.2021
3584 Clear 27 1014 32 10000 3.09 300 11:48 18.01.2021
3585 Clear 26 1014 32 10000 3.09 300 11:27 18.01.2021
3586 Clear 26 1015 34 10000 3.09 280 10:51 18.01.2021
3587 Clear 26 1015 34 10000 3.09 280 10:30 18.01.2021
3588 Clear 26 1016 25 10000 3.09 290 09:43 18.01.2021
3589 Clear 25 1016 25 10000 3.09 290 09:18 18.01.2021
3590 Clear 23 1017 25 10000 1.54 280 08:31 18.01.2021
3591 Clear 22 1017 40 10000 0.51 0 07:55 18.01.2021
3592 Clear 18 1016 48 10000 2.06 210 06:44 18.01.2021
3593 Clear 15 1014 51 10000 0.51 220 04:54 18.01.2021
3594 Clear 15 1014 51 10000 0.51 220 04:29 18.01.2021
3595 Clear 15 1014 51 10000 1.54 180 03:53 18.01.2021
3596 Clear 15 1014 51 10000 1.54 180 03:30 18.01.2021
3597 Clear 15 1013 48 10000 1.03 200 02:59 18.01.2021
3598 Clear 15 1013 48 10000 1.03 200 02:20 18.01.2021
3599 Clear 17 1013 48 10000 2.5 180 00:42 18.01.2021
3600 Clear 17 1013 48 10000 2.88 177 00:20 18.01.2021
3601 Clear 18 1013 45 10000 1.03 190 23:44 17.01.2021
3602 Clear 18 1013 45 10000 1.03 190 23:19 17.01.2021
3603 Clear 19 1013 45 10000 3.09 180 22:25 17.01.2021
3604 Clear 19 1013 45 10000 2.57 160 21:57 17.01.2021
3605 Clear 19 1013 45 10000 2.57 160 21:37 17.01.2021
3606 Clear 19 1013 45 10000 2.57 160 21:19 17.01.2021
3607 Clear 19 1013 49 10000 1.54 160 20:41 17.01.2021
3608 Clear 20 1013 49 10000 1.54 160 20:19 17.01.2021
3609 Clear 20 1014 49 10000 1.03 0 19:41 17.01.2021
3610 Clear 21 1014 46 10000 1.03 0 18:59 17.01.2021
3611 Clear 21 1014 46 10000 1.03 0 18:31 17.01.2021
3612 Clear 22 1014 49 10000 1.03 240 17:56 17.01.2021
3613 Clear 22 1014 49 10000 1.03 240 17:37 17.01.2021
3614 Clear 22 1014 49 10000 1.03 240 17:19 17.01.2021
3615 Clear 23 1013 38 10000 1.54 280 16:42 17.01.2021
3616 Clear 23 1013 38 10000 1.54 280 16:19 17.01.2021
3617 Clear 24 1013 25 10000 3.09 280 15:38 17.01.2021
3618 Clear 25 1013 25 10000 3.09 280 15:20 17.01.2021
3619 Clear 25 1012 25 10000 3.09 280 14:46 17.01.2021
3620 Clear 25 1012 25 10000 3.09 280 14:25 17.01.2021
3621 Clear 25 1012 36 10000 3.6 290 13:44 17.01.2021
3622 Clear 25 1012 36 10000 3.6 290 13:26 17.01.2021
3623 Clear 25 1012 27 10000 3.6 300 12:47 17.01.2021
3624 Clear 25 1012 27 10000 3.6 300 12:28 17.01.2021
3625 Clear 25 1012 50 10000 2.06 270 11:41 17.01.2021
3626 Clear 24 1012 50 10000 2.06 270 11:21 17.01.2021
3627 Clear 23 1012 60 10000 3.09 260 10:42 17.01.2021
3628 Clear 22 1012 60 10000 3.09 260 10:19 17.01.2021
3629 Clear 21 1013 68 8000 2.06 230 09:19 17.01.2021
3630 Haze 20 1014 77 5000 2.57 180 08:42 17.01.2021
3631 Fog 15 1014 100 100 2.06 170 05:20 17.01.2021
3632 Fog 14 1013 94 250 2.06 160 04:27 17.01.2021
3633 Fog 15 1012 94 200 2.06 170 02:30 17.01.2021
3634 Haze 17 1012 88 5000 1.54 170 00:38 17.01.2021
3635 Haze 17 1012 88 5000 1.54 170 00:18 17.01.2021
3636 Clear 17 1012 88 6000 2.06 180 23:48 16.01.2021
3637 Clear 17 1012 88 6000 2.06 180 23:19 16.01.2021
3638 Clear 17 1012 82 6000 2.06 180 22:28 16.01.2021
3639 Clear 18 1012 77 7000 2.06 210 21:58 16.01.2021
3640 Clear 18 1012 77 7000 2.06 210 21:24 16.01.2021
3641 Clear 18 1013 77 7000 2.06 200 20:53 16.01.2021
3642 Clear 18 1013 77 7000 2.06 200 20:53 16.01.2021
3643 Clear 18 1013 77 7000 2.06 200 20:29 16.01.2021
3644 Clear 19 1013 77 8000 2.06 240 19:50 16.01.2021
3645 Clear 19 1013 77 8000 2.06 240 19:31 16.01.2021
3646 Clear 19 1013 77 8000 2.06 240 18:49 16.01.2021
3647 Clear 19 1013 77 8000 2.06 240 18:28 16.01.2021
3648 Clear 20 1013 73 10000 2.06 220 17:59 16.01.2021
3649 Clear 21 1013 73 10000 2.06 220 17:40 16.01.2021
3650 Clear 21 1013 73 10000 2.06 220 17:21 16.01.2021
3651 Clear 22 1013 64 10000 2.06 260 16:44 16.01.2021
3652 Clear 22 1013 64 10000 2.06 260 16:20 16.01.2021
3653 Clear 22 1012 64 10000 3.09 300 15:43 16.01.2021
3654 Clear 23 1012 60 10000 3.09 320 14:53 16.01.2021
3655 Clear 23 1012 56 10000 4.63 320 13:54 16.01.2021
3656 Clear 23 1012 56 10000 4.63 320 13:34 16.01.2021
3657 Clouds 23 1012 60 10000 3.6 310 12:58 16.01.2021
3658 Clouds 23 1012 60 10000 3.6 310 12:37 16.01.2021
3659 Clouds 23 1012 60 10000 3.6 310 12:19 16.01.2021
3660 Clouds 23 1013 60 10000 4.63 330 11:45 16.01.2021
3661 Clouds 23 1013 60 10000 4.63 330 11:20 16.01.2021
3662 Clear 23 1014 56 10000 4.63 320 10:42 16.01.2021
3663 Clear 22 1015 56 10000 3.09 320 09:57 16.01.2021
3664 Clear 22 1015 56 10000 3.09 320 09:22 16.01.2021
3665 Clear 21 1016 60 10000 1.03 0 08:22 16.01.2021
3666 Clear 19 1016 68 6000 2.06 170 07:28 16.01.2021
3667 Haze 14 1015 77 3000 1.54 170 05:46 16.01.2021
3668 Haze 14 1015 82 2700 1.54 150 04:38 16.01.2021
3669 Haze 15 1014 88 4000 1.54 170 02:54 16.01.2021
3670 Haze 16 1014 77 4500 2.06 180 00:49 16.01.2021
3671 Haze 16 1014 77 4500 2.06 180 00:25 16.01.2021
3672 Clear 17 1014 77 6000 2.06 180 23:40 15.01.2021
3673 Clear 18 1014 72 8000 2.06 190 22:47 15.01.2021
3674 Clear 18 1014 72 8000 2.06 190 22:23 15.01.2021
3675 Clouds 19 1014 68 10000 2.06 230 21:46 15.01.2021
3676 Clouds 20 1015 68 10000 2.57 280 20:58 15.01.2021
3677 Clouds 20 1015 68 10000 2.57 280 20:40 15.01.2021
3678 Clouds 20 1015 68 10000 2.57 280 20:19 15.01.2021
3679 Clouds 20 1015 68 10000 3.6 290 19:40 15.01.2021
3680 Clouds 20 1015 68 10000 3.6 290 19:22 15.01.2021
3681 Clouds 20 1015 68 10000 2.57 270 18:42 15.01.2021
3682 Clouds 20 1015 68 10000 2.57 270 18:18 15.01.2021
3683 Clear 21 1014 68 10000 2.57 260 17:50 15.01.2021
3684 Clear 21 1014 68 10000 2.57 260 17:22 15.01.2021
3685 Clear 21 1014 64 10000 1.54 270 16:49 15.01.2021
3686 Clear 21 1014 64 10000 1.54 270 16:24 15.01.2021
3687 Clear 22 1014 64 10000 3.6 320 15:41 15.01.2021
3688 Clear 22 1014 64 10000 3.6 320 15:21 15.01.2021
3689 Clear 23 1014 60 10000 4.12 310 14:48 15.01.2021
3690 Clear 23 1014 60 10000 4.12 310 14:27 15.01.2021
3691 Clouds 23 1014 56 10000 5.14 310 13:43 15.01.2021
3692 Clouds 23 1014 56 10000 5.14 310 13:23 15.01.2021
3693 Clouds 23 1014 57 10000 5.66 310 12:58 15.01.2021
3694 Clouds 23 1014 57 10000 5.66 310 12:33 15.01.2021
3695 Clouds 23 1014 60 10000 4.63 310 11:56 15.01.2021
3696 Clouds 23 1014 60 10000 4.63 310 11:36 15.01.2021
3697 Clouds 23 1015 60 10000 3.6 320 10:57 15.01.2021
3698 Clouds 23 1015 60 10000 3.6 320 10:39 15.01.2021
3699 Clouds 23 1015 60 10000 3.6 320 10:39 15.01.2021
3700 Clouds 23 1015 60 10000 3.6 320 10:19 15.01.2021
3701 Clouds 22 1016 64 10000 2.06 280 09:41 15.01.2021
3702 Clouds 22 1016 64 10000 2.06 280 09:20 15.01.2021
3703 Clear 21 1017 64 8000 1.54 190 08:25 15.01.2021
3704 Haze 18 1017 77 5000 2.57 180 07:41 15.01.2021
3705 Haze 18 1017 77 5000 2.57 180 07:19 15.01.2021
3706 Haze 15 1016 82 3000 2.06 180 05:35 15.01.2021
3707 Clouds 15 1015 77 6000 1.54 160 01:52 15.01.2021
3708 Clouds 17 1015 72 10000 1.54 170 23:55 14.01.2021
3709 Clouds 17 1015 72 10000 1.54 170 23:28 14.01.2021
3710 Clouds 17 1015 68 10000 1.54 170 22:48 14.01.2021
3711 Clouds 17 1015 68 10000 1.54 170 22:25 14.01.2021
3712 Clouds 19 1015 72 10000 2.06 230 21:49 14.01.2021
3713 Clouds 19 1015 72 10000 2.06 230 21:21 14.01.2021
3714 Clouds 19 1015 68 10000 1.54 210 20:52 14.01.2021
3715 Clouds 19 1015 68 10000 1.54 210 20:27 14.01.2021
3716 Clouds 20 1015 64 10000 2.57 230 19:49 14.01.2021
3717 Clouds 20 1015 64 10000 2.57 230 19:30 14.01.2021
3718 Clouds 20 1015 64 10000 2.06 240 18:56 14.01.2021
3719 Clouds 20 1015 64 10000 2.06 240 18:32 14.01.2021
3720 Clouds 21 1015 64 10000 2.57 260 17:54 14.01.2021
3721 Clouds 21 1015 64 10000 2.57 260 17:28 14.01.2021
3722 Clouds 22 1015 60 10000 3.6 270 16:50 14.01.2021
3723 Clouds 22 1015 60 10000 3.6 270 16:26 14.01.2021
3724 Clouds 22 1014 56 10000 4.12 280 15:49 14.01.2021
3725 Clouds 22 1014 56 10000 4.12 280 15:25 14.01.2021
3726 Clouds 23 1014 53 10000 5.14 300 14:41 14.01.2021
3727 Clouds 23 1014 53 10000 5.14 300 14:20 14.01.2021
3728 Clouds 23 1014 53 10000 5.14 310 13:54 14.01.2021
3729 Clouds 23 1014 53 10000 5.14 310 13:23 14.01.2021
3730 Clouds 23 1014 53 10000 5.14 280 12:56 14.01.2021
3731 Clouds 23 1015 53 10000 4.12 290 12:21 14.01.2021
3732 Clouds 23 1015 53 10000 4.12 290 11:53 14.01.2021
3733 Clouds 23 1015 53 10000 4.12 290 11:25 14.01.2021
3734 Clouds 23 1015 53 10000 4.63 300 10:57 14.01.2021
3735 Clouds 23 1015 53 10000 4.63 300 10:38 14.01.2021
3736 Clouds 22 1015 53 10000 4.63 300 10:18 14.01.2021
3737 Clouds 22 1017 56 10000 3.6 280 09:42 14.01.2021
3738 Clouds 22 1017 56 10000 3.6 280 09:20 14.01.2021
3739 Clear 21 1018 60 10000 3.09 240 08:30 14.01.2021
3740 Clear 19 1018 68 6000 4.12 210 07:53 14.01.2021
3741 Clear 19 1018 68 6000 4.12 210 07:30 14.01.2021
3742 Haze 17 1018 72 5000 1.54 170 06:30 14.01.2021
3743 Haze 15 1017 88 4500 2.57 190 04:24 14.01.2021
3744 Clouds 17 1017 72 10000 1.54 180 23:57 13.01.2021
3745 Clouds 17 1017 72 10000 1.54 180 23:27 13.01.2021
3746 Clouds 17 1017 68 10000 2.57 200 22:48 13.01.2021
3747 Clouds 17 1017 68 10000 2.57 200 22:20 13.01.2021
3748 Clear 18 1017 63 10000 1.54 210 21:43 13.01.2021
3749 Clear 18 1017 63 10000 1.54 210 21:20 13.01.2021
3750 Clear 19 1017 59 10000 2.57 230 20:48 13.01.2021
3751 Clear 19 1017 59 10000 2.57 230 20:22 13.01.2021
3752 Clear 20 1017 56 10000 2.06 230 19:47 13.01.2021
3753 Clear 20 1017 56 10000 2.06 230 19:23 13.01.2021
3754 Clear 21 1017 52 10000 1.54 250 18:45 13.01.2021
3755 Clear 21 1017 52 10000 1.54 250 18:23 13.01.2021
3756 Clear 22 1017 46 10000 2.06 250 17:41 13.01.2021
3757 Clear 22 1017 46 10000 2.06 250 17:18 13.01.2021
3758 Clear 22 1017 43 10000 3.09 270 16:41 13.01.2021
3759 Clear 22 1017 43 10000 3.09 270 16:21 13.01.2021
3760 Clear 22 1017 40 10000 4.63 290 15:41 13.01.2021
3761 Clear 22 1017 40 10000 4.63 290 15:20 13.01.2021
3762 Clear 23 1016 38 10000 4.12 310 14:28 13.01.2021
3763 Clear 24 1016 41 10000 5.14 310 13:46 13.01.2021
3764 Clear 24 1016 41 10000 5.14 310 13:21 13.01.2021
3765 Clear 24 1016 38 10000 4.63 320 12:45 13.01.2021
3766 Clear 24 1016 38 10000 4.63 320 12:24 13.01.2021
3767 Clear 24 1017 35 10000 4.12 330 11:50 13.01.2021
3768 Clear 24 1017 35 10000 4.12 330 11:32 13.01.2021
3769 Clear 24 1018 38 10000 2.57 0 10:48 13.01.2021
3770 Clear 23 1018 38 10000 2.57 0 10:27 13.01.2021
3771 Clear 23 1019 40 10000 1.54 0 09:40 13.01.2021
3772 Clear 21 1020 46 10000 2.06 180 08:58 13.01.2021
3773 Clear 21 1020 46 10000 2.06 180 08:38 13.01.2021
3774 Clear 21 1020 46 10000 2.06 180 08:20 13.01.2021
3775 Clear 18 1020 55 10000 2.57 180 07:28 13.01.2021
3776 Clear 12 1020 62 10000 1.03 170 05:52 13.01.2021
3777 Clear 11 1019 67 10000 1.03 160 04:18 13.01.2021
3778 Clear 12 1018 58 10000 1.03 0 03:43 13.01.2021
3779 Clear 12 1018 58 10000 1.03 0 03:21 13.01.2021
3780 Clear 13 1019 51 10000 1.03 180 00:47 13.01.2021
3781 Clear 16 1019 48 10000 1.03 180 23:40 12.01.2021
3782 Clear 16 1019 48 10000 2.57 200 22:57 12.01.2021
3783 Clear 16 1019 48 10000 2.57 200 22:36 12.01.2021
3784 Clear 16 1019 48 10000 2.57 200 22:18 12.01.2021
3785 Clear 15 1019 45 10000 1.54 220 21:42 12.01.2021
3786 Clear 15 1019 45 10000 1.54 220 21:23 12.01.2021
3787 Clear 17 1019 42 10000 1.54 210 20:46 12.01.2021
3788 Clear 17 1019 42 10000 1.54 210 20:26 12.01.2021
3789 Clear 18 1019 37 10000 1.54 160 19:43 12.01.2021
3790 Clear 18 1019 35 10000 1.03 0 18:54 12.01.2021
3791 Clear 18 1019 35 10000 1.03 0 18:26 12.01.2021
3792 Clear 20 1019 35 10000 2.57 340 17:58 12.01.2021
3793 Clear 21 1019 35 10000 2.57 340 17:33 12.01.2021
3794 Clear 22 1018 30 10000 4.12 340 16:46 12.01.2021
3795 Clear 21 1018 30 10000 4.12 340 16:27 12.01.2021
3796 Clear 21 1018 33 10000 5.14 330 15:54 12.01.2021
3797 Clear 22 1018 33 10000 5.14 330 15:27 12.01.2021
3798 Clear 23 1018 31 10000 6.17 340 14:55 12.01.2021
3799 Clear 23 1018 31 10000 6.17 340 14:37 12.01.2021
3800 Clear 23 1018 31 10000 6.17 340 14:18 12.01.2021
3801 Clear 23 1017 33 10000 5.66 340 13:43 12.01.2021
3802 Clear 24 1018 41 10000 5.66 330 12:38 12.01.2021
3803 Clear 23 1018 43 10000 4.63 340 11:53 12.01.2021
3804 Clear 23 1018 43 10000 4.63 340 11:53 12.01.2021
3805 Clear 23 1018 43 10000 4.63 340 11:34 12.01.2021
3806 Clear 23 1019 40 10000 5.14 320 10:44 12.01.2021
3807 Clear 23 1019 40 10000 5.14 320 10:20 12.01.2021
3808 Clear 23 1020 40 10000 4.63 340 09:53 12.01.2021
3809 Clear 23 1020 40 10000 4.63 340 09:23 12.01.2021
3810 Clear 22 1021 43 10000 2.06 30 08:28 12.01.2021
3811 Clear 20 1021 45 10000 1.03 0 07:56 12.01.2021
3812 Clear 20 1021 45 10000 1.03 0 07:33 12.01.2021
3813 Clear 12 1020 62 10000 1.54 180 05:46 12.01.2021
3814 Clear 12 1019 62 10000 1.03 190 03:46 12.01.2021
3815 Clear 12 1019 62 10000 1.03 190 03:22 12.01.2021
3816 Clear 12 1019 62 10000 1.03 170 02:18 12.01.2021
3817 Clear 14 1019 59 10000 1.03 160 00:35 12.01.2021
3818 Clear 14 1019 59 10000 1.03 200 23:43 11.01.2021
3819 Clear 15 1019 59 10000 1.03 200 23:20 11.01.2021
3820 Clear 15 1019 55 10000 1.54 210 22:46 11.01.2021
3821 Clear 15 1019 55 10000 1.54 210 22:28 11.01.2021
3822 Clear 16 1019 55 10000 0.51 0 21:46 11.01.2021
3823 Clear 16 1019 55 10000 0.51 0 21:25 11.01.2021
3824 Clear 16 1020 55 10000 1.54 100 20:59 11.01.2021
3825 Clear 16 1020 55 10000 1.54 100 20:39 11.01.2021
3826 Clear 16 1020 55 10000 1.54 100 20:39 11.01.2021
3827 Clear 17 1020 55 10000 1.54 100 20:20 11.01.2021
3828 Clear 18 1020 52 10000 1.03 90 19:49 11.01.2021
3829 Clear 19 1020 52 10000 1.03 90 19:22 11.01.2021
3830 Clear 19 1020 45 10000 1.03 0 18:43 11.01.2021
3831 Clear 20 1020 45 10000 1.03 0 18:23 11.01.2021
3832 Clear 20 1019 40 10000 2.06 30 17:42 11.01.2021
3833 Clear 20 1019 40 10000 2.06 30 17:24 11.01.2021
3834 Clear 20 1019 43 10000 3.09 340 16:48 11.01.2021
3835 Clear 21 1019 43 10000 3.09 340 16:29 11.01.2021
3836 Clear 22 1018 35 10000 4.63 340 15:57 11.01.2021
3837 Clear 22 1018 35 10000 4.63 340 15:36 11.01.2021
3838 Clear 23 1018 35 10000 6.69 340 14:58 11.01.2021
3839 Clear 23 1018 35 10000 6.69 340 14:36 11.01.2021
3840 Clear 23 1017 33 10000 5.66 330 13:48 11.01.2021
3841 Clear 23 1017 33 10000 5.66 330 13:23 11.01.2021
3842 Clear 23 1018 27 10000 5.14 350 12:44 11.01.2021
3843 Clear 23 1018 27 10000 5.14 350 12:25 11.01.2021
3844 Clear 23 1018 27 10000 5.14 350 12:25 11.01.2021
3845 Clear 23 1018 31 10000 5.66 340 11:47 11.01.2021
3846 Clear 23 1019 33 10000 4.63 330 10:59 11.01.2021
3847 Clear 23 1019 33 10000 4.63 330 10:39 11.01.2021
3848 Clear 23 1020 31 10000 3.09 40 09:59 11.01.2021
3849 Clear 23 1020 31 10000 3.09 40 09:36 11.01.2021
3850 Clear 23 1020 31 10000 3.09 40 09:36 11.01.2021
3851 Clear 22 1021 33 10000 2.06 60 08:52 11.01.2021
3852 Clear 22 1021 33 10000 2.06 60 08:34 11.01.2021
3853 Clear 20 1021 30 10000 1.54 130 07:48 11.01.2021
3854 Clear 19 1021 30 10000 1.54 130 07:25 11.01.2021
3855 Clear 17 1020 34 10000 0.51 0 06:49 11.01.2021
3856 Clear 14 1018 36 10000 2.06 60 02:31 11.01.2021
3857 Clear 14 1018 36 10000 1.54 120 00:57 11.01.2021
3858 Clear 14 1018 36 10000 1.54 90 23:48 10.01.2021
3859 Clear 15 1018 39 10000 1.54 100 22:59 10.01.2021
3860 Clear 15 1018 39 10000 1.54 100 22:40 10.01.2021
3861 Clear 15 1018 39 10000 1.54 100 22:19 10.01.2021
3862 Clear 16 1018 39 10000 1.54 90 21:40 10.01.2021
3863 Clear 17 1018 39 10000 1.54 90 21:19 10.01.2021
3864 Clear 17 1019 39 10000 2.06 40 20:49 10.01.2021
3865 Clear 18 1019 39 10000 2.06 40 20:27 10.01.2021
3866 Clear 18 1019 42 10000 2.06 90 19:42 10.01.2021
3867 Clear 18 1019 42 10000 2.06 90 19:22 10.01.2021
3868 Clear 18 1019 42 10000 2.06 90 19:22 10.01.2021
3869 Clear 19 1019 40 10000 2.57 60 18:45 10.01.2021
3870 Clear 19 1019 40 10000 2.57 60 18:20 10.01.2021
3871 Clear 20 1018 40 10000 3.09 30 17:26 10.01.2021
3872 Clear 21 1018 40 10000 4.12 30 16:51 10.01.2021
3873 Clear 21 1018 40 10000 4.12 30 16:30 10.01.2021
3874 Clear 22 1017 35 10000 4.63 20 15:41 10.01.2021
3875 Clear 23 1017 35 10000 4.63 20 15:22 10.01.2021
3876 Clear 23 1017 33 10000 5.14 20 14:41 10.01.2021
3877 Clear 23 1017 33 10000 5.14 20 14:22 10.01.2021
3878 Clear 23 1017 27 10000 4.12 20 13:46 10.01.2021
3879 Clear 23 1017 27 10000 4.12 20 13:27 10.01.2021
3880 Clear 23 1017 23 10000 5.66 10 12:59 10.01.2021
3881 Clear 23 1017 23 10000 5.66 10 12:40 10.01.2021
3882 Clear 24 1017 20 10000 4.12 50 11:57 10.01.2021
3883 Clear 23 1017 20 10000 4.12 50 11:21 10.01.2021
3884 Clear 23 1018 23 10000 3.6 70 10:52 10.01.2021
3885 Clear 23 1018 23 10000 3.6 70 10:24 10.01.2021
3886 Clear 22 1020 24 10000 4.63 90 09:46 10.01.2021
3887 Clear 21 1021 28 10000 4.63 100 08:50 10.01.2021
3888 Clear 21 1021 28 10000 4.63 100 08:18 10.01.2021
3889 Clear 16 1021 36 10000 2.57 90 06:52 10.01.2021
3890 Clear 16 1021 36 10000 2.57 90 06:18 10.01.2021
3891 Clear 13 1020 38 10000 2.57 70 05:28 10.01.2021
3892 Clear 13 1019 38 10000 2.06 70 02:38 10.01.2021
3893 Clear 15 1019 33 10000 3.09 90 00:25 10.01.2021
3894 Clear 15 1019 33 10000 1.03 80 23:42 09.01.2021
3895 Clear 15 1019 33 10000 1.03 80 23:22 09.01.2021
3896 Clear 16 1019 33 10000 2.06 90 22:25 09.01.2021
3897 Clear 16 1019 31 10000 3.09 110 21:59 09.01.2021
3898 Clear 16 1019 31 10000 3.09 110 21:39 09.01.2021
3899 Clear 17 1019 31 10000 3.09 110 21:21 09.01.2021
3900 Clear 16 1020 31 10000 3.09 100 20:56 09.01.2021
3901 Clear 17 1020 31 10000 3.09 100 20:36 09.01.2021
3902 Clear 18 1020 29 10000 3.6 100 19:40 09.01.2021
3903 Clear 18 1020 29 10000 3.6 100 19:21 09.01.2021
3904 Clear 19 1020 26 10000 3.6 100 18:38 09.01.2021
3905 Clear 19 1020 26 10000 3.6 100 18:19 09.01.2021
3906 Clear 20 1019 26 10000 3.6 80 17:42 09.01.2021
3907 Clear 20 1019 26 10000 3.6 80 17:22 09.01.2021
3908 Clear 21 1019 37 10000 4.12 50 16:29 09.01.2021
3909 Clear 22 1018 30 10000 4.63 40 15:42 09.01.2021
3910 Clear 22 1018 30 10000 4.63 40 15:24 09.01.2021
3911 Clear 22 1018 33 10000 5.66 30 14:37 09.01.2021
3912 Clear 22 1018 33 10000 5.66 30 14:19 09.01.2021
3913 Clear 22 1017 35 10000 6.17 20 13:46 09.01.2021
3914 Clear 23 1017 35 10000 6.17 20 13:27 09.01.2021
3915 Clear 23 1018 27 10000 4.63 360 12:46 09.01.2021
3916 Clear 24 1018 27 10000 4.63 360 12:21 09.01.2021
3917 Clear 24 1019 19 10000 5.66 80 11:41 09.01.2021
3918 Clear 23 1019 19 10000 5.66 80 11:23 09.01.2021
3919 Clear 23 1020 20 10000 4.63 70 10:50 09.01.2021
3920 Clear 22 1020 20 10000 4.63 70 10:26 09.01.2021
3921 Clear 22 1021 24 10000 5.66 100 09:46 09.01.2021
3922 Clear 21 1021 24 10000 5.66 100 09:21 09.01.2021
3923 Clear 21 1022 28 10000 5.66 100 08:25 09.01.2021
3924 Clear 17 1022 34 10000 2.57 130 06:55 09.01.2021
3925 Clear 17 1022 34 10000 2.57 130 06:37 09.01.2021
3926 Clear 11 1020 41 10000 2.57 140 04:43 09.01.2021
3927 Clear 12 1019 44 10000 1.03 120 02:48 09.01.2021
3928 Clear 12 1019 44 10000 1.03 120 02:29 09.01.2021
3929 Clear 13 1019 44 10000 0.51 0 01:36 09.01.2021
3930 Clear 14 1019 41 10000 1.54 0 00:34 09.01.2021
3931 Clear 14 1019 41 10000 1.54 70 23:50 08.01.2021
3932 Clear 15 1019 36 10000 1.03 80 22:54 08.01.2021
3933 Clear 16 1019 34 10000 2.57 100 21:58 08.01.2021
3934 Clear 16 1019 34 10000 2.57 100 21:31 08.01.2021
3935 Clear 17 1019 31 10000 3.6 110 20:41 08.01.2021
3936 Clear 17 1019 31 10000 3.6 110 20:21 08.01.2021
3937 Clear 18 1020 27 10000 2.57 100 19:38 08.01.2021
3938 Clear 18 1020 27 10000 2.57 100 19:19 08.01.2021
3939 Clear 19 1020 26 10000 2.57 80 18:34 08.01.2021
3940 Clear 20 1020 24 10000 3.09 70 17:55 08.01.2021
3941 Clear 20 1020 24 10000 3.09 70 17:30 08.01.2021
3942 Clear 21 1019 30 10000 4.12 80 16:51 08.01.2021
3943 Clear 21 1018 32 10000 5.14 50 15:55 08.01.2021
3944 Clear 21 1018 32 10000 5.14 50 15:33 08.01.2021
3945 Clear 22 1018 28 10000 5.66 30 14:41 08.01.2021
3946 Clear 22 1018 28 10000 5.66 30 14:20 08.01.2021
3947 Clear 23 1018 33 10000 5.66 40 13:22 08.01.2021
3948 Clear 23 1018 14 10000 6.69 80 12:52 08.01.2021
3949 Clear 24 1018 14 10000 6.69 80 12:23 08.01.2021
3950 Clear 24 1018 14 10000 6.69 100 11:59 08.01.2021
3951 Clear 24 1018 14 10000 6.69 100 11:39 08.01.2021
3952 Clear 24 1018 14 10000 6.69 100 11:39 08.01.2021
3953 Clear 23 1018 14 10000 6.69 100 11:19 08.01.2021
3954 Clear 23 1019 14 10000 7.2 60 10:42 08.01.2021
3955 Clear 22 1021 16 10000 7.72 100 09:54 08.01.2021
3956 Clear 22 1021 16 10000 7.72 100 09:36 08.01.2021
3957 Clear 21 1021 16 10000 7.72 100 09:18 08.01.2021
3958 Clear 20 1022 24 10000 6.17 90 07:30 08.01.2021
3959 Clear 20 1022 26 10000 4.63 90 06:46 08.01.2021
3960 Clear 16 1019 44 10000 2.57 50 00:44 08.01.2021
3961 Clear 16 1019 48 10000 2.06 60 23:43 07.01.2021
3962 Clear 17 1019 45 10000 2.06 0 22:55 07.01.2021
3963 Clear 17 1019 45 10000 2.06 0 22:36 07.01.2021
3964 Clear 17 1020 42 10000 3.09 80 21:50 07.01.2021
3965 Clear 17 1020 42 10000 3.09 80 21:30 07.01.2021
3966 Clear 17 1020 45 10000 3.09 80 20:52 07.01.2021
3967 Clear 17 1020 45 10000 3.09 80 20:34 07.01.2021
3968 Clear 18 1020 42 10000 2.57 80 19:49 07.01.2021
3969 Clear 18 1020 42 10000 2.57 80 19:26 07.01.2021
3970 Clear 19 1020 39 10000 4.12 80 18:47 07.01.2021
3971 Clear 20 1020 39 10000 4.12 80 18:20 07.01.2021
3972 Clear 20 1020 34 10000 5.14 60 17:34 07.01.2021
3973 Clear 21 1019 35 10000 6.17 50 16:57 07.01.2021
3974 Clear 21 1019 35 10000 6.17 50 16:32 07.01.2021
3975 Clear 21 1018 35 10000 5.14 40 15:56 07.01.2021
3976 Clear 21 1018 35 10000 5.14 40 15:31 07.01.2021
3977 Clear 22 1017 30 10000 6.69 30 14:32 07.01.2021
3978 Clear 23 1017 27 10000 7.72 30 13:58 07.01.2021
3979 Clear 23 1017 27 10000 7.72 30 13:30 07.01.2021
3980 Clear 23 1017 26 10000 7.15 30 12:55 07.01.2021
3981 Clouds 24 1017 29 7000 7.2 30 12:24 07.01.2021
3982 Clouds 24 1017 29 7000 7.2 30 11:43 07.01.2021
3983 Clouds 24 1018 29 10000 5.7 30 11:25 07.01.2021
3984 Clouds 23 1018 29 10000 5.7 30 10:38 07.01.2021
3985 Clouds 23 1020 31 8000 5.7 30 10:19 07.01.2021
3986 Clouds 22 1020 31 8000 5.7 30 09:41 07.01.2021
3987 Clear 22 1021 33 10000 6.7 40 08:51 07.01.2021
3988 Clear 21 1021 37 10000 5.1 50 08:23 07.01.2021
3989 Clear 21 1021 37 10000 5.1 50 07:43 07.01.2021
3990 Clear 18 1021 48 10000 2.1 80 06:50 07.01.2021
3991 Clear 16 1018 42 10000 1.5 60 02:19 07.01.2021
3992 Clear 17 1019 37 10000 1.5 100 00:22 07.01.2021
3993 Clear 18 1019 37 10000 1.5 100 23:31 06.01.2021
3994 Clear 19 1019 39 10000 3.1 110 22:29 06.01.2021
3995 Clear 19 1019 39 10000 3.1 110 21:42 06.01.2021
3996 Clear 19 1019 37 10000 2.1 90 21:22 06.01.2021
3997 Clear 20 1019 37 10000 2.1 90 20:47 06.01.2021
3998 Clear 20 1020 37 10000 1.5 40 20:22 06.01.2021
3999 Clear 20 1020 37 10000 1.5 40 19:48 06.01.2021
4000 Clear 20 1020 37 10000 1.5 40 19:28 06.01.2021
4001 Clear 20 1020 33 10000 2.1 30 18:50 06.01.2021
4002 Clear 21 1019 37 10000 2.6 350 18:31 06.01.2021
4003 Clear 21 1019 37 10000 2.6 350 17:47 06.01.2021
4004 Clear 22 1019 37 10000 2.6 350 17:28 06.01.2021
4005 Clear 22 1019 35 10000 3.1 340 16:57 06.01.2021
4006 Clear 23 1018 33 10000 3.1 30 16:21 06.01.2021
4007 Clear 23 1018 33 10000 3.1 30 15:59 06.01.2021
4008 Clear 23 1018 33 10000 3.1 30 15:39 06.01.2021
4009 Clear 24 1018 27 10000 3.6 20 15:21 06.01.2021
4010 Clear 24 1018 27 10000 3.6 20 14:31 06.01.2021
4011 Clear 25 1017 23 10000 3.6 360 13:52 06.01.2021
4012 Clear 25 1017 27 10000 4.1 360 13:26 06.01.2021
4013 Clear 25 1017 27 10000 4.1 360 12:55 06.01.2021
4014 Clear 24 1017 27 10000 4.1 360 12:30 06.01.2021
4015 Clear 24 1017 27 10000 5.7 330 11:44 06.01.2021
4016 Clear 24 1018 29 10000 3.1 340 11:21 06.01.2021
4017 Clear 23 1018 29 10000 3.1 340 10:35 06.01.2021
4018 Clear 23 1019 31 10000 3.6 30 09:52 06.01.2021
4019 Clear 23 1019 31 10000 3.6 30 09:27 06.01.2021
4020 Clear 22 1020 35 10000 2.6 90 08:51 06.01.2021
4021 Clear 21 1021 35 10000 1 0 08:18 06.01.2021
4022 Clear 21 1021 35 10000 1 0 07:49 06.01.2021
4023 Clear 14 1020 47 10000 1 140 05:59 06.01.2021
4024 Clear 14 1019 51 10000 1 0 04:43 06.01.2021
4025 Clear 13 1018 51 10000 1.5 190 02:59 06.01.2021
4026 Clear 13 1018 51 10000 1.5 190 02:40 06.01.2021
4027 Clear 15 1018 51 10000 0.5 0 02:19 06.01.2021
4028 Clear 16 1019 48 10000 1.64 74 23:48 05.01.2021
4029 Clear 17 1019 48 10000 1.5 120 22:55 05.01.2021
4030 Clear 18 1019 48 10000 1.5 120 22:36 05.01.2021
4031 Clear 18 1019 42 10000 1.5 80 22:18 05.01.2021
4032 Clear 19 1019 42 10000 1.5 110 21:19 05.01.2021
4033 Clear 19 1019 42 10000 1.5 110 20:30 05.01.2021
4034 Clear 20 1019 40 10000 1 0 19:45 05.01.2021
4035 Clear 20 1019 40 10000 2.1 60 19:24 05.01.2021
4036 Clear 20 1019 40 10000 2.1 60 18:49 05.01.2021
4037 Clear 21 1019 37 10000 2.6 50 18:28 05.01.2021
4038 Clear 21 1019 37 10000 2.6 50 17:54 05.01.2021
4039 Clear 21 1019 37 10000 2.6 50 17:32 05.01.2021
4040 Clear 22 1018 37 10000 3.1 30 16:54 05.01.2021
4041 Clear 23 1018 33 10000 4.1 20 16:24 05.01.2021
4042 Clear 23 1018 33 10000 4.1 20 15:59 05.01.2021
4043 Clear 23 1018 33 10000 4.1 20 15:35 05.01.2021
4044 Clear 24 1017 33 10000 5.1 340 14:48 05.01.2021
4045 Clear 25 1017 25 10000 6.2 340 14:18 05.01.2021
4046 Clear 25 1017 25 10000 6.2 340 13:39 05.01.2021
4047 Clear 25 1017 27 10000 6.2 330 13:20 05.01.2021
4048 Clear 24 1017 27 10000 6.2 330 12:46 05.01.2021
4049 Clear 24 1017 27 10000 6.2 340 12:20 05.01.2021
4050 Clear 25 1017 27 10000 6.2 340 11:31 05.01.2021
4051 Clear 25 1017 27 10000 6.2 340 11:31 05.01.2021
4052 Clear 25 1018 13 10000 1 0 10:45 05.01.2021
4053 Clear 24 1019 20 10000 3.6 80 10:19 05.01.2021
4054 Clear 23 1019 20 10000 3.6 80 09:42 05.01.2021
4055 Clear 22 1020 24 10000 3.1 90 08:59 05.01.2021
4056 Clear 21 1020 30 10000 2.1 100 08:19 05.01.2021
4057 Clear 15 1019 44 10000 1.5 0 05:38 05.01.2021
4058 Clear 14 1017 44 10000 1.5 50 03:40 05.01.2021
4059 Clear 17 1017 33 10000 1 40 00:24 05.01.2021
4060 Clear 16 1017 33 10000 1 40 23:43 04.01.2021
4061 Clear 16 1017 33 10000 2.1 110 23:24 04.01.2021
4062 Clear 17 1017 33 10000 2.1 110 22:46 04.01.2021
4063 Clear 17 1017 31 10000 2.6 110 22:21 04.01.2021
4064 Clear 18 1017 31 10000 2.6 110 21:40 04.01.2021
4065 Clear 19 1017 34 10000 2.6 100 21:22 04.01.2021
4066 Clear 19 1017 34 10000 2.6 100 20:42 04.01.2021
4067 Clear 20 1017 40 10000 2.6 70 20:21 04.01.2021
4068 Clear 20 1017 40 10000 2.6 70 19:43 04.01.2021
4069 Clear 20 1017 37 10000 2.6 50 19:19 04.01.2021
4070 Clear 20 1017 37 10000 2.6 50 18:46 04.01.2021
4071 Clear 21 1017 37 10000 3.1 40 17:59 04.01.2021
4072 Clear 21 1017 37 10000 3.1 40 17:39 04.01.2021
4073 Clear 22 1016 33 10000 3.6 50 17:21 04.01.2021
4074 Clear 22 1016 33 10000 3.6 50 16:42 04.01.2021
4075 Clear 22 1016 37 10000 5.1 30 16:24 04.01.2021
4076 Clear 22 1016 37 10000 5.1 30 15:48 04.01.2021
4077 Clear 24 1016 38 10000 5.7 30 15:24 04.01.2021
4078 Clear 25 1016 29 10000 5.7 10 13:58 04.01.2021
4079 Clear 24 1016 29 10000 5.7 10 13:36 04.01.2021
4080 Clear 24 1015 29 10000 5.7 10 12:57 04.01.2021
4081 Clear 24 1015 29 10000 2.1 0 12:30 04.01.2021
4082 Clear 24 1015 29 10000 2.1 0 11:45 04.01.2021
4083 Clear 24 1016 22 10000 4.1 80 11:19 04.01.2021
4084 Clear 24 1016 22 10000 4.1 80 10:45 04.01.2021
4085 Clear 23 1017 27 10000 3.6 70 10:23 04.01.2021
4086 Clear 23 1017 27 10000 3.6 70 09:44 04.01.2021
4087 Clear 23 1018 31 10000 3.1 0 09:18 04.01.2021
4088 Clear 23 1018 31 10000 3.1 0 08:32 04.01.2021
4089 Clear 21 1019 46 10000 3.1 60 07:47 04.01.2021
4090 Clear 19 1018 55 10000 2.1 70 06:40 04.01.2021
4091 Clear 14 1017 67 10000 1.5 90 05:20 04.01.2021
4092 Clear 14 1016 62 10000 2.1 100 02:27 04.01.2021
4093 Clear 16 1016 42 10000 1.5 80 00:27 04.01.2021
4094 Clear 17 1016 42 10000 2.1 80 23:38 03.01.2021
4095 Clear 18 1016 39 10000 2.6 80 22:58 03.01.2021
4096 Clear 18 1016 39 10000 2.6 80 22:39 03.01.2021
4097 Clear 18 1016 39 10000 3.1 70 22:21 03.01.2021
4098 Clear 19 1016 39 10000 3.1 70 21:41 03.01.2021
4099 Clear 20 1017 37 10000 2.1 80 21:23 03.01.2021
4100 Clear 20 1017 37 10000 2.1 80 20:41 03.01.2021
4101 Clear 20 1017 37 10000 2.1 70 20:19 03.01.2021
4102 Clear 20 1017 37 10000 2.1 70 19:46 03.01.2021
4103 Clear 20 1017 37 10000 2.1 70 19:27 03.01.2021
4104 Clear 21 1017 37 10000 2.6 50 18:46 03.01.2021
4105 Clear 22 1017 40 10000 2.6 50 18:25 03.01.2021
4106 Clear 22 1017 40 10000 2.6 50 17:53 03.01.2021
4107 Clear 22 1017 40 10000 2.6 50 17:27 03.01.2021
4108 Clear 22 1016 43 10000 3.6 30 16:55 03.01.2021
4109 Clear 22 1016 43 10000 3.6 30 16:36 03.01.2021
4110 Clear 23 1016 46 10000 4.1 10 16:18 03.01.2021
4111 Clear 23 1016 46 10000 4.1 10 15:40 03.01.2021
4112 Clouds 23 1015 43 10000 5.1 360 14:59 03.01.2021
4113 Clouds 23 1015 43 10000 5.1 360 14:33 03.01.2021
4114 Clouds 25 1015 36 10000 5.1 330 13:52 03.01.2021
4115 Clouds 25 1015 33 10000 5.1 340 13:24 03.01.2021
4116 Clouds 25 1015 33 10000 5.1 340 13:24 03.01.2021
4117 Clouds 25 1015 33 10000 5.1 340 12:55 03.01.2021
4118 Clouds 24 1015 36 10000 4.6 340 11:44 03.01.2021
4119 Clouds 24 1015 36 10000 4.6 340 11:26 03.01.2021
4120 Clouds 24 1016 44 10000 2.6 350 10:56 03.01.2021
4121 Clouds 24 1016 44 10000 2.6 350 10:31 03.01.2021
4122 Clouds 24 1017 44 10000 1.5 0 09:42 03.01.2021
4123 Clear 23 1018 53 10000 1 0 09:23 03.01.2021
4124 Clouds 21 1019 60 10000 2.1 270 07:58 03.01.2021
4125 Clear 16 1018 67 10000 2.6 210 05:59 03.01.2021
4126 Clear 18 1017 63 10000 1.5 200 02:29 03.01.2021
4127 Clear 18 1017 63 10000 1 190 01:48 03.01.2021
4128 Clear 19 1017 59 10000 1.5 210 00:21 03.01.2021
4129 Clear 20 1017 52 10000 1 0 23:30 02.01.2021
4130 Clear 20 1017 52 10000 1 0 22:58 02.01.2021
4131 Clear 20 1017 52 10000 1 0 22:32 02.01.2021
4132 Clear 21 1018 53 10000 2.6 350 21:52 02.01.2021
4133 Clear 21 1018 53 10000 2.6 350 21:32 02.01.2021
4134 Clear 21 1018 49 10000 2.6 350 20:56 02.01.2021
4135 Clear 21 1018 49 10000 2.6 350 20:38 02.01.2021
4136 Clear 21 1018 53 10000 2.1 350 20:19 02.01.2021
4137 Clear 21 1018 53 10000 3.1 340 19:21 02.01.2021
4138 Clear 22 1018 53 10000 3.1 340 18:58 02.01.2021
4139 Clear 22 1018 53 10000 3.1 340 18:40 02.01.2021
4140 Clear 22 1018 53 10000 2.6 340 18:21 02.01.2021
4141 Clear 22 1018 53 10000 2.6 340 17:45 02.01.2021
4142 Clear 23 1018 49 10000 3.6 340 17:22 02.01.2021
4143 Clear 23 1018 49 10000 3.6 340 16:24 02.01.2021
4144 Clear 23 1018 49 10000 4.6 330 15:57 02.01.2021
4145 Clear 23 1018 49 10000 4.6 330 15:38 02.01.2021
4146 Clear 24 1017 50 10000 4.1 360 15:20 02.01.2021
4147 Clear 24 1017 50 10000 4.1 360 14:36 02.01.2021
4148 Clear 25 1017 50 10000 5.7 340 13:54 02.01.2021
4149 Clear 24 1017 50 10000 5.7 340 13:26 02.01.2021
4150 Clear 24 1017 38 10000 5.7 340 12:52 02.01.2021
4151 Clear 25 1017 38 10000 5.7 340 12:31 02.01.2021
4152 Clear 25 1017 31 10000 5.1 340 11:45 02.01.2021
4153 Clear 26 1018 31 10000 3.1 340 11:22 02.01.2021
4154 Clear 26 1018 31 10000 3.1 340 10:46 02.01.2021
4155 Clear 25 1018 31 10000 3.1 340 10:28 02.01.2021
4156 Clear 25 1019 33 10000 1.5 320 09:45 02.01.2021
4157 Clear 23 1020 43 10000 1.5 0 09:23 02.01.2021
4158 Clear 23 1020 43 10000 1.5 0 08:49 02.01.2021
4159 Clear 22 1020 43 10000 1.5 0 08:24 02.01.2021
4160 Clear 21 1020 53 10000 1 0 07:43 02.01.2021
4161 Clear 20 1020 56 10000 1 0 07:20 02.01.2021
4162 Clear 17 1019 63 10000 1.5 140 06:28 02.01.2021
4163 Clear 16 1019 67 10000 1 150 04:44 02.01.2021
4164 Clear 18 1017 63 10000 1.5 80 00:56 02.01.2021
4165 Clear 18 1017 63 10000 1.5 80 00:35 02.01.2021
4166 Clear 18 1017 63 10000 1 0 23:49 01.01.2021
4167 Clear 19 1017 64 10000 2.1 90 23:20 01.01.2021
4168 Clear 19 1017 64 10000 2.1 90 22:47 01.01.2021
4169 Clear 19 1017 64 10000 2.1 90 22:22 01.01.2021
4170 Clear 20 1017 60 10000 1.5 70 21:44 01.01.2021
4171 Clear 20 1018 60 10000 1.5 50 21:22 01.01.2021
4172 Clear 20 1018 60 10000 1.5 50 20:52 01.01.2021
4173 Clear 21 1018 60 10000 2.1 100 20:20 01.01.2021
4174 Clear 21 1018 60 10000 2.1 100 19:43 01.01.2021
4175 Clear 22 1018 56 10000 2.1 50 19:24 01.01.2021
4176 Clear 22 1018 56 10000 2.1 50 18:57 01.01.2021
4177 Clear 22 1018 56 10000 2.1 50 18:39 01.01.2021
4178 Clear 23 1017 56 10000 2.6 40 17:59 01.01.2021
4179 Clear 23 1017 56 10000 2.6 40 17:41 01.01.2021
4180 Clear 23 1017 56 10000 3.6 30 17:18 01.01.2021
4181 Clear 23 1017 56 10000 3.6 30 16:37 01.01.2021
4182 Clear 23 1016 56 10000 3.6 20 15:46 01.01.2021
4183 Clouds 24 1016 53 10000 3.6 20 14:57 01.01.2021
4184 Clouds 24 1016 53 10000 3.6 20 14:39 01.01.2021
4185 Clouds 24 1016 50 10000 5.7 340 13:52 01.01.2021
4186 Clouds 24 1016 50 10000 5.7 340 13:33 01.01.2021
4187 Clouds 26 1016 34 10000 1.5 0 12:47 01.01.2021
4188 Clouds 25 1016 38 10000 2.1 40 12:20 01.01.2021
4189 Clouds 25 1016 38 10000 2.1 40 11:39 01.01.2021
4190 Clouds 25 1017 41 10000 1.5 0 11:18 01.01.2021
4191 Clouds 25 1017 41 10000 1.5 0 10:43 01.01.2021
4192 Clouds 24 1018 47 10000 3.6 150 09:50 01.01.2021
4193 Clear 24 1019 47 10000 5.1 140 09:22 01.01.2021
4194 Clear 24 1019 47 10000 5.1 140 08:30 01.01.2021
4195 Clear 18 1018 72 10000 1 0 04:54 01.01.2021
4196 Clear 18 1018 72 10000 1 0 04:30 01.01.2021
4197 Clear 19 1016 72 10000 2.1 80 01:39 01.01.2021
4198 Clear 20 1017 64 10000 2.6 90 00:31 01.01.2021
4199 Clear 20 1017 64 10000 1.5 110 23:37 31.12.2020
4200 Clear 20 1017 68 10000 2.1 90 23:19 31.12.2020
4201 Clear 20 1017 68 10000 2.1 90 22:41 31.12.2020
4202 Clear 20 1017 64 10000 2.6 80 22:21 31.12.2020
4203 Clear 21 1017 64 10000 2.6 80 21:47 31.12.2020
4204 Clear 21 1017 64 10000 2.6 80 21:29 31.12.2020
4205 Clear 21 1017 60 10000 2.6 90 20:54 31.12.2020
4206 Clear 22 1017 56 10000 2.6 70 20:21 31.12.2020
4207 Clear 22 1017 56 10000 2.6 70 19:48 31.12.2020
4208 Clear 22 1017 56 10000 2.6 70 19:30 31.12.2020
4209 Clear 23 1017 56 10000 2.6 30 18:50 31.12.2020
4210 Clear 23 1017 56 10000 3.1 30 18:24 31.12.2020
4211 Clear 23 1017 56 10000 3.1 30 17:45 31.12.2020
4212 Clear 23 1016 56 10000 4.6 20 17:24 31.12.2020
4213 Clear 23 1016 56 10000 4.6 20 16:44 31.12.2020
4214 Clear 24 1016 53 10000 5.1 10 16:25 31.12.2020
4215 Clear 24 1016 53 10000 5.1 10 15:55 31.12.2020
4216 Clear 24 1016 53 10000 5.1 10 15:36 31.12.2020
4217 Clear 24 1015 53 10000 6.2 340 15:18 31.12.2020
4218 Clear 24 1015 53 10000 6.2 340 14:39 31.12.2020
4219 Clouds 25 1015 47 10000 5.7 340 14:21 31.12.2020
4220 Clouds 26 1015 47 10000 5.7 340 13:42 31.12.2020
4221 Clouds 27 1015 39 10000 5.1 330 13:24 31.12.2020
4222 Clouds 27 1015 39 10000 5.1 330 12:55 31.12.2020
4223 Clouds 26 1015 39 10000 5.1 330 12:37 31.12.2020
4224 Clouds 26 1016 36 10000 2.1 40 11:53 31.12.2020
4225 Clouds 26 1016 36 10000 2.1 40 11:32 31.12.2020
4226 Clear 26 1017 36 10000 2.1 0 10:52 31.12.2020
4227 Clear 26 1017 36 10000 2.1 0 10:31 31.12.2020
4228 Clear 25 1018 38 10000 2.1 160 09:59 31.12.2020
4229 Clear 25 1018 38 10000 2.1 160 09:39 31.12.2020
4230 Clear 24 1019 46 10000 3.6 150 09:21 31.12.2020
4231 Clear 23 1019 46 10000 3.6 150 08:46 31.12.2020
4232 Clear 23 1019 46 10000 3.6 150 08:27 31.12.2020
4233 Clear 22 1020 49 10000 4.6 130 07:52 31.12.2020
4234 Clear 20 1019 56 10000 2.6 100 06:49 31.12.2020
4235 Clear 18 1018 63 10000 1 80 05:30 31.12.2020
4236 Clear 19 1017 63 10000 2.6 100 03:24 31.12.2020
4237 Clear 19 1017 63 10000 2.6 100 02:26 31.12.2020
4238 Clear 19 1017 63 10000 1.5 80 01:50 31.12.2020
4239 Clear 19 1017 63 10000 1.5 80 01:31 31.12.2020
4240 Clear 19 1017 59 10000 1.5 80 00:52 31.12.2020
4241 Clear 20 1017 56 10000 1.5 90 23:55 30.12.2020
4242 Clear 20 1017 56 10000 2.1 90 23:20 30.12.2020
4243 Clear 20 1017 56 10000 2.1 90 22:52 30.12.2020
4244 Clear 20 1017 56 10000 2.1 90 22:32 30.12.2020
4245 Clear 21 1018 52 10000 2.6 90 21:49 30.12.2020
4246 Clear 21 1018 52 10000 2.6 90 21:25 30.12.2020
4247 Clear 21 1018 52 10000 3.1 60 20:52 30.12.2020
4248 Clear 21 1018 49 10000 2.1 60 20:25 30.12.2020
4249 Clear 22 1018 49 10000 2.1 60 19:42 30.12.2020
4250 Clear 23 1018 46 10000 2.1 50 19:23 30.12.2020
4251 Clear 23 1018 46 10000 2.1 50 18:57 30.12.2020
4252 Clear 23 1018 46 10000 2.1 50 18:37 30.12.2020
4253 Clear 23 1018 49 10000 2.6 30 18:19 30.12.2020
4254 Clear 23 1018 49 10000 2.6 30 17:41 30.12.2020
4255 Clear 23 1017 46 10000 2.6 30 17:21 30.12.2020
4256 Clear 23 1017 46 10000 2.6 30 16:41 30.12.2020
4257 Clear 24 1017 44 10000 3.6 30 15:50 30.12.2020
4258 Clear 24 1016 47 10000 3.6 30 15:29 30.12.2020
4259 Clear 24 1016 47 10000 3.6 30 14:45 30.12.2020
4260 Clear 24 1016 47 10000 3.6 30 14:26 30.12.2020
4261 Clear 26 1016 39 10000 3.1 0 13:53 30.12.2020
4262 Clear 27 1016 31 10000 2.6 210 12:49 30.12.2020
4263 Clear 27 1017 31 10000 1.5 0 12:24 30.12.2020
4264 Clear 25 1017 31 10000 1.5 0 11:39 30.12.2020
4265 Clear 25 1017 36 10000 3.1 0 11:20 30.12.2020
4266 Clear 25 1017 36 10000 3.1 0 10:55 30.12.2020
4267 Clear 24 1017 36 10000 3.1 0 10:36 30.12.2020
4268 Clear 24 1018 38 10000 3.6 200 09:53 30.12.2020
4269 Clear 24 1018 38 10000 3.6 200 09:35 30.12.2020
4270 Clear 23 1019 43 10000 4.1 120 08:35 30.12.2020
4271 Clear 21 1019 43 10000 2.1 100 07:32 30.12.2020
4272 Clear 20 1019 49 10000 2.6 90 06:54 30.12.2020
4273 Clear 20 1019 49 10000 2.6 90 06:35 30.12.2020
4274 Clear 17 1018 51 10000 1.5 80 05:46 30.12.2020
4275 Clear 16 1018 51 10000 1.5 80 05:27 30.12.2020
4276 Clear 17 1017 45 10000 4.48 42 03:28 30.12.2020
4277 Clear 17 1017 45 10000 4.48 42 02:46 30.12.2020
4278 Clear 17 1017 45 10000 1 0 02:27 30.12.2020
4279 Clear 17 1017 45 10000 1 0 01:34 30.12.2020
4280 Clear 16 1017 48 10000 1 0 00:51 30.12.2020
4281 Clear 16 1017 48 10000 1 0 00:32 30.12.2020
4282 Clear 17 1018 48 10000 1.5 110 23:57 29.12.2020
4283 Clear 17 1018 48 10000 1.5 110 23:39 29.12.2020
4284 Clear 17 1018 45 10000 1 0 23:18 29.12.2020
4285 Clear 19 1018 45 10000 1 0 22:43 29.12.2020
4286 Clear 19 1018 45 10000 2.1 70 22:23 29.12.2020
4287 Clear 19 1018 45 10000 2.1 70 21:47 29.12.2020
4288 Clear 20 1019 42 10000 2.1 100 21:29 29.12.2020
4289 Clear 20 1019 42 10000 2.1 100 20:48 29.12.2020
4290 Clear 20 1019 40 10000 1.5 80 20:26 29.12.2020
4291 Clear 20 1019 40 10000 1.5 80 19:56 29.12.2020
4292 Clear 20 1019 40 10000 1.5 80 19:37 29.12.2020
4293 Clear 21 1019 37 10000 1.5 20 19:18 29.12.2020
4294 Clear 22 1019 37 10000 1.5 20 18:39 29.12.2020
4295 Clear 22 1018 37 10000 2.6 20 18:19 29.12.2020
4296 Clear 22 1018 37 10000 2.6 20 17:44 29.12.2020
4297 Clear 23 1018 35 10000 2.6 360 17:19 29.12.2020
4298 Clear 23 1018 35 10000 2.6 360 16:36 29.12.2020
4299 Clear 23 1017 35 10000 4.1 360 15:59 29.12.2020
4300 Clear 23 1017 35 10000 4.1 360 15:36 29.12.2020
4301 Clear 23 1017 33 10000 4.1 360 14:58 29.12.2020
4302 Clear 23 1017 33 10000 4.1 360 14:36 29.12.2020
4303 Clear 23 1017 25 10000 4.6 350 14:18 29.12.2020
4304 Clear 24 1017 25 10000 4.6 350 13:39 29.12.2020
4305 Clear 24 1017 29 10000 4.6 350 13:18 29.12.2020
4306 Clear 24 1017 29 10000 4.6 350 12:37 29.12.2020
4307 Clear 24 1017 31 10000 5.7 330 12:19 29.12.2020
4308 Clear 24 1017 31 10000 5.7 330 11:52 29.12.2020
4309 Clear 24 1017 31 10000 5.7 330 11:31 29.12.2020
4310 Clear 24 1019 27 10000 3.1 360 10:23 29.12.2020
4311 Clear 24 1019 27 10000 3.1 360 09:48 29.12.2020
4312 Clear 24 1020 27 10000 4.1 360 09:20 29.12.2020
4313 Clear 24 1020 27 10000 4.1 360 08:52 29.12.2020
4314 Clear 23 1020 38 10000 0.5 0 08:19 29.12.2020
4315 Clear 22 1020 38 10000 0.5 0 07:26 29.12.2020
4316 Clear 19 1020 52 10000 1.5 220 06:26 29.12.2020
4317 Clear 15 1018 63 10000 1.5 210 03:32 29.12.2020
4318 Clear 18 1019 55 10000 1 150 00:44 29.12.2020
4319 Clear 19 1019 52 10000 1.5 120 23:55 28.12.2020
4320 Clear 19 1019 52 10000 1.5 120 23:33 28.12.2020
4321 Clear 20 1019 49 10000 1 0 22:24 28.12.2020
4322 Clear 20 1019 49 10000 1 0 21:44 28.12.2020
4323 Clear 20 1019 49 10000 1 0 21:24 28.12.2020
4324 Clear 20 1019 52 10000 1.5 80 20:40 28.12.2020
4325 Clear 20 1019 49 10000 2.1 70 20:22 28.12.2020
4326 Clear 21 1019 49 10000 2.1 70 19:47 28.12.2020
4327 Clear 21 1019 46 10000 2.1 30 19:23 28.12.2020
4328 Clear 22 1019 46 10000 2.1 30 18:51 28.12.2020
4329 Clear 22 1019 46 10000 3.1 50 18:28 28.12.2020
4330 Clear 22 1019 46 10000 3.1 50 17:44 28.12.2020
4331 Clear 22 1018 43 10000 4.1 40 17:25 28.12.2020
4332 Clear 22 1018 43 10000 4.1 40 16:43 28.12.2020
4333 Clear 22 1018 46 10000 4.6 20 16:23 28.12.2020
4334 Clear 22 1018 46 10000 4.6 20 15:46 28.12.2020
4335 Clear 24 1017 44 10000 5.7 30 14:57 28.12.2020
4336 Clear 25 1017 38 10000 5.7 10 13:56 28.12.2020
4337 Clear 25 1017 38 10000 5.7 10 13:35 28.12.2020
4338 Clear 25 1018 36 10000 5.1 10 12:51 28.12.2020
4339 Clear 25 1018 29 10000 2.6 30 12:23 28.12.2020
4340 Clear 25 1018 29 10000 2.6 30 11:47 28.12.2020
4341 Clear 25 1018 29 10000 2.6 30 11:24 28.12.2020
4342 Clear 25 1019 31 10000 2.6 80 10:49 28.12.2020
4343 Clear 24 1019 31 10000 2.6 80 10:27 28.12.2020
4344 Clear 24 1020 36 10000 2.1 120 09:46 28.12.2020
4345 Clear 23 1021 38 10000 4.6 90 09:20 28.12.2020
4346 Clear 21 1022 40 10000 4.1 100 07:40 28.12.2020
4347 Clear 20 1022 45 10000 3.6 80 06:50 28.12.2020
4348 Clear 17 1020 51 10000 2.6 70 04:41 28.12.2020
4349 Clear 18 1019 48 10000 3.1 0 02:44 28.12.2020
4350 Clear 18 1020 52 10000 3.6 60 00:53 28.12.2020
4351 Clear 18 1020 52 10000 3.6 60 00:53 28.12.2020
4352 Clear 18 1020 45 10000 3.1 60 23:49 27.12.2020
4353 Clear 19 1020 48 10000 3.1 60 23:19 27.12.2020
4354 Clear 19 1021 45 10000 4.1 70 21:58 27.12.2020
4355 Clear 20 1022 45 10000 4.1 70 21:26 27.12.2020
4356 Clear 20 1022 45 10000 4.1 70 20:48 27.12.2020
4357 Clear 20 1022 45 10000 4.6 90 19:46 27.12.2020
4358 Clear 20 1021 45 10000 5.1 90 19:22 27.12.2020
4359 Clear 20 1021 45 10000 5.1 90 18:42 27.12.2020
4360 Clear 21 1021 43 10000 5.7 90 18:19 27.12.2020
4361 Clear 21 1021 43 10000 5.7 90 17:47 27.12.2020
4362 Clear 21 1021 40 10000 6.2 90 17:27 27.12.2020
4363 Clear 21 1021 40 10000 6.2 90 16:43 27.12.2020
4364 Clear 23 1020 35 10000 5.7 90 15:59 27.12.2020
4365 Clear 24 1019 33 10000 6.7 90 15:19 27.12.2020
4366 Clear 24 1019 33 10000 6.7 90 14:41 27.12.2020
4367 Clear 25 1019 31 10000 6.2 90 14:22 27.12.2020
4368 Clear 26 1019 31 10000 6.7 80 13:22 27.12.2020
4369 Clear 25 1019 31 10000 6.7 80 12:47 27.12.2020
4370 Clear 25 1020 31 9000 6.7 90 12:18 27.12.2020
4371 Clear 25 1020 31 9000 6.7 90 11:39 27.12.2020
4372 Clear 25 1021 31 8000 6.2 100 10:52 27.12.2020
4373 Clear 25 1022 36 7000 7.2 110 10:25 27.12.2020
4374 Clear 24 1022 36 7000 7.2 110 09:53 27.12.2020
4375 Clear 24 1022 36 6000 6.7 100 08:50 27.12.2020
4376 Dust 23 1023 38 4000 8.7 90 08:25 27.12.2020
4377 Dust 21 1023 38 4000 8.7 90 07:26 27.12.2020
4378 Clouds 20 1022 49 7000 4.6 80 05:45 27.12.2020
4379 Clouds 19 1021 48 8000 4.6 80 04:25 27.12.2020
4380 Clear 20 1020 34 10000 3.6 70 03:20 27.12.2020
4381 Clear 19 1020 34 10000 3.6 70 01:34 27.12.2020
4382 Clear 19 1020 37 10000 3.1 0 00:24 27.12.2020
4383 Clear 19 1020 52 10000 3.1 40 23:32 26.12.2020
4384 Clear 19 1020 59 10000 3.1 60 22:57 26.12.2020
4385 Clear 19 1020 59 10000 3.1 60 22:36 26.12.2020
4386 Clear 20 1020 56 10000 2.6 90 22:18 26.12.2020
4387 Clear 20 1020 56 10000 2.6 90 22:18 26.12.2020
4388 Clear 20 1020 56 10000 2.6 90 21:43 26.12.2020
4389 Clear 20 1020 56 10000 1.5 60 21:22 26.12.2020
4390 Clear 20 1020 56 10000 1.5 60 20:41 26.12.2020
4391 Clear 20 1020 52 10000 0.5 0 20:19 26.12.2020
4392 Clear 20 1020 52 10000 0.5 0 19:27 26.12.2020
4393 Clear 21 1020 49 10000 2.1 50 18:52 26.12.2020
4394 Clear 21 1020 49 10000 2.1 50 18:28 26.12.2020
4395 Clear 22 1020 46 10000 1.5 20 17:41 26.12.2020
4396 Clear 22 1019 46 10000 2.1 350 17:21 26.12.2020
4397 Clear 22 1019 46 10000 2.1 350 16:36 26.12.2020
4398 Clear 23 1018 40 10000 2.6 290 15:27 26.12.2020
4399 Clear 23 1018 40 10000 2.6 290 14:54 26.12.2020
4400 Clear 23 1018 40 10000 2.6 290 14:28 26.12.2020
4401 Clear 23 1017 40 10000 3.1 290 13:51 26.12.2020
4402 Clear 23 1017 40 10000 3.1 290 13:31 26.12.2020
4403 Clear 23 1017 46 10000 3.1 0 12:48 26.12.2020
4404 Clear 23 1017 46 10000 3.1 0 12:30 26.12.2020
4405 Clear 23 1017 46 10000 3.1 0 12:30 26.12.2020
4406 Clear 23 1017 46 10000 5.1 320 11:51 26.12.2020
4407 Clear 23 1018 43 10000 4.6 270 11:22 26.12.2020
4408 Clear 23 1018 43 10000 4.6 270 10:55 26.12.2020
4409 Clear 23 1019 43 10000 4.1 290 10:27 26.12.2020
4410 Clear 23 1019 43 10000 4.1 290 09:51 26.12.2020
4411 Clear 23 1019 43 10000 4.1 290 09:29 26.12.2020
4412 Clouds 22 1020 46 10000 5.1 300 08:35 26.12.2020
4413 Clear 22 1020 46 10000 5.1 280 07:53 26.12.2020
4414 Clear 21 1019 46 10000 4.1 280 06:47 26.12.2020
4415 Clouds 21 1017 49 10000 5.1 290 03:46 26.12.2020
4416 Clouds 22 1016 52 10000 5.1 290 01:44 26.12.2020
4417 Clouds 22 1017 49 10000 4.6 280 00:27 26.12.2020
4418 Clouds 22 1017 49 10000 3.6 280 23:41 25.12.2020
4419 Clouds 22 1017 49 10000 5.7 280 23:23 25.12.2020
4420 Clouds 22 1017 49 10000 5.7 280 22:45 25.12.2020
4421 Clouds 22 1017 49 10000 4.6 290 21:58 25.12.2020
4422 Clouds 22 1017 49 10000 4.6 290 21:58 25.12.2020
4423 Clouds 22 1017 49 10000 4.6 290 21:34 25.12.2020
4424 Clear 22 1017 49 10000 4.6 290 20:56 25.12.2020
4425 Clear 22 1017 49 10000 4.6 290 20:37 25.12.2020
4426 Clear 22 1017 49 10000 6.2 280 19:48 25.12.2020
4427 Clear 23 1017 46 10000 5.1 290 19:21 25.12.2020
4428 Clear 23 1017 46 10000 5.1 290 18:39 25.12.2020
4429 Clear 23 1017 46 10000 6.2 290 17:47 25.12.2020
4430 Clear 23 1017 46 10000 6.2 290 17:28 25.12.2020
4431 Clear 24 1017 43 10000 6.7 300 16:33 25.12.2020
4432 Clouds 24 1016 41 10000 7.7 320 15:59 25.12.2020
4433 Clouds 24 1016 41 10000 7.7 320 15:36 25.12.2020
4434 Clouds 24 1015 60 10000 5.1 290 14:54 25.12.2020
4435 Clouds 24 1015 60 10000 5.1 290 14:29 25.12.2020
4436 Clouds 24 1015 60 10000 4.1 270 13:45 25.12.2020
4437 Clouds 25 1015 57 10000 3.6 280 13:26 25.12.2020
4438 Clouds 25 1015 57 10000 3.6 280 12:45 25.12.2020
4439 Clouds 25 1016 53 10000 5.1 290 11:58 25.12.2020
4440 Clouds 25 1016 53 10000 5.1 290 11:40 25.12.2020
4441 Clouds 24 1016 57 10000 3.1 290 11:19 25.12.2020
4442 Clouds 24 1017 53 10000 4.6 280 10:27 25.12.2020
4443 Clouds 24 1017 53 10000 4.6 280 09:43 25.12.2020
4444 Clear 22 1018 60 10000 2.6 230 08:48 25.12.2020
4445 Clear 21 1018 60 10000 2.6 230 08:25 25.12.2020
4446 Clouds 19 1018 72 7000 3.6 200 06:47 25.12.2020
4447 Clouds 17 1016 72 7000 3.1 210 04:29 25.12.2020
4448 Clear 18 1014 63 10000 2.1 200 01:42 25.12.2020
4449 Clear 19 1015 63 10000 2.1 190 00:18 25.12.2020
4450 Clear 19 1014 63 10000 1.5 190 23:23 24.12.2020
4451 Clear 19 1014 63 10000 1.5 190 22:51 24.12.2020
4452 Clear 20 1015 60 10000 2.6 170 22:22 24.12.2020
4453 Clear 20 1015 60 10000 2.6 170 21:36 24.12.2020
4454 Clear 22 1015 53 10000 1.5 340 20:42 24.12.2020
4455 Clear 23 1015 49 10000 4.6 320 18:52 24.12.2020
4456 Clear 23 1014 49 10000 5.1 300 18:19 24.12.2020
4457 Clear 23 1014 49 10000 5.1 300 17:37 24.12.2020
4458 Clear 23 1014 46 10000 4.6 300 16:49 24.12.2020
4459 Clear 23 1013 49 10000 5.7 310 16:22 24.12.2020
4460 Clear 23 1013 49 10000 5.7 310 15:42 24.12.2020
4461 Clear 24 1013 44 10000 4.6 310 15:19 24.12.2020
4462 Clear 24 1013 44 10000 4.6 310 14:50 24.12.2020
4463 Clear 24 1012 44 10000 5.1 310 14:24 24.12.2020
4464 Clear 25 1012 44 10000 5.1 310 13:48 24.12.2020
4465 Clear 25 1012 44 10000 5.1 310 13:29 24.12.2020
4466 Clear 25 1013 41 10000 4.6 320 12:44 24.12.2020
4467 Clear 25 1013 38 10000 4.6 340 12:21 24.12.2020
4468 Clear 25 1013 38 10000 4.6 340 11:47 24.12.2020
4469 Clear 25 1014 31 10000 1 0 11:21 24.12.2020
4470 Clear 26 1014 31 10000 1 0 10:53 24.12.2020
4471 Clear 25 1014 31 10000 1 0 10:35 24.12.2020
4472 Clear 25 1015 38 10000 1.5 350 09:52 24.12.2020
4473 Clear 24 1015 38 10000 1.5 350 09:26 24.12.2020
4474 Clear 24 1016 38 10000 1 0 08:43 24.12.2020
4475 Clear 23 1017 43 10000 1 0 07:43 24.12.2020
4476 Clear 19 1016 52 10000 1 150 07:20 24.12.2020
4477 Clear 16 1016 59 10000 1.5 150 05:49 24.12.2020
4478 Clear 17 1015 55 10000 1 200 02:26 24.12.2020
4479 Clear 18 1015 59 10000 1 220 01:43 24.12.2020
4480 Clear 18 1015 55 10000 1 190 01:18 24.12.2020
4481 Clear 19 1015 52 10000 1.5 200 00:22 24.12.2020
4482 Clear 19 1015 52 10000 1.5 200 23:49 23.12.2020
4483 Clear 19 1015 52 10000 1.5 200 23:49 23.12.2020
4484 Clear 19 1015 52 10000 1.5 200 23:30 23.12.2020
4485 Clear 20 1015 49 10000 1.5 190 22:57 23.12.2020
4486 Clear 20 1015 49 10000 1.5 190 22:33 23.12.2020
4487 Clear 20 1016 46 10000 1 0 21:57 23.12.2020
4488 Clear 20 1016 46 10000 2.1 100 21:28 23.12.2020
4489 Clear 20 1016 46 10000 2.1 100 20:56 23.12.2020
4490 Clear 20 1016 46 10000 2.1 100 20:37 23.12.2020
4491 Clear 20 1016 46 10000 3.1 100 20:19 23.12.2020
4492 Clear 21 1016 46 10000 3.1 100 19:39 23.12.2020
4493 Clear 22 1016 40 10000 2.6 350 19:20 23.12.2020
4494 Clear 23 1016 40 10000 2.6 350 18:49 23.12.2020
4495 Clear 23 1016 40 10000 3.1 350 18:29 23.12.2020
4496 Clear 23 1016 40 10000 3.1 350 17:41 23.12.2020
4497 Clear 23 1015 43 10000 4.6 340 17:22 23.12.2020
4498 Clear 24 1015 43 10000 4.6 340 16:49 23.12.2020
4499 Clear 24 1015 43 10000 4.6 340 16:29 23.12.2020
4500 Clear 24 1015 41 10000 4.1 350 15:58 23.12.2020
4501 Clear 24 1015 41 10000 4.1 350 15:37 23.12.2020
4502 Clear 24 1014 41 10000 5.1 360 15:19 23.12.2020
4503 Clear 25 1014 41 10000 5.1 360 14:40 23.12.2020
4504 Clear 25 1014 33 10000 5.1 350 14:20 23.12.2020
4505 Clear 26 1014 33 10000 5.1 350 13:44 23.12.2020
4506 Clear 26 1014 38 10000 5.7 340 13:20 23.12.2020
4507 Clear 26 1014 38 10000 5.7 340 12:54 23.12.2020
4508 Clear 26 1014 38 10000 5.7 340 12:30 23.12.2020
4509 Clear 26 1015 31 10000 4.6 350 11:54 23.12.2020
4510 Clear 26 1016 27 10000 1 0 11:27 23.12.2020
4511 Clear 26 1016 27 10000 1 0 10:52 23.12.2020
4512 Clear 26 1016 27 10000 1 0 10:33 23.12.2020
4513 Clear 24 1017 31 10000 2.6 50 09:37 23.12.2020
4514 Clear 24 1018 47 10000 3.1 60 08:52 23.12.2020
4515 Clear 23 1018 53 10000 1 0 08:23 23.12.2020
4516 Clear 22 1018 53 10000 1 0 07:43 23.12.2020
4517 Clouds 20 1018 64 7000 1.5 160 06:42 23.12.2020
4518 Clouds 18 1018 68 7000 2.1 150 05:55 23.12.2020
4519 Clouds 16 1017 72 7000 2.1 160 05:20 23.12.2020
4520 Clear 18 1017 68 10000 1.5 210 01:38 23.12.2020
4521 Clear 18 1016 63 10000 1.5 220 00:30 23.12.2020
4522 Clear 19 1017 68 10000 1.5 180 23:39 22.12.2020
4523 Clear 20 1017 64 10000 1 190 23:21 22.12.2020
4524 Clear 20 1017 64 10000 1 190 22:42 22.12.2020
4525 Clear 20 1017 60 10000 1.5 200 22:22 22.12.2020
4526 Clear 21 1017 60 10000 1.5 200 21:45 22.12.2020
4527 Clear 21 1017 53 10000 0.5 0 21:20 22.12.2020
4528 Clear 22 1017 53 10000 0.5 0 20:51 22.12.2020
4529 Clear 22 1017 53 10000 0.5 0 20:31 22.12.2020
4530 Clear 23 1018 49 10000 1.5 350 19:52 22.12.2020
4531 Clear 23 1018 49 10000 1.5 10 19:28 22.12.2020
4532 Clear 23 1018 49 10000 1.5 10 18:58 22.12.2020
4533 Clear 23 1018 49 10000 1.5 10 18:38 22.12.2020
4534 Clouds 23 1017 49 10000 2.6 360 18:19 22.12.2020
4535 Clouds 23 1017 49 10000 2.6 360 17:36 22.12.2020
4536 Clouds 23 1017 53 10000 3.1 360 17:18 22.12.2020
4537 Clouds 23 1017 53 10000 3.1 360 16:46 22.12.2020
4538 Clouds 23 1017 50 10000 3.6 350 16:19 22.12.2020
4539 Clouds 24 1017 50 10000 3.6 350 15:45 22.12.2020
4540 Clouds 24 1017 50 10000 3.6 350 15:27 22.12.2020
4541 Clouds 24 1016 50 10000 4.6 330 14:55 22.12.2020
4542 Clouds 24 1016 50 10000 4.6 330 14:37 22.12.2020
4543 Clouds 24 1016 50 10000 4.6 360 14:18 22.12.2020
4544 Clouds 24 1016 50 10000 4.6 360 13:42 22.12.2020
4545 Clouds 24 1016 47 10000 4.6 340 13:18 22.12.2020
4546 Clouds 24 1016 47 10000 4.6 340 12:43 22.12.2020
4547 Clouds 25 1017 47 10000 4.1 320 12:25 22.12.2020
4548 Clouds 25 1017 47 10000 4.1 320 11:56 22.12.2020
4549 Clouds 25 1017 47 10000 4.1 320 11:38 22.12.2020
4550 Clouds 25 1018 41 10000 4.1 310 11:19 22.12.2020
4551 Clouds 25 1018 41 10000 4.1 310 10:46 22.12.2020
4552 Clouds 25 1019 38 10000 5.1 300 10:23 22.12.2020
4553 Clouds 25 1019 38 10000 5.1 300 09:55 22.12.2020
4554 Clear 24 1020 44 10000 2.1 210 09:21 22.12.2020
4555 Clear 24 1020 44 10000 2.1 210 08:48 22.12.2020
4556 Clear 21 1020 52 10000 2.1 210 08:27 22.12.2020
4557 Clear 20 1020 52 10000 2.1 210 07:47 22.12.2020
4558 Clear 19 1020 63 10000 2.6 170 06:38 22.12.2020
4559 Clouds 17 1020 72 10000 1.5 140 05:39 22.12.2020
4560 Clear 17 1018 67 10000 2.1 160 02:39 22.12.2020
4561 Clear 18 1018 63 10000 1.5 160 00:44 22.12.2020
4562 Clear 18 1018 63 10000 1.5 150 23:52 21.12.2020
4563 Clear 19 1018 63 10000 1 130 23:24 21.12.2020
4564 Clear 19 1018 63 10000 1 130 22:38 21.12.2020
4565 Clear 20 1018 64 10000 2.1 180 22:19 21.12.2020
4566 Clear 20 1018 64 10000 2.1 180 21:48 21.12.2020
4567 Clear 20 1018 64 10000 2.1 180 21:30 21.12.2020
4568 Clear 21 1019 46 10000 1 0 20:46 21.12.2020
4569 Clear 23 1019 43 10000 1.5 340 20:25 21.12.2020
4570 Clear 23 1019 43 10000 1.5 340 19:55 21.12.2020
4571 Clear 23 1019 43 10000 1.5 340 19:37 21.12.2020
4572 Clear 23 1019 43 10000 2.1 350 19:18 21.12.2020
4573 Clear 23 1019 43 10000 2.1 350 18:49 21.12.2020
4574 Clear 23 1019 43 10000 2.1 350 18:31 21.12.2020
4575 Clear 23 1019 43 10000 3.1 330 17:43 21.12.2020
4576 Clear 24 1018 47 10000 4.6 320 17:24 21.12.2020
4577 Clear 24 1018 47 10000 4.6 320 16:46 21.12.2020
4578 Clear 24 1018 44 10000 4.6 290 16:25 21.12.2020
4579 Clear 24 1018 44 10000 4.6 290 15:45 21.12.2020
4580 Clear 24 1017 44 10000 6.2 320 15:26 21.12.2020
4581 Clear 24 1017 44 10000 6.2 320 14:56 21.12.2020
4582 Clear 24 1017 44 10000 6.2 320 14:56 21.12.2020
4583 Clear 26 1017 44 10000 5.7 320 14:20 21.12.2020
4584 Clear 26 1017 44 10000 5.7 320 13:42 21.12.2020
4585 Clear 26 1017 41 10000 5.1 320 13:22 21.12.2020
4586 Clear 26 1017 41 10000 5.1 320 12:43 21.12.2020
4587 Clear 26 1017 39 10000 5.7 320 12:24 21.12.2020
4588 Clear 26 1017 39 10000 5.7 320 11:43 21.12.2020
4589 Clouds 25 1018 41 10000 4.6 290 11:23 21.12.2020
4590 Clouds 25 1018 41 10000 4.6 290 10:58 21.12.2020
4591 Clouds 25 1018 41 10000 4.6 290 10:40 21.12.2020
4592 Clouds 25 1019 47 10000 5.1 310 10:18 21.12.2020
4593 Clouds 25 1019 47 10000 5.1 310 09:42 21.12.2020
4594 Clouds 25 1019 47 10000 5.1 310 09:24 21.12.2020
4595 Clear 24 1020 47 10000 1 0 08:47 21.12.2020
4596 Clear 22 1021 56 10000 2.1 180 07:37 21.12.2020
4597 Clear 19 1020 68 10000 2.6 170 06:21 21.12.2020
4598 Clear 19 1020 68 10000 2.1 170 04:31 21.12.2020
4599 Clear 20 1019 64 10000 2.6 200 00:51 21.12.2020
4600 Clear 20 1019 64 10000 2.6 200 00:30 21.12.2020
4601 Clear 21 1019 60 10000 2.6 190 23:24 20.12.2020
4602 Clear 21 1019 60 10000 2.6 190 22:56 20.12.2020
4603 Clear 21 1019 60 10000 2.6 190 22:38 20.12.2020
4604 Clear 22 1020 56 10000 2.1 230 22:19 20.12.2020
4605 Clear 22 1020 56 10000 2.1 230 21:39 20.12.2020
4606 Clear 22 1020 56 10000 2.6 230 21:20 20.12.2020
4607 Clear 23 1020 56 10000 2.6 230 20:47 20.12.2020
4608 Clear 23 1020 53 10000 1.5 240 20:22 20.12.2020
4609 Clear 23 1020 53 10000 1.5 240 19:45 20.12.2020
4610 Clear 23 1020 50 10000 2.1 270 19:24 20.12.2020
4611 Clear 24 1020 50 10000 2.1 270 18:56 20.12.2020
4612 Clear 24 1020 50 10000 2.1 270 18:37 20.12.2020
4613 Clear 24 1020 50 10000 3.1 310 17:57 20.12.2020
4614 Clear 24 1020 50 10000 3.1 310 17:39 20.12.2020
4615 Clear 24 1020 50 10000 4.1 310 17:18 20.12.2020
4616 Clear 24 1020 50 10000 4.1 310 16:44 20.12.2020
4617 Clear 24 1019 50 10000 4.6 330 16:24 20.12.2020
4618 Clear 24 1019 50 10000 4.6 330 15:41 20.12.2020
4619 Clear 25 1018 50 10000 5.7 320 15:22 20.12.2020
4620 Clear 25 1018 50 10000 5.7 320 14:48 20.12.2020
4621 Clear 25 1018 50 10000 5.7 320 14:29 20.12.2020
4622 Clear 26 1018 44 10000 6.2 320 13:44 20.12.2020
4623 Clear 26 1018 41 10000 7.7 320 13:23 20.12.2020
4624 Clear 26 1018 41 10000 7.7 320 12:51 20.12.2020
4625 Clear 26 1018 44 10000 7.7 310 12:26 20.12.2020
4626 Clear 26 1018 44 10000 7.7 310 11:52 20.12.2020
4627 Clear 26 1019 47 10000 6.2 310 11:28 20.12.2020
4628 Clear 26 1019 47 10000 6.2 310 10:50 20.12.2020
4629 Clear 26 1020 47 10000 5.1 320 10:22 20.12.2020
4630 Clear 26 1020 47 10000 5.1 320 09:57 20.12.2020
4631 Clear 26 1020 47 10000 5.1 320 09:37 20.12.2020
4632 Clouds 25 1020 53 10000 6.2 330 09:19 20.12.2020
4633 Clouds 24 1020 53 10000 6.2 330 08:48 20.12.2020
4634 Clouds 24 1020 53 10000 6.2 330 08:29 20.12.2020
4635 Clouds 22 1021 73 8000 2.1 190 07:22 20.12.2020
4636 Clouds 20 1020 72 8000 3.1 210 04:42 20.12.2020
4637 Clouds 20 1018 77 10000 2.1 220 01:30 20.12.2020
4638 Clear 21 1018 77 10000 2.1 200 00:20 20.12.2020
4639 Clear 21 1019 77 10000 1.5 210 23:18 19.12.2020
4640 Clear 21 1019 77 10000 1.5 210 22:44 19.12.2020
4641 Clouds 22 1019 78 10000 2.6 230 22:25 19.12.2020
4642 Clouds 22 1019 78 10000 2.6 230 21:58 19.12.2020
4643 Clouds 22 1019 78 10000 2.6 230 21:58 19.12.2020
4644 Clouds 22 1019 78 10000 2.6 230 21:39 19.12.2020
4645 Clouds 22 1019 73 10000 2.1 200 21:21 19.12.2020
4646 Clouds 22 1019 73 10000 2.1 200 20:39 19.12.2020
4647 Clouds 23 1019 73 10000 2.1 210 20:18 19.12.2020
4648 Clouds 23 1019 73 10000 2.1 210 19:49 19.12.2020
4649 Clouds 23 1019 73 10000 2.1 210 19:24 19.12.2020
4650 Clouds 23 1019 73 10000 2.6 210 18:34 19.12.2020
4651 Clear 24 1019 69 10000 2.1 210 17:58 19.12.2020
4652 Clear 24 1019 69 10000 2.1 210 17:40 19.12.2020
4653 Clouds 24 1018 69 10000 2.6 260 17:20 19.12.2020
4654 Clouds 24 1018 69 10000 2.6 260 16:42 19.12.2020
4655 Clouds 24 1018 64 10000 2.6 0 16:24 19.12.2020
4656 Clouds 24 1018 64 10000 2.6 0 15:54 19.12.2020
4657 Clouds 24 1018 64 10000 2.6 0 15:30 19.12.2020
4658 Clouds 24 1018 64 10000 3.1 270 14:40 19.12.2020
4659 Clouds 25 1017 53 10000 5.1 310 13:59 19.12.2020
4660 Clouds 25 1017 53 10000 5.1 310 13:41 19.12.2020
4661 Clouds 26 1017 50 10000 5.1 320 13:19 19.12.2020
4662 Clouds 26 1017 50 10000 5.1 320 12:43 19.12.2020
4663 Clouds 26 1017 50 10000 5.1 320 12:25 19.12.2020
4664 Clouds 26 1017 47 10000 4.6 310 11:56 19.12.2020
4665 Clouds 26 1017 47 10000 4.6 310 11:35 19.12.2020
4666 Clouds 26 1018 47 10000 3.1 290 10:43 19.12.2020
4667 Clouds 25 1019 53 10000 2.1 260 10:21 19.12.2020
4668 Clouds 25 1019 53 10000 2.1 260 09:45 19.12.2020
4669 Clouds 25 1019 53 10000 2.1 260 09:27 19.12.2020
4670 Clouds 24 1019 57 10000 2.1 200 08:25 19.12.2020
4671 Clear 22 1020 56 10000 2.6 190 07:24 19.12.2020
4672 Clear 20 1020 64 10000 1.5 180 06:51 19.12.2020
4673 Clear 19 1019 68 10000 1 0 06:18 19.12.2020
4674 Clear 17 1019 68 10000 1 0 05:18 19.12.2020
4675 Clear 18 1018 72 10000 1.5 180 02:55 19.12.2020
4676 Clear 19 1018 68 10000 1.5 220 00:36 19.12.2020
4677 Clear 20 1017 68 10000 1 0 00:18 19.12.2020
4678 Clear 20 1017 68 10000 1 0 23:45 18.12.2020
4679 Clear 20 1017 68 10000 1 0 23:23 18.12.2020
4680 Clear 21 1018 64 10000 1 0 22:45 18.12.2020
4681 Clear 21 1018 60 10000 1.5 150 22:21 18.12.2020
4682 Clear 21 1018 60 10000 1.5 150 21:50 18.12.2020
4683 Clear 21 1018 60 10000 2.6 120 21:31 18.12.2020
4684 Clear 22 1018 60 10000 2.6 120 20:40 18.12.2020
4685 Clear 22 1018 56 10000 2.1 60 20:20 18.12.2020
4686 Clear 23 1018 56 10000 2.1 60 19:42 18.12.2020
4687 Clear 23 1018 56 10000 1 0 19:20 18.12.2020
4688 Clear 23 1018 56 10000 1 0 18:41 18.12.2020
4689 Clear 24 1018 53 10000 2.6 340 18:23 18.12.2020
4690 Clear 24 1018 50 10000 3.1 350 17:24 18.12.2020
4691 Clear 24 1018 50 10000 3.1 350 16:53 18.12.2020
4692 Clear 24 1017 50 10000 4.1 340 16:28 18.12.2020
4693 Clear 24 1017 50 10000 4.1 340 16:00 18.12.2020
4694 Clear 24 1017 50 10000 4.1 340 15:41 18.12.2020
4695 Clear 25 1017 44 10000 4.1 330 15:22 18.12.2020
4696 Clear 25 1017 44 10000 4.1 330 14:54 18.12.2020
4697 Clear 26 1016 39 10000 4.6 310 14:21 18.12.2020
4698 Clear 26 1016 39 10000 4.6 310 13:50 18.12.2020
4699 Clear 26 1016 39 10000 4.6 310 13:30 18.12.2020
4700 Clear 26 1016 39 10000 5.1 330 12:49 18.12.2020
4701 Clear 26 1017 36 10000 4.1 310 12:21 18.12.2020
4702 Clear 26 1018 34 10000 2.6 0 11:23 18.12.2020
4703 Clear 26 1018 34 10000 2.6 0 10:40 18.12.2020
4704 Clear 26 1019 34 10000 1 0 10:20 18.12.2020
4705 Clear 26 1019 34 10000 1 0 09:39 18.12.2020
4706 Clear 25 1020 44 10000 2.1 90 09:21 18.12.2020
4707 Clear 25 1020 44 10000 2.1 90 08:54 18.12.2020
4708 Clear 25 1020 44 10000 2.1 90 08:30 18.12.2020
4709 Clear 22 1020 53 10000 3.1 110 07:39 18.12.2020
4710 Clear 21 1020 64 10000 2.6 140 07:18 18.12.2020
4711 Clear 21 1020 64 10000 2.6 140 06:51 18.12.2020
4712 Clear 19 1019 68 10000 2.6 150 05:42 18.12.2020
4713 Clear 18 1018 68 10000 2.1 150 04:51 18.12.2020
4714 Clear 20 1018 64 10000 2.1 110 01:59 18.12.2020
4715 Clear 20 1018 64 10000 2.1 110 01:40 18.12.2020
4716 Clear 20 1018 64 10000 1.5 100 23:59 17.12.2020
4717 Clear 20 1018 64 10000 1.5 100 23:37 17.12.2020
4718 Clear 21 1018 60 10000 1.5 110 23:18 17.12.2020
4719 Clear 21 1018 60 10000 1.5 110 22:45 17.12.2020
4720 Clear 21 1019 60 10000 1.5 100 22:26 17.12.2020
4721 Clear 22 1019 60 10000 1.5 100 21:43 17.12.2020
4722 Clear 22 1019 60 10000 1.5 100 21:43 17.12.2020
4723 Clear 22 1019 56 10000 2.1 70 21:19 17.12.2020
4724 Clear 23 1019 56 10000 2.1 70 20:42 17.12.2020
4725 Clear 23 1019 56 10000 2.1 30 20:19 17.12.2020
4726 Clear 23 1019 56 10000 2.1 30 19:48 17.12.2020
4727 Clear 23 1019 56 10000 2.6 60 19:24 17.12.2020
4728 Clear 23 1019 56 10000 2.6 60 18:44 17.12.2020
4729 Clear 24 1019 57 10000 3.1 60 18:26 17.12.2020
4730 Clear 24 1019 57 10000 3.1 60 17:57 17.12.2020
4731 Clear 24 1019 57 10000 3.1 60 17:33 17.12.2020
4732 Clear 24 1018 57 10000 3.1 30 16:54 17.12.2020
4733 Clear 24 1018 57 10000 3.1 30 16:36 17.12.2020
4734 Clear 25 1018 53 10000 3.6 10 16:18 17.12.2020
4735 Clear 25 1017 47 10000 4.6 20 15:40 17.12.2020
4736 Clear 25 1017 47 10000 4.6 20 15:18 17.12.2020
4737 Clear 25 1017 47 10000 4.6 20 14:47 17.12.2020
4738 Clouds 26 1017 44 10000 4.6 360 13:59 17.12.2020
4739 Clouds 26 1017 44 10000 4.6 360 13:41 17.12.2020
4740 Clear 27 1017 42 10000 4.6 360 12:58 17.12.2020
4741 Clear 27 1017 42 10000 4.6 360 12:36 17.12.2020
4742 Clear 27 1018 30 10000 1.5 0 11:58 17.12.2020
4743 Clear 27 1018 30 10000 1.5 0 11:58 17.12.2020
4744 Clear 26 1018 30 10000 1.5 0 11:38 17.12.2020
4745 Clear 26 1018 34 10000 2.6 70 11:20 17.12.2020
4746 Clear 26 1018 34 10000 2.6 70 10:33 17.12.2020
4747 Clear 26 1020 39 10000 3.1 60 09:36 17.12.2020
4748 Clear 25 1021 41 10000 2.6 90 08:40 17.12.2020
4749 Clear 22 1022 49 10000 3.6 120 07:41 17.12.2020
4750 Clear 22 1021 56 10000 2.6 110 07:20 17.12.2020
4751 Clear 22 1021 56 10000 2.6 110 06:45 17.12.2020
4752 Clear 19 1021 68 10000 3.1 100 06:27 17.12.2020
4753 Clear 18 1020 68 10000 2.1 90 01:57 17.12.2020
4754 Clear 20 1020 64 10000 1.5 60 00:19 17.12.2020
4755 Clear 20 1020 64 10000 1.5 60 23:38 16.12.2020
4756 Clear 20 1020 64 10000 2.1 80 23:18 16.12.2020
4757 Clear 20 1020 64 10000 2.1 80 22:47 16.12.2020
4758 Clear 21 1020 60 10000 2.1 60 22:27 16.12.2020
4759 Clear 21 1020 60 10000 2.1 60 21:41 16.12.2020
4760 Clear 21 1020 60 10000 2.1 90 21:21 16.12.2020
4761 Clear 21 1020 60 10000 2.1 90 20:46 16.12.2020
4762 Clear 22 1020 56 10000 3.6 90 20:20 16.12.2020
4763 Clear 23 1020 56 10000 3.6 90 19:37 16.12.2020
4764 Clear 23 1020 49 10000 4.1 100 19:18 16.12.2020
4765 Clear 23 1020 49 10000 4.1 100 18:42 16.12.2020
4766 Clear 24 1019 50 10000 3.1 60 18:22 16.12.2020
4767 Clear 24 1019 50 10000 3.1 60 17:35 16.12.2020
4768 Clear 24 1019 53 10000 4.1 50 16:43 16.12.2020
4769 Clear 25 1018 47 10000 4.6 30 16:24 16.12.2020
4770 Clear 25 1018 47 10000 4.6 30 15:54 16.12.2020
4771 Clear 25 1018 47 10000 4.6 30 15:36 16.12.2020
4772 Clear 26 1018 41 10000 4.6 360 14:56 16.12.2020
4773 Clear 26 1018 41 10000 4.6 360 14:37 16.12.2020
4774 Clear 27 1017 39 10000 5.7 340 14:19 16.12.2020
4775 Clear 28 1017 39 10000 5.7 340 13:39 16.12.2020
4776 Clear 29 1018 23 10000 1.5 0 13:19 16.12.2020
4777 Clear 28 1018 23 10000 1.5 0 12:42 16.12.2020
4778 Clear 28 1018 23 10000 2.6 50 11:49 16.12.2020
4779 Clear 27 1019 28 10000 2.1 150 11:23 16.12.2020
4780 Clear 27 1019 28 10000 2.1 150 10:53 16.12.2020
4781 Clear 26 1020 36 10000 3.1 130 10:28 16.12.2020
4782 Clear 26 1020 36 10000 3.1 130 09:54 16.12.2020
4783 Clear 25 1021 41 10000 4.6 110 09:24 16.12.2020
4784 Clear 23 1022 49 10000 4.6 90 08:22 16.12.2020
4785 Clear 22 1022 49 10000 4.6 90 07:44 16.12.2020
4786 Clear 21 1021 56 10000 3.1 90 07:20 16.12.2020
4787 Clear 19 1019 63 10000 2.6 70 03:35 16.12.2020
4788 Clear 19 1019 68 10000 2.6 0 01:57 16.12.2020
4789 Clear 20 1019 64 10000 2.1 80 23:46 15.12.2020
4790 Clear 20 1019 64 10000 2.6 90 23:18 15.12.2020
4791 Clear 20 1019 64 10000 2.6 90 22:40 15.12.2020
4792 Clear 21 1019 60 10000 3.1 80 22:20 15.12.2020
4793 Clear 21 1019 60 10000 3.1 80 21:45 15.12.2020
4794 Clear 22 1020 56 10000 4.6 90 21:22 15.12.2020
4795 Clear 22 1020 56 10000 4.6 90 20:45 15.12.2020
4796 Clear 22 1020 49 10000 4.1 80 20:26 15.12.2020
4797 Clear 22 1020 49 10000 4.1 80 19:55 15.12.2020
4798 Clear 23 1020 49 10000 4.1 80 19:30 15.12.2020
4799 Clear 23 1020 46 10000 3.6 80 18:40 15.12.2020
4800 Clear 23 1019 53 10000 4.1 60 18:22 15.12.2020
4801 Clear 23 1019 53 10000 4.1 60 17:56 15.12.2020
4802 Clear 23 1019 53 10000 4.1 60 17:37 15.12.2020
4803 Clear 24 1019 50 10000 5.1 50 17:18 15.12.2020
4804 Clear 24 1019 50 10000 5.1 50 16:32 15.12.2020
4805 Clear 24 1018 50 10000 5.1 30 15:51 15.12.2020
4806 Clear 25 1018 50 10000 5.1 30 15:30 15.12.2020
4807 Clear 25 1018 44 10000 5.7 20 14:44 15.12.2020
4808 Clear 27 1017 39 10000 5.7 20 14:21 15.12.2020
4809 Clear 27 1017 39 10000 5.7 20 13:51 15.12.2020
4810 Clear 27 1017 39 10000 5.7 20 13:32 15.12.2020
4811 Clear 27 1018 30 10000 4.6 90 12:47 15.12.2020
4812 Clear 27 1018 30 10000 3.6 90 12:20 15.12.2020
4813 Clear 27 1018 30 10000 3.6 90 11:56 15.12.2020
4814 Clear 27 1018 30 10000 3.6 90 11:26 15.12.2020
4815 Clear 26 1019 34 10000 3.1 110 10:55 15.12.2020
4816 Clear 25 1019 34 10000 3.1 110 10:32 15.12.2020
4817 Clear 25 1020 38 10000 3.6 110 09:51 15.12.2020
4818 Clear 24 1020 38 10000 3.6 110 09:32 15.12.2020
4819 Clear 24 1021 44 10000 4.6 90 08:53 15.12.2020
4820 Clear 24 1021 44 10000 4.6 90 08:26 15.12.2020
4821 Clear 23 1021 49 10000 3.6 90 07:49 15.12.2020
4822 Clear 23 1021 49 10000 3.6 90 07:49 15.12.2020
4823 Clear 22 1021 49 10000 3.6 90 07:25 15.12.2020
4824 Clear 20 1020 56 10000 2.6 80 06:32 15.12.2020
4825 Clear 18 1018 68 10000 2.1 100 03:25 15.12.2020
4826 Clear 20 1018 60 10000 2.1 90 00:34 15.12.2020
4827 Clear 20 1018 49 10000 1.5 70 23:26 14.12.2020
4828 Clear 20 1018 49 10000 1.5 70 22:56 14.12.2020
4829 Clear 20 1018 49 10000 1.5 70 22:32 14.12.2020
4830 Clear 21 1018 49 10000 1.5 90 21:45 14.12.2020
4831 Clear 21 1018 46 10000 2.1 70 21:23 14.12.2020
4832 Clear 22 1018 46 10000 2.1 70 20:51 14.12.2020
4833 Clear 22 1018 46 10000 2.1 70 20:30 14.12.2020
4834 Clear 22 1018 46 10000 2.1 70 19:53 14.12.2020
4835 Clear 22 1018 46 10000 2.1 70 19:29 14.12.2020
4836 Clear 23 1018 43 10000 3.1 50 18:50 14.12.2020
4837 Clear 23 1018 43 10000 3.6 50 18:30 14.12.2020
4838 Clear 23 1018 43 10000 3.6 50 17:46 14.12.2020
4839 Clear 23 1017 46 10000 3.6 30 17:24 14.12.2020
4840 Clear 23 1017 46 10000 3.6 30 16:50 14.12.2020
4841 Clear 24 1016 47 10000 5.1 30 16:29 14.12.2020
4842 Clear 24 1016 47 10000 5.1 30 15:39 14.12.2020
4843 Clear 24 1016 47 10000 5.7 350 15:20 14.12.2020
4844 Clear 24 1016 47 10000 5.7 350 14:42 14.12.2020
4845 Clear 24 1016 47 10000 5.7 350 14:42 14.12.2020
4846 Clear 24 1016 47 10000 5.7 340 14:23 14.12.2020
4847 Clear 24 1016 47 10000 5.7 340 13:42 14.12.2020
4848 Clouds 25 1016 41 10000 5.1 330 13:18 14.12.2020
4849 Clouds 25 1016 41 10000 5.1 330 12:52 14.12.2020
4850 Clouds 25 1017 44 10000 4.1 350 12:24 14.12.2020
4851 Clouds 25 1017 44 10000 4.1 350 11:32 14.12.2020
4852 Clouds 26 1017 36 10000 1.5 0 10:38 14.12.2020
4853 Clouds 25 1018 41 10000 1 0 10:19 14.12.2020
4854 Clouds 24 1018 41 10000 1 0 09:29 14.12.2020
4855 Clouds 24 1019 44 10000 1.5 110 08:46 14.12.2020
4856 Clouds 24 1020 47 10000 1.5 130 08:28 14.12.2020
4857 Clouds 23 1020 47 10000 1.5 130 07:44 14.12.2020
4858 Clouds 21 1019 56 10000 1 0 06:46 14.12.2020
4859 Clouds 18 1018 63 10000 1 170 05:21 14.12.2020
4860 Clear 20 1017 60 10000 2.1 110 02:26 14.12.2020
4861 Clouds 20 1017 60 10000 1 0 00:55 14.12.2020
4862 Clouds 20 1017 60 10000 1 0 00:33 14.12.2020
4863 Clouds 20 1017 60 10000 1 0 23:50 13.12.2020
4864 Clouds 20 1017 60 10000 2.1 90 23:27 13.12.2020
4865 Clouds 21 1017 60 10000 2.1 90 22:46 13.12.2020
4866 Clouds 22 1017 60 10000 2.1 100 22:20 13.12.2020
4867 Clouds 22 1017 60 10000 2.1 100 21:42 13.12.2020
4868 Clouds 22 1017 60 10000 2.1 100 21:24 13.12.2020
4869 Clear 23 1017 56 10000 0.45 0 20:35 13.12.2020
4870 Clear 23 1017 56 10000 0.89 0 19:53 13.12.2020
4871 Clear 23 1017 53 10000 3.1 10 19:33 13.12.2020
4872 Clear 23 1017 53 10000 3.1 10 18:59 13.12.2020
4873 Clear 23 1017 53 10000 3.1 10 18:41 13.12.2020
4874 Clear 23 1016 56 10000 3.1 350 18:20 13.12.2020
4875 Clear 23 1016 56 10000 3.1 350 17:46 13.12.2020
4876 Clear 23 1016 56 10000 4.1 350 17:21 13.12.2020
4877 Clear 23 1016 56 10000 4.1 350 16:55 13.12.2020
4878 Clear 23 1016 56 10000 4.1 350 16:36 13.12.2020
4879 Clear 24 1015 44 10000 4.6 350 15:58 13.12.2020
4880 Clear 24 1015 44 10000 4.6 350 15:38 13.12.2020
4881 Clear 24 1015 44 10000 5.1 350 15:20 13.12.2020
4882 Clear 24 1015 44 10000 5.1 350 14:43 13.12.2020
4883 Clear 25 1015 41 10000 4.6 350 14:20 13.12.2020
4884 Clear 25 1015 41 10000 4.6 350 13:42 13.12.2020
4885 Clear 25 1015 38 10000 5.1 360 13:22 13.12.2020
4886 Clear 25 1015 38 10000 5.1 360 13:22 13.12.2020
4887 Clear 25 1015 38 10000 5.1 360 12:42 13.12.2020
4888 Clear 25 1015 38 10000 5.1 350 12:22 13.12.2020
4889 Clear 25 1015 38 10000 5.1 350 11:36 13.12.2020
4890 Clear 25 1016 36 10000 1.5 10 10:52 13.12.2020
4891 Clear 25 1016 36 10000 1.5 10 10:34 13.12.2020
4892 Clear 25 1018 38 10000 1 0 09:54 13.12.2020
4893 Clear 24 1019 44 10000 2.6 190 08:58 13.12.2020
4894 Clear 23 1019 44 10000 2.6 190 08:33 13.12.2020
4895 Clear 21 1019 49 10000 2.1 180 07:35 13.12.2020
4896 Clear 19 1018 59 10000 1.5 240 04:23 13.12.2020
4897 Clear 19 1017 63 10000 2.1 180 02:40 13.12.2020
4898 Clear 19 1017 63 10000 1.5 170 01:37 13.12.2020
4899 Clear 19 1017 63 10000 1.5 170 01:37 13.12.2020
4900 Clear 19 1017 63 10000 1.5 170 01:37 13.12.2020
4901 Clear 19 1017 63 10000 1.5 170 01:37 13.12.2020
4902 Clear 19 1017 63 10000 2.1 180 00:48 13.12.2020
4903 Clear 20 1017 60 10000 1.5 140 23:51 12.12.2020
4904 Clear 20 1017 60 10000 1.5 140 23:31 12.12.2020
4905 Clear 21 1017 60 10000 2.6 180 22:46 12.12.2020
4906 Clear 22 1017 53 10000 1.5 230 21:56 12.12.2020
4907 Clear 22 1017 53 10000 1.5 230 21:34 12.12.2020
4908 Clear 23 1018 46 10000 1.5 260 20:55 12.12.2020
4909 Clouds 23 1018 49 10000 3.1 270 20:24 12.12.2020
4910 Clouds 23 1018 49 10000 3.1 270 19:57 12.12.2020
4911 Clouds 23 1018 49 10000 3.1 270 19:38 12.12.2020
4912 Clouds 23 1017 53 10000 2.6 310 19:20 12.12.2020
4913 Clouds 23 1017 53 10000 2.6 310 18:41 12.12.2020
4914 Clouds 24 1017 50 10000 4.1 320 18:23 12.12.2020
4915 Clouds 24 1017 50 10000 4.1 320 17:45 12.12.2020
4916 Clear 24 1016 47 10000 4.6 310 16:54 12.12.2020
4917 Clouds 24 1016 47 10000 5.1 320 16:19 12.12.2020
4918 Clouds 24 1016 47 10000 5.1 320 15:44 12.12.2020
4919 Clouds 24 1015 50 10000 4.6 320 15:26 12.12.2020
4920 Clouds 24 1015 50 10000 4.6 320 14:44 12.12.2020
4921 Clouds 26 1015 47 10000 5.7 330 13:54 12.12.2020
4922 Clouds 25 1015 47 10000 5.7 330 13:36 12.12.2020
4923 Clouds 25 1015 44 10000 4.1 350 12:47 12.12.2020
4924 Clouds 25 1015 44 10000 5.1 340 11:43 12.12.2020
4925 Clouds 26 1016 44 10000 4.1 330 10:53 12.12.2020
4926 Clouds 25 1017 44 10000 4.6 330 09:32 12.12.2020
4927 Clouds 24 1018 44 10000 1.5 40 08:52 12.12.2020
4928 Clouds 19 1016 59 10000 3.1 210 02:46 12.12.2020
4929 Clouds 20 1017 60 10000 2.6 220 23:53 11.12.2020
4930 Clouds 21 1017 56 10000 2.1 170 22:21 11.12.2020
4931 Clear 23 1018 49 10000 1.5 130 20:25 11.12.2020
4932 Clear 24 1017 47 10000 4.1 320 17:52 11.12.2020
4933 Clear 25 1016 44 10000 5.7 300 14:41 11.12.2020
4934 Clear 27 1016 34 10000 5.7 300 13:58 11.12.2020
4935 Clear 26 1016 31 10000 4.6 310 12:49 11.12.2020
4936 Clouds 27 1016 32 10000 3.1 310 11:58 11.12.2020
4937 Clouds 27 1016 32 10000 3.1 310 11:38 11.12.2020
4938 Clouds 26 1017 31 10000 1 0 10:44 11.12.2020
4939 Clear 24 1019 47 10000 1.5 170 08:43 11.12.2020
4940 Clouds 18 1019 63 10000 2.6 0 05:40 11.12.2020
4941 Clouds 18 1018 59 10000 2.6 170 04:49 11.12.2020
4942 Clouds 20 1017 56 10000 1.5 160 01:32 11.12.2020
4943 Clouds 20 1017 52 10000 2.1 0 00:20 11.12.2020
4944 Clouds 21 1017 49 10000 2.6 190 22:27 10.12.2020
4945 Clouds 22 1017 49 10000 2.6 190 21:35 10.12.2020
4946 Clouds 22 1017 53 10000 1.5 0 20:39 10.12.2020
4947 Clear 24 1017 50 10000 3.6 320 19:37 10.12.2020
4948 Clear 24 1017 44 10000 4.6 320 18:53 10.12.2020
4949 Clear 24 1016 41 10000 3.1 320 17:52 10.12.2020
4950 Clouds 24 1015 44 10000 4.6 300 16:25 10.12.2020
4951 Clouds 24 1015 44 10000 4.6 300 15:26 10.12.2020
4952 Clouds 25 1015 41 10000 4.6 290 14:50 10.12.2020
4953 Clouds 25 1015 41 10000 5.1 320 14:26 10.12.2020
4954 Clouds 26 1014 47 10000 5.7 330 12:40 10.12.2020
4955 Clouds 25 1015 47 10000 5.1 330 11:33 10.12.2020
4956 Clouds 24 1017 53 10000 1.5 0 08:51 10.12.2020
4957 Clouds 22 1017 56 10000 2.1 120 07:45 10.12.2020
4958 Clouds 21 1017 64 10000 3.1 90 06:41 10.12.2020
4959 Rain 20 1015 68 10000 2.6 140 02:53 10.12.2020
4960 Clouds 21 1015 68 10000 1.5 180 01:58 10.12.2020
4961 Rain 22 1015 64 10000 2.6 90 23:50 09.12.2020
4962 Clouds 23 1015 64 10000 1 0 20:51 09.12.2020
4963 Clouds 23 1015 60 10000 1.5 10 20:26 09.12.2020
4964 Clouds 23 1015 60 10000 2.6 340 19:21 09.12.2020
4965 Clouds 24 1015 57 10000 5.1 320 17:42 09.12.2020
4966 Clouds 24 1015 60 10000 2.6 270 16:40 09.12.2020
4967 Clouds 24 1014 57 10000 3.1 300 16:20 09.12.2020
4968 Clouds 24 1014 57 10000 3.1 300 16:20 09.12.2020
4969 Clouds 24 1014 57 10000 5.7 310 14:58 09.12.2020
4970 Clouds 26 1014 50 10000 5.1 320 14:27 09.12.2020
4971 Clouds 26 1014 50 10000 5.1 320 13:51 09.12.2020
4972 Clouds 26 1014 44 10000 5.7 310 13:19 09.12.2020
4973 Clouds 26 1014 44 10000 5.7 310 12:43 09.12.2020
4974 Clouds 26 1015 39 10000 4.1 310 11:48 09.12.2020
4975 Clouds 25 1017 47 10000 1.5 310 10:31 09.12.2020
4976 Clear 24 1018 47 10000 2.1 190 08:45 09.12.2020
4977 Clear 22 1018 56 10000 2.6 180 07:42 09.12.2020
4978 Clouds 19 1018 63 10000 2.6 180 05:42 09.12.2020
4979 Clear 19 1016 63 10000 2.6 190 03:21 09.12.2020
4980 Clouds 20 1017 60 10000 2.1 180 01:21 09.12.2020
4981 Clouds 21 1017 56 10000 2.1 180 23:41 08.12.2020
4982 Clouds 23 1017 49 10000 1 0 22:43 08.12.2020
4983 Clouds 23 1018 53 10000 3.6 280 20:50 08.12.2020
4984 Clouds 23 1018 53 10000 3.6 270 19:32 08.12.2020
4985 Clouds 23 1018 53 10000 3.6 270 18:57 08.12.2020
4986 Clouds 24 1017 47 10000 3.6 290 17:31 08.12.2020
4987 Clouds 24 1016 50 10000 4.1 280 15:43 08.12.2020
4988 Clouds 25 1016 50 10000 5.1 280 13:59 08.12.2020
4989 Clouds 25 1016 50 10000 5.1 280 13:24 08.12.2020
4990 Clouds 25 1016 47 10000 5.7 280 12:24 08.12.2020
4991 Clouds 25 1016 47 10000 5.7 280 11:39 08.12.2020
4992 Clouds 25 1017 50 10000 5.1 300 10:43 08.12.2020
4993 Clouds 25 1018 50 10000 5.7 300 09:47 08.12.2020
4994 Clouds 24 1019 53 10000 2.1 220 07:50 08.12.2020
4995 Clouds 24 1019 53 10000 4.6 300 06:33 08.12.2020
4996 Clouds 23 1017 49 10000 4.1 0 03:23 08.12.2020
4997 Clouds 24 1017 50 10000 5.7 300 00:46 08.12.2020
4998 Clouds 24 1017 50 10000 5.1 280 23:50 07.12.2020
4999 Clouds 24 1017 50 10000 5.1 290 22:33 07.12.2020
5000 Clouds 24 1017 50 10000 4.6 280 21:49 07.12.2020
5001 Clouds 24 1017 53 10000 4.6 280 19:46 07.12.2020
5002 Clouds 25 1017 50 10000 5.7 300 18:20 07.12.2020
5003 Clouds 25 1017 50 10000 6.2 300 17:26 07.12.2020
5004 Clouds 25 1017 50 10000 6.2 300 16:48 07.12.2020
5005 Clouds 25 1015 53 10000 6.2 280 15:26 07.12.2020
5006 Clouds 26 1015 53 10000 6.2 280 14:41 07.12.2020
5007 Clouds 26 1015 44 10000 7.2 300 13:44 07.12.2020
5008 Clouds 27 1015 44 10000 6.2 300 12:35 07.12.2020
5009 Clouds 27 1015 47 10000 5.7 300 11:43 07.12.2020
5010 Clouds 27 1015 47 10000 6.2 290 10:44 07.12.2020
5011 Clear 27 1016 51 10000 4.6 280 09:40 07.12.2020
5012 Clouds 26 1017 57 10000 7.2 310 07:51 07.12.2020
5013 Clouds 25 1016 61 10000 6.2 320 05:34 07.12.2020
5014 Clouds 25 1014 69 10000 6.2 320 04:46 07.12.2020
5015 Clouds 25 1013 74 10000 4.1 340 01:47 07.12.2020
5016 Clear 24 1013 73 10000 5.1 300 22:53 06.12.2020
5017 Clear 25 1013 69 10000 2.1 140 22:19 06.12.2020
5018 Clear 25 1013 69 10000 1.5 120 20:52 06.12.2020
5019 Clear 25 1013 69 10000 1.5 120 20:34 06.12.2020
5020 Clear 25 1013 65 10000 1.5 170 19:45 06.12.2020
5021 Clear 27 1012 65 10000 1 250 17:55 06.12.2020
5022 Clear 26 1012 74 10000 2.1 280 16:42 06.12.2020
5023 Clear 27 1011 69 10000 3.6 290 14:50 06.12.2020
5024 Clear 28 1011 65 10000 5.1 280 13:31 06.12.2020
5025 Clear 28 1011 65 10000 5.7 280 12:36 06.12.2020
5026 Clear 30 1011 55 10000 4.6 260 11:54 06.12.2020
5027 Clear 30 1011 55 10000 4.6 260 11:28 06.12.2020
5028 Clear 30 1011 45 10000 4.6 250 10:42 06.12.2020
5029 Clear 29 1012 51 10000 3.6 220 09:39 06.12.2020
5030 Clear 25 1014 78 7000 3.1 190 07:53 06.12.2020
5031 Haze 22 1013 83 4500 1 0 05:22 06.12.2020
5032 Clear 23 1011 78 10000 1 220 00:48 06.12.2020
5033 Clear 23 1011 78 10000 1 220 00:27 06.12.2020
5034 Clear 24 1011 78 10000 1 0 23:58 05.12.2020
5035 Clear 24 1011 78 10000 1 160 22:26 05.12.2020
5036 Clear 25 1011 73 10000 1.5 200 21:57 05.12.2020
5037 Clear 25 1011 73 10000 1.5 200 21:31 05.12.2020
5038 Clear 26 1011 69 10000 1.5 190 20:59 05.12.2020
5039 Clear 26 1012 74 10000 1.5 340 18:50 05.12.2020
5040 Clear 26 1012 69 10000 3.1 340 17:57 05.12.2020
5041 Clear 27 1012 65 10000 4.6 320 16:49 05.12.2020
5042 Clear 27 1012 65 10000 4.6 320 16:28 05.12.2020
5043 Clear 29 1011 51 10000 6.7 310 15:21 05.12.2020
5044 Clear 30 1011 35 10000 2.1 300 13:33 05.12.2020
5045 Clear 29 1011 51 10000 3.6 340 11:50 05.12.2020
5046 Clouds 28 1012 69 10000 6.2 310 10:39 05.12.2020
5047 Clear 28 1014 65 10000 6.7 290 09:31 05.12.2020
5048 Clear 25 1014 74 10000 3.1 190 07:48 05.12.2020
5049 Mist 22 1013 94 3000 1 0 05:34 05.12.2020
5050 Clouds 23 1013 88 9000 1.5 150 00:55 05.12.2020
5051 Clear 24 1013 83 10000 3.1 200 23:36 04.12.2020
5052 Clear 24 1013 83 10000 2.6 230 21:35 04.12.2020
5053 Clear 26 1014 74 10000 2.1 260 19:22 04.12.2020
5054 Clear 26 1014 74 10000 2.1 260 18:39 04.12.2020
5055 Clear 27 1014 69 10000 2.1 270 17:47 04.12.2020
5056 Clear 27 1013 74 10000 2.6 260 16:37 04.12.2020
5057 Clear 27 1013 74 10000 2.6 260 15:25 04.12.2020
5058 Clouds 28 1012 65 10000 5.1 280 13:37 04.12.2020
5059 Clear 29 1012 62 10000 3.6 280 13:18 04.12.2020
5060 Clear 29 1012 62 10000 3.6 280 12:26 04.12.2020
5061 Clouds 28 1014 69 10000 3.6 300 10:37 04.12.2020
5062 Clouds 28 1014 65 8000 2.1 280 09:25 04.12.2020
5063 Haze 23 1015 78 3000 2.1 180 06:40 04.12.2020
5064 Haze 21 1014 88 2000 2.1 200 04:53 04.12.2020
5065 Haze 23 1014 83 4000 2.1 190 01:53 04.12.2020
5066 Clouds 24 1015 78 7000 2.6 170 22:51 03.12.2020
5067 Clouds 25 1015 73 8000 1 0 21:37 03.12.2020
5068 Clear 25 1016 69 10000 2.6 340 20:46 03.12.2020
5069 Clear 26 1016 65 10000 2.6 340 19:24 03.12.2020
5070 Clouds 26 1016 69 10000 3.6 340 18:47 03.12.2020
5071 Clouds 26 1016 74 10000 4.6 330 17:21 03.12.2020
5072 Clouds 26 1015 74 10000 5.1 310 15:59 03.12.2020
5073 Clouds 26 1015 74 10000 5.1 310 15:33 03.12.2020
5074 Clear 26 1015 69 10000 5.7 320 14:49 03.12.2020
5075 Clear 27 1015 61 10000 5.1 320 13:55 03.12.2020
5076 Clear 28 1015 51 10000 3.1 0 12:50 03.12.2020
5077 Clear 28 1015 48 10000 4.1 330 12:23 03.12.2020
5078 Clear 28 1016 45 10000 2.6 300 10:54 03.12.2020
5079 Clear 26 1018 54 10000 1 0 08:49 03.12.2020
5080 Clear 21 1016 68 10000 1 200 04:21 03.12.2020
5081 Clear 22 1016 64 10000 1.5 180 01:57 03.12.2020
5082 Clear 23 1016 60 10000 1.5 160 00:28 03.12.2020
5083 Clear 23 1016 64 10000 1.5 220 22:46 02.12.2020
5084 Clear 24 1016 64 10000 1.5 230 21:50 02.12.2020
5085 Clear 25 1016 65 10000 1 0 20:51 02.12.2020
5086 Clear 25 1016 65 10000 1 0 20:33 02.12.2020
5087 Clear 25 1017 65 10000 1 0 19:54 02.12.2020
5088 Clear 26 1016 57 10000 2.6 350 17:51 02.12.2020
5089 Clear 26 1016 57 10000 4.1 330 17:32 02.12.2020
5090 Clear 26 1016 57 10000 4.1 330 16:49 02.12.2020
5091 Clear 28 1015 45 10000 5.7 330 14:33 02.12.2020
5092 Clear 30 1016 33 10000 2.1 250 11:33 02.12.2020
5093 Clear 28 1017 35 10000 1.5 160 10:26 02.12.2020
5094 Clear 25 1019 65 10000 2.1 70 07:51 02.12.2020
5095 Clear 21 1017 73 10000 1 230 00:50 02.12.2020
5096 Clear 23 1017 73 10000 1 0 22:21 01.12.2020
5097 Clear 24 1017 69 10000 0.45 60 19:57 01.12.2020
5098 Clear 25 1017 65 10000 1.5 80 19:33 01.12.2020
5099 Clear 25 1016 65 10000 3.1 30 17:29 01.12.2020
5100 Clear 26 1015 57 10000 5.7 350 15:24 01.12.2020
5101 Clear 28 1015 51 10000 5.7 340 13:37 01.12.2020
5102 Clear 30 1015 25 10000 1.5 50 11:44 01.12.2020
5103 Clear 31 1015 25 10000 1.5 50 11:26 01.12.2020
5104 Clear 30 1016 27 10000 2.1 0 10:32 01.12.2020
5105 Clear 25 1018 65 10000 1.5 110 08:18 01.12.2020
5106 Clouds 23 1018 73 8000 2.1 130 06:46 01.12.2020
5107 Clouds 20 1015 77 8000 2.1 120 01:50 01.12.2020
5108 Clouds 20 1015 77 8000 2.1 120 01:50 01.12.2020
5109 Clear 20 1015 83 7000 3.1 130 00:52 01.12.2020
5110 Clear 22 1015 78 10000 1 180 23:21 30.11.2020
5111 Clear 23 1015 78 10000 1 180 22:42 30.11.2020
5112 Clear 23 1015 78 10000 1 180 22:23 30.11.2020
5113 Clear 24 1016 73 10000 1 0 20:47 30.11.2020
5114 Clear 25 1016 69 10000 2.1 20 19:41 30.11.2020
5115 Clear 25 1016 69 10000 3.1 350 18:22 30.11.2020
5116 Clear 25 1016 69 10000 3.1 350 17:46 30.11.2020
5117 Clear 25 1015 69 10000 3.6 330 16:54 30.11.2020
5118 Clear 26 1015 65 10000 5.1 320 15:45 30.11.2020
5119 Clear 27 1015 57 10000 6.2 330 14:21 30.11.2020
5120 Clear 27 1015 57 10000 6.2 330 13:41 30.11.2020
5121 Clouds 28 1015 51 10000 5.7 350 12:26 30.11.2020
5122 Clouds 28 1015 51 10000 5.7 350 11:56 30.11.2020
5123 Clouds 28 1016 45 10000 1.5 0 10:25 30.11.2020
5124 Clouds 28 1017 45 10000 1 0 09:34 30.11.2020
5125 Clear 21 1016 73 10000 1.5 130 04:27 30.11.2020
5126 Clear 22 1015 68 10000 2.1 150 23:28 29.11.2020
5127 Clear 24 1016 64 10000 1.5 30 21:46 29.11.2020
5128 Clear 24 1016 64 10000 1.5 30 21:26 29.11.2020
5129 Clear 25 1017 61 10000 3.1 80 19:20 29.11.2020
5130 Clear 25 1017 61 10000 3.6 50 17:34 29.11.2020
5131 Clear 26 1016 57 10000 4.6 340 14:48 29.11.2020
5132 Clear 29 1016 45 10000 5.7 290 12:46 29.11.2020
5133 Clear 29 1016 37 10000 3.1 290 11:37 29.11.2020
5134 Clear 26 1019 47 10000 4.1 200 08:54 29.11.2020
5135 Clear 26 1019 47 10000 4.1 200 08:35 29.11.2020
5136 Clear 20 1017 64 10000 3.1 90 02:32 29.11.2020
5137 Clear 22 1017 60 10000 2.6 70 22:59 28.11.2020
5138 Clear 23 1017 60 10000 2.6 80 22:27 28.11.2020
5139 Clear 24 1018 53 10000 4.1 80 20:24 28.11.2020
5140 Clear 24 1018 53 10000 4.1 80 19:28 28.11.2020
5141 Clear 25 1018 50 10000 5.7 90 18:57 28.11.2020
5142 Clear 25 1018 57 10000 5.1 70 18:21 28.11.2020
5143 Clear 25 1018 57 10000 5.1 50 16:57 28.11.2020
5144 Clear 27 1018 47 10000 4.6 340 14:59 28.11.2020
5145 Clear 27 1018 47 10000 5.7 350 13:55 28.11.2020
5146 Clear 28 1018 42 10000 3.1 80 11:28 28.11.2020
5147 Clouds 26 1021 44 10000 1 0 09:26 28.11.2020
5148 Clear 23 1019 64 10000 3.1 80 03:44 28.11.2020
5149 Clear 23 1019 69 10000 3.6 90 01:53 28.11.2020
5150 Clear 23 1020 60 10000 2.6 90 23:22 27.11.2020
5151 Clear 23 1020 60 10000 2.6 90 22:33 27.11.2020
5152 Clear 24 1020 53 10000 4.1 80 20:39 27.11.2020
5153 Clear 25 1021 44 10000 4.1 80 19:34 27.11.2020
5154 Clear 25 1021 38 10000 5.1 100 18:57 27.11.2020
5155 Clear 27 1020 34 10000 6.2 100 16:55 27.11.2020
5156 Clear 27 1020 34 10000 6.2 100 16:55 27.11.2020
5157 Clear 27 1020 34 10000 6.2 100 16:55 27.11.2020
5158 Clouds 28 1019 39 10000 5.7 350 14:45 27.11.2020
5159 Clouds 29 1018 30 10000 2.6 0 13:20 27.11.2020
5160 Clouds 29 1018 30 10000 2.6 0 12:47 27.11.2020
5161 Clear 29 1019 30 10000 1.5 90 11:34 27.11.2020
5162 Clear 28 1020 34 10000 2.1 180 10:44 27.11.2020
5163 Clear 27 1021 36 10000 3.1 150 09:51 27.11.2020
5164 Clear 23 1019 56 10000 2.6 110 23:50 26.11.2020
5165 Clear 24 1019 50 10000 4.47 110 22:25 26.11.2020
5166 Clear 24 1019 50 10000 5.1 100 21:46 26.11.2020
5167 Clear 24 1019 50 10000 5.1 100 20:43 26.11.2020
5168 Clear 25 1018 47 10000 5.1 90 18:37 26.11.2020
5169 Clear 26 1018 44 10000 5.1 90 17:34 26.11.2020
5170 Clear 29 1016 45 10000 6.2 360 14:24 26.11.2020
5171 Clear 30 1016 28 10000 1.5 0 12:58 26.11.2020
5172 Clear 30 1016 28 10000 1.5 0 12:40 26.11.2020
5173 Clouds 29 1018 28 10000 4.1 180 11:20 26.11.2020
5174 Clouds 28 1018 28 10000 4.1 180 10:23 26.11.2020
5175 Clear 28 1019 30 10000 4.1 120 09:39 26.11.2020
5176 Clear 28 1019 26 10000 4.1 140 09:18 26.11.2020
5177 Clear 27 1019 26 10000 4.1 140 08:34 26.11.2020
5178 Clear 21 1015 64 10000 3.1 90 02:19 26.11.2020
5179 Clear 22 1016 64 10000 3.6 80 22:30 25.11.2020
5180 Clear 23 1017 56 10000 5.1 80 20:38 25.11.2020
5181 Clear 24 1017 53 10000 4.6 80 19:27 25.11.2020
5182 Clear 25 1016 41 10000 6.2 90 18:22 25.11.2020
5183 Clear 27 1015 36 10000 6.2 100 15:55 25.11.2020
5184 Clear 28 1015 36 10000 6.2 100 15:32 25.11.2020
5185 Clear 29 1014 28 10000 6.2 120 13:47 25.11.2020
5186 Clear 29 1014 32 10000 6.7 100 12:59 25.11.2020
5187 Clear 29 1015 35 10000 4.6 90 11:27 25.11.2020
5188 Clouds 28 1016 37 10000 4.1 60 09:23 25.11.2020
5189 Clear 27 1017 42 10000 3.6 60 08:51 25.11.2020
5190 Clear 27 1017 42 10000 3.6 60 08:29 25.11.2020
5191 Clear 20 1015 64 10000 1 0 03:55 25.11.2020
5192 Clear 20 1014 60 10000 1.5 120 01:50 25.11.2020
5193 Clear 20 1014 60 10000 1.5 120 00:22 25.11.2020
5194 Clear 21 1013 60 10000 2.1 110 23:36 24.11.2020
5195 Clear 22 1013 60 10000 2.6 120 22:52 24.11.2020
5196 Clear 22 1014 56 10000 3.1 130 21:50 24.11.2020
5197 Clear 23 1014 56 10000 3.1 130 21:27 24.11.2020
5198 Clear 25 1014 47 10000 1 250 20:19 24.11.2020
5199 Clouds 25 1014 50 10000 2.6 280 17:54 24.11.2020
5200 Clouds 25 1013 50 10000 3.6 270 17:28 24.11.2020
5201 Clouds 25 1013 50 10000 3.6 270 16:38 24.11.2020
5202 Clouds 25 1012 47 10000 3.6 290 15:56 24.11.2020
5203 Clouds 26 1012 47 10000 3.6 290 15:36 24.11.2020
5204 Clouds 26 1012 44 10000 3.1 280 15:18 24.11.2020
5205 Clouds 26 1012 44 10000 3.1 280 14:31 24.11.2020
5206 Clouds 27 1012 42 10000 5.1 300 12:42 24.11.2020
5207 Clouds 27 1012 39 10000 6.2 290 12:21 24.11.2020
5208 Clouds 27 1012 39 10000 6.2 290 11:35 24.11.2020
5209 Clouds 26 1012 42 10000 5.7 300 10:26 24.11.2020
5210 Clouds 26 1014 47 10000 6.2 290 09:42 24.11.2020
5211 Clouds 26 1014 47 10000 6.2 290 09:22 24.11.2020
5212 Clouds 25 1014 53 10000 5.7 320 06:50 24.11.2020
5213 Clouds 25 1013 47 10000 6.7 300 03:59 24.11.2020
5214 Clouds 26 1013 44 10000 6.2 290 22:25 23.11.2020
5215 Clouds 26 1014 47 10000 7.7 290 21:34 23.11.2020
5216 Clouds 26 1014 50 10000 6.2 280 20:49 23.11.2020
5217 Clouds 26 1014 50 10000 6.2 280 20:19 23.11.2020
5218 Clouds 26 1014 54 10000 6.2 280 17:59 23.11.2020
5219 Clouds 26 1014 47 10000 6.7 280 17:21 23.11.2020
5220 Clouds 27 1013 51 10000 6.7 270 16:19 23.11.2020
5221 Clouds 27 1013 51 10000 6.7 270 14:46 23.11.2020
5222 Clouds 27 1013 51 10000 6.7 270 14:46 23.11.2020
5223 Clouds 27 1013 57 10000 7.2 280 12:55 23.11.2020
5224 Clouds 28 1013 57 10000 7.2 280 12:34 23.11.2020
5225 Clouds 28 1013 51 10000 6.7 280 11:44 23.11.2020
5226 Clouds 29 1014 48 10000 7.2 290 10:47 23.11.2020
5227 Clouds 28 1014 54 10000 7.2 290 09:31 23.11.2020
5228 Clouds 27 1015 48 10000 3.6 230 08:39 23.11.2020
5229 Clouds 24 1016 43 10000 4.1 200 07:19 23.11.2020
5230 Clear 23 1014 53 10000 2.1 180 00:25 23.11.2020
5231 Clear 23 1014 56 10000 2.6 190 23:28 22.11.2020
5232 Clear 25 1014 50 10000 3.1 190 21:59 22.11.2020
5233 Clear 26 1015 50 10000 1.5 190 20:53 22.11.2020
5234 Clear 26 1015 50 10000 1.5 220 19:53 22.11.2020
5235 Clear 27 1015 47 10000 1.5 230 18:40 22.11.2020
5236 Clear 28 1015 42 10000 3.1 260 16:52 22.11.2020
5237 Clear 28 1014 45 10000 3.6 260 15:44 22.11.2020
5238 Clear 30 1014 39 10000 4.1 270 14:29 22.11.2020
5239 Clear 30 1014 28 10000 4.6 270 12:49 22.11.2020
5240 Clear 30 1014 27 10000 5.7 270 11:56 22.11.2020
5241 Clear 31 1015 27 10000 3.6 240 11:20 22.11.2020
5242 Clear 31 1015 27 10000 3.6 240 10:44 22.11.2020
5243 Clear 29 1016 39 10000 4.1 210 08:51 22.11.2020
5244 Clear 24 1015 64 10000 2.1 140 01:48 22.11.2020
5245 Clear 25 1015 65 10000 2.1 110 23:35 21.11.2020
5246 Clear 25 1016 57 10000 2.1 90 21:57 21.11.2020
5247 Clear 26 1016 57 10000 2.1 0 21:19 21.11.2020
5248 Clear 26 1016 57 10000 2.1 0 20:33 21.11.2020
5249 Clear 27 1016 51 10000 2.6 30 19:53 21.11.2020
5250 Clear 27 1016 51 10000 2.6 30 19:26 21.11.2020
5251 Clear 27 1016 54 10000 3.6 60 17:57 21.11.2020
5252 Clear 27 1015 54 10000 3.6 40 16:48 21.11.2020
5253 Clear 28 1015 51 10000 3.6 10 15:52 21.11.2020
5254 Clear 28 1014 51 10000 5.7 340 15:22 21.11.2020
5255 Clear 28 1014 51 10000 5.7 340 14:43 21.11.2020
5256 Clear 29 1014 42 10000 6.2 320 13:58 21.11.2020
5257 Clouds 30 1014 42 10000 5.7 340 12:27 21.11.2020
5258 Clouds 31 1015 37 10000 4.6 330 11:56 21.11.2020
5259 Clear 30 1016 35 10000 2.1 170 10:39 21.11.2020
5260 Clear 28 1017 35 10000 2.6 160 09:32 21.11.2020
5261 Clear 28 1018 39 10000 3.6 160 08:51 21.11.2020
5262 Clear 23 1018 60 10000 2.6 150 05:47 21.11.2020
5263 Clear 23 1018 69 10000 3.1 130 04:27 21.11.2020
5264 Clear 24 1016 64 10000 2.6 100 00:27 21.11.2020
5265 Clear 25 1016 65 10000 3.1 100 23:25 20.11.2020
5266 Clear 25 1017 65 10000 3.6 100 21:56 20.11.2020
5267 Clear 25 1017 65 10000 3.6 100 21:38 20.11.2020
5268 Clear 25 1017 65 10000 3.6 100 21:38 20.11.2020
5269 Clear 25 1017 65 10000 4.1 90 21:18 20.11.2020
5270 Clear 26 1017 57 10000 4.1 80 19:44 20.11.2020
5271 Clear 27 1016 57 10000 4.6 80 18:32 20.11.2020
5272 Clear 27 1016 54 10000 5.1 90 17:42 20.11.2020
5273 Clear 28 1016 51 10000 6.2 90 17:23 20.11.2020
5274 Clear 28 1016 51 10000 6.2 90 16:37 20.11.2020
5275 Clear 29 1015 45 10000 7.2 100 15:51 20.11.2020
5276 Clouds 30 1014 40 10000 5.7 80 14:49 20.11.2020
5277 Clouds 29 1014 48 10000 6.7 10 13:43 20.11.2020
5278 Clouds 30 1014 48 10000 5.1 20 13:18 20.11.2020
5279 Clouds 30 1014 48 10000 5.1 20 12:31 20.11.2020
5280 Clouds 31 1014 35 10000 4.1 80 11:39 20.11.2020
5281 Clouds 31 1015 35 10000 3.6 110 10:45 20.11.2020
5282 Clear 29 1017 48 10000 5.1 70 08:52 20.11.2020
5283 Clear 29 1017 48 10000 5.1 70 08:23 20.11.2020
5284 Clear 23 1016 69 10000 3.1 80 05:20 20.11.2020
5285 Clear 23 1016 69 10000 2.1 60 03:43 20.11.2020
5286 Clear 25 1015 53 10000 1 0 22:33 19.11.2020
5287 Clear 25 1015 57 10000 1 100 21:55 19.11.2020
5288 Clouds 25 1015 54 10000 2.1 100 20:59 19.11.2020
5289 Clouds 26 1015 54 10000 2.1 100 20:30 19.11.2020
5290 Clouds 26 1016 54 10000 1.5 10 19:44 19.11.2020
5291 Clouds 26 1016 54 10000 1.5 10 19:22 19.11.2020
5292 Clear 26 1015 50 10000 2.1 360 17:38 19.11.2020
5293 Clear 27 1015 51 10000 4.1 340 16:47 19.11.2020
5294 Clear 27 1014 51 10000 4.1 300 15:31 19.11.2020
5295 Clouds 28 1013 45 10000 4.6 290 13:59 19.11.2020
5296 Clouds 28 1013 45 10000 4.6 290 13:39 19.11.2020
5297 Clouds 29 1014 39 10000 4.6 280 12:57 19.11.2020
5298 Clouds 29 1014 42 10000 5.1 290 12:34 19.11.2020
5299 Clouds 29 1014 42 10000 5.1 290 11:41 19.11.2020
5300 Clouds 29 1015 42 10000 3.1 270 11:22 19.11.2020
5301 Clouds 29 1015 42 10000 3.1 270 10:51 19.11.2020
5302 Clouds 28 1016 48 10000 3.1 310 09:49 19.11.2020
5303 Clouds 28 1016 48 10000 3.1 310 09:28 19.11.2020
5304 Clouds 28 1016 48 10000 3.6 330 08:58 19.11.2020
5305 Clouds 28 1017 48 10000 3.6 330 07:57 19.11.2020
5306 Clouds 25 1014 69 10000 3.1 150 01:48 19.11.2020
5307 Clouds 25 1014 69 10000 3.1 150 01:48 19.11.2020
5308 Clouds 26 1014 65 10000 2.6 190 00:33 19.11.2020
5309 Clear 26 1013 61 10000 1.5 230 23:32 18.11.2020
5310 Clear 27 1014 61 10000 2.1 230 22:59 18.11.2020
5311 Clear 27 1014 61 10000 2.1 230 22:29 18.11.2020
5312 Clear 27 1014 65 10000 2.6 260 21:44 18.11.2020
5313 Clear 27 1014 65 10000 3.1 270 21:25 18.11.2020
5314 Clear 27 1014 65 10000 3.1 270 20:37 18.11.2020
5315 Clouds 28 1014 61 10000 4.1 280 19:42 18.11.2020
5316 Clouds 28 1014 61 10000 4.1 280 19:22 18.11.2020
5317 Clouds 28 1014 61 10000 4.1 280 18:40 18.11.2020
5318 Clouds 29 1014 61 10000 4.1 270 17:44 18.11.2020
5319 Clouds 28 1014 61 10000 4.6 300 16:35 18.11.2020
5320 Clouds 29 1014 55 10000 4.6 280 15:59 18.11.2020
5321 Clouds 29 1013 58 10000 5.7 300 14:41 18.11.2020
5322 Clouds 30 1013 58 10000 6.7 310 13:55 18.11.2020
5323 Clouds 29 1013 54 10000 7.2 320 13:22 18.11.2020
5324 Clouds 29 1013 54 10000 7.2 320 12:43 18.11.2020
5325 Clouds 29 1013 54 10000 5.7 310 11:51 18.11.2020
5326 Clouds 29 1014 58 10000 5.1 320 10:56 18.11.2020
5327 Clouds 29 1014 58 10000 5.1 320 10:27 18.11.2020
5328 Clouds 28 1016 58 10000 2.6 260 08:40 18.11.2020
5329 Clouds 25 1016 44 10000 3.6 180 06:48 18.11.2020
5330 Clear 22 1014 53 10000 0.5 0 03:48 18.11.2020
5331 Clear 24 1014 53 10000 1 0 00:18 18.11.2020
5332 Clear 24 1014 53 10000 2.6 170 23:23 17.11.2020
5333 Clear 25 1014 53 10000 2.6 170 22:41 17.11.2020
5334 Clear 25 1014 50 10000 2.1 180 22:23 17.11.2020
5335 Clear 26 1014 50 10000 2.1 180 21:46 17.11.2020
5336 Clear 26 1015 57 10000 1.5 350 21:18 17.11.2020
5337 Clear 26 1015 57 10000 1.5 350 20:42 17.11.2020
5338 Clear 26 1015 57 10000 1.5 350 20:22 17.11.2020
5339 Clear 27 1015 51 10000 1.5 330 18:37 17.11.2020
5340 Clear 27 1014 51 10000 2.1 340 18:18 17.11.2020
5341 Clear 28 1014 48 10000 3.1 330 16:59 17.11.2020
5342 Clear 28 1014 48 10000 3.1 330 16:29 17.11.2020
5343 Clear 28 1014 48 10000 4.1 340 15:51 17.11.2020
5344 Clear 28 1014 48 10000 4.1 340 15:33 17.11.2020
5345 Clear 29 1014 39 10000 4.1 340 14:57 17.11.2020
5346 Clear 29 1014 39 10000 4.1 340 14:28 17.11.2020
5347 Clear 30 1014 30 10000 3.6 50 13:38 17.11.2020
5348 Clear 30 1014 30 10000 4.1 30 13:18 17.11.2020
5349 Clear 30 1014 30 10000 4.1 30 12:40 17.11.2020
5350 Clear 30 1014 35 10000 3.6 30 11:44 17.11.2020
5351 Clear 30 1015 40 10000 3.6 20 10:49 17.11.2020
5352 Clear 29 1016 45 10000 4.6 10 10:23 17.11.2020
5353 Clear 29 1016 45 10000 4.6 10 09:50 17.11.2020
5354 Clear 29 1016 45 10000 4.6 10 09:27 17.11.2020
5355 Clear 28 1018 57 10000 3.6 50 08:22 17.11.2020
5356 Clear 27 1018 57 10000 3.6 50 07:44 17.11.2020
5357 Clear 25 1018 61 10000 2.6 60 06:33 17.11.2020
5358 Clear 23 1017 73 10000 2.1 80 03:31 17.11.2020
5359 Clear 24 1016 65 10000 1.5 40 02:35 17.11.2020
5360 Clear 24 1016 69 10000 2.1 60 01:23 17.11.2020
5361 Clear 24 1016 69 10000 2.1 60 01:23 17.11.2020
5362 Clear 25 1016 65 10000 1.5 90 00:50 17.11.2020
5363 Clear 25 1016 65 10000 2.1 110 23:45 16.11.2020
5364 Clear 25 1016 65 10000 2.1 110 23:23 16.11.2020
5365 Clear 25 1016 61 10000 2.6 110 22:42 16.11.2020
5366 Clear 25 1016 61 10000 2.1 100 22:20 16.11.2020
5367 Clear 25 1016 61 10000 2.1 100 21:44 16.11.2020
5368 Clear 25 1016 61 10000 2.1 100 21:24 16.11.2020
5369 Clear 26 1016 57 10000 2.6 70 20:27 16.11.2020
5370 Clear 26 1016 57 10000 2.6 50 19:56 16.11.2020
5371 Clear 26 1016 54 10000 2.6 70 19:32 16.11.2020
5372 Clear 27 1016 54 10000 2.6 70 18:56 16.11.2020
5373 Clear 27 1016 54 10000 3.1 50 18:28 16.11.2020
5374 Clear 27 1016 54 10000 3.1 50 17:41 16.11.2020
5375 Clear 27 1015 54 10000 3.6 40 17:19 16.11.2020
5376 Clear 27 1015 54 10000 3.6 40 16:51 16.11.2020
5377 Clear 27 1015 54 10000 3.6 40 16:26 16.11.2020
5378 Clear 27 1014 57 10000 4.6 20 15:47 16.11.2020
5379 Clear 28 1014 54 10000 4.6 10 15:28 16.11.2020
5380 Clear 28 1014 54 10000 4.6 10 14:53 16.11.2020
5381 Clear 28 1014 54 10000 5.1 20 13:59 16.11.2020
5382 Clear 28 1014 54 10000 5.1 20 13:21 16.11.2020
5383 Clear 30 1014 51 10000 4.6 10 12:32 16.11.2020
5384 Clouds 30 1014 45 10000 4.6 360 11:43 16.11.2020
5385 Clouds 30 1014 45 10000 4.6 360 11:23 16.11.2020
5386 Clouds 31 1015 35 10000 2.1 0 10:44 16.11.2020
5387 Clouds 30 1016 42 10000 2.1 70 10:26 16.11.2020
5388 Clouds 29 1016 42 10000 2.1 70 09:52 16.11.2020
5389 Clouds 28 1016 42 10000 2.1 70 09:34 16.11.2020
5390 Clouds 28 1016 51 10000 2.1 0 08:48 16.11.2020
5391 Clear 27 1017 57 10000 2.6 110 08:21 16.11.2020
5392 Clear 26 1017 65 10000 2.1 90 07:19 16.11.2020
5393 Clear 24 1017 65 10000 2.1 90 06:45 16.11.2020
5394 Clear 23 1016 69 10000 2.1 0 05:44 16.11.2020
5395 Clear 23 1014 69 10000 1.5 80 03:54 16.11.2020
5396 Clear 24 1014 64 10000 2.6 120 01:44 16.11.2020
5397 Clear 24 1014 60 10000 2.1 90 00:28 16.11.2020
5398 Clear 24 1014 60 10000 2.6 90 23:29 15.11.2020
5399 Clear 24 1014 57 10000 2.6 80 22:57 15.11.2020
5400 Clear 24 1014 57 10000 2.6 80 22:24 15.11.2020
5401 Clear 25 1015 53 10000 3.1 90 21:51 15.11.2020
5402 Clear 25 1015 53 10000 3.1 90 21:29 15.11.2020
5403 Clear 25 1015 53 10000 4.1 90 20:51 15.11.2020
5404 Clear 25 1015 53 10000 4.1 90 20:32 15.11.2020
5405 Clear 26 1015 47 10000 5.1 90 19:55 15.11.2020
5406 Clear 26 1015 47 10000 5.1 90 19:36 15.11.2020
5407 Clear 26 1015 47 10000 5.1 90 19:18 15.11.2020
5408 Clear 26 1015 47 10000 5.1 90 18:43 15.11.2020
5409 Clear 26 1014 47 10000 5.1 90 18:24 15.11.2020
5410 Clear 26 1014 47 10000 5.1 90 17:47 15.11.2020
5411 Clear 27 1014 47 10000 5.1 90 17:26 15.11.2020
5412 Clear 27 1013 44 10000 5.1 90 16:52 15.11.2020
5413 Clear 27 1013 44 10000 5.1 90 16:24 15.11.2020
5414 Clear 29 1012 42 10000 5.1 100 15:58 15.11.2020
5415 Clear 29 1012 42 10000 5.1 100 15:39 15.11.2020
5416 Clear 29 1012 42 10000 5.1 110 15:21 15.11.2020
5417 Clear 29 1012 42 10000 5.1 110 14:45 15.11.2020
5418 Clear 29 1012 42 10000 5.1 110 14:22 15.11.2020
5419 Clouds 29 1012 51 10000 6.2 360 13:41 15.11.2020
5420 Clouds 29 1012 54 10000 6.7 340 12:54 15.11.2020
5421 Clouds 30 1012 54 10000 6.7 340 12:29 15.11.2020
5422 Clouds 30 1013 48 10000 3.1 360 11:58 15.11.2020
5423 Clouds 30 1013 48 10000 3.1 360 11:40 15.11.2020
5424 Clouds 30 1013 45 10000 1.5 170 11:18 15.11.2020
5425 Clouds 30 1013 45 10000 1.5 170 10:49 15.11.2020
5426 Clouds 29 1013 45 10000 1.5 170 10:29 15.11.2020
5427 Clouds 29 1014 51 10000 1.5 60 09:45 15.11.2020
5428 Clouds 28 1015 54 10000 3.1 80 09:22 15.11.2020
5429 Clouds 28 1015 54 10000 3.1 80 08:54 15.11.2020
5430 Clouds 28 1015 54 10000 3.1 80 08:31 15.11.2020
5431 Clouds 27 1016 54 10000 1.5 0 07:43 15.11.2020
5432 Clear 24 1015 69 10000 2.1 100 05:33 15.11.2020
5433 Clouds 24 1015 73 9000 2.1 0 04:51 15.11.2020
5434 Clear 26 1013 65 10000 2.1 120 01:25 15.11.2020
5435 Clear 26 1013 65 10000 2.1 120 00:29 15.11.2020
5436 Clear 27 1013 54 10000 2.1 330 23:41 14.11.2020
5437 Clear 27 1013 51 10000 3.1 340 22:51 14.11.2020
5438 Clear 27 1013 51 10000 3.1 340 22:32 14.11.2020
5439 Clouds 28 1014 51 10000 3.6 320 21:45 14.11.2020
5440 Clouds 28 1014 54 10000 4.1 330 21:23 14.11.2020
5441 Clouds 28 1014 54 10000 4.1 330 20:59 14.11.2020
5442 Clouds 28 1014 54 10000 4.1 330 20:30 14.11.2020
5443 Clouds 28 1014 61 10000 2.6 350 20:30 14.11.2020
5444 Clouds 28 1014 61 10000 2.6 350 20:30 14.11.2020
5445 Clouds 28 1014 61 10000 2.6 350 19:58 14.11.2020
5446 Clouds 28 1014 61 10000 2.6 350 19:36 14.11.2020
5447 Clouds 28 1014 61 10000 3.6 340 18:55 14.11.2020
5448 Clouds 28 1014 61 10000 3.6 340 18:36 14.11.2020
5449 Clouds 28 1013 61 10000 4.1 340 18:18 14.11.2020
5450 Clouds 28 1013 61 10000 4.1 340 17:41 14.11.2020
5451 Clouds 28 1013 65 10000 4.6 330 17:20 14.11.2020
5452 Clouds 28 1013 65 10000 4.6 330 16:44 14.11.2020
5453 Clouds 28 1012 65 10000 5.1 340 16:24 14.11.2020
5454 Clouds 28 1012 65 10000 5.1 340 15:52 14.11.2020
5455 Clouds 29 1012 65 10000 5.1 340 15:29 14.11.2020
5456 Clouds 29 1011 62 10000 7.2 320 14:49 14.11.2020
5457 Clouds 30 1011 62 10000 7.2 320 14:26 14.11.2020
5458 Clouds 30 1011 58 10000 5.1 280 13:49 14.11.2020
5459 Clouds 30 1011 58 10000 5.1 280 13:25 14.11.2020
5460 Clouds 30 1011 55 10000 5.1 300 12:48 14.11.2020
5461 Clouds 31 1011 55 10000 5.1 300 12:30 14.11.2020
5462 Clouds 31 1012 48 10000 5.1 290 11:46 14.11.2020
5463 Clouds 30 1012 58 10000 5.7 290 11:25 14.11.2020
5464 Clouds 30 1012 58 10000 5.7 290 10:49 14.11.2020
5465 Clouds 31 1012 58 10000 5.7 290 10:26 14.11.2020
5466 Clouds 31 1013 48 10000 4.1 270 09:51 14.11.2020
5467 Clouds 31 1013 48 10000 4.1 270 09:28 14.11.2020
5468 Clouds 31 1013 48 10000 4.1 270 09:28 14.11.2020
5469 Clear 30 1014 42 10000 2.6 220 08:59 14.11.2020
5470 Clear 30 1014 42 10000 2.6 220 08:38 14.11.2020
5471 Clear 29 1015 45 10000 1.5 160 07:51 14.11.2020
5472 Clear 29 1015 45 10000 1.5 160 07:28 14.11.2020
5473 Clear 27 1015 48 10000 1.5 130 06:35 14.11.2020
5474 Clear 25 1014 54 10000 1.5 230 05:37 14.11.2020
5475 Clear 25 1013 61 10000 1.5 220 04:20 14.11.2020
5476 Clear 26 1012 61 10000 2.6 170 01:20 14.11.2020
5477 Clear 26 1013 61 10000 3.6 170 23:47 13.11.2020
5478 Clear 26 1013 61 10000 3.6 170 23:26 13.11.2020
5479 Clear 27 1014 61 10000 2.6 170 22:55 13.11.2020
5480 Clear 26 1014 65 10000 2.6 140 22:29 13.11.2020
5481 Clear 27 1014 65 10000 2.6 140 21:59 13.11.2020
5482 Clear 27 1014 65 10000 2.6 140 21:39 13.11.2020
5483 Clear 28 1015 61 10000 4.1 90 21:20 13.11.2020
5484 Clear 28 1015 61 10000 4.1 90 20:42 13.11.2020
5485 Clear 29 1015 58 10000 2.1 90 20:22 13.11.2020
5486 Clear 29 1015 58 10000 2.1 90 19:46 13.11.2020
5487 Clear 29 1015 58 10000 2.1 90 19:23 13.11.2020
5488 Clear 29 1015 58 10000 2.1 90 19:23 13.11.2020
5489 Clear 29 1015 62 10000 3.1 340 18:56 13.11.2020
5490 Clear 29 1015 58 10000 3.1 340 18:23 13.11.2020
5491 Clear 29 1015 58 10000 3.1 340 17:41 13.11.2020
5492 Clear 30 1014 55 10000 2.6 340 17:19 13.11.2020
5493 Clear 30 1014 55 10000 2.6 340 16:49 13.11.2020
5494 Clear 30 1014 51 10000 4.6 320 16:24 13.11.2020
5495 Clear 30 1014 51 10000 4.6 320 15:49 13.11.2020
5496 Clear 30 1014 51 10000 4.6 320 15:27 13.11.2020
5497 Clear 31 1014 45 10000 5.7 310 14:48 13.11.2020
5498 Clear 32 1014 38 10000 5.7 290 14:24 13.11.2020
5499 Clear 32 1014 38 10000 5.7 290 13:47 13.11.2020
5500 Clear 33 1014 38 10000 5.7 290 13:23 13.11.2020
5501 Clear 34 1014 28 10000 4.6 240 12:47 13.11.2020
5502 Clear 34 1014 30 10000 4.1 220 12:24 13.11.2020
5503 Clear 34 1014 30 10000 4.1 220 11:49 13.11.2020
5504 Clear 34 1014 30 10000 4.1 220 11:27 13.11.2020
5505 Clear 33 1015 27 7000 5.1 210 10:56 13.11.2020
5506 Clear 33 1015 27 7000 5.1 210 10:35 13.11.2020
5507 Dust 32 1016 29 5000 6.2 210 09:56 13.11.2020
5508 Dust 32 1016 29 5000 6.2 210 09:38 13.11.2020
5509 Dust 32 1016 29 5000 5.7 220 09:19 13.11.2020
5510 Dust 32 1016 29 5000 5.7 220 09:19 13.11.2020
5511 Dust 32 1016 29 5000 5.7 220 09:19 13.11.2020
5512 Dust 31 1016 29 4000 5.7 200 08:36 13.11.2020
5513 Clear 29 1017 42 6000 5.1 200 07:58 13.11.2020
5514 Clear 29 1017 42 6000 5.1 200 07:39 13.11.2020
5515 Clear 29 1017 51 10000 2.1 180 07:21 13.11.2020
5516 Clear 29 1017 51 10000 2.1 180 06:48 13.11.2020
5517 Clear 26 1016 65 10000 1.5 190 05:43 13.11.2020
5518 Clear 25 1016 69 10000 1.5 120 04:59 13.11.2020
5519 Clear 25 1014 73 10000 2.1 120 01:45 13.11.2020
5520 Clear 25 1015 69 10000 1.5 100 00:38 13.11.2020
5521 Clear 26 1015 69 10000 2.6 130 00:18 13.11.2020
5522 Clear 26 1015 69 10000 2.6 130 23:37 12.11.2020
5523 Clear 26 1015 65 10000 2.6 120 23:19 12.11.2020
5524 Clear 27 1015 65 10000 2.6 120 22:48 12.11.2020
5525 Clear 27 1015 65 10000 2.6 120 22:30 12.11.2020
5526 Clear 27 1016 61 10000 2.1 100 21:43 12.11.2020
5527 Clear 27 1016 61 10000 2.1 100 21:24 12.11.2020
5528 Clear 28 1016 58 10000 2.1 60 20:58 12.11.2020
5529 Clear 28 1016 58 10000 2.1 60 20:39 12.11.2020
5530 Clear 28 1016 54 10000 2.1 50 20:19 12.11.2020
5531 Clear 29 1016 54 10000 2.1 50 19:44 12.11.2020
5532 Clear 29 1016 54 10000 2.1 50 19:26 12.11.2020
5533 Clear 29 1016 58 10000 2.6 50 18:48 12.11.2020
5534 Clear 29 1016 58 10000 2.6 50 18:23 12.11.2020
5535 Clear 29 1016 62 10000 3.6 60 17:45 12.11.2020
5536 Clear 29 1015 62 10000 2.6 30 17:26 12.11.2020
5537 Clear 29 1015 62 10000 2.6 30 16:47 12.11.2020
5538 Clear 29 1015 62 10000 2.6 30 16:26 12.11.2020
5539 Clear 30 1015 55 10000 3.6 360 15:57 12.11.2020
5540 Clear 30 1015 55 10000 3.6 360 15:39 12.11.2020
5541 Clear 31 1014 52 10000 5.7 330 15:20 12.11.2020
5542 Clear 31 1014 52 10000 5.7 330 14:43 12.11.2020
5543 Clear 32 1014 49 10000 5.1 330 14:25 12.11.2020
5544 Clear 32 1014 49 10000 5.1 330 13:49 12.11.2020
5545 Clear 33 1014 38 10000 5.7 320 13:21 12.11.2020
5546 Clear 33 1014 38 10000 5.7 320 12:59 12.11.2020
5547 Clear 33 1014 38 10000 5.7 320 12:38 12.11.2020
5548 Clear 34 1014 28 10000 2.6 260 12:18 12.11.2020
5549 Clear 34 1014 28 10000 2.6 260 11:41 12.11.2020
5550 Clear 34 1015 30 10000 3.6 200 11:22 12.11.2020
5551 Clear 34 1015 30 10000 3.6 200 10:41 12.11.2020
5552 Clear 33 1017 33 8000 4.1 190 10:22 12.11.2020
5553 Clear 32 1017 33 8000 4.1 190 09:40 12.11.2020
5554 Clear 31 1017 38 8000 4.1 190 09:20 12.11.2020
5555 Clear 30 1017 38 8000 4.1 190 08:41 12.11.2020
5556 Clear 29 1018 45 10000 3.6 180 08:21 12.11.2020
5557 Clear 29 1018 45 10000 3.6 180 07:59 12.11.2020
5558 Clear 29 1018 45 10000 3.6 180 07:39 12.11.2020
5559 Clear 27 1018 57 10000 4.1 140 06:55 12.11.2020
5560 Clear 26 1018 57 10000 4.1 140 06:27 12.11.2020
5561 Clear 25 1016 73 7000 1.5 0 03:51 12.11.2020
5562 Clear 25 1015 73 7000 1.5 70 03:20 12.11.2020
5563 Clear 25 1015 74 7000 1 0 00:49 12.11.2020
5564 Clear 26 1015 74 8000 1 80 23:46 11.11.2020
5565 Clear 26 1015 74 8000 1 80 23:25 11.11.2020
5566 Clear 26 1015 69 8000 2.1 80 22:56 11.11.2020
5567 Clouds 27 1015 69 8000 2.1 80 22:38 11.11.2020
5568 Clouds 27 1015 74 8000 2.1 90 22:18 11.11.2020
5569 Clouds 27 1015 74 8000 2.1 90 21:41 11.11.2020
5570 Clouds 28 1015 69 8000 2.1 60 21:21 11.11.2020
5571 Clouds 28 1015 69 8000 2.1 60 20:55 11.11.2020
5572 Clouds 28 1015 69 8000 2.1 60 20:36 11.11.2020
5573 Clouds 28 1015 69 8000 2.1 60 20:36 11.11.2020
5574 Clouds 28 1015 69 8000 2.1 60 20:18 11.11.2020
5575 Clouds 28 1015 69 8000 2.1 60 19:43 11.11.2020
5576 Clear 29 1015 66 10000 2.6 50 19:24 11.11.2020
5577 Clear 29 1015 66 10000 2.6 50 18:47 11.11.2020
5578 Clear 29 1015 66 10000 2.6 50 18:27 11.11.2020
5579 Clear 29 1015 66 10000 4.1 30 17:41 11.11.2020
5580 Clear 29 1014 66 10000 3.1 350 17:22 11.11.2020
5581 Clear 29 1014 66 10000 3.1 350 16:45 11.11.2020
5582 Clear 29 1014 66 10000 3.1 350 16:27 11.11.2020
5583 Clear 29 1014 70 10000 5.1 350 15:47 11.11.2020
5584 Clear 30 1013 45 10000 6.2 340 15:26 11.11.2020
5585 Clear 31 1013 45 10000 6.2 340 14:52 11.11.2020
5586 Clear 31 1013 45 10000 6.2 340 14:52 11.11.2020
5587 Clear 31 1013 45 10000 6.2 340 14:31 11.11.2020
5588 Clear 32 1013 38 10000 5.7 330 13:55 11.11.2020
5589 Clear 32 1013 38 10000 5.7 330 13:33 11.11.2020
5590 Clear 32 1012 43 10000 5.1 330 12:41 11.11.2020
5591 Clear 33 1013 49 10000 4.1 340 12:20 11.11.2020
5592 Clear 33 1013 49 10000 4.1 340 11:49 11.11.2020
5593 Clear 33 1013 49 10000 4.1 340 11:29 11.11.2020
5594 Clear 33 1013 38 10000 2.6 290 10:40 11.11.2020
5595 Clear 32 1015 40 10000 1.5 0 10:21 11.11.2020
5596 Clear 32 1015 40 10000 1.5 0 09:45 11.11.2020
5597 Clear 31 1015 40 10000 1.5 0 09:26 11.11.2020
5598 Clear 30 1015 48 10000 1 0 08:46 11.11.2020
5599 Clear 30 1015 48 10000 1 0 08:27 11.11.2020
5600 Clouds 28 1016 69 7000 3.6 170 07:49 11.11.2020
5601 Clear 27 1015 69 6000 1.5 120 07:18 11.11.2020
5602 Haze 25 1015 74 4000 1.5 170 06:26 11.11.2020
5603 Haze 24 1013 83 4500 2.1 90 03:57 11.11.2020
5604 Clear 25 1013 78 6000 1.5 130 01:31 11.11.2020
5605 Clear 25 1013 78 6000 1.5 140 00:34 11.11.2020
5606 Clear 25 1013 74 8000 1.5 140 23:55 10.11.2020
5607 Clear 26 1013 74 8000 1.5 140 23:24 10.11.2020
5608 Clear 26 1013 74 8000 1 0 22:57 10.11.2020
5609 Clear 26 1014 74 8000 0.5 0 22:27 10.11.2020
5610 Clear 26 1014 74 8000 0.5 0 21:54 10.11.2020
5611 Clear 27 1014 74 8000 0.5 0 21:36 10.11.2020
5612 Clear 27 1014 69 10000 1 0 21:18 10.11.2020
5613 Clear 28 1014 69 10000 1 0 20:42 10.11.2020
5614 Clear 28 1014 69 10000 1 100 20:23 10.11.2020
5615 Clear 28 1014 69 10000 1 100 19:50 10.11.2020
5616 Clear 28 1014 69 10000 1 100 19:32 10.11.2020
5617 Clear 28 1014 69 10000 1.5 350 18:59 10.11.2020
5618 Clear 28 1014 69 10000 1.5 350 18:40 10.11.2020
5619 Clear 28 1014 66 10000 3.1 330 18:19 10.11.2020
5620 Clear 29 1014 66 10000 3.1 330 17:44 10.11.2020
5621 Clear 29 1014 66 10000 3.1 330 17:26 10.11.2020
5622 Clear 29 1013 66 10000 3.6 350 16:57 10.11.2020
5623 Clear 29 1013 66 10000 3.6 350 16:57 10.11.2020
5624 Clear 29 1013 66 10000 3.6 350 16:37 10.11.2020
5625 Clear 29 1013 66 10000 4.6 350 16:18 10.11.2020
5626 Clear 29 1013 66 10000 4.6 350 15:45 10.11.2020
5627 Clear 30 1012 58 10000 6.2 350 15:23 10.11.2020
5628 Clear 30 1012 58 10000 6.2 350 14:41 10.11.2020
5629 Clear 30 1012 58 10000 6.2 350 14:22 10.11.2020
5630 Clear 31 1012 58 10000 6.2 350 13:54 10.11.2020
5631 Clear 31 1012 58 10000 6.2 350 13:36 10.11.2020
5632 Clear 31 1012 52 10000 5.7 340 13:18 10.11.2020
5633 Clear 31 1012 52 10000 5.7 340 12:44 10.11.2020
5634 Clear 31 1012 52 10000 5.7 340 12:23 10.11.2020
5635 Clear 31 1012 52 10000 6.2 350 11:39 10.11.2020
5636 Clouds 31 1013 48 10000 5.1 340 11:20 10.11.2020
5637 Clouds 31 1013 48 10000 5.1 340 10:44 10.11.2020
5638 Clear 31 1014 43 10000 5.1 340 10:26 10.11.2020
5639 Clear 32 1014 43 10000 5.1 340 09:51 10.11.2020
5640 Clear 31 1014 43 10000 5.1 340 09:27 10.11.2020
5641 Clear 31 1015 52 10000 2.1 320 08:59 10.11.2020
5642 Clear 30 1015 52 10000 2.1 320 08:38 10.11.2020
5643 Clear 30 1016 62 9000 0.5 0 08:19 10.11.2020
5644 Clear 29 1016 62 9000 0.5 0 07:38 10.11.2020
5645 Clear 28 1016 78 6000 1.5 120 07:18 10.11.2020
5646 Clear 27 1016 78 6000 1.5 120 06:38 10.11.2020
5647 Haze 25 1015 83 4500 1.5 170 05:29 10.11.2020
5648 Clear 24 1014 88 6000 1 100 03:36 10.11.2020
5649 Clear 24 1014 88 7000 2.6 130 01:41 10.11.2020
5650 Clear 24 1014 83 7000 2.6 150 00:50 10.11.2020
5651 Clear 25 1015 78 9000 1.5 110 23:46 09.11.2020
5652 Clear 25 1015 78 9000 1.5 100 23:00 09.11.2020
5653 Clear 26 1015 78 9000 1.5 100 22:41 09.11.2020
5654 Clear 26 1015 69 10000 2.1 100 22:22 09.11.2020
5655 Clear 26 1015 69 10000 2.1 100 21:43 09.11.2020
5656 Clear 27 1016 69 10000 2.1 60 21:25 09.11.2020
5657 Clear 27 1016 69 10000 2.1 60 21:25 09.11.2020
5658 Clear 27 1016 69 10000 2.1 60 20:42 09.11.2020
5659 Clear 27 1016 65 10000 1.5 60 20:22 09.11.2020
5660 Clear 27 1016 65 10000 1.5 60 19:48 09.11.2020
5661 Clear 28 1016 65 10000 1.5 60 19:23 09.11.2020
5662 Clear 28 1016 65 10000 1.5 60 19:23 09.11.2020
5663 Clear 28 1016 62 10000 2.6 350 18:58 09.11.2020
5664 Clear 28 1016 62 10000 2.6 350 18:39 09.11.2020
5665 Clear 29 1016 62 10000 3.6 350 18:19 09.11.2020
5666 Clear 29 1016 62 10000 3.6 350 17:43 09.11.2020
5667 Clear 29 1016 58 10000 3.1 350 17:25 09.11.2020
5668 Clear 29 1016 58 10000 3.1 350 16:44 09.11.2020
5669 Clear 29 1015 66 10000 4.6 350 16:23 09.11.2020
5670 Clear 30 1015 66 10000 4.6 350 15:45 09.11.2020
5671 Clear 30 1015 58 10000 4.6 340 15:25 09.11.2020
5672 Clear 30 1015 58 10000 4.6 340 14:49 09.11.2020
5673 Clear 31 1015 58 10000 4.6 340 14:28 09.11.2020
5674 Clear 31 1015 55 10000 5.1 340 13:52 09.11.2020
5675 Clouds 32 1015 48 10000 6.2 320 13:25 09.11.2020
5676 Clouds 32 1015 48 10000 6.2 320 12:57 09.11.2020
5677 Clouds 32 1015 48 10000 6.2 320 12:39 09.11.2020
5678 Clouds 33 1015 46 10000 5.1 320 12:20 09.11.2020
5679 Clouds 33 1015 46 10000 5.1 320 11:42 09.11.2020
5680 Clouds 33 1015 46 10000 5.1 320 11:24 09.11.2020
5681 Clouds 33 1016 49 10000 4.6 320 11:24 09.11.2020
5682 Clouds 33 1016 49 10000 4.6 320 10:43 09.11.2020
5683 Clouds 33 1017 43 10000 1.5 0 10:25 09.11.2020
5684 Clouds 32 1017 43 10000 1.5 0 09:52 09.11.2020
5685 Clouds 32 1018 48 10000 1 0 09:28 09.11.2020
5686 Clouds 31 1018 48 10000 1 0 08:49 09.11.2020
5687 Clouds 31 1018 48 10000 1 0 08:27 09.11.2020
5688 Clear 30 1019 55 10000 1.5 0 07:43 09.11.2020
5689 Clear 28 1019 61 10000 1.5 80 07:21 09.11.2020
5690 Clear 28 1019 61 10000 1.5 80 06:48 09.11.2020
5691 Clear 24 1017 69 10000 1.5 70 03:51 09.11.2020
5692 Clear 25 1016 65 10000 1 0 01:56 09.11.2020
5693 Clear 25 1016 65 10000 1 0 01:38 09.11.2020
5694 Clear 25 1016 65 10000 1 220 00:35 09.11.2020
5695 Clear 26 1016 65 10000 1 0 23:39 08.11.2020
5696 Clear 26 1016 61 10000 2.1 160 23:20 08.11.2020
5697 Clear 26 1016 61 10000 2.1 160 22:42 08.11.2020
5698 Clear 26 1017 61 10000 2.1 110 22:20 08.11.2020
5699 Clear 26 1017 61 10000 2.1 110 21:43 08.11.2020
5700 Clear 26 1017 65 10000 1 80 21:20 08.11.2020
5701 Clear 27 1017 65 10000 1 80 20:55 08.11.2020
5702 Clear 27 1017 65 10000 1 80 20:37 08.11.2020
5703 Clear 26 1018 69 10000 1 0 20:19 08.11.2020
5704 Clear 26 1018 69 10000 1 0 19:43 08.11.2020
5705 Clear 26 1018 65 10000 2.6 90 19:21 08.11.2020
5706 Clear 26 1018 65 10000 2.6 90 18:49 08.11.2020
5707 Clear 27 1018 65 10000 2.6 90 18:22 08.11.2020
5708 Clear 27 1017 65 10000 4.1 90 17:58 08.11.2020
5709 Clear 27 1017 65 10000 4.1 90 17:39 08.11.2020
5710 Clouds 27 1017 61 10000 5.7 70 17:19 08.11.2020
5711 Clouds 27 1017 61 10000 5.7 70 16:56 08.11.2020
5712 Clouds 28 1017 61 10000 5.7 70 16:36 08.11.2020
5713 Clear 29 1016 66 10000 3.1 360 16:18 08.11.2020
5714 Clear 29 1016 66 10000 3.1 360 15:43 08.11.2020
5715 Clear 29 1015 66 10000 5.7 340 15:22 08.11.2020
5716 Clear 30 1015 66 10000 5.7 340 14:42 08.11.2020
5717 Clear 30 1015 55 10000 3.6 40 14:22 08.11.2020
5718 Clear 30 1015 55 10000 3.6 40 13:47 08.11.2020
5719 Clear 30 1015 55 10000 3.6 40 13:24 08.11.2020
5720 Clear 29 1015 62 10000 2.6 340 12:46 08.11.2020
5721 Clear 31 1015 62 10000 2.6 340 12:28 08.11.2020
5722 Clouds 32 1015 55 10000 7.7 300 11:58 08.11.2020
5723 Clouds 32 1015 46 10000 2.6 280 11:40 08.11.2020
5724 Clouds 32 1015 48 10000 3.1 210 11:20 08.11.2020
5725 Clouds 32 1015 48 10000 3.1 210 10:50 08.11.2020
5726 Clouds 31 1017 52 10000 3.6 220 10:19 08.11.2020
5727 Clouds 31 1017 52 10000 3.6 220 09:44 08.11.2020
5728 Clouds 31 1017 52 10000 3.6 220 09:24 08.11.2020
5729 Clear 30 1018 55 10000 3.6 220 08:58 08.11.2020
5730 Clear 30 1018 55 10000 3.6 220 08:39 08.11.2020
5731 Clear 30 1018 55 10000 3.6 220 08:39 08.11.2020
5732 Clear 30 1019 54 10000 4.1 200 08:18 08.11.2020
5733 Clear 28 1019 54 10000 4.1 200 07:51 08.11.2020
5734 Clear 28 1018 54 10000 2.1 170 07:21 08.11.2020
5735 Clear 26 1018 65 10000 1.5 90 06:22 08.11.2020
5736 Clear 26 1018 65 10000 1.5 90 05:52 08.11.2020
5737 Clear 25 1017 65 10000 1.5 90 04:31 08.11.2020
5738 Clear 25 1015 65 10000 2.6 130 01:51 08.11.2020
5739 Clear 26 1015 65 10000 3.6 130 01:18 08.11.2020
5740 Clear 26 1015 65 10000 3.6 130 00:27 08.11.2020
5741 Clear 25 1015 65 10000 2.6 100 23:46 07.11.2020
5742 Clear 25 1015 65 10000 2.6 100 23:28 07.11.2020
5743 Clear 25 1015 65 10000 1.5 100 22:43 07.11.2020
5744 Clear 25 1015 65 10000 1.5 100 22:25 07.11.2020
5745 Clear 26 1015 57 10000 1.5 110 21:46 07.11.2020
5746 Clear 26 1015 57 10000 1.5 110 21:23 07.11.2020
5747 Clear 27 1016 51 10000 3.1 70 20:55 07.11.2020
5748 Clear 27 1016 51 10000 3.1 70 20:37 07.11.2020
5749 Clear 27 1016 58 10000 2.6 60 20:19 07.11.2020
5750 Clear 27 1016 58 10000 2.6 80 19:41 07.11.2020
5751 Clear 27 1016 58 10000 2.6 80 19:22 07.11.2020
5752 Clear 28 1016 58 10000 2.6 80 18:40 07.11.2020
5753 Clear 28 1016 58 10000 3.6 50 18:21 07.11.2020
5754 Clear 28 1016 58 10000 3.6 50 17:46 07.11.2020
5755 Clear 28 1016 58 10000 3.6 50 17:26 07.11.2020
5756 Clear 29 1015 54 10000 3.6 50 16:44 07.11.2020
5757 Clear 29 1015 54 10000 3.6 50 16:24 07.11.2020
5758 Clear 30 1015 48 10000 4.1 30 15:48 07.11.2020
5759 Clear 30 1015 48 10000 4.1 30 15:24 07.11.2020
5760 Clear 30 1014 51 10000 5.1 350 14:58 07.11.2020
5761 Clear 30 1014 51 10000 5.1 350 14:58 07.11.2020
5762 Clear 30 1014 51 10000 5.1 350 14:40 07.11.2020
5763 Clear 31 1015 43 10000 5.1 340 14:19 07.11.2020
5764 Clear 31 1015 43 10000 5.1 340 13:42 07.11.2020
5765 Clear 32 1015 43 10000 4.6 340 13:22 07.11.2020
5766 Clear 32 1015 43 10000 4.6 340 12:35 07.11.2020
5767 Clear 33 1015 40 10000 5.1 330 11:47 07.11.2020
5768 Clear 33 1015 40 10000 5.1 330 11:25 07.11.2020
5769 Clear 32 1016 38 10000 1.5 0 10:59 07.11.2020
5770 Clear 32 1016 38 10000 1.5 0 10:40 07.11.2020
5771 Clear 32 1017 40 10000 2.6 210 10:22 07.11.2020
5772 Clear 32 1017 40 10000 2.6 210 09:47 07.11.2020
5773 Clear 31 1018 42 10000 3.1 180 09:21 07.11.2020
5774 Clear 30 1018 42 10000 3.1 180 08:47 07.11.2020
5775 Clear 30 1018 42 10000 3.1 180 08:29 07.11.2020
5776 Clear 28 1019 48 10000 3.6 160 07:48 07.11.2020
5777 Clear 27 1018 47 10000 4.6 110 06:50 07.11.2020
5778 Clear 25 1018 50 10000 3.6 100 05:48 07.11.2020
5779 Clear 22 1017 53 10000 2.1 110 04:22 07.11.2020
5780 Clear 21 1016 56 10000 2.1 80 02:46 07.11.2020
5781 Clear 23 1015 50 10000 2.6 40 01:27 07.11.2020
5782 Clear 23 1015 50 10000 2.6 40 00:37 07.11.2020
5783 Clear 24 1015 44 10000 2.1 110 23:39 06.11.2020
5784 Clear 25 1015 50 10000 1.5 80 23:18 06.11.2020
5785 Clear 25 1015 50 10000 1.5 80 22:40 06.11.2020
5786 Clear 25 1016 54 10000 1.5 70 22:18 06.11.2020
5787 Clear 26 1016 54 10000 1.5 70 21:42 06.11.2020
5788 Clear 26 1016 57 10000 1.5 70 21:20 06.11.2020
5789 Clear 27 1016 57 10000 1.5 70 20:47 06.11.2020
5790 Clear 27 1016 61 10000 1.5 50 20:20 06.11.2020
5791 Clear 26 1016 61 10000 1.5 50 20:20 06.11.2020
5792 Clear 27 1016 61 10000 1.5 50 19:46 06.11.2020
5793 Clear 27 1016 61 10000 1.5 50 19:28 06.11.2020
5794 Clear 27 1016 57 10000 2.6 60 18:57 06.11.2020
5795 Clear 27 1016 57 10000 2.6 60 18:39 06.11.2020
5796 Clear 28 1015 51 10000 3.6 40 18:19 06.11.2020
5797 Clear 28 1015 51 10000 3.6 40 18:19 06.11.2020
5798 Clear 28 1015 51 10000 3.6 40 17:46 06.11.2020
5799 Clear 28 1015 51 10000 3.6 350 17:24 06.11.2020
5800 Clear 28 1015 51 10000 3.6 350 16:43 06.11.2020
5801 Clear 28 1014 45 10000 5.1 340 16:22 06.11.2020
5802 Clear 29 1014 45 10000 5.1 340 15:47 06.11.2020
5803 Clear 29 1014 45 10000 5.1 340 15:26 06.11.2020
5804 Clear 31 1014 27 10000 5.1 310 14:50 06.11.2020
5805 Clear 32 1013 22 10000 5.1 320 14:23 06.11.2020
5806 Clear 32 1013 22 10000 5.1 320 13:44 06.11.2020
5807 Clear 32 1013 24 10000 5.1 330 13:21 06.11.2020
5808 Clear 32 1013 24 10000 5.1 330 12:43 06.11.2020
5809 Clear 32 1013 24 10000 5.1 330 12:23 06.11.2020
5810 Clear 33 1014 24 10000 1.5 330 11:40 06.11.2020
5811 Clear 32 1015 25 10000 2.1 220 11:21 06.11.2020
5812 Clear 32 1015 25 10000 2.1 220 10:37 06.11.2020
5813 Clear 32 1016 27 10000 4.1 250 10:18 06.11.2020
5814 Clear 31 1016 27 10000 4.1 250 09:44 06.11.2020
5815 Clear 31 1016 30 10000 4.1 220 09:21 06.11.2020
5816 Clear 31 1016 30 10000 4.1 220 09:21 06.11.2020
5817 Clear 30 1016 30 10000 4.1 220 08:48 06.11.2020
5818 Clear 30 1016 30 10000 4.1 220 08:28 06.11.2020
5819 Clear 28 1016 30 10000 5.1 180 07:46 06.11.2020
5820 Clear 28 1016 30 10000 5.1 180 07:27 06.11.2020
5821 Clear 26 1016 36 10000 5.7 180 06:48 06.11.2020
5822 Clear 25 1015 44 10000 4.1 180 05:42 06.11.2020
5823 Haze 24 1013 78 4500 2.6 120 02:53 06.11.2020
5824 Clear 24 1013 83 6000 1.5 100 00:43 06.11.2020
5825 Clear 25 1013 73 7000 2.1 100 00:18 06.11.2020
5826 Clear 25 1013 73 7000 2.1 100 23:26 05.11.2020
5827 Clear 25 1013 73 8000 2.1 100 22:51 05.11.2020
5828 Clear 25 1013 73 8000 2.1 100 22:50 05.11.2020
5829 Clear 25 1013 69 10000 2.1 90 22:26 05.11.2020
5830 Clear 25 1013 69 10000 2.1 90 21:59 05.11.2020
5831 Clear 26 1013 69 10000 2.1 90 21:41 05.11.2020
5832 Clear 26 1013 65 10000 2.1 60 21:21 05.11.2020
5833 Clear 26 1013 65 10000 2.1 60 21:21 05.11.2020
5834 Clear 27 1013 65 10000 2.1 60 20:44 05.11.2020
5835 Clear 27 1013 61 10000 2.1 50 20:26 05.11.2020
5836 Clear 28 1013 61 10000 2.1 50 19:58 05.11.2020
5837 Clear 28 1013 61 10000 2.1 50 19:40 05.11.2020
5838 Clear 28 1013 61 10000 2.6 70 19:20 05.11.2020
5839 Clear 28 1013 61 10000 2.6 70 18:42 05.11.2020
5840 Clear 28 1012 61 10000 3.1 40 18:23 05.11.2020
5841 Clear 28 1012 61 10000 3.1 40 17:51 05.11.2020
5842 Clear 29 1012 51 10000 3.1 360 17:27 05.11.2020
5843 Clear 29 1012 51 10000 3.1 360 16:50 05.11.2020
5844 Clear 29 1012 51 10000 3.1 360 16:29 05.11.2020
5845 Clear 29 1011 51 10000 4.1 350 15:57 05.11.2020
5846 Clear 29 1011 51 10000 4.1 350 15:39 05.11.2020
5847 Clear 30 1011 40 10000 5.7 340 15:20 05.11.2020
5848 Clear 30 1011 40 10000 5.7 340 14:44 05.11.2020
5849 Clear 31 1011 40 10000 5.7 340 14:24 05.11.2020
5850 Clear 31 1011 45 10000 5.7 320 13:41 05.11.2020
5851 Clear 32 1011 45 10000 5.1 320 13:20 05.11.2020
5852 Clear 32 1011 45 10000 5.1 320 12:43 05.11.2020
5853 Clear 32 1012 35 10000 5.1 310 12:23 05.11.2020
5854 Clear 32 1012 35 10000 5.1 310 11:44 05.11.2020
5855 Clouds 32 1012 35 10000 5.7 320 11:24 05.11.2020
5856 Clouds 32 1012 35 10000 5.7 320 10:52 05.11.2020
5857 Clouds 32 1013 48 10000 3.1 0 10:28 05.11.2020
5858 Clouds 32 1013 48 10000 3.1 0 09:55 05.11.2020
5859 Clouds 31 1013 48 10000 3.1 0 09:37 05.11.2020
5860 Clear 30 1014 51 10000 1.5 0 09:18 05.11.2020
5861 Clear 30 1014 51 10000 1.5 0 08:43 05.11.2020
5862 Clear 28 1014 61 8000 1.5 140 08:23 05.11.2020
5863 Clear 26 1014 69 6000 2.1 170 07:29 05.11.2020
5864 Clear 26 1014 69 6000 2.1 170 06:51 05.11.2020
5865 Clear 25 1014 69 6000 2.1 170 06:32 05.11.2020
5866 Clear 24 1012 78 6000 2.1 160 03:46 05.11.2020
5867 Clear 25 1012 78 7000 2.1 170 00:45 05.11.2020
5868 Clear 25 1012 78 7000 1 0 00:25 05.11.2020
5869 Clear 25 1012 78 7000 1 0 23:43 04.11.2020
5870 Clear 25 1012 78 7000 1 0 23:24 04.11.2020
5871 Clear 26 1012 69 10000 2.1 160 22:44 04.11.2020
5872 Clear 27 1012 58 10000 1 0 22:22 04.11.2020
5873 Clear 27 1012 58 10000 1 0 21:47 04.11.2020
5874 Clear 28 1012 58 10000 1 0 21:28 04.11.2020
5875 Clear 28 1012 58 10000 2.1 340 20:56 04.11.2020
5876 Clear 28 1012 58 10000 2.1 340 20:36 04.11.2020
5877 Clear 28 1013 54 10000 2.1 340 20:18 04.11.2020
5878 Clear 29 1013 54 10000 2.1 340 19:41 04.11.2020
5879 Clear 29 1013 54 10000 2.1 340 19:41 04.11.2020
5880 Clear 29 1013 54 10000 2.1 340 19:23 04.11.2020
5881 Clear 29 1013 54 10000 2.6 350 18:42 04.11.2020
5882 Clear 29 1013 54 10000 3.1 330 18:24 04.11.2020
5883 Clear 29 1013 54 10000 3.1 330 17:48 04.11.2020
5884 Clear 29 1013 54 10000 3.1 330 17:27 04.11.2020
5885 Clear 29 1012 54 10000 4.1 340 16:57 04.11.2020
5886 Clear 30 1012 54 10000 4.1 340 16:37 04.11.2020
5887 Clear 30 1012 55 10000 5.7 330 16:18 04.11.2020
5888 Clear 30 1012 55 10000 5.7 330 15:42 04.11.2020
5889 Clear 30 1012 55 10000 5.7 330 15:23 04.11.2020
5890 Clear 30 1012 55 10000 5.1 350 14:46 04.11.2020
5891 Clear 31 1012 48 10000 6.2 320 14:25 04.11.2020
5892 Clear 31 1012 48 10000 6.2 320 13:52 04.11.2020
5893 Clear 32 1012 45 10000 6.7 320 13:22 04.11.2020
5894 Clear 32 1012 45 10000 6.7 320 12:59 04.11.2020
5895 Clear 32 1012 45 10000 6.7 320 12:59 04.11.2020
5896 Clear 32 1012 45 10000 6.7 320 12:41 04.11.2020
5897 Clear 32 1012 48 10000 5.7 330 12:22 04.11.2020
5898 Clear 32 1012 48 10000 5.7 330 11:46 04.11.2020
5899 Clear 32 1013 52 10000 5.7 310 11:23 04.11.2020
5900 Clear 32 1013 52 10000 5.7 310 10:49 04.11.2020
5901 Clear 31 1013 52 10000 5.7 310 10:24 04.11.2020
5902 Clear 31 1014 48 10000 4.1 310 10:24 04.11.2020
5903 Clear 31 1014 48 10000 4.1 310 09:56 04.11.2020
5904 Clear 30 1014 48 10000 4.1 310 09:28 04.11.2020
5905 Clear 30 1015 55 10000 2.1 0 08:50 04.11.2020
5906 Clear 29 1015 55 10000 2.1 0 08:23 04.11.2020
5907 Clear 28 1015 61 6000 0.5 0 07:58 04.11.2020
5908 Clear 28 1015 61 6000 0.5 0 07:37 04.11.2020
5909 Haze 27 1015 69 5000 2.1 160 07:18 04.11.2020
5910 Haze 26 1015 69 5000 2.1 160 06:39 04.11.2020
5911 Haze 22 1015 88 2000 1.5 0 04:59 04.11.2020
5912 Haze 24 1014 78 4000 1.5 170 02:31 04.11.2020
5913 Haze 24 1014 83 5000 2.1 160 01:38 04.11.2020
5914 Clear 25 1015 78 6000 1.5 160 23:59 03.11.2020
5915 Clear 25 1015 78 6000 1.5 160 23:26 03.11.2020
5916 Clear 25 1015 69 7000 2.1 170 22:55 03.11.2020
5917 Clear 26 1015 69 7000 2.1 170 22:37 03.11.2020
5918 Clear 26 1015 65 10000 1 170 22:18 03.11.2020
5919 Clear 27 1015 65 10000 1 170 21:41 03.11.2020
5920 Clear 27 1015 61 10000 1 0 21:23 03.11.2020
5921 Clear 28 1015 61 10000 1 0 20:48 03.11.2020
5922 Clear 28 1015 61 10000 1 0 20:27 03.11.2020
5923 Clear 29 1015 54 10000 1.5 20 19:55 03.11.2020
5924 Clear 29 1015 54 10000 1.5 20 19:37 03.11.2020
5925 Clear 28 1016 58 10000 2.6 360 19:18 03.11.2020
5926 Clear 29 1016 58 10000 2.6 360 18:40 03.11.2020
5927 Clear 29 1015 58 10000 3.1 350 18:19 03.11.2020
5928 Clear 29 1015 58 10000 3.1 350 17:46 03.11.2020
5929 Clear 29 1015 58 10000 3.1 350 17:27 03.11.2020
5930 Clear 29 1015 58 10000 5.1 340 16:51 03.11.2020
5931 Clear 29 1015 58 10000 5.1 340 16:30 03.11.2020
5932 Clear 30 1014 48 10000 5.7 330 15:53 03.11.2020
5933 Clear 30 1014 48 10000 5.7 330 15:30 03.11.2020
5934 Clear 31 1014 52 10000 6.2 320 14:57 03.11.2020
5935 Clear 31 1014 52 10000 6.2 320 14:38 03.11.2020
5936 Clear 31 1014 48 10000 6.2 320 14:19 03.11.2020
5937 Clear 32 1014 48 10000 6.2 320 13:41 03.11.2020
5938 Clear 33 1014 40 10000 6.7 310 13:21 03.11.2020
5939 Clear 33 1014 40 10000 6.7 310 12:44 03.11.2020
5940 Clear 33 1015 35 10000 5.1 310 12:21 03.11.2020
5941 Clear 33 1015 35 10000 5.1 310 11:46 03.11.2020
5942 Clear 33 1015 40 10000 4.1 340 11:24 03.11.2020
5943 Clear 33 1015 40 10000 4.1 340 10:55 03.11.2020
5944 Clear 32 1015 40 10000 4.1 340 10:37 03.11.2020
5945 Clear 32 1016 40 10000 3.6 310 10:18 03.11.2020
5946 Clear 32 1016 40 10000 3.6 310 09:44 03.11.2020
5947 Clear 31 1016 40 10000 3.6 310 09:22 03.11.2020
5948 Clear 30 1017 55 10000 1 0 08:48 03.11.2020
5949 Clear 30 1017 55 10000 1 0 08:29 03.11.2020
5950 Clear 27 1018 65 7000 1.5 250 07:41 03.11.2020
5951 Haze 26 1018 69 5000 2.1 180 07:19 03.11.2020
5952 Haze 25 1017 78 3500 2.1 160 06:21 03.11.2020
5953 Clear 24 1016 83 4000 2.1 150 03:59 03.11.2020
5954 Clear 25 1016 83 6000 1 0 00:44 03.11.2020
5955 Clear 25 1016 78 6000 2.1 0 00:20 03.11.2020
5956 Clear 26 1016 78 6000 1.5 0 23:42 02.11.2020
5957 Clear 26 1016 78 6000 1.5 0 22:57 02.11.2020
5958 Clear 26 1016 78 6000 1.5 0 22:39 02.11.2020
5959 Clear 26 1016 74 8000 2.1 140 22:21 02.11.2020
5960 Clear 27 1016 74 8000 2.1 140 21:39 02.11.2020
5961 Clear 27 1017 65 10000 1.5 360 21:20 02.11.2020
5962 Clear 27 1017 65 10000 1.5 360 20:55 02.11.2020
5963 Clear 28 1017 65 10000 1.5 360 20:36 02.11.2020
5964 Clear 28 1017 65 10000 1 0 20:18 02.11.2020
5965 Clear 28 1017 65 10000 1 0 20:18 02.11.2020
5966 Clear 28 1017 65 10000 1 0 19:42 02.11.2020
5967 Clear 28 1017 65 10000 1 0 19:22 02.11.2020
5968 Clear 29 1017 62 10000 2.6 350 18:42 02.11.2020
5969 Clear 29 1017 62 10000 3.1 350 18:21 02.11.2020
5970 Clear 29 1017 62 10000 3.1 350 17:56 02.11.2020
5971 Clear 29 1017 62 10000 3.1 350 17:38 02.11.2020
5972 Clear 29 1016 66 10000 3.6 340 17:19 02.11.2020
5973 Clear 29 1016 66 10000 3.6 340 16:40 02.11.2020
5974 Clear 29 1016 66 10000 3.6 340 16:40 02.11.2020
5975 Clear 29 1016 66 10000 5.1 340 16:22 02.11.2020
5976 Clear 29 1016 66 10000 5.1 340 15:40 02.11.2020
5977 Clear 30 1016 58 10000 5.7 330 15:21 02.11.2020
5978 Clear 30 1016 58 10000 5.7 330 14:53 02.11.2020
5979 Clear 30 1016 58 10000 5.7 330 14:53 02.11.2020
5980 Clear 30 1016 58 10000 5.7 330 14:20 02.11.2020
5981 Clear 31 1016 58 10000 5.7 330 13:54 02.11.2020
5982 Clear 31 1016 55 10000 5.7 340 13:23 02.11.2020
5983 Clear 31 1016 55 10000 5.7 340 13:23 02.11.2020
5984 Clear 31 1016 55 10000 5.7 340 12:59 02.11.2020
5985 Clear 31 1016 55 10000 5.7 340 12:31 02.11.2020
5986 Clear 31 1015 55 10000 5.7 320 11:58 02.11.2020
5987 Clear 32 1016 55 10000 5.7 320 11:38 02.11.2020
5988 Clear 32 1017 49 10000 1.5 0 11:19 02.11.2020
5989 Clear 32 1017 49 10000 1.5 0 10:42 02.11.2020
5990 Clear 32 1017 48 10000 1.5 330 10:21 02.11.2020
5991 Clear 31 1017 48 10000 1.5 330 09:49 02.11.2020
5992 Clear 31 1017 48 10000 1.5 330 09:24 02.11.2020
5993 Clear 30 1018 55 10000 0.5 0 08:42 02.11.2020
5994 Clear 28 1019 65 7000 2.1 180 08:22 02.11.2020
5995 Clear 28 1019 65 7000 2.1 180 07:50 02.11.2020
5996 Clear 26 1018 69 6000 1.5 170 06:59 02.11.2020
5997 Clear 26 1018 69 6000 1.5 170 06:36 02.11.2020
5998 Haze 23 1017 78 4500 1.5 160 03:27 02.11.2020
5999 Haze 23 1016 83 5000 2.1 140 01:24 02.11.2020
6000 Clear 23 1016 78 6000 2.6 130 01:24 02.11.2020
6001 Clear 24 1016 78 6000 2.6 130 00:35 02.11.2020
6002 Clear 25 1016 73 7000 1 0 23:41 01.11.2020
6003 Clear 25 1016 73 7000 1 0 23:23 01.11.2020
6004 Clear 25 1016 69 7000 1.5 120 22:46 01.11.2020
6005 Clear 25 1016 69 7000 1.5 120 22:25 01.11.2020
6006 Clear 25 1016 69 7000 1.5 120 22:25 01.11.2020
6007 Clear 25 1016 74 7000 1.5 100 21:58 01.11.2020
6008 Clear 26 1016 74 7000 1.5 100 21:38 01.11.2020
6009 Clear 26 1017 74 7000 2.1 100 21:20 01.11.2020
6010 Clear 26 1017 74 7000 2.1 100 20:42 01.11.2020
6011 Clear 26 1016 74 7000 3.1 110 20:23 01.11.2020
6012 Clear 27 1016 74 7000 3.1 110 19:43 01.11.2020
6013 Clear 27 1016 74 7000 3.1 110 19:24 01.11.2020
6014 Clear 28 1016 69 10000 1.5 60 18:44 01.11.2020
6015 Clear 29 1016 66 10000 3.1 350 18:20 01.11.2020
6016 Clear 29 1016 66 10000 3.1 350 17:59 01.11.2020
6017 Clear 29 1016 66 10000 3.1 350 17:41 01.11.2020
6018 Clear 29 1015 66 10000 4.6 330 17:21 01.11.2020
6019 Clear 29 1015 66 10000 4.6 330 16:41 01.11.2020
6020 Clear 29 1015 66 8000 5.1 340 16:19 01.11.2020
6021 Clear 29 1015 66 8000 5.1 340 16:19 01.11.2020
6022 Clear 29 1015 66 8000 5.1 340 15:42 01.11.2020
6023 Clear 30 1015 55 8000 5.1 340 15:22 01.11.2020
6024 Clear 30 1015 55 8000 5.1 340 14:59 01.11.2020
6025 Clear 30 1015 55 8000 5.1 340 14:41 01.11.2020
6026 Clear 30 1015 58 8000 5.7 340 14:21 01.11.2020
6027 Clear 31 1015 58 8000 5.7 340 13:48 01.11.2020
6028 Clear 31 1015 58 8000 5.7 340 13:30 01.11.2020
6029 Clear 32 1015 48 8000 5.1 330 12:44 01.11.2020
6030 Clear 32 1015 46 8000 4.1 330 12:24 01.11.2020
6031 Clear 32 1015 46 8000 4.1 330 11:52 01.11.2020
6032 Clear 33 1016 18 10000 2.1 0 11:19 01.11.2020
6033 Clear 32 1016 18 10000 2.1 0 10:55 01.11.2020
6034 Clear 32 1016 18 10000 2.1 0 10:37 01.11.2020
6035 Clear 31 1017 31 10000 1.5 0 10:19 01.11.2020
6036 Clear 31 1017 31 10000 1.5 0 09:43 01.11.2020
6037 Clear 29 1018 42 10000 2.6 0 08:47 01.11.2020
6038 Clear 27 1018 74 6000 3.6 170 08:24 01.11.2020
6039 Clear 27 1018 74 6000 3.6 170 07:43 01.11.2020
6040 Haze 22 1016 88 1500 1 0 04:31 01.11.2020
6041 Haze 24 1014 83 4500 2.6 110 01:52 01.11.2020
6042 Haze 24 1014 83 4500 2.6 110 01:52 01.11.2020
6043 Clear 25 1015 83 6000 2.1 0 00:43 01.11.2020
6044 Clear 25 1015 78 7000 1.5 100 23:28 31.10.2020
6045 Clear 25 1015 83 6000 1.5 100 22:58 31.10.2020
6046 Clear 25 1015 83 6000 1.5 100 22:40 31.10.2020
6047 Clear 25 1015 78 6000 1.5 70 22:21 31.10.2020
6048 Clear 25 1015 78 6000 1.5 70 21:44 31.10.2020
6049 Clear 26 1015 78 6000 2.6 110 21:20 31.10.2020
6050 Clear 26 1015 78 6000 2.6 110 20:38 31.10.2020
6051 Clear 27 1015 74 7000 3.1 110 20:18 31.10.2020
6052 Clear 27 1015 74 7000 3.1 110 19:41 31.10.2020
6053 Clear 27 1015 74 7000 3.1 110 19:23 31.10.2020
6054 Clear 28 1015 69 10000 1.5 40 18:47 31.10.2020
6055 Clear 28 1015 69 10000 1.5 40 18:28 31.10.2020
6056 Clear 29 1015 62 10000 3.1 360 17:41 31.10.2020
6057 Clear 29 1014 66 8000 4.1 340 17:22 31.10.2020
6058 Clear 29 1014 66 8000 4.1 340 16:46 31.10.2020
6059 Clear 29 1014 66 8000 4.1 340 16:28 31.10.2020
6060 Clear 29 1014 62 6000 5.7 340 15:54 31.10.2020
6061 Clear 30 1014 55 8000 6.2 340 15:25 31.10.2020
6062 Clear 30 1014 55 8000 6.2 340 14:53 31.10.2020
6063 Clear 31 1014 55 8000 6.2 340 14:31 31.10.2020
6064 Clear 31 1014 52 8000 6.2 340 13:52 31.10.2020
6065 Clear 31 1014 52 8000 6.2 340 13:28 31.10.2020
6066 Clear 31 1014 52 8000 5.7 340 12:48 31.10.2020
6067 Clear 32 1014 52 10000 6.7 340 12:21 31.10.2020
6068 Clear 32 1014 52 10000 6.7 340 11:40 31.10.2020
6069 Clear 32 1014 43 10000 2.6 340 11:21 31.10.2020
6070 Clear 32 1014 43 10000 2.6 340 10:40 31.10.2020
6071 Clear 32 1015 26 10000 1.5 290 09:56 31.10.2020
6072 Clear 32 1015 26 10000 1.5 290 09:37 31.10.2020
6073 Clear 32 1016 29 10000 0.5 0 09:18 31.10.2020
6074 Clear 30 1016 29 10000 0.5 0 08:22 31.10.2020
6075 Clear 27 1017 58 10000 1 0 07:29 31.10.2020
6076 Clear 27 1016 65 10000 1.5 130 06:56 31.10.2020
6077 Clear 27 1016 65 10000 1.5 130 06:36 31.10.2020
6078 Clear 22 1015 78 8000 0.5 0 03:47 31.10.2020
6079 Clear 23 1014 78 8000 2.1 90 02:27 31.10.2020
6080 Clear 24 1014 73 10000 1.5 120 00:52 31.10.2020
6081 Clear 24 1014 73 10000 2.1 110 23:54 30.10.2020
6082 Clear 24 1014 73 10000 2.1 110 23:30 30.10.2020
6083 Clear 24 1014 73 10000 2.1 110 23:30 30.10.2020
6084 Clear 25 1014 65 10000 1.5 70 22:59 30.10.2020
6085 Clear 25 1014 65 10000 1.5 70 22:38 30.10.2020
6086 Clear 26 1014 57 10000 0.5 210 22:19 30.10.2020
6087 Clear 26 1014 57 10000 0.5 210 22:19 30.10.2020
6088 Clear 26 1014 57 10000 0.5 210 21:47 30.10.2020
6089 Clear 26 1014 57 10000 0.5 210 21:26 30.10.2020
6090 Clear 27 1015 61 10000 0.5 170 20:45 30.10.2020
6091 Clear 27 1015 61 10000 0.5 170 20:26 30.10.2020
6092 Clear 27 1015 61 10000 1.5 100 19:56 30.10.2020
6093 Clear 27 1015 61 10000 1.5 100 19:22 30.10.2020
6094 Clear 28 1015 58 10000 2.6 40 18:59 30.10.2020
6095 Clear 28 1015 58 10000 2.6 40 18:59 30.10.2020
6096 Clear 28 1015 58 10000 2.6 40 18:41 30.10.2020
6097 Clear 29 1014 54 10000 2.1 50 18:22 30.10.2020
6098 Clear 29 1014 54 10000 2.1 50 17:43 30.10.2020
6099 Clear 29 1014 45 10000 2.1 350 17:20 30.10.2020
6100 Clear 30 1014 45 10000 2.1 350 16:50 30.10.2020
6101 Clear 29 1014 45 10000 2.1 350 16:24 30.10.2020
6102 Clear 30 1013 45 10000 4.1 340 15:41 30.10.2020
6103 Clear 31 1013 43 10000 5.1 350 15:21 30.10.2020
6104 Clear 31 1013 43 10000 5.1 350 14:55 30.10.2020
6105 Clear 31 1013 43 10000 5.1 350 14:36 30.10.2020
6106 Clear 32 1013 38 10000 6.7 350 14:18 30.10.2020
6107 Clear 32 1013 38 10000 6.7 350 13:41 30.10.2020
6108 Clear 32 1013 25 10000 6.2 340 13:19 30.10.2020
6109 Clear 32 1013 25 10000 6.2 340 12:41 30.10.2020
6110 Clear 33 1013 26 10000 5.1 320 12:21 30.10.2020
6111 Clear 33 1013 26 10000 5.1 320 11:44 30.10.2020
6112 Clear 33 1014 31 10000 5.1 320 11:20 30.10.2020
6113 Clear 33 1014 31 10000 5.1 320 10:50 30.10.2020
6114 Clear 34 1014 31 10000 5.1 320 10:25 30.10.2020
6115 Clear 34 1015 18 10000 1.5 100 09:46 30.10.2020
6116 Clear 33 1015 18 10000 1.5 100 09:24 30.10.2020
6117 Clear 33 1016 24 10000 1 0 08:55 30.10.2020
6118 Clear 32 1016 24 10000 1 0 08:31 30.10.2020
6119 Clear 29 1016 42 10000 2.6 70 07:51 30.10.2020
6120 Clear 28 1016 42 10000 2.6 70 07:33 30.10.2020
6121 Clear 26 1016 65 10000 1.5 90 06:47 30.10.2020
6122 Clear 20 1015 68 10000 1.5 110 05:22 30.10.2020
6123 Clear 22 1014 56 10000 1.5 110 02:28 30.10.2020
6124 Clear 24 1014 53 10000 2.1 130 00:43 30.10.2020
6125 Clear 24 1014 65 10000 1 100 23:50 29.10.2020
6126 Clear 24 1014 65 10000 1 100 23:31 29.10.2020
6127 Clear 25 1014 65 10000 1.5 50 22:59 29.10.2020
6128 Clear 25 1014 65 10000 1.5 50 22:40 29.10.2020
6129 Clear 25 1014 65 10000 1.5 90 22:22 29.10.2020
6130 Clear 26 1014 65 10000 1.5 90 21:39 29.10.2020
6131 Clear 26 1014 57 10000 1 0 21:20 29.10.2020
6132 Clear 27 1014 57 10000 1 0 20:42 29.10.2020
6133 Clear 27 1014 51 10000 1.5 60 20:19 29.10.2020
6134 Clear 27 1014 51 10000 1.5 60 19:43 29.10.2020
6135 Clear 27 1014 58 10000 1 0 19:22 29.10.2020
6136 Clear 28 1014 58 10000 1 0 18:55 29.10.2020
6137 Clear 28 1014 58 10000 1 0 18:36 29.10.2020
6138 Clear 29 1014 54 10000 1.5 50 18:18 29.10.2020
6139 Clear 29 1014 54 10000 1.5 50 17:40 29.10.2020
6140 Clear 29 1014 51 10000 3.1 30 17:20 29.10.2020
6141 Clear 29 1014 51 10000 3.1 30 16:46 29.10.2020
6142 Clear 30 1013 48 10000 3.6 30 16:20 29.10.2020
6143 Clear 30 1013 48 10000 3.6 30 15:56 29.10.2020
6144 Clear 30 1013 48 10000 3.6 30 15:38 29.10.2020
6145 Clear 30 1013 48 10000 3.6 30 15:19 29.10.2020
6146 Clear 30 1013 48 10000 3.6 30 14:45 29.10.2020
6147 Clear 32 1012 45 10000 5.7 350 14:23 29.10.2020
6148 Clear 32 1012 45 10000 5.7 350 14:23 29.10.2020
6149 Clear 32 1012 45 10000 5.7 350 13:47 29.10.2020
6150 Clear 32 1012 45 10000 5.7 350 13:28 29.10.2020
6151 Clear 32 1012 48 10000 6.2 340 12:44 29.10.2020
6152 Clear 33 1013 40 10000 6.2 340 12:20 29.10.2020
6153 Clear 33 1013 40 10000 6.2 340 11:58 29.10.2020
6154 Clear 33 1013 40 10000 6.2 340 11:39 29.10.2020
6155 Clear 33 1014 38 10000 4.1 340 11:20 29.10.2020
6156 Clear 33 1014 38 10000 4.1 340 10:37 29.10.2020
6157 Clear 33 1014 38 10000 4.1 340 10:37 29.10.2020
6158 Clear 33 1014 38 10000 4.1 340 10:37 29.10.2020
6159 Clear 33 1014 35 10000 3.6 320 10:19 29.10.2020
6160 Clear 33 1014 35 10000 3.6 320 09:50 29.10.2020
6161 Clear 32 1014 35 10000 3.6 320 09:26 29.10.2020
6162 Clear 32 1015 38 10000 1.5 80 08:48 29.10.2020
6163 Clear 32 1015 38 10000 1.5 80 08:26 29.10.2020
6164 Clear 31 1015 55 10000 2.68 20 07:52 29.10.2020
6165 Clear 27 1015 61 10000 0.5 0 07:23 29.10.2020
6166 Clear 27 1015 61 10000 0.5 0 06:53 29.10.2020
6167 Clear 22 1014 69 10000 1 0 04:50 29.10.2020
6168 Clear 24 1013 64 10000 1.34 90 02:32 29.10.2020
6169 Clear 25 1013 61 10000 2.68 70 00:45 29.10.2020
6170 Clear 25 1013 61 10000 1.34 120 00:23 29.10.2020
6171 Clear 25 1013 61 10000 1.34 120 23:43 28.10.2020
6172 Clear 25 1013 54 10000 0.45 0 23:20 28.10.2020
6173 Clear 25 1013 54 10000 0.45 0 22:44 28.10.2020
6174 Clear 26 1014 51 10000 1 0 22:26 28.10.2020
6175 Clear 26 1014 51 10000 1 0 21:46 28.10.2020
6176 Clear 27 1014 51 10000 1 0 21:26 28.10.2020
6177 Clear 27 1014 51 10000 1.5 80 20:59 28.10.2020
6178 Clear 27 1014 51 10000 1.5 80 20:40 28.10.2020
6179 Clear 27 1014 51 10000 1.5 50 20:18 28.10.2020
6180 Clear 28 1014 51 10000 1.5 50 19:45 28.10.2020
6181 Clear 29 1014 48 10000 2.6 40 19:26 28.10.2020
6182 Clear 28 1014 48 10000 2.68 40 18:43 28.10.2020
6183 Clear 29 1014 45 10000 3.1 20 18:20 28.10.2020
6184 Clear 29 1014 45 10000 3.1 20 17:44 28.10.2020
6185 Clear 29 1013 45 10000 3.1 10 17:22 28.10.2020
6186 Clear 30 1013 40 10000 5.1 340 16:49 28.10.2020
6187 Clear 30 1013 40 10000 5.1 340 16:30 28.10.2020
6188 Clear 30 1013 40 10000 5.1 340 15:45 28.10.2020
6189 Clear 31 1012 35 10000 6.26 350 15:20 28.10.2020
6190 Clear 28 1012 53 10000 4.85 357 14:57 28.10.2020
6191 Clear 32 1012 29 10000 6.7 340 14:38 28.10.2020
6192 Clear 31 1015 24 10000 1.34 20 14:18 28.10.2020
6193 Clear 31 1015 24 10000 1.34 20 12:39 28.10.2020
6194 Clear 31 1015 24 10000 1.34 20 12:20 28.10.2020
6195 Clear 32 1013 21 10000 6.2 330 11:44 28.10.2020
6196 Clear 31 1013 21 10000 6.26 330 11:23 28.10.2020
6197 Clear 31 1015 24 10000 1.34 20 10:59 28.10.2020
6198 Clear 32 1014 22 10000 1.5 0 10:40 28.10.2020
6199 Clear 31 1014 22 10000 1.34 0 10:22 28.10.2020
6200 Clear 31 1015 29 10000 2.1 40 09:39 28.10.2020
6201 Clear 31 1015 29 10000 2.1 40 09:21 28.10.2020
6202 Clear 31 1015 29 10000 2.1 40 08:48 28.10.2020
6203 Clear 30 1015 29 10000 2.1 40 08:27 28.10.2020
6204 Clear 29 1015 45 10000 1.5 50 07:48 28.10.2020
6205 Clear 28 1015 45 10000 1.5 50 07:30 28.10.2020
6206 Clear 28 1015 54 10000 2.1 100 06:41 28.10.2020
6207 Clear 25 1015 65 10000 2.1 120 05:51 28.10.2020
6208 Clear 23 1014 64 10000 1.5 140 04:54 28.10.2020
6209 Clear 23 1014 64 10000 1.5 140 04:25 28.10.2020
6210 Clear 24 1013 69 10000 2.1 90 02:26 28.10.2020
6211 Clear 24 1013 69 10000 1.5 140 01:49 28.10.2020
6212 Clear 25 1013 61 10000 1.5 190 23:57 27.10.2020
6213 Clear 25 1013 61 10000 1.5 190 23:38 27.10.2020
6214 Clear 25 1013 57 10000 1.5 80 23:20 27.10.2020
6215 Clear 26 1013 57 10000 1.5 80 22:42 27.10.2020
6216 Clear 26 1013 54 10000 2.1 60 22:19 27.10.2020
6217 Clear 26 1013 54 10000 2.1 60 21:55 27.10.2020
6218 Clear 26 1013 54 10000 2.1 60 21:37 27.10.2020
6219 Clear 26 1013 54 10000 2.1 60 21:37 27.10.2020
6220 Clear 26 1013 54 10000 2.1 60 21:37 27.10.2020
6221 Clear 26 1014 51 10000 2.1 90 21:18 27.10.2020
6222 Clear 27 1014 51 10000 2.1 90 20:43 27.10.2020
6223 Clear 27 1014 51 10000 2.1 90 20:22 27.10.2020
6224 Clear 28 1014 48 10000 2.1 60 19:39 27.10.2020
6225 Clear 28 1014 48 10000 2.1 60 19:21 27.10.2020
6226 Clear 29 1014 45 10000 2.1 30 18:58 27.10.2020
6227 Clear 29 1014 45 10000 2.1 30 18:40 27.10.2020
6228 Clear 29 1013 42 10000 2.6 40 18:19 27.10.2020
6229 Clear 28 1013 42 10000 2.6 40 17:43 27.10.2020
6230 Clear 30 1012 35 10000 3.6 360 17:21 27.10.2020
6231 Clear 30 1012 35 10000 3.6 360 16:49 27.10.2020
6232 Clear 30 1012 35 10000 3.6 360 16:30 27.10.2020
6233 Clear 30 1012 35 10000 3.6 360 16:30 27.10.2020
6234 Clear 30 1012 30 10000 4.1 350 15:55 27.10.2020
6235 Clear 30 1012 30 10000 4.1 350 15:37 27.10.2020
6236 Clear 31 1012 22 10000 5.1 350 15:18 27.10.2020
6237 Clear 31 1012 22 10000 5.1 350 14:42 27.10.2020
6238 Clear 32 1012 18 10000 5.7 340 14:23 27.10.2020
6239 Clear 32 1012 18 10000 5.7 340 13:46 27.10.2020
6240 Clear 32 1012 25 10000 5.1 320 13:22 27.10.2020
6241 Clear 32 1012 25 10000 5.1 320 12:40 27.10.2020
6242 Clear 33 1012 25 10000 4.1 330 12:22 27.10.2020
6243 Clear 32 1012 25 10000 4.1 330 11:42 27.10.2020
6244 Clear 32 1012 25 10000 4.1 330 11:24 27.10.2020
6245 Clear 32 1013 22 10000 1.5 150 10:47 27.10.2020
6246 Clear 31 1014 31 10000 2.6 260 10:29 27.10.2020
6247 Clear 31 1014 31 10000 2.6 260 09:47 27.10.2020
6248 Clear 30 1014 31 10000 2.6 260 09:26 27.10.2020
6249 Clear 29 1015 37 10000 2.6 240 08:41 27.10.2020
6250 Clear 28 1015 42 10000 3.6 200 08:22 27.10.2020
6251 Clear 27 1015 42 10000 3.6 200 07:46 27.10.2020
6252 Clear 26 1015 42 10000 3.6 200 07:28 27.10.2020
6253 Clear 26 1015 44 10000 4.1 190 06:38 27.10.2020
6254 Clear 24 1015 35 10000 3.6 160 06:19 27.10.2020
6255 Clear 23 1015 35 10000 3.6 160 05:41 27.10.2020
6256 Clear 21 1014 40 10000 3.1 140 04:50 27.10.2020
6257 Clear 24 1012 36 10000 2.1 90 02:35 27.10.2020
6258 Clear 24 1012 36 10000 2.1 100 00:58 27.10.2020
6259 Clear 25 1012 36 10000 3.1 330 23:47 26.10.2020
6260 Clear 25 1012 36 10000 3.1 330 23:29 26.10.2020
6261 Clear 25 1013 34 10000 1.5 130 22:51 26.10.2020
6262 Clear 25 1013 34 10000 1.5 130 22:27 26.10.2020
6263 Clear 26 1013 36 10000 2.6 100 21:50 26.10.2020
6264 Clear 27 1013 42 10000 2.6 80 21:21 26.10.2020
6265 Clear 27 1013 42 10000 2.6 80 20:58 26.10.2020
6266 Clear 28 1013 42 10000 2.6 80 20:40 26.10.2020
6267 Clear 27 1013 39 10000 2.1 60 20:21 26.10.2020
6268 Clear 29 1013 39 10000 2.1 60 19:47 26.10.2020
6269 Clear 29 1013 39 10000 2.1 60 19:25 26.10.2020
6270 Clear 29 1013 45 10000 2.6 40 18:46 26.10.2020
6271 Clear 29 1013 45 10000 2.6 40 18:25 26.10.2020
6272 Clear 29 1013 48 10000 3.1 50 17:59 26.10.2020
6273 Clear 29 1013 48 10000 3.1 50 17:39 26.10.2020
6274 Clear 30 1013 48 10000 4.1 30 17:21 26.10.2020
6275 Clear 30 1013 48 10000 4.1 30 16:43 26.10.2020
6276 Clear 30 1012 45 10000 4.6 20 16:21 26.10.2020
6277 Clear 30 1012 45 10000 4.6 20 15:43 26.10.2020
6278 Clear 31 1012 43 10000 6.2 340 15:25 26.10.2020
6279 Clear 31 1012 43 10000 6.2 340 14:53 26.10.2020
6280 Clear 31 1012 43 10000 6.2 340 14:34 26.10.2020
6281 Clear 31 1012 35 10000 6.7 340 13:45 26.10.2020
6282 Clear 32 1012 35 10000 6.7 340 13:25 26.10.2020
6283 Clear 32 1012 29 10000 5.7 350 12:55 26.10.2020
6284 Clear 32 1012 29 10000 5.7 350 12:32 26.10.2020
6285 Clear 33 1012 24 10000 5.7 340 11:57 26.10.2020
6286 Clear 34 1012 24 10000 5.7 340 11:39 26.10.2020
6287 Clear 34 1013 17 10000 2.1 0 11:21 26.10.2020
6288 Clear 34 1013 17 10000 2.1 0 10:48 26.10.2020
6289 Clear 33 1013 17 10000 2.1 0 10:26 26.10.2020
6290 Clear 32 1014 22 10000 1 0 09:56 26.10.2020
6291 Clear 31 1015 25 10000 3.1 190 09:31 26.10.2020
6292 Clear 31 1015 25 10000 3.1 190 08:54 26.10.2020
6293 Clear 29 1015 25 10000 3.1 190 08:24 26.10.2020
6294 Clear 28 1016 34 10000 3.6 230 07:40 26.10.2020
6295 Clear 27 1016 34 10000 3.6 200 07:21 26.10.2020
6296 Clear 24 1015 50 10000 5.1 180 05:31 26.10.2020
6297 Clear 23 1013 53 10000 1.5 90 04:19 26.10.2020
6298 Clear 23 1013 53 10000 1.5 80 03:21 26.10.2020
6299 Clear 25 1012 50 10000 1.5 90 01:34 26.10.2020
6300 Clear 25 1012 47 10000 2.1 100 00:35 26.10.2020
6301 Clear 25 1012 50 10000 0.5 0 23:47 25.10.2020
6302 Clear 26 1012 50 10000 0.5 0 23:28 25.10.2020
6303 Clear 26 1013 44 10000 2.6 100 22:47 25.10.2020
6304 Clear 27 1013 44 10000 2.6 100 22:28 25.10.2020
6305 Clear 28 1013 35 10000 1.5 30 21:51 25.10.2020
6306 Clear 28 1013 35 10000 1.5 30 21:31 25.10.2020
6307 Clear 28 1013 32 10000 1 0 20:59 25.10.2020
6308 Clear 29 1013 32 10000 1 0 20:41 25.10.2020
6309 Clear 29 1013 42 10000 1.5 100 20:23 25.10.2020
6310 Clear 29 1013 42 10000 1.5 100 19:55 25.10.2020
6311 Clear 29 1013 42 10000 1.5 100 19:37 25.10.2020
6312 Clear 29 1013 45 10000 2.6 80 19:18 25.10.2020
6313 Clear 29 1013 45 10000 2.6 80 18:41 25.10.2020
6314 Clear 30 1012 45 10000 3.1 70 18:22 25.10.2020
6315 Clear 30 1012 45 10000 3.1 70 17:55 25.10.2020
6316 Clear 30 1012 45 10000 3.1 70 17:37 25.10.2020
6317 Clear 30 1012 45 10000 3.6 20 17:18 25.10.2020
6318 Clear 30 1012 45 10000 3.6 20 17:18 25.10.2020
6319 Clear 30 1012 45 10000 3.6 20 16:43 25.10.2020
6320 Clear 31 1012 45 10000 4.6 30 16:23 25.10.2020
6321 Clear 31 1012 45 10000 4.6 30 15:47 25.10.2020
6322 Clear 31 1012 45 10000 4.6 30 15:47 25.10.2020
6323 Clear 31 1012 45 10000 4.6 30 15:26 25.10.2020
6324 Clear 31 1011 43 10000 5.1 10 14:52 25.10.2020
6325 Clear 32 1011 43 10000 5.1 10 14:29 25.10.2020
6326 Clear 32 1011 40 10000 5.1 350 13:44 25.10.2020
6327 Clear 33 1011 33 10000 5.7 10 13:24 25.10.2020
6328 Clear 33 1011 33 10000 5.7 10 12:50 25.10.2020
6329 Clear 33 1011 33 10000 5.7 10 12:27 25.10.2020
6330 Clear 33 1012 26 10000 6.7 350 11:58 25.10.2020
6331 Clear 33 1012 26 10000 6.7 350 11:40 25.10.2020
6332 Clear 35 1012 15 10000 2.1 0 11:19 25.10.2020
6333 Clear 35 1012 15 10000 2.1 0 10:45 25.10.2020
6334 Clear 35 1013 16 10000 3.1 0 10:25 25.10.2020
6335 Clear 34 1013 16 10000 3.1 0 09:50 25.10.2020
6336 Clear 33 1014 25 10000 4.1 150 09:21 25.10.2020
6337 Clear 32 1014 25 10000 4.1 150 08:56 25.10.2020
6338 Clear 32 1014 25 10000 4.1 150 08:37 25.10.2020
6339 Clear 31 1015 23 10000 3.1 150 08:19 25.10.2020
6340 Clear 30 1015 23 10000 3.1 150 07:42 25.10.2020
6341 Clear 29 1015 21 10000 3.6 160 06:52 25.10.2020
6342 Clear 28 1015 21 10000 3.6 160 06:26 25.10.2020
6343 Clear 24 1013 50 10000 1.5 90 05:19 25.10.2020
6344 Clear 23 1012 53 10000 1.5 70 04:23 25.10.2020
6345 Clear 25 1012 50 10000 2.1 80 02:21 25.10.2020
6346 Clear 25 1012 51 10000 1.5 130 00:53 25.10.2020
6347 Clear 26 1012 51 10000 1.5 130 00:28 25.10.2020
6348 Clear 27 1012 45 10000 2.1 350 23:54 24.10.2020
6349 Clear 27 1012 45 10000 2.1 350 23:31 24.10.2020
6350 Clear 27 1012 45 10000 0.5 0 22:58 24.10.2020
6351 Clear 27 1012 45 10000 0.5 0 22:39 24.10.2020
6352 Clear 27 1012 48 10000 1 0 22:21 24.10.2020
6353 Clear 28 1012 48 10000 1 0 21:43 24.10.2020
6354 Clear 28 1012 48 10000 1 0 21:21 24.10.2020
6355 Clear 29 1013 45 10000 1.5 100 20:50 24.10.2020
6356 Clear 29 1013 45 10000 1.5 100 20:27 24.10.2020
6357 Clear 28 1013 45 10000 1.5 100 19:58 24.10.2020
6358 Clear 28 1013 45 10000 1.5 100 19:40 24.10.2020
6359 Clear 30 1012 42 10000 2.6 50 19:22 24.10.2020
6360 Clear 30 1012 42 10000 2.6 50 19:22 24.10.2020
6361 Clear 30 1012 42 10000 2.6 50 18:47 24.10.2020
6362 Clear 30 1012 42 10000 2.6 50 18:27 24.10.2020
6363 Clear 31 1011 40 10000 3.6 40 17:43 24.10.2020
6364 Clear 31 1011 38 10000 4.6 30 17:25 24.10.2020
6365 Clear 31 1011 38 10000 4.6 30 16:48 24.10.2020
6366 Clear 32 1011 38 10000 4.6 30 16:30 24.10.2020
6367 Clear 32 1010 31 10000 6.2 30 15:42 24.10.2020
6368 Clear 33 1010 29 10000 5.7 20 15:20 24.10.2020
6369 Clear 33 1010 29 10000 5.7 20 14:57 24.10.2020
6370 Clear 34 1010 38 10000 6.7 330 14:29 24.10.2020
6371 Clear 34 1010 38 10000 6.7 330 13:50 24.10.2020
6372 Clear 34 1010 38 10000 6.7 330 13:32 24.10.2020
6373 Clear 34 1010 38 10000 7.7 340 12:59 24.10.2020
6374 Clear 34 1010 38 10000 7.7 340 12:37 24.10.2020
6375 Clear 35 1010 26 10000 5.7 340 12:19 24.10.2020
6376 Clear 34 1010 26 10000 5.7 340 11:45 24.10.2020
6377 Clear 35 1012 9 10000 2.6 0 11:19 24.10.2020
6378 Clear 35 1012 9 10000 2.6 0 10:42 24.10.2020
6379 Clear 34 1012 9 10000 2.6 0 10:24 24.10.2020
6380 Clear 33 1013 10 10000 3.1 90 09:44 24.10.2020
6381 Clear 32 1013 18 10000 2.1 80 09:25 24.10.2020
6382 Clear 32 1013 18 10000 2.1 80 08:54 24.10.2020
6383 Clear 28 1013 48 10000 2.1 80 08:18 24.10.2020
6384 Clear 28 1013 48 10000 2.1 80 08:18 24.10.2020
6385 Clear 28 1013 48 10000 2.1 80 07:49 24.10.2020
6386 Clear 24 1012 57 10000 2.1 100 07:20 24.10.2020
6387 Clear 24 1012 57 10000 2.1 100 06:49 24.10.2020
6388 Clear 21 1011 35 10000 2.1 90 05:27 24.10.2020
6389 Clear 23 1010 50 10000 1.5 40 02:20 24.10.2020
6390 Clear 24 1010 54 10000 2.1 50 00:54 24.10.2020
6391 Clear 26 1010 54 10000 2.1 50 00:36 24.10.2020
6392 Clear 26 1010 47 10000 1.5 40 00:18 24.10.2020
6393 Clear 26 1010 47 10000 1.5 40 23:39 23.10.2020
6394 Clear 26 1010 47 10000 1.5 40 23:20 23.10.2020
6395 Clear 27 1010 45 10000 1 0 22:42 23.10.2020
6396 Clear 27 1010 51 10000 1 0 22:21 23.10.2020
6397 Clear 26 1010 51 10000 1 0 21:53 23.10.2020
6398 Clear 26 1010 51 10000 1 0 21:30 23.10.2020
6399 Clear 26 1010 51 10000 1 0 21:30 23.10.2020
6400 Clear 27 1010 54 10000 2.1 100 20:58 23.10.2020
6401 Clear 27 1010 54 10000 2.1 100 20:38 23.10.2020
6402 Clear 28 1010 48 10000 1.5 90 20:18 23.10.2020
6403 Clear 28 1010 48 10000 1.5 90 19:43 23.10.2020
6404 Clear 28 1010 48 10000 1.5 90 19:25 23.10.2020
6405 Clear 29 1010 45 10000 1.5 50 18:42 23.10.2020
6406 Clear 30 1009 42 10000 2.6 40 18:23 23.10.2020
6407 Clear 30 1009 42 10000 2.6 40 17:45 23.10.2020
6408 Clear 31 1009 35 10000 3.1 20 17:21 23.10.2020
6409 Clear 31 1009 35 10000 3.1 20 16:50 23.10.2020
6410 Clear 31 1009 35 10000 3.1 20 16:30 23.10.2020
6411 Clear 32 1009 45 10000 5.1 20 15:56 23.10.2020
6412 Clear 31 1009 45 10000 5.1 20 15:37 23.10.2020
6413 Clear 31 1008 52 10000 6.2 330 15:19 23.10.2020
6414 Clear 31 1008 52 10000 6.2 330 14:41 23.10.2020
6415 Clear 32 1009 38 10000 6.2 330 14:22 23.10.2020
6416 Clear 32 1009 38 10000 6.2 330 13:40 23.10.2020
6417 Clear 33 1009 36 10000 3.6 330 13:21 23.10.2020
6418 Clear 33 1009 36 10000 3.6 330 12:48 23.10.2020
6419 Clear 32 1009 36 10000 3.6 330 12:28 23.10.2020
6420 Clear 32 1010 38 10000 4.1 340 11:48 23.10.2020
6421 Clear 32 1010 38 10000 4.1 340 11:23 23.10.2020
6422 Clear 33 1011 29 10000 4.1 360 10:48 23.10.2020
6423 Clear 33 1011 29 10000 4.1 360 10:26 23.10.2020
6424 Clear 30 1012 40 10000 3.1 10 09:50 23.10.2020
6425 Clear 29 1012 40 10000 3.1 10 09:27 23.10.2020
6426 Clear 29 1012 58 6000 2.1 10 08:56 23.10.2020
6427 Clear 29 1012 58 6000 2.1 10 08:37 23.10.2020
6428 Clear 27 1012 65 6000 2.1 80 07:47 23.10.2020
6429 Haze 25 1011 69 5000 1.5 120 07:26 23.10.2020
6430 Haze 25 1011 69 5000 1.5 120 06:40 23.10.2020
6431 Haze 22 1010 78 4000 2.1 170 05:58 23.10.2020
6432 Clear 24 1009 73 7000 2.6 150 02:54 23.10.2020
6433 Clear 24 1009 73 7000 2.6 150 02:25 23.10.2020
6434 Clear 25 1009 65 10000 2.1 170 00:48 23.10.2020
6435 Clear 27 1009 61 10000 1.5 170 23:54 22.10.2020
6436 Clear 28 1009 61 10000 1.5 170 23:30 22.10.2020
6437 Clear 27 1010 66 9000 2.1 340 22:54 22.10.2020
6438 Clear 27 1010 66 9000 2.1 340 22:36 22.10.2020
6439 Clear 27 1010 66 9000 1.5 360 22:18 22.10.2020
6440 Clear 27 1010 66 9000 1.5 360 21:42 22.10.2020
6441 Clear 28 1010 66 9000 2.6 330 21:23 22.10.2020
6442 Clear 28 1010 66 9000 2.6 330 20:56 22.10.2020
6443 Clear 28 1010 66 9000 2.6 330 20:37 22.10.2020
6444 Clear 28 1010 58 10000 3.6 340 20:18 22.10.2020
6445 Clear 29 1010 58 10000 3.6 340 19:40 22.10.2020
6446 Clear 29 1010 58 10000 3.1 350 19:19 22.10.2020
6447 Clear 29 1010 58 10000 3.1 350 18:43 22.10.2020
6448 Clear 30 1009 58 10000 3.6 350 18:20 22.10.2020
6449 Clear 30 1009 58 10000 3.6 350 17:46 22.10.2020
6450 Clear 30 1009 58 10000 3.6 350 17:22 22.10.2020
6451 Clear 31 1009 52 10000 5.1 340 16:54 22.10.2020
6452 Clear 31 1009 52 10000 5.1 340 16:36 22.10.2020
6453 Clear 32 1009 35 10000 5.1 350 16:18 22.10.2020
6454 Clear 32 1009 35 10000 5.1 350 15:40 22.10.2020
6455 Clear 33 1009 41 10000 5.1 350 15:22 22.10.2020
6456 Clear 34 1009 41 10000 5.1 350 14:45 22.10.2020
6457 Clear 34 1009 29 10000 5.1 340 14:24 22.10.2020
6458 Clear 34 1009 29 10000 5.1 340 13:48 22.10.2020
6459 Clear 34 1009 29 10000 5.1 340 13:24 22.10.2020
6460 Clear 35 1009 20 10000 5.1 10 12:47 22.10.2020
6461 Clear 35 1009 20 10000 5.1 10 12:23 22.10.2020
6462 Clear 34 1010 9 10000 4.6 330 11:50 22.10.2020
6463 Clear 34 1011 28 10000 3.6 320 11:20 22.10.2020
6464 Clear 34 1011 28 10000 3.6 320 10:49 22.10.2020
6465 Clear 34 1011 28 10000 3.6 320 10:27 22.10.2020
6466 Clear 32 1012 31 10000 2.1 40 09:47 22.10.2020
6467 Clear 30 1013 42 10000 1 0 09:28 22.10.2020
6468 Clear 30 1013 42 10000 1 0 08:49 22.10.2020
6469 Clear 29 1013 42 10000 1 0 08:28 22.10.2020
6470 Clear 28 1013 42 10000 1.5 180 07:57 22.10.2020
6471 Clear 28 1013 42 10000 1.5 180 07:57 22.10.2020
6472 Clear 28 1013 42 10000 1.5 180 07:34 22.10.2020
6473 Clear 25 1012 33 10000 1.5 170 06:58 22.10.2020
6474 Clear 25 1012 33 10000 1.5 170 06:26 22.10.2020
6475 Clear 21 1011 35 10000 1 0 05:40 22.10.2020
6476 Clear 23 1010 31 10000 1.5 170 03:46 22.10.2020
6477 Clear 25 1010 34 10000 1 0 01:43 22.10.2020
6478 Clear 25 1010 39 10000 1.5 160 00:26 22.10.2020
6479 Clear 25 1011 41 10000 2.1 160 23:50 21.10.2020
6480 Clear 26 1011 41 10000 2.1 160 23:31 21.10.2020
6481 Clear 27 1011 37 10000 0.5 0 22:40 21.10.2020
6482 Clear 26 1011 37 10000 1 0 22:19 21.10.2020
6483 Clear 26 1011 37 10000 1 0 21:56 21.10.2020
6484 Clear 27 1011 37 10000 1 0 21:37 21.10.2020
6485 Clear 27 1011 39 10000 2.1 30 21:18 21.10.2020
6486 Clear 27 1011 39 10000 2.1 30 20:45 21.10.2020
6487 Clear 28 1011 42 10000 1.5 90 20:18 21.10.2020
6488 Clear 28 1011 42 10000 1.5 90 19:44 21.10.2020
6489 Clear 28 1011 42 10000 1.5 90 19:26 21.10.2020
6490 Clear 29 1011 37 10000 2.1 50 18:54 21.10.2020
6491 Clear 30 1011 35 10000 3.6 40 18:32 21.10.2020
6492 Clear 30 1011 35 10000 3.6 40 17:54 21.10.2020
6493 Clear 31 1011 35 10000 3.6 40 17:36 21.10.2020
6494 Clear 32 1010 33 10000 3.1 20 17:18 21.10.2020
6495 Clear 32 1010 33 10000 3.1 20 16:40 21.10.2020
6496 Clear 32 1010 33 10000 3.1 20 16:21 21.10.2020
6497 Clear 34 1010 33 10000 3.6 10 15:48 21.10.2020
6498 Clear 34 1010 33 10000 3.6 10 15:28 21.10.2020
6499 Clear 34 1010 32 10000 6.2 320 14:57 21.10.2020
6500 Clear 34 1010 34 10000 6.7 330 14:38 21.10.2020
6501 Clear 34 1010 34 10000 6.7 330 14:19 21.10.2020
6502 Clear 34 1010 32 10000 6.7 330 13:42 21.10.2020
6503 Clear 34 1010 32 10000 6.7 330 13:21 21.10.2020
6504 Clear 34 1010 32 10000 6.7 330 12:41 21.10.2020
6505 Clear 37 1011 6 10000 2.1 320 12:21 21.10.2020
6506 Clear 37 1011 6 10000 2.1 320 11:48 21.10.2020
6507 Clear 36 1011 6 10000 2.1 320 11:22 21.10.2020
6508 Clear 35 1012 8 10000 1 0 10:59 21.10.2020
6509 Clear 35 1012 8 10000 1 0 10:40 21.10.2020
6510 Clear 34 1012 8 10000 1 0 10:21 21.10.2020
6511 Clear 33 1013 13 10000 1.5 150 09:44 21.10.2020
6512 Clear 32 1013 13 10000 1.5 150 09:25 21.10.2020
6513 Clear 31 1013 38 10000 1.5 90 08:40 21.10.2020
6514 Clear 31 1013 38 10000 1.5 90 08:22 21.10.2020
6515 Clear 27 1013 54 10000 2.1 130 07:55 21.10.2020
6516 Clear 27 1013 54 10000 2.1 130 07:20 21.10.2020
6517 Clear 24 1012 57 10000 1.5 130 06:37 21.10.2020
6518 Clear 21 1012 64 10000 1.5 130 06:19 21.10.2020
6519 Clear 22 1010 53 10000 1.5 110 03:35 21.10.2020
6520 Clear 24 1010 61 10000 1 90 00:26 21.10.2020
6521 Clear 24 1010 57 10000 2.1 110 23:31 20.10.2020
6522 Clear 26 1010 57 10000 2.1 80 22:41 20.10.2020
6523 Clear 25 1010 57 10000 2.1 80 22:23 20.10.2020
6524 Clear 26 1010 51 10000 2.1 50 21:47 20.10.2020
6525 Clear 27 1010 42 10000 2.1 100 21:19 20.10.2020
6526 Clear 28 1010 42 10000 2.1 100 20:43 20.10.2020
6527 Clear 28 1010 42 10000 2.1 100 20:24 20.10.2020
6528 Clear 29 1010 45 10000 2.1 50 19:46 20.10.2020
6529 Clear 29 1010 45 10000 2.1 50 19:22 20.10.2020
6530 Clear 29 1010 48 10000 3.6 30 18:59 20.10.2020
6531 Clear 29 1010 48 10000 3.6 30 18:59 20.10.2020
6532 Clear 29 1010 48 10000 3.6 30 18:38 20.10.2020
6533 Clear 31 1009 33 10000 3.6 20 17:57 20.10.2020
6534 Clear 31 1009 33 10000 3.6 20 17:37 20.10.2020
6535 Clear 31 1009 33 10000 3.6 20 17:18 20.10.2020
6536 Clear 32 1009 29 10000 4.1 20 16:41 20.10.2020
6537 Clear 32 1009 29 10000 4.1 20 16:23 20.10.2020
6538 Clear 34 1008 23 10000 4.6 10 15:47 20.10.2020
6539 Clear 34 1008 23 10000 4.6 10 15:28 20.10.2020
6540 Clear 34 1008 24 10000 4.6 360 14:46 20.10.2020
6541 Clear 35 1008 24 10000 4.6 360 14:25 20.10.2020
6542 Clear 36 1008 17 10000 4.6 10 13:59 20.10.2020
6543 Clear 36 1008 17 10000 4.6 10 13:40 20.10.2020
6544 Clear 36 1008 17 10000 4.6 10 13:20 20.10.2020
6545 Clear 36 1008 19 10000 4.1 10 12:50 20.10.2020
6546 Clear 34 1008 19 10000 4.1 10 12:30 20.10.2020
6547 Clear 34 1009 20 10000 4.1 10 11:47 20.10.2020
6548 Clear 34 1009 20 10000 4.1 10 11:28 20.10.2020
6549 Clear 34 1010 24 10000 3.6 10 10:46 20.10.2020
6550 Clear 33 1010 24 10000 3.6 10 10:25 20.10.2020
6551 Clear 32 1010 29 10000 3.1 30 09:44 20.10.2020
6552 Clear 32 1010 29 10000 3.1 30 09:44 20.10.2020
6553 Clear 31 1010 29 10000 3.1 30 09:20 20.10.2020
6554 Clear 30 1011 42 10000 3.1 50 08:40 20.10.2020
6555 Clear 29 1011 42 10000 3.1 50 08:19 20.10.2020
6556 Clear 28 1011 51 10000 1.5 70 07:44 20.10.2020
6557 Clear 25 1010 44 10000 1.5 110 07:21 20.10.2020
6558 Clear 25 1010 44 10000 1.5 110 06:20 20.10.2020
6559 Clear 24 1009 25 10000 1.5 90 04:27 20.10.2020
6560 Clear 24 1009 36 10000 2.6 130 02:30 20.10.2020
6561 Clear 26 1009 39 10000 0.5 0 01:22 20.10.2020
6562 Clear 26 1009 39 10000 1 160 00:51 20.10.2020
6563 Clear 26 1009 39 10000 1 160 00:26 20.10.2020
6564 Clear 26 1009 47 10000 1 210 23:51 19.10.2020
6565 Clear 27 1009 47 10000 1 210 23:26 19.10.2020
6566 Clear 27 1009 37 10000 1.5 100 22:54 19.10.2020
6567 Clear 25 1009 37 10000 1.5 100 22:26 19.10.2020
6568 Clear 26 1009 42 10000 1.5 30 21:55 19.10.2020
6569 Clear 27 1009 42 10000 1.5 30 21:37 19.10.2020
6570 Clear 27 1010 45 10000 2.1 60 21:18 19.10.2020
6571 Clear 27 1010 45 10000 2.1 60 20:42 19.10.2020
6572 Clear 27 1010 45 10000 2.1 60 20:24 19.10.2020
6573 Clear 28 1010 51 10000 3.1 80 19:45 19.10.2020
6574 Clear 28 1010 51 10000 3.1 80 19:19 19.10.2020
6575 Clear 29 1010 45 10000 3.6 50 18:50 19.10.2020
6576 Clear 29 1010 45 10000 3.6 50 18:24 19.10.2020
6577 Clear 31 1009 43 10000 4.1 30 17:47 19.10.2020
6578 Clear 31 1009 43 10000 4.1 30 17:27 19.10.2020
6579 Clear 32 1009 35 10000 3.6 30 16:54 19.10.2020
6580 Clear 33 1009 35 10000 3.6 30 16:29 19.10.2020
6581 Clear 32 1009 34 10000 4.92 359 15:48 19.10.2020
6582 Clear 32 1009 34 10000 4.92 359 15:26 19.10.2020
6583 Clear 32 1009 34 10000 4.92 359 14:58 19.10.2020
6584 Clear 32 1009 34 10000 5.36 359 14:38 19.10.2020
6585 Clear 32 1009 36 10000 6.07 352 14:19 19.10.2020
6586 Clear 35 1011 7 10000 2.24 60 13:42 19.10.2020
6587 Clear 35 1011 7 10000 2.24 60 13:22 19.10.2020
6588 Clear 35 1011 7 10000 2.24 60 12:45 19.10.2020
6589 Clear 35 1011 7 10000 2.24 60 12:25 19.10.2020
6590 Clear 35 1011 7 10000 2.24 60 11:49 19.10.2020
6591 Clear 35 1011 9 10000 3.6 80 11:22 19.10.2020
6592 Clear 35 1011 9 10000 3.6 80 10:45 19.10.2020
6593 Clear 33 1012 19 10000 2.6 60 10:24 19.10.2020
6594 Clear 33 1012 19 10000 2.6 60 09:57 19.10.2020
6595 Clear 31 1012 19 10000 2.6 60 09:36 19.10.2020
6596 Clear 31 1012 27 10000 3.1 50 09:18 19.10.2020
6597 Clear 30 1012 27 10000 3.1 50 08:41 19.10.2020
6598 Clear 30 1012 30 10000 1.5 70 08:20 19.10.2020
6599 Clear 26 1011 14 10000 2.27 37 07:21 19.10.2020
6600 Clear 26 1011 14 10000 2.27 37 06:40 19.10.2020
6601 Clear 22 1010 48 10000 1.5 120 05:20 19.10.2020
6602 Clear 22 1010 19 10000 1 130 03:45 19.10.2020
6603 Clear 24 1009 17 10000 1 0 01:42 19.10.2020
6604 Clear 24 1009 17 10000 0.5 0 00:38 19.10.2020
6605 Clear 25 1009 16 10000 1.5 80 23:56 18.10.2020
6606 Clear 25 1009 16 10000 1.5 80 23:37 18.10.2020
6607 Clear 25 1009 14 10000 1.5 100 23:18 18.10.2020
6608 Clear 25 1009 14 10000 1.5 100 23:18 18.10.2020
6609 Clear 27 1009 14 10000 1.5 100 22:43 18.10.2020
6610 Clear 27 1010 17 10000 1 70 22:18 18.10.2020
6611 Clear 27 1010 17 10000 1 70 21:41 18.10.2020
6612 Clear 28 1010 13 10000 2.1 80 21:21 18.10.2020
6613 Clear 29 1010 13 10000 2.1 80 20:44 18.10.2020
6614 Clear 29 1010 13 10000 2.1 80 20:24 18.10.2020
6615 Clear 30 1010 15 10000 2.1 80 19:50 18.10.2020
6616 Clear 30 1010 15 10000 2.1 80 19:27 18.10.2020
6617 Clear 31 1010 20 10000 3.1 60 18:51 18.10.2020
6618 Clear 31 1010 20 10000 3.1 60 18:30 18.10.2020
6619 Clear 32 1010 27 10000 4.6 40 17:59 18.10.2020
6620 Clear 32 1010 27 10000 4.6 40 17:41 18.10.2020
6621 Clear 32 1010 27 10000 4.6 40 17:41 18.10.2020
6622 Clear 32 1009 33 10000 5.1 20 17:21 18.10.2020
6623 Clear 33 1009 33 10000 5.1 20 16:42 18.10.2020
6624 Clear 33 1009 31 10000 5.7 20 16:23 18.10.2020
6625 Clear 33 1009 31 10000 5.7 20 15:43 18.10.2020
6626 Clear 34 1009 24 10000 5.7 10 15:19 18.10.2020
6627 Clear 34 1009 24 10000 5.7 10 14:57 18.10.2020
6628 Clear 34 1009 24 10000 5.7 10 14:31 18.10.2020
6629 Clear 35 1009 24 10000 5.1 360 13:59 18.10.2020
6630 Clear 35 1009 24 10000 5.1 360 13:40 18.10.2020
6631 Clear 35 1009 24 10000 5.1 360 13:22 18.10.2020
6632 Clear 36 1009 7 10000 3.6 60 12:43 18.10.2020
6633 Clear 37 1010 5 10000 3.6 90 12:23 18.10.2020
6634 Clear 36 1010 5 10000 3.6 90 11:43 18.10.2020
6635 Clear 35 1011 7 10000 4.1 70 11:23 18.10.2020
6636 Clear 35 1011 7 10000 4.1 70 10:46 18.10.2020
6637 Clear 34 1012 16 10000 3.1 70 10:22 18.10.2020
6638 Clear 34 1012 16 10000 3.1 70 10:00 18.10.2020
6639 Clear 34 1012 16 10000 3.1 70 09:41 18.10.2020
6640 Clear 32 1012 38 10000 3.6 60 09:20 18.10.2020
6641 Clear 31 1012 38 10000 3.6 60 08:44 18.10.2020
6642 Clear 30 1012 48 10000 2.1 100 08:25 18.10.2020
6643 Clear 29 1012 48 10000 2.1 100 07:48 18.10.2020
6644 Clear 23 1011 33 10000 1.5 130 05:36 18.10.2020
6645 Clear 24 1010 20 10000 2.1 140 03:39 18.10.2020
6646 Clear 25 1009 19 10000 3.1 130 02:51 18.10.2020
6647 Clear 25 1009 29 10000 1 0 01:25 18.10.2020
6648 Clear 26 1009 29 10000 1 0 00:36 18.10.2020
6649 Clear 26 1009 26 10000 1 120 23:59 17.10.2020
6650 Clear 26 1009 26 10000 1 120 23:40 17.10.2020
6651 Clear 27 1010 34 10000 1 0 23:21 17.10.2020
6652 Clear 27 1010 34 10000 1 0 22:55 17.10.2020
6653 Clear 28 1010 34 10000 1 0 22:22 17.10.2020
6654 Clear 28 1010 35 10000 1.5 40 21:59 17.10.2020
6655 Clear 29 1010 35 10000 1.5 40 21:40 17.10.2020
6656 Clear 28 1010 37 10000 1.5 80 21:20 17.10.2020
6657 Clear 29 1010 37 10000 1.5 80 20:44 17.10.2020
6658 Clear 30 1010 40 10000 2.6 80 20:19 17.10.2020
6659 Clear 29 1010 40 10000 2.6 80 19:43 17.10.2020
6660 Clear 30 1010 35 10000 3.6 50 19:21 17.10.2020
6661 Clear 30 1010 35 10000 3.6 50 18:45 17.10.2020
6662 Clear 30 1010 35 10000 3.6 50 18:26 17.10.2020
6663 Clear 31 1009 35 10000 4.6 30 17:50 17.10.2020
6664 Clear 31 1009 35 10000 4.6 30 17:24 17.10.2020
6665 Clear 32 1009 33 10000 5.1 30 16:51 17.10.2020
6666 Clear 34 1008 22 10000 5.7 10 16:25 17.10.2020
6667 Clear 34 1008 22 10000 5.7 10 15:59 17.10.2020
6668 Clear 34 1008 22 10000 5.7 10 15:41 17.10.2020
6669 Clear 35 1008 23 10000 5.7 20 15:21 17.10.2020
6670 Clear 35 1008 23 10000 5.7 20 14:55 17.10.2020
6671 Clear 35 1008 23 10000 5.7 20 14:37 17.10.2020
6672 Clear 35 1008 23 10000 5.7